<?xml version="1.0" encoding="UTF-8" standalone="no" ?>
<gpx xmlns="http://www.topografix.com/GPX/1/1" xmlns:xsi="http://www.w3.org/2001/XMLSchema-instance" xsi:schemaLocation="http://www.topografix.com/GPX/1/1 http://www.topografix.com/GPX/1/1/gpx.xsd" version="1.1" creator="VisuGPX - https://www.visugpx.com">
  <metadata>
    <name>reco du \&quot;mafate trail tour\&quot;</name>
    <desc><![CDATA[ J%u2019ai fait hier 10 octobre avec 3 dallons, la reco du mafate trail tour dans la journée.

Nous sommes parti de la rivière des galets à 03h55, la voiture garée dans la rue qui mène à la piste de la rivière des galets.

Ce tour a été effectué en mode rando, en prenant le temps de s%u2019arrêter et de parler avec les randonneurs rencontrés.

Nous étions de retour à la voiture à 22h07 après une sortie d%u2019après gps de 69 kms pour 3008 m de d , quelques points aberrants sur la trace gps lors des pertes de satellites mais cela ne change pas grand-chose, pour être sûr on peut enlever 1 km sur le total.

Notre sortie totale à durer 18h11 avec environ 53 minutes d%u2019arrêt.

La sortie se décompose comme suit :

Du départ aux orangers : 20 kms, 04h17, 924 d 

Des orangers à la nouvelle : 13 kms, 04h55, 1174 d 

De la nouvelle au scout : 8.8 kms, 02h24, 612 d 

Du scout a aurère : 9.6 kms, 02h41, 261 d 

De aurère à deux bras plage : 7.7 kms, 02h07,  37 d 

De deux bras à voiture : 9 kms, 01h45, 0 d 
]]></desc>
  </metadata>
  <trk>
    <name><![CDATA[reco mafate trail tour2_unified_unified]]></name>
    <trkseg>
      <trkpt lat="-20.96505" lon="55.32082">
        <ele>111.4</ele>
        <time>2013-10-09T23:55:56Z</time>
      </trkpt>
      <trkpt lat="-20.96505" lon="55.32082">
        <ele>111.5</ele>
        <time>2013-10-09T23:55:57Z</time>
      </trkpt>
      <trkpt lat="-20.96514" lon="55.32077">
        <ele>111.4</ele>
        <time>2013-10-09T23:59:14Z</time>
      </trkpt>
      <trkpt lat="-20.96522" lon="55.32073">
        <ele>111.1</ele>
        <time>2013-10-09T23:59:23Z</time>
      </trkpt>
      <trkpt lat="-20.9653" lon="55.32068">
        <ele>110.8</ele>
        <time>2013-10-09T23:59:31Z</time>
      </trkpt>
      <trkpt lat="-20.96539" lon="55.32064">
        <ele>111.7</ele>
        <time>2013-10-09T23:59:40Z</time>
      </trkpt>
      <trkpt lat="-20.96548" lon="55.3206">
        <ele>111.3</ele>
        <time>2013-10-09T23:59:48Z</time>
      </trkpt>
      <trkpt lat="-20.96557" lon="55.3206">
        <ele>111.1</ele>
        <time>2013-10-09T23:59:58Z</time>
      </trkpt>
      <trkpt lat="-20.96566" lon="55.32059">
        <ele>110.3</ele>
        <time>2013-10-10T00:00:29Z</time>
      </trkpt>
      <trkpt lat="-20.96574" lon="55.32066">
        <ele>111</ele>
        <time>2013-10-10T00:00:55Z</time>
      </trkpt>
      <trkpt lat="-20.9658" lon="55.32073">
        <ele>109.7</ele>
        <time>2013-10-10T00:01:03Z</time>
      </trkpt>
      <trkpt lat="-20.96586" lon="55.32081">
        <ele>109.1</ele>
        <time>2013-10-10T00:01:09Z</time>
      </trkpt>
      <trkpt lat="-20.96593" lon="55.3209">
        <ele>106.6</ele>
        <time>2013-10-10T00:01:16Z</time>
      </trkpt>
      <trkpt lat="-20.96598" lon="55.32099">
        <ele>105.1</ele>
        <time>2013-10-10T00:01:23Z</time>
      </trkpt>
      <trkpt lat="-20.96604" lon="55.32106">
        <ele>104.4</ele>
        <time>2013-10-10T00:01:29Z</time>
      </trkpt>
      <trkpt lat="-20.96611" lon="55.32113">
        <ele>104</ele>
        <time>2013-10-10T00:01:35Z</time>
      </trkpt>
      <trkpt lat="-20.9662" lon="55.32118">
        <ele>103.9</ele>
        <time>2013-10-10T00:01:42Z</time>
      </trkpt>
      <trkpt lat="-20.96628" lon="55.32123">
        <ele>103.4</ele>
        <time>2013-10-10T00:01:49Z</time>
      </trkpt>
      <trkpt lat="-20.96637" lon="55.32127">
        <ele>102.7</ele>
        <time>2013-10-10T00:01:55Z</time>
      </trkpt>
      <trkpt lat="-20.96645" lon="55.32132">
        <ele>103.4</ele>
        <time>2013-10-10T00:02:01Z</time>
      </trkpt>
      <trkpt lat="-20.96655" lon="55.32136">
        <ele>104</ele>
        <time>2013-10-10T00:02:08Z</time>
      </trkpt>
      <trkpt lat="-20.96663" lon="55.32141">
        <ele>103.6</ele>
        <time>2013-10-10T00:02:15Z</time>
      </trkpt>
      <trkpt lat="-20.96672" lon="55.32147">
        <ele>104.6</ele>
        <time>2013-10-10T00:02:22Z</time>
      </trkpt>
      <trkpt lat="-20.9668" lon="55.32154">
        <ele>103.9</ele>
        <time>2013-10-10T00:02:29Z</time>
      </trkpt>
      <trkpt lat="-20.96688" lon="55.32161">
        <ele>104.3</ele>
        <time>2013-10-10T00:02:36Z</time>
      </trkpt>
      <trkpt lat="-20.96695" lon="55.32168">
        <ele>105</ele>
        <time>2013-10-10T00:02:42Z</time>
      </trkpt>
      <trkpt lat="-20.96703" lon="55.32174">
        <ele>104.5</ele>
        <time>2013-10-10T00:02:48Z</time>
      </trkpt>
      <trkpt lat="-20.96705" lon="55.32184">
        <ele>104.7</ele>
        <time>2013-10-10T00:02:54Z</time>
      </trkpt>
      <trkpt lat="-20.96705" lon="55.32195">
        <ele>105.4</ele>
        <time>2013-10-10T00:03:02Z</time>
      </trkpt>
      <trkpt lat="-20.96704" lon="55.32205">
        <ele>105.8</ele>
        <time>2013-10-10T00:03:08Z</time>
      </trkpt>
      <trkpt lat="-20.96703" lon="55.32216">
        <ele>105.7</ele>
        <time>2013-10-10T00:03:15Z</time>
      </trkpt>
      <trkpt lat="-20.96702" lon="55.32226">
        <ele>105.8</ele>
        <time>2013-10-10T00:03:22Z</time>
      </trkpt>
      <trkpt lat="-20.96702" lon="55.32237">
        <ele>106</ele>
        <time>2013-10-10T00:03:29Z</time>
      </trkpt>
      <trkpt lat="-20.96706" lon="55.32246">
        <ele>106.7</ele>
        <time>2013-10-10T00:03:36Z</time>
      </trkpt>
      <trkpt lat="-20.96713" lon="55.32254">
        <ele>106.9</ele>
        <time>2013-10-10T00:03:43Z</time>
      </trkpt>
      <trkpt lat="-20.96728" lon="55.32268">
        <ele>107.1</ele>
        <time>2013-10-10T00:03:59Z</time>
      </trkpt>
      <trkpt lat="-20.96736" lon="55.32274">
        <ele>107.6</ele>
        <time>2013-10-10T00:04:06Z</time>
      </trkpt>
      <trkpt lat="-20.96744" lon="55.32281">
        <ele>107</ele>
        <time>2013-10-10T00:04:13Z</time>
      </trkpt>
      <trkpt lat="-20.96753" lon="55.32283">
        <ele>107.4</ele>
        <time>2013-10-10T00:04:19Z</time>
      </trkpt>
      <trkpt lat="-20.96763" lon="55.32283">
        <ele>108.2</ele>
        <time>2013-10-10T00:04:25Z</time>
      </trkpt>
      <trkpt lat="-20.96773" lon="55.32281">
        <ele>107.6</ele>
        <time>2013-10-10T00:04:31Z</time>
      </trkpt>
      <trkpt lat="-20.96782" lon="55.32277">
        <ele>108.1</ele>
        <time>2013-10-10T00:04:37Z</time>
      </trkpt>
      <trkpt lat="-20.96792" lon="55.32273">
        <ele>107.7</ele>
        <time>2013-10-10T00:04:44Z</time>
      </trkpt>
      <trkpt lat="-20.96811" lon="55.32266">
        <ele>107.6</ele>
        <time>2013-10-10T00:04:57Z</time>
      </trkpt>
      <trkpt lat="-20.9682" lon="55.32267">
        <ele>106.9</ele>
        <time>2013-10-10T00:05:04Z</time>
      </trkpt>
      <trkpt lat="-20.9683" lon="55.32269">
        <ele>107</ele>
        <time>2013-10-10T00:05:12Z</time>
      </trkpt>
      <trkpt lat="-20.9684" lon="55.3227">
        <ele>108</ele>
        <time>2013-10-10T00:05:19Z</time>
      </trkpt>
      <trkpt lat="-20.9685" lon="55.32272">
        <ele>107.8</ele>
        <time>2013-10-10T00:05:26Z</time>
      </trkpt>
      <trkpt lat="-20.96859" lon="55.32276">
        <ele>107.9</ele>
        <time>2013-10-10T00:05:33Z</time>
      </trkpt>
      <trkpt lat="-20.96869" lon="55.32279">
        <ele>107.4</ele>
        <time>2013-10-10T00:05:40Z</time>
      </trkpt>
      <trkpt lat="-20.96876" lon="55.32285">
        <ele>107.6</ele>
        <time>2013-10-10T00:05:47Z</time>
      </trkpt>
      <trkpt lat="-20.96881" lon="55.32303">
        <ele>108.7</ele>
        <time>2013-10-10T00:06:02Z</time>
      </trkpt>
      <trkpt lat="-20.96881" lon="55.32314">
        <ele>107.9</ele>
        <time>2013-10-10T00:06:09Z</time>
      </trkpt>
      <trkpt lat="-20.9688" lon="55.32324">
        <ele>108</ele>
        <time>2013-10-10T00:06:15Z</time>
      </trkpt>
      <trkpt lat="-20.96881" lon="55.32334">
        <ele>108.6</ele>
        <time>2013-10-10T00:06:22Z</time>
      </trkpt>
      <trkpt lat="-20.96881" lon="55.32345">
        <ele>108.9</ele>
        <time>2013-10-10T00:06:29Z</time>
      </trkpt>
      <trkpt lat="-20.96884" lon="55.32354">
        <ele>108.7</ele>
        <time>2013-10-10T00:06:36Z</time>
      </trkpt>
      <trkpt lat="-20.9689" lon="55.32363">
        <ele>109.8</ele>
        <time>2013-10-10T00:06:43Z</time>
      </trkpt>
      <trkpt lat="-20.96896" lon="55.3237">
        <ele>109.2</ele>
        <time>2013-10-10T00:06:50Z</time>
      </trkpt>
      <trkpt lat="-20.96908" lon="55.32386">
        <ele>110.3</ele>
        <time>2013-10-10T00:07:03Z</time>
      </trkpt>
      <trkpt lat="-20.96915" lon="55.32394">
        <ele>110.7</ele>
        <time>2013-10-10T00:07:09Z</time>
      </trkpt>
      <trkpt lat="-20.96921" lon="55.324">
        <ele>110.3</ele>
        <time>2013-10-10T00:07:15Z</time>
      </trkpt>
      <trkpt lat="-20.96928" lon="55.32407">
        <ele>110.5</ele>
        <time>2013-10-10T00:07:21Z</time>
      </trkpt>
      <trkpt lat="-20.96934" lon="55.32415">
        <ele>110.8</ele>
        <time>2013-10-10T00:07:27Z</time>
      </trkpt>
      <trkpt lat="-20.9694" lon="55.32424">
        <ele>110.1</ele>
        <time>2013-10-10T00:07:34Z</time>
      </trkpt>
      <trkpt lat="-20.96943" lon="55.32434">
        <ele>111.3</ele>
        <time>2013-10-10T00:07:41Z</time>
      </trkpt>
      <trkpt lat="-20.96945" lon="55.32444">
        <ele>110.9</ele>
        <time>2013-10-10T00:07:48Z</time>
      </trkpt>
      <trkpt lat="-20.96949" lon="55.32454">
        <ele>111.2</ele>
        <time>2013-10-10T00:07:55Z</time>
      </trkpt>
      <trkpt lat="-20.96959" lon="55.32471">
        <ele>111.2</ele>
        <time>2013-10-10T00:08:09Z</time>
      </trkpt>
      <trkpt lat="-20.96967" lon="55.32478">
        <ele>110.9</ele>
        <time>2013-10-10T00:08:16Z</time>
      </trkpt>
      <trkpt lat="-20.96975" lon="55.32484">
        <ele>110.5</ele>
        <time>2013-10-10T00:08:24Z</time>
      </trkpt>
      <trkpt lat="-20.96984" lon="55.32487">
        <ele>110.5</ele>
        <time>2013-10-10T00:08:38Z</time>
      </trkpt>
      <trkpt lat="-20.96993" lon="55.3249">
        <ele>109.4</ele>
        <time>2013-10-10T00:08:49Z</time>
      </trkpt>
      <trkpt lat="-20.96999" lon="55.32498">
        <ele>109.9</ele>
        <time>2013-10-10T00:08:59Z</time>
      </trkpt>
      <trkpt lat="-20.97013" lon="55.32513">
        <ele>111.2</ele>
        <time>2013-10-10T00:09:13Z</time>
      </trkpt>
      <trkpt lat="-20.97018" lon="55.32522">
        <ele>111.3</ele>
        <time>2013-10-10T00:09:20Z</time>
      </trkpt>
      <trkpt lat="-20.97022" lon="55.32532">
        <ele>111.4</ele>
        <time>2013-10-10T00:09:27Z</time>
      </trkpt>
      <trkpt lat="-20.97024" lon="55.32543">
        <ele>111.3</ele>
        <time>2013-10-10T00:09:34Z</time>
      </trkpt>
      <trkpt lat="-20.97027" lon="55.32552">
        <ele>111.3</ele>
        <time>2013-10-10T00:09:40Z</time>
      </trkpt>
      <trkpt lat="-20.97029" lon="55.32562">
        <ele>110.6</ele>
        <time>2013-10-10T00:09:47Z</time>
      </trkpt>
      <trkpt lat="-20.97031" lon="55.32572">
        <ele>110.3</ele>
        <time>2013-10-10T00:09:54Z</time>
      </trkpt>
      <trkpt lat="-20.97032" lon="55.32583">
        <ele>111.8</ele>
        <time>2013-10-10T00:10:02Z</time>
      </trkpt>
      <trkpt lat="-20.97036" lon="55.32604">
        <ele>113.3</ele>
        <time>2013-10-10T00:10:18Z</time>
      </trkpt>
      <trkpt lat="-20.97041" lon="55.32613">
        <ele>113.4</ele>
        <time>2013-10-10T00:10:26Z</time>
      </trkpt>
      <trkpt lat="-20.97045" lon="55.32622">
        <ele>113.6</ele>
        <time>2013-10-10T00:10:34Z</time>
      </trkpt>
      <trkpt lat="-20.97051" lon="55.32629">
        <ele>114.3</ele>
        <time>2013-10-10T00:10:42Z</time>
      </trkpt>
      <trkpt lat="-20.97057" lon="55.32638">
        <ele>113.1</ele>
        <time>2013-10-10T00:10:58Z</time>
      </trkpt>
      <trkpt lat="-20.97066" lon="55.32641">
        <ele>113.1</ele>
        <time>2013-10-10T00:11:20Z</time>
      </trkpt>
      <trkpt lat="-20.97084" lon="55.32641">
        <ele>112.1</ele>
        <time>2013-10-10T00:11:49Z</time>
      </trkpt>
      <trkpt lat="-20.97093" lon="55.32638">
        <ele>113.4</ele>
        <time>2013-10-10T00:12:00Z</time>
      </trkpt>
      <trkpt lat="-20.97102" lon="55.32636">
        <ele>114.5</ele>
        <time>2013-10-10T00:12:16Z</time>
      </trkpt>
      <trkpt lat="-20.97111" lon="55.32636">
        <ele>114.9</ele>
        <time>2013-10-10T00:12:28Z</time>
      </trkpt>
      <trkpt lat="-20.97131" lon="55.32632">
        <ele>116</ele>
        <time>2013-10-10T00:13:00Z</time>
      </trkpt>
      <trkpt lat="-20.9714" lon="55.32634">
        <ele>116.1</ele>
        <time>2013-10-10T00:13:10Z</time>
      </trkpt>
      <trkpt lat="-20.9715" lon="55.32634">
        <ele>116.1</ele>
        <time>2013-10-10T00:13:20Z</time>
      </trkpt>
      <trkpt lat="-20.97158" lon="55.3263">
        <ele>116.5</ele>
        <time>2013-10-10T00:13:29Z</time>
      </trkpt>
      <trkpt lat="-20.97174" lon="55.32635">
        <ele>116.3</ele>
        <time>2013-10-10T00:13:54Z</time>
      </trkpt>
      <trkpt lat="-20.97176" lon="55.32645">
        <ele>116.7</ele>
        <time>2013-10-10T00:14:09Z</time>
      </trkpt>
      <trkpt lat="-20.97176" lon="55.32655">
        <ele>116.9</ele>
        <time>2013-10-10T00:14:27Z</time>
      </trkpt>
      <trkpt lat="-20.97178" lon="55.32664">
        <ele>116.4</ele>
        <time>2013-10-10T00:14:40Z</time>
      </trkpt>
      <trkpt lat="-20.97185" lon="55.32683">
        <ele>116.8</ele>
        <time>2013-10-10T00:15:28Z</time>
      </trkpt>
      <trkpt lat="-20.97187" lon="55.32692">
        <ele>116.7</ele>
        <time>2013-10-10T00:15:38Z</time>
      </trkpt>
      <trkpt lat="-20.97194" lon="55.327">
        <ele>118.4</ele>
        <time>2013-10-10T00:15:56Z</time>
      </trkpt>
      <trkpt lat="-20.97206" lon="55.32715">
        <ele>121.7</ele>
        <time>2013-10-10T00:16:27Z</time>
      </trkpt>
      <trkpt lat="-20.9721" lon="55.32724">
        <ele>120.6</ele>
        <time>2013-10-10T00:16:40Z</time>
      </trkpt>
      <trkpt lat="-20.97209" lon="55.32735">
        <ele>120.8</ele>
        <time>2013-10-10T00:16:48Z</time>
      </trkpt>
      <trkpt lat="-20.97206" lon="55.32746">
        <ele>121.1</ele>
        <time>2013-10-10T00:16:56Z</time>
      </trkpt>
      <trkpt lat="-20.97204" lon="55.32755">
        <ele>121.9</ele>
        <time>2013-10-10T00:17:03Z</time>
      </trkpt>
      <trkpt lat="-20.972" lon="55.32776">
        <ele>122.3</ele>
        <time>2013-10-10T00:17:23Z</time>
      </trkpt>
      <trkpt lat="-20.97198" lon="55.32786">
        <ele>123.2</ele>
        <time>2013-10-10T00:17:31Z</time>
      </trkpt>
      <trkpt lat="-20.972" lon="55.32776">
        <ele>121.9</ele>
        <time>2013-10-10T00:17:56Z</time>
      </trkpt>
      <trkpt lat="-20.97203" lon="55.32766">
        <ele>122.2</ele>
        <time>2013-10-10T00:18:03Z</time>
      </trkpt>
      <trkpt lat="-20.97206" lon="55.32756">
        <ele>122.2</ele>
        <time>2013-10-10T00:18:11Z</time>
      </trkpt>
      <trkpt lat="-20.97211" lon="55.32736">
        <ele>121</ele>
        <time>2013-10-10T00:18:27Z</time>
      </trkpt>
      <trkpt lat="-20.97218" lon="55.32742">
        <ele>120.9</ele>
        <time>2013-10-10T00:18:45Z</time>
      </trkpt>
      <trkpt lat="-20.97221" lon="55.32751">
        <ele>121.2</ele>
        <time>2013-10-10T00:18:53Z</time>
      </trkpt>
      <trkpt lat="-20.97225" lon="55.32761">
        <ele>120.9</ele>
        <time>2013-10-10T00:19:01Z</time>
      </trkpt>
      <trkpt lat="-20.9723" lon="55.3277">
        <ele>121.6</ele>
        <time>2013-10-10T00:19:09Z</time>
      </trkpt>
      <trkpt lat="-20.97234" lon="55.3278">
        <ele>122.3</ele>
        <time>2013-10-10T00:19:17Z</time>
      </trkpt>
      <trkpt lat="-20.97236" lon="55.32801">
        <ele>122.6</ele>
        <time>2013-10-10T00:19:32Z</time>
      </trkpt>
      <trkpt lat="-20.97238" lon="55.32811">
        <ele>122.8</ele>
        <time>2013-10-10T00:19:39Z</time>
      </trkpt>
      <trkpt lat="-20.97239" lon="55.32821">
        <ele>122.8</ele>
        <time>2013-10-10T00:19:46Z</time>
      </trkpt>
      <trkpt lat="-20.97241" lon="55.32832">
        <ele>123</ele>
        <time>2013-10-10T00:19:53Z</time>
      </trkpt>
      <trkpt lat="-20.97243" lon="55.32842">
        <ele>122.6</ele>
        <time>2013-10-10T00:20:01Z</time>
      </trkpt>
      <trkpt lat="-20.97242" lon="55.32852">
        <ele>124.2</ele>
        <time>2013-10-10T00:20:12Z</time>
      </trkpt>
      <trkpt lat="-20.97243" lon="55.32862">
        <ele>124.1</ele>
        <time>2013-10-10T00:20:20Z</time>
      </trkpt>
      <trkpt lat="-20.97246" lon="55.32843">
        <ele>123.9</ele>
        <time>2013-10-10T00:20:56Z</time>
      </trkpt>
      <trkpt lat="-20.97246" lon="55.32832">
        <ele>123.2</ele>
        <time>2013-10-10T00:21:04Z</time>
      </trkpt>
      <trkpt lat="-20.97244" lon="55.32822">
        <ele>123.9</ele>
        <time>2013-10-10T00:21:14Z</time>
      </trkpt>
      <trkpt lat="-20.97243" lon="55.32811">
        <ele>122.9</ele>
        <time>2013-10-10T00:21:23Z</time>
      </trkpt>
      <trkpt lat="-20.97242" lon="55.32791">
        <ele>122.6</ele>
        <time>2013-10-10T00:21:42Z</time>
      </trkpt>
      <trkpt lat="-20.97248" lon="55.32785">
        <ele>125.7</ele>
        <time>2013-10-10T00:21:58Z</time>
      </trkpt>
      <trkpt lat="-20.97256" lon="55.3278">
        <ele>129.6</ele>
        <time>2013-10-10T00:22:51Z</time>
      </trkpt>
      <trkpt lat="-20.9725" lon="55.3276">
        <ele>128.6</ele>
        <time>2013-10-10T00:23:46Z</time>
      </trkpt>
      <trkpt lat="-20.97244" lon="55.32752">
        <ele>129.2</ele>
        <time>2013-10-10T00:24:07Z</time>
      </trkpt>
      <trkpt lat="-20.97243" lon="55.32731">
        <ele>128.4</ele>
        <time>2013-10-10T00:24:25Z</time>
      </trkpt>
      <trkpt lat="-20.9724" lon="55.32721">
        <ele>128.6</ele>
        <time>2013-10-10T00:24:37Z</time>
      </trkpt>
      <trkpt lat="-20.97232" lon="55.32716">
        <ele>128.9</ele>
        <time>2013-10-10T00:24:56Z</time>
      </trkpt>
      <trkpt lat="-20.97235" lon="55.32726">
        <ele>128.7</ele>
        <time>2013-10-10T00:25:09Z</time>
      </trkpt>
      <trkpt lat="-20.97241" lon="55.32745">
        <ele>128.6</ele>
        <time>2013-10-10T00:25:24Z</time>
      </trkpt>
      <trkpt lat="-20.97242" lon="55.32755">
        <ele>128.8</ele>
        <time>2013-10-10T00:25:32Z</time>
      </trkpt>
      <trkpt lat="-20.97247" lon="55.32765">
        <ele>128.5</ele>
        <time>2013-10-10T00:25:40Z</time>
      </trkpt>
      <trkpt lat="-20.97248" lon="55.32775">
        <ele>129</ele>
        <time>2013-10-10T00:25:56Z</time>
      </trkpt>
      <trkpt lat="-20.97246" lon="55.32785">
        <ele>127.2</ele>
        <time>2013-10-10T00:26:15Z</time>
      </trkpt>
      <trkpt lat="-20.97234" lon="55.32779">
        <ele>122.8</ele>
        <time>2013-10-10T00:26:37Z</time>
      </trkpt>
      <trkpt lat="-20.97231" lon="55.32769">
        <ele>122.1</ele>
        <time>2013-10-10T00:26:44Z</time>
      </trkpt>
      <trkpt lat="-20.97228" lon="55.32758">
        <ele>121.6</ele>
        <time>2013-10-10T00:26:51Z</time>
      </trkpt>
      <trkpt lat="-20.97225" lon="55.32748">
        <ele>120.9</ele>
        <time>2013-10-10T00:26:58Z</time>
      </trkpt>
      <trkpt lat="-20.9722" lon="55.32738">
        <ele>120.7</ele>
        <time>2013-10-10T00:27:04Z</time>
      </trkpt>
      <trkpt lat="-20.97214" lon="55.32731">
        <ele>121</ele>
        <time>2013-10-10T00:27:11Z</time>
      </trkpt>
      <trkpt lat="-20.97213" lon="55.3272">
        <ele>120.1</ele>
        <time>2013-10-10T00:27:17Z</time>
      </trkpt>
      <trkpt lat="-20.97211" lon="55.327">
        <ele>121.8</ele>
        <time>2013-10-10T00:27:30Z</time>
      </trkpt>
      <trkpt lat="-20.97209" lon="55.32689">
        <ele>122.1</ele>
        <time>2013-10-10T00:27:37Z</time>
      </trkpt>
      <trkpt lat="-20.97206" lon="55.3268">
        <ele>123.5</ele>
        <time>2013-10-10T00:27:44Z</time>
      </trkpt>
      <trkpt lat="-20.97203" lon="55.3267">
        <ele>124.8</ele>
        <time>2013-10-10T00:27:51Z</time>
      </trkpt>
      <trkpt lat="-20.972" lon="55.32661">
        <ele>125.4</ele>
        <time>2013-10-10T00:27:58Z</time>
      </trkpt>
      <trkpt lat="-20.97199" lon="55.3265">
        <ele>126.7</ele>
        <time>2013-10-10T00:28:06Z</time>
      </trkpt>
      <trkpt lat="-20.97202" lon="55.32641">
        <ele>127.2</ele>
        <time>2013-10-10T00:28:12Z</time>
      </trkpt>
      <trkpt lat="-20.97205" lon="55.32631">
        <ele>127.5</ele>
        <time>2013-10-10T00:28:19Z</time>
      </trkpt>
      <trkpt lat="-20.97215" lon="55.32614">
        <ele>126.4</ele>
        <time>2013-10-10T00:28:33Z</time>
      </trkpt>
      <trkpt lat="-20.97219" lon="55.32604">
        <ele>126.9</ele>
        <time>2013-10-10T00:28:40Z</time>
      </trkpt>
      <trkpt lat="-20.97222" lon="55.32594">
        <ele>125.7</ele>
        <time>2013-10-10T00:28:47Z</time>
      </trkpt>
      <trkpt lat="-20.97226" lon="55.32585">
        <ele>125.6</ele>
        <time>2013-10-10T00:28:54Z</time>
      </trkpt>
      <trkpt lat="-20.9723" lon="55.32575">
        <ele>125.5</ele>
        <time>2013-10-10T00:29:00Z</time>
      </trkpt>
      <trkpt lat="-20.97234" lon="55.32566">
        <ele>126</ele>
        <time>2013-10-10T00:29:07Z</time>
      </trkpt>
      <trkpt lat="-20.97242" lon="55.32561">
        <ele>127.4</ele>
        <time>2013-10-10T00:29:31Z</time>
      </trkpt>
      <trkpt lat="-20.97257" lon="55.32574">
        <ele>127.6</ele>
        <time>2013-10-10T00:29:48Z</time>
      </trkpt>
      <trkpt lat="-20.97264" lon="55.32582">
        <ele>127.5</ele>
        <time>2013-10-10T00:29:55Z</time>
      </trkpt>
      <trkpt lat="-20.9727" lon="55.3259">
        <ele>129.1</ele>
        <time>2013-10-10T00:30:02Z</time>
      </trkpt>
      <trkpt lat="-20.97275" lon="55.32598">
        <ele>129.7</ele>
        <time>2013-10-10T00:30:09Z</time>
      </trkpt>
      <trkpt lat="-20.97283" lon="55.32605">
        <ele>128.7</ele>
        <time>2013-10-10T00:30:17Z</time>
      </trkpt>
      <trkpt lat="-20.97288" lon="55.32614">
        <ele>131.3</ele>
        <time>2013-10-10T00:30:24Z</time>
      </trkpt>
      <trkpt lat="-20.97292" lon="55.32623">
        <ele>130.5</ele>
        <time>2013-10-10T00:30:31Z</time>
      </trkpt>
      <trkpt lat="-20.97293" lon="55.32634">
        <ele>131.7</ele>
        <time>2013-10-10T00:30:38Z</time>
      </trkpt>
      <trkpt lat="-20.97294" lon="55.32653">
        <ele>133.6</ele>
        <time>2013-10-10T00:30:50Z</time>
      </trkpt>
      <trkpt lat="-20.97294" lon="55.32664">
        <ele>133.4</ele>
        <time>2013-10-10T00:30:56Z</time>
      </trkpt>
      <trkpt lat="-20.97297" lon="55.32673">
        <ele>133.9</ele>
        <time>2013-10-10T00:31:03Z</time>
      </trkpt>
      <trkpt lat="-20.973" lon="55.32683">
        <ele>134.1</ele>
        <time>2013-10-10T00:31:10Z</time>
      </trkpt>
      <trkpt lat="-20.97304" lon="55.32693">
        <ele>133.8</ele>
        <time>2013-10-10T00:31:17Z</time>
      </trkpt>
      <trkpt lat="-20.9731" lon="55.32702">
        <ele>134.9</ele>
        <time>2013-10-10T00:31:24Z</time>
      </trkpt>
      <trkpt lat="-20.97315" lon="55.32711">
        <ele>135.9</ele>
        <time>2013-10-10T00:31:31Z</time>
      </trkpt>
      <trkpt lat="-20.97321" lon="55.32719">
        <ele>135.5</ele>
        <time>2013-10-10T00:31:38Z</time>
      </trkpt>
      <trkpt lat="-20.97327" lon="55.32727">
        <ele>135.1</ele>
        <time>2013-10-10T00:31:45Z</time>
      </trkpt>
      <trkpt lat="-20.97338" lon="55.32745">
        <ele>135.8</ele>
        <time>2013-10-10T00:31:58Z</time>
      </trkpt>
      <trkpt lat="-20.97341" lon="55.32756">
        <ele>136.4</ele>
        <time>2013-10-10T00:32:06Z</time>
      </trkpt>
      <trkpt lat="-20.97344" lon="55.32765">
        <ele>137.5</ele>
        <time>2013-10-10T00:32:12Z</time>
      </trkpt>
      <trkpt lat="-20.97347" lon="55.32775">
        <ele>138.3</ele>
        <time>2013-10-10T00:32:19Z</time>
      </trkpt>
      <trkpt lat="-20.9735" lon="55.32786">
        <ele>138.3</ele>
        <time>2013-10-10T00:32:27Z</time>
      </trkpt>
      <trkpt lat="-20.97352" lon="55.32796">
        <ele>138.2</ele>
        <time>2013-10-10T00:32:33Z</time>
      </trkpt>
      <trkpt lat="-20.97353" lon="55.32806">
        <ele>138.7</ele>
        <time>2013-10-10T00:32:40Z</time>
      </trkpt>
      <trkpt lat="-20.97352" lon="55.32816">
        <ele>139.3</ele>
        <time>2013-10-10T00:32:47Z</time>
      </trkpt>
      <trkpt lat="-20.97347" lon="55.32836">
        <ele>139.1</ele>
        <time>2013-10-10T00:33:00Z</time>
      </trkpt>
      <trkpt lat="-20.97345" lon="55.32846">
        <ele>140.5</ele>
        <time>2013-10-10T00:33:07Z</time>
      </trkpt>
      <trkpt lat="-20.97343" lon="55.32856">
        <ele>141.1</ele>
        <time>2013-10-10T00:33:13Z</time>
      </trkpt>
      <trkpt lat="-20.97342" lon="55.32867">
        <ele>141</ele>
        <time>2013-10-10T00:33:20Z</time>
      </trkpt>
      <trkpt lat="-20.97339" lon="55.32877">
        <ele>142.6</ele>
        <time>2013-10-10T00:33:27Z</time>
      </trkpt>
      <trkpt lat="-20.97336" lon="55.32887">
        <ele>143.3</ele>
        <time>2013-10-10T00:33:34Z</time>
      </trkpt>
      <trkpt lat="-20.97334" lon="55.32897">
        <ele>144.9</ele>
        <time>2013-10-10T00:33:41Z</time>
      </trkpt>
      <trkpt lat="-20.97333" lon="55.32907">
        <ele>145.4</ele>
        <time>2013-10-10T00:33:48Z</time>
      </trkpt>
      <trkpt lat="-20.9733" lon="55.32928">
        <ele>147.2</ele>
        <time>2013-10-10T00:34:02Z</time>
      </trkpt>
      <trkpt lat="-20.97326" lon="55.32937">
        <ele>147.6</ele>
        <time>2013-10-10T00:34:09Z</time>
      </trkpt>
      <trkpt lat="-20.97324" lon="55.32948">
        <ele>148.4</ele>
        <time>2013-10-10T00:34:17Z</time>
      </trkpt>
      <trkpt lat="-20.97321" lon="55.32957">
        <ele>149.5</ele>
        <time>2013-10-10T00:34:24Z</time>
      </trkpt>
      <trkpt lat="-20.97321" lon="55.32966">
        <ele>151.7</ele>
        <time>2013-10-10T00:34:34Z</time>
      </trkpt>
      <trkpt lat="-20.97316" lon="55.32975">
        <ele>152.9</ele>
        <time>2013-10-10T00:34:48Z</time>
      </trkpt>
      <trkpt lat="-20.97311" lon="55.32984">
        <ele>154.3</ele>
        <time>2013-10-10T00:34:57Z</time>
      </trkpt>
      <trkpt lat="-20.97315" lon="55.32997">
        <ele>159.4</ele>
        <time>2013-10-10T00:35:20Z</time>
      </trkpt>
      <trkpt lat="-20.97324" lon="55.32994">
        <ele>162.2</ele>
        <time>2013-10-10T00:35:30Z</time>
      </trkpt>
      <trkpt lat="-20.97333" lon="55.32992">
        <ele>163.8</ele>
        <time>2013-10-10T00:35:40Z</time>
      </trkpt>
      <trkpt lat="-20.97342" lon="55.32991">
        <ele>167.3</ele>
        <time>2013-10-10T00:35:57Z</time>
      </trkpt>
      <trkpt lat="-20.97351" lon="55.32991">
        <ele>171.6</ele>
        <time>2013-10-10T00:36:11Z</time>
      </trkpt>
      <trkpt lat="-20.9737" lon="55.32988">
        <ele>182.5</ele>
        <time>2013-10-10T00:36:53Z</time>
      </trkpt>
      <trkpt lat="-20.97375" lon="55.32996">
        <ele>188.9</ele>
        <time>2013-10-10T00:37:15Z</time>
      </trkpt>
      <trkpt lat="-20.97393" lon="55.32996">
        <ele>194</ele>
        <time>2013-10-10T00:37:50Z</time>
      </trkpt>
      <trkpt lat="-20.974" lon="55.33003">
        <ele>194.3</ele>
        <time>2013-10-10T00:37:59Z</time>
      </trkpt>
      <trkpt lat="-20.97409" lon="55.33006">
        <ele>194.3</ele>
        <time>2013-10-10T00:38:06Z</time>
      </trkpt>
      <trkpt lat="-20.97418" lon="55.33009">
        <ele>194.4</ele>
        <time>2013-10-10T00:38:13Z</time>
      </trkpt>
      <trkpt lat="-20.97428" lon="55.33013">
        <ele>193.9</ele>
        <time>2013-10-10T00:38:20Z</time>
      </trkpt>
      <trkpt lat="-20.97443" lon="55.33024">
        <ele>193.3</ele>
        <time>2013-10-10T00:38:34Z</time>
      </trkpt>
      <trkpt lat="-20.9745" lon="55.33032">
        <ele>194.2</ele>
        <time>2013-10-10T00:38:43Z</time>
      </trkpt>
      <trkpt lat="-20.97455" lon="55.3304">
        <ele>194.2</ele>
        <time>2013-10-10T00:38:50Z</time>
      </trkpt>
      <trkpt lat="-20.97462" lon="55.33048">
        <ele>194.1</ele>
        <time>2013-10-10T00:38:59Z</time>
      </trkpt>
      <trkpt lat="-20.97472" lon="55.3305">
        <ele>195</ele>
        <time>2013-10-10T00:39:07Z</time>
      </trkpt>
      <trkpt lat="-20.97479" lon="55.33057">
        <ele>196.3</ele>
        <time>2013-10-10T00:39:16Z</time>
      </trkpt>
      <trkpt lat="-20.97476" lon="55.33067">
        <ele>197</ele>
        <time>2013-10-10T00:39:24Z</time>
      </trkpt>
      <trkpt lat="-20.97478" lon="55.33088">
        <ele>198.2</ele>
        <time>2013-10-10T00:39:38Z</time>
      </trkpt>
      <trkpt lat="-20.97481" lon="55.33098">
        <ele>198.6</ele>
        <time>2013-10-10T00:39:45Z</time>
      </trkpt>
      <trkpt lat="-20.97483" lon="55.33108">
        <ele>199</ele>
        <time>2013-10-10T00:39:51Z</time>
      </trkpt>
      <trkpt lat="-20.97489" lon="55.33117">
        <ele>200.3</ele>
        <time>2013-10-10T00:39:57Z</time>
      </trkpt>
      <trkpt lat="-20.97496" lon="55.33125">
        <ele>201</ele>
        <time>2013-10-10T00:40:03Z</time>
      </trkpt>
      <trkpt lat="-20.97505" lon="55.3313">
        <ele>200.3</ele>
        <time>2013-10-10T00:40:09Z</time>
      </trkpt>
      <trkpt lat="-20.97514" lon="55.33135">
        <ele>201.8</ele>
        <time>2013-10-10T00:40:15Z</time>
      </trkpt>
      <trkpt lat="-20.97521" lon="55.3314">
        <ele>202</ele>
        <time>2013-10-10T00:40:22Z</time>
      </trkpt>
      <trkpt lat="-20.97529" lon="55.33145">
        <ele>202.7</ele>
        <time>2013-10-10T00:40:28Z</time>
      </trkpt>
      <trkpt lat="-20.97546" lon="55.33156">
        <ele>204.9</ele>
        <time>2013-10-10T00:40:41Z</time>
      </trkpt>
      <trkpt lat="-20.97555" lon="55.33161">
        <ele>205.2</ele>
        <time>2013-10-10T00:40:47Z</time>
      </trkpt>
      <trkpt lat="-20.97562" lon="55.33168">
        <ele>206.3</ele>
        <time>2013-10-10T00:40:55Z</time>
      </trkpt>
      <trkpt lat="-20.97563" lon="55.33179">
        <ele>207.1</ele>
        <time>2013-10-10T00:41:03Z</time>
      </trkpt>
      <trkpt lat="-20.97561" lon="55.33188">
        <ele>207.7</ele>
        <time>2013-10-10T00:41:10Z</time>
      </trkpt>
      <trkpt lat="-20.97557" lon="55.33198">
        <ele>208.2</ele>
        <time>2013-10-10T00:41:17Z</time>
      </trkpt>
      <trkpt lat="-20.97556" lon="55.33208">
        <ele>209.2</ele>
        <time>2013-10-10T00:41:24Z</time>
      </trkpt>
      <trkpt lat="-20.97557" lon="55.33218">
        <ele>210.1</ele>
        <time>2013-10-10T00:41:30Z</time>
      </trkpt>
      <trkpt lat="-20.97575" lon="55.33226">
        <ele>211.1</ele>
        <time>2013-10-10T00:41:42Z</time>
      </trkpt>
      <trkpt lat="-20.97585" lon="55.33227">
        <ele>213.1</ele>
        <time>2013-10-10T00:41:48Z</time>
      </trkpt>
      <trkpt lat="-20.97594" lon="55.33228">
        <ele>213.7</ele>
        <time>2013-10-10T00:41:54Z</time>
      </trkpt>
      <trkpt lat="-20.97602" lon="55.33235">
        <ele>214.5</ele>
        <time>2013-10-10T00:42:01Z</time>
      </trkpt>
      <trkpt lat="-20.9761" lon="55.33241">
        <ele>214.4</ele>
        <time>2013-10-10T00:42:07Z</time>
      </trkpt>
      <trkpt lat="-20.97618" lon="55.33247">
        <ele>216.3</ele>
        <time>2013-10-10T00:42:13Z</time>
      </trkpt>
      <trkpt lat="-20.97622" lon="55.33256">
        <ele>216.5</ele>
        <time>2013-10-10T00:42:19Z</time>
      </trkpt>
      <trkpt lat="-20.97626" lon="55.33266">
        <ele>217.4</ele>
        <time>2013-10-10T00:42:27Z</time>
      </trkpt>
      <trkpt lat="-20.97631" lon="55.33275">
        <ele>218.3</ele>
        <time>2013-10-10T00:42:34Z</time>
      </trkpt>
      <trkpt lat="-20.97636" lon="55.33295">
        <ele>220.5</ele>
        <time>2013-10-10T00:42:47Z</time>
      </trkpt>
      <trkpt lat="-20.9764" lon="55.33306">
        <ele>220.7</ele>
        <time>2013-10-10T00:42:54Z</time>
      </trkpt>
      <trkpt lat="-20.97638" lon="55.33316">
        <ele>222.1</ele>
        <time>2013-10-10T00:43:01Z</time>
      </trkpt>
      <trkpt lat="-20.97642" lon="55.33326">
        <ele>222.9</ele>
        <time>2013-10-10T00:43:08Z</time>
      </trkpt>
      <trkpt lat="-20.97645" lon="55.33336">
        <ele>223.3</ele>
        <time>2013-10-10T00:43:15Z</time>
      </trkpt>
      <trkpt lat="-20.97649" lon="55.33346">
        <ele>224.6</ele>
        <time>2013-10-10T00:43:22Z</time>
      </trkpt>
      <trkpt lat="-20.97651" lon="55.33356">
        <ele>225.3</ele>
        <time>2013-10-10T00:43:28Z</time>
      </trkpt>
      <trkpt lat="-20.97654" lon="55.33366">
        <ele>226.3</ele>
        <time>2013-10-10T00:43:34Z</time>
      </trkpt>
      <trkpt lat="-20.97658" lon="55.33375">
        <ele>226.5</ele>
        <time>2013-10-10T00:43:40Z</time>
      </trkpt>
      <trkpt lat="-20.97669" lon="55.33392">
        <ele>228.5</ele>
        <time>2013-10-10T00:43:55Z</time>
      </trkpt>
      <trkpt lat="-20.97675" lon="55.334">
        <ele>229.3</ele>
        <time>2013-10-10T00:44:02Z</time>
      </trkpt>
      <trkpt lat="-20.97682" lon="55.33406">
        <ele>230.6</ele>
        <time>2013-10-10T00:44:09Z</time>
      </trkpt>
      <trkpt lat="-20.97691" lon="55.33409">
        <ele>231.8</ele>
        <time>2013-10-10T00:45:08Z</time>
      </trkpt>
      <trkpt lat="-20.97701" lon="55.33428">
        <ele>234.6</ele>
        <time>2013-10-10T00:45:21Z</time>
      </trkpt>
      <trkpt lat="-20.97706" lon="55.33436">
        <ele>235.8</ele>
        <time>2013-10-10T00:45:27Z</time>
      </trkpt>
      <trkpt lat="-20.97711" lon="55.33446">
        <ele>237.5</ele>
        <time>2013-10-10T00:45:34Z</time>
      </trkpt>
      <trkpt lat="-20.97714" lon="55.33456">
        <ele>239.1</ele>
        <time>2013-10-10T00:45:41Z</time>
      </trkpt>
      <trkpt lat="-20.97719" lon="55.33465">
        <ele>240.9</ele>
        <time>2013-10-10T00:45:48Z</time>
      </trkpt>
      <trkpt lat="-20.97722" lon="55.33475">
        <ele>242.6</ele>
        <time>2013-10-10T00:45:55Z</time>
      </trkpt>
      <trkpt lat="-20.97726" lon="55.33484">
        <ele>244.3</ele>
        <time>2013-10-10T00:46:02Z</time>
      </trkpt>
      <trkpt lat="-20.97734" lon="55.33491">
        <ele>245.4</ele>
        <time>2013-10-10T00:46:09Z</time>
      </trkpt>
      <trkpt lat="-20.97753" lon="55.33493">
        <ele>248</ele>
        <time>2013-10-10T00:46:22Z</time>
      </trkpt>
      <trkpt lat="-20.97763" lon="55.33493">
        <ele>247.7</ele>
        <time>2013-10-10T00:46:28Z</time>
      </trkpt>
      <trkpt lat="-20.97772" lon="55.33492">
        <ele>249.1</ele>
        <time>2013-10-10T00:46:34Z</time>
      </trkpt>
      <trkpt lat="-20.97781" lon="55.3349">
        <ele>249.4</ele>
        <time>2013-10-10T00:46:40Z</time>
      </trkpt>
      <trkpt lat="-20.97789" lon="55.33487">
        <ele>250.3</ele>
        <time>2013-10-10T00:46:46Z</time>
      </trkpt>
      <trkpt lat="-20.97798" lon="55.33484">
        <ele>251.4</ele>
        <time>2013-10-10T00:46:52Z</time>
      </trkpt>
      <trkpt lat="-20.97807" lon="55.33483">
        <ele>252.5</ele>
        <time>2013-10-10T00:46:58Z</time>
      </trkpt>
      <trkpt lat="-20.97817" lon="55.33481">
        <ele>253.5</ele>
        <time>2013-10-10T00:47:05Z</time>
      </trkpt>
      <trkpt lat="-20.97826" lon="55.33482">
        <ele>254.8</ele>
        <time>2013-10-10T00:47:11Z</time>
      </trkpt>
      <trkpt lat="-20.97843" lon="55.33493">
        <ele>257.3</ele>
        <time>2013-10-10T00:47:26Z</time>
      </trkpt>
      <trkpt lat="-20.97854" lon="55.33493">
        <ele>258.5</ele>
        <time>2013-10-10T00:47:33Z</time>
      </trkpt>
      <trkpt lat="-20.97861" lon="55.33487">
        <ele>259.5</ele>
        <time>2013-10-10T00:47:40Z</time>
      </trkpt>
      <trkpt lat="-20.97868" lon="55.33481">
        <ele>259.8</ele>
        <time>2013-10-10T00:47:47Z</time>
      </trkpt>
      <trkpt lat="-20.97877" lon="55.33476">
        <ele>261.6</ele>
        <time>2013-10-10T00:47:54Z</time>
      </trkpt>
      <trkpt lat="-20.97887" lon="55.33476">
        <ele>262.7</ele>
        <time>2013-10-10T00:48:01Z</time>
      </trkpt>
      <trkpt lat="-20.97897" lon="55.33476">
        <ele>263.6</ele>
        <time>2013-10-10T00:48:07Z</time>
      </trkpt>
      <trkpt lat="-20.97907" lon="55.33479">
        <ele>265.2</ele>
        <time>2013-10-10T00:48:14Z</time>
      </trkpt>
      <trkpt lat="-20.97925" lon="55.33487">
        <ele>267.9</ele>
        <time>2013-10-10T00:48:28Z</time>
      </trkpt>
      <trkpt lat="-20.97933" lon="55.33493">
        <ele>268.8</ele>
        <time>2013-10-10T00:48:35Z</time>
      </trkpt>
      <trkpt lat="-20.97941" lon="55.33499">
        <ele>270.9</ele>
        <time>2013-10-10T00:48:42Z</time>
      </trkpt>
      <trkpt lat="-20.97947" lon="55.33508">
        <ele>271.2</ele>
        <time>2013-10-10T00:48:50Z</time>
      </trkpt>
      <trkpt lat="-20.97953" lon="55.33517">
        <ele>273.3</ele>
        <time>2013-10-10T00:48:58Z</time>
      </trkpt>
      <trkpt lat="-20.97957" lon="55.33526">
        <ele>273.5</ele>
        <time>2013-10-10T00:49:05Z</time>
      </trkpt>
      <trkpt lat="-20.97963" lon="55.33534">
        <ele>276.5</ele>
        <time>2013-10-10T00:49:13Z</time>
      </trkpt>
      <trkpt lat="-20.9797" lon="55.33543">
        <ele>276.6</ele>
        <time>2013-10-10T00:49:20Z</time>
      </trkpt>
      <trkpt lat="-20.97985" lon="55.33561">
        <ele>278</ele>
        <time>2013-10-10T00:49:34Z</time>
      </trkpt>
      <trkpt lat="-20.97989" lon="55.33569">
        <ele>280.2</ele>
        <time>2013-10-10T00:49:41Z</time>
      </trkpt>
      <trkpt lat="-20.97994" lon="55.33578">
        <ele>281.1</ele>
        <time>2013-10-10T00:49:48Z</time>
      </trkpt>
      <trkpt lat="-20.98" lon="55.33585">
        <ele>282.6</ele>
        <time>2013-10-10T00:49:55Z</time>
      </trkpt>
      <trkpt lat="-20.98006" lon="55.33593">
        <ele>284.5</ele>
        <time>2013-10-10T00:50:03Z</time>
      </trkpt>
      <trkpt lat="-20.98013" lon="55.336">
        <ele>285</ele>
        <time>2013-10-10T00:50:10Z</time>
      </trkpt>
      <trkpt lat="-20.98021" lon="55.33606">
        <ele>287</ele>
        <time>2013-10-10T00:50:17Z</time>
      </trkpt>
      <trkpt lat="-20.98029" lon="55.33613">
        <ele>287.1</ele>
        <time>2013-10-10T00:50:25Z</time>
      </trkpt>
      <trkpt lat="-20.98041" lon="55.33628">
        <ele>290.1</ele>
        <time>2013-10-10T00:50:41Z</time>
      </trkpt>
      <trkpt lat="-20.98049" lon="55.33642">
        <ele>291</ele>
        <time>2013-10-10T00:50:51Z</time>
      </trkpt>
      <trkpt lat="-20.98055" lon="55.33651">
        <ele>293</ele>
        <time>2013-10-10T00:50:59Z</time>
      </trkpt>
      <trkpt lat="-20.98058" lon="55.33664">
        <ele>295</ele>
        <time>2013-10-10T00:51:11Z</time>
      </trkpt>
      <trkpt lat="-20.98053" lon="55.33672">
        <ele>299.2</ele>
        <time>2013-10-10T00:51:27Z</time>
      </trkpt>
      <trkpt lat="-20.98041" lon="55.33683">
        <ele>305</ele>
        <time>2013-10-10T00:51:52Z</time>
      </trkpt>
      <trkpt lat="-20.98033" lon="55.33687">
        <ele>307.9</ele>
        <time>2013-10-10T00:52:06Z</time>
      </trkpt>
      <trkpt lat="-20.98029" lon="55.33696">
        <ele>309.3</ele>
        <time>2013-10-10T00:52:15Z</time>
      </trkpt>
      <trkpt lat="-20.98026" lon="55.33708">
        <ele>311</ele>
        <time>2013-10-10T00:52:26Z</time>
      </trkpt>
      <trkpt lat="-20.98013" lon="55.33721">
        <ele>317.2</ele>
        <time>2013-10-10T00:52:53Z</time>
      </trkpt>
      <trkpt lat="-20.98005" lon="55.33726">
        <ele>317.2</ele>
        <time>2013-10-10T00:53:02Z</time>
      </trkpt>
      <trkpt lat="-20.98001" lon="55.33735">
        <ele>318.9</ele>
        <time>2013-10-10T00:53:10Z</time>
      </trkpt>
      <trkpt lat="-20.97998" lon="55.33745">
        <ele>319.7</ele>
        <time>2013-10-10T00:53:19Z</time>
      </trkpt>
      <trkpt lat="-20.97999" lon="55.33755">
        <ele>322.7</ele>
        <time>2013-10-10T00:53:28Z</time>
      </trkpt>
      <trkpt lat="-20.97997" lon="55.33766">
        <ele>324</ele>
        <time>2013-10-10T00:53:37Z</time>
      </trkpt>
      <trkpt lat="-20.98001" lon="55.33785">
        <ele>327.3</ele>
        <time>2013-10-10T00:53:55Z</time>
      </trkpt>
      <trkpt lat="-20.98005" lon="55.33794">
        <ele>329</ele>
        <time>2013-10-10T00:54:03Z</time>
      </trkpt>
      <trkpt lat="-20.98011" lon="55.33804">
        <ele>329.4</ele>
        <time>2013-10-10T00:54:11Z</time>
      </trkpt>
      <trkpt lat="-20.98015" lon="55.33813">
        <ele>332</ele>
        <time>2013-10-10T00:54:20Z</time>
      </trkpt>
      <trkpt lat="-20.98019" lon="55.33823">
        <ele>333.3</ele>
        <time>2013-10-10T00:54:29Z</time>
      </trkpt>
      <trkpt lat="-20.98024" lon="55.33831">
        <ele>334.2</ele>
        <time>2013-10-10T00:54:37Z</time>
      </trkpt>
      <trkpt lat="-20.98028" lon="55.3384">
        <ele>335.8</ele>
        <time>2013-10-10T00:54:45Z</time>
      </trkpt>
      <trkpt lat="-20.9804" lon="55.33858">
        <ele>338</ele>
        <time>2013-10-10T00:54:59Z</time>
      </trkpt>
      <trkpt lat="-20.98044" lon="55.33867">
        <ele>339.9</ele>
        <time>2013-10-10T00:55:06Z</time>
      </trkpt>
      <trkpt lat="-20.98048" lon="55.33876">
        <ele>340.8</ele>
        <time>2013-10-10T00:55:14Z</time>
      </trkpt>
      <trkpt lat="-20.98055" lon="55.33884">
        <ele>341.4</ele>
        <time>2013-10-10T00:55:22Z</time>
      </trkpt>
      <trkpt lat="-20.98062" lon="55.33892">
        <ele>343.9</ele>
        <time>2013-10-10T00:55:30Z</time>
      </trkpt>
      <trkpt lat="-20.98068" lon="55.339">
        <ele>345.2</ele>
        <time>2013-10-10T00:55:39Z</time>
      </trkpt>
      <trkpt lat="-20.98072" lon="55.33909">
        <ele>345.4</ele>
        <time>2013-10-10T00:55:46Z</time>
      </trkpt>
      <trkpt lat="-20.98081" lon="55.33928">
        <ele>347.9</ele>
        <time>2013-10-10T00:56:01Z</time>
      </trkpt>
      <trkpt lat="-20.98086" lon="55.33937">
        <ele>349.1</ele>
        <time>2013-10-10T00:56:08Z</time>
      </trkpt>
      <trkpt lat="-20.9809" lon="55.33947">
        <ele>350.1</ele>
        <time>2013-10-10T00:56:15Z</time>
      </trkpt>
      <trkpt lat="-20.98091" lon="55.33957">
        <ele>351.1</ele>
        <time>2013-10-10T00:56:22Z</time>
      </trkpt>
      <trkpt lat="-20.98094" lon="55.33968">
        <ele>352.5</ele>
        <time>2013-10-10T00:56:30Z</time>
      </trkpt>
      <trkpt lat="-20.98091" lon="55.33978">
        <ele>352.5</ele>
        <time>2013-10-10T00:56:40Z</time>
      </trkpt>
      <trkpt lat="-20.98086" lon="55.33987">
        <ele>353.4</ele>
        <time>2013-10-10T00:56:47Z</time>
      </trkpt>
      <trkpt lat="-20.98079" lon="55.34005">
        <ele>354.8</ele>
        <time>2013-10-10T00:57:02Z</time>
      </trkpt>
      <trkpt lat="-20.98071" lon="55.3401">
        <ele>355.7</ele>
        <time>2013-10-10T00:57:14Z</time>
      </trkpt>
      <trkpt lat="-20.98062" lon="55.34011">
        <ele>355.6</ele>
        <time>2013-10-10T00:57:27Z</time>
      </trkpt>
      <trkpt lat="-20.98052" lon="55.34012">
        <ele>354.8</ele>
        <time>2013-10-10T00:57:40Z</time>
      </trkpt>
      <trkpt lat="-20.98042" lon="55.34012">
        <ele>354.1</ele>
        <time>2013-10-10T00:57:48Z</time>
      </trkpt>
      <trkpt lat="-20.98025" lon="55.34019">
        <ele>353.3</ele>
        <time>2013-10-10T00:58:02Z</time>
      </trkpt>
      <trkpt lat="-20.98017" lon="55.34026">
        <ele>353.3</ele>
        <time>2013-10-10T00:58:08Z</time>
      </trkpt>
      <trkpt lat="-20.98008" lon="55.3403">
        <ele>353.2</ele>
        <time>2013-10-10T00:58:14Z</time>
      </trkpt>
      <trkpt lat="-20.97998" lon="55.3403">
        <ele>353.2</ele>
        <time>2013-10-10T00:58:22Z</time>
      </trkpt>
      <trkpt lat="-20.97988" lon="55.34028">
        <ele>353</ele>
        <time>2013-10-10T00:58:29Z</time>
      </trkpt>
      <trkpt lat="-20.97979" lon="55.34025">
        <ele>353.6</ele>
        <time>2013-10-10T00:58:35Z</time>
      </trkpt>
      <trkpt lat="-20.97969" lon="55.34024">
        <ele>352.9</ele>
        <time>2013-10-10T00:58:42Z</time>
      </trkpt>
      <trkpt lat="-20.97959" lon="55.34021">
        <ele>353.4</ele>
        <time>2013-10-10T00:58:50Z</time>
      </trkpt>
      <trkpt lat="-20.97941" lon="55.34015">
        <ele>352.9</ele>
        <time>2013-10-10T00:59:02Z</time>
      </trkpt>
      <trkpt lat="-20.97932" lon="55.34009">
        <ele>353.8</ele>
        <time>2013-10-10T00:59:09Z</time>
      </trkpt>
      <trkpt lat="-20.97924" lon="55.34004">
        <ele>354.8</ele>
        <time>2013-10-10T00:59:16Z</time>
      </trkpt>
      <trkpt lat="-20.97916" lon="55.33997">
        <ele>353.8</ele>
        <time>2013-10-10T00:59:23Z</time>
      </trkpt>
      <trkpt lat="-20.97909" lon="55.3399">
        <ele>353.7</ele>
        <time>2013-10-10T00:59:29Z</time>
      </trkpt>
      <trkpt lat="-20.97902" lon="55.33984">
        <ele>354.5</ele>
        <time>2013-10-10T00:59:35Z</time>
      </trkpt>
      <trkpt lat="-20.97895" lon="55.33976">
        <ele>353.8</ele>
        <time>2013-10-10T00:59:42Z</time>
      </trkpt>
      <trkpt lat="-20.97887" lon="55.3397">
        <ele>353.8</ele>
        <time>2013-10-10T00:59:49Z</time>
      </trkpt>
      <trkpt lat="-20.97877" lon="55.33972">
        <ele>354.6</ele>
        <time>2013-10-10T00:59:57Z</time>
      </trkpt>
      <trkpt lat="-20.9789" lon="55.33985">
        <ele>356.7</ele>
        <time>2013-10-10T01:00:15Z</time>
      </trkpt>
      <trkpt lat="-20.97894" lon="55.33994">
        <ele>357.6</ele>
        <time>2013-10-10T01:00:22Z</time>
      </trkpt>
      <trkpt lat="-20.97898" lon="55.34005">
        <ele>358.3</ele>
        <time>2013-10-10T01:00:29Z</time>
      </trkpt>
      <trkpt lat="-20.97903" lon="55.34014">
        <ele>358.4</ele>
        <time>2013-10-10T01:00:36Z</time>
      </trkpt>
      <trkpt lat="-20.97908" lon="55.34023">
        <ele>360.3</ele>
        <time>2013-10-10T01:00:44Z</time>
      </trkpt>
      <trkpt lat="-20.97913" lon="55.34032">
        <ele>360.5</ele>
        <time>2013-10-10T01:00:51Z</time>
      </trkpt>
      <trkpt lat="-20.9792" lon="55.34039">
        <ele>361.6</ele>
        <time>2013-10-10T01:00:57Z</time>
      </trkpt>
      <trkpt lat="-20.97926" lon="55.34047">
        <ele>363.3</ele>
        <time>2013-10-10T01:01:06Z</time>
      </trkpt>
      <trkpt lat="-20.9794" lon="55.34061">
        <ele>364.3</ele>
        <time>2013-10-10T01:01:19Z</time>
      </trkpt>
      <trkpt lat="-20.97946" lon="55.34069">
        <ele>364.3</ele>
        <time>2013-10-10T01:01:25Z</time>
      </trkpt>
      <trkpt lat="-20.97936" lon="55.34071">
        <ele>368.3</ele>
        <time>2013-10-10T01:01:47Z</time>
      </trkpt>
      <trkpt lat="-20.97929" lon="55.34064">
        <ele>369.3</ele>
        <time>2013-10-10T01:01:55Z</time>
      </trkpt>
      <trkpt lat="-20.97921" lon="55.34059">
        <ele>370.4</ele>
        <time>2013-10-10T01:02:03Z</time>
      </trkpt>
      <trkpt lat="-20.97912" lon="55.34053">
        <ele>370.8</ele>
        <time>2013-10-10T01:02:10Z</time>
      </trkpt>
      <trkpt lat="-20.97895" lon="55.34045">
        <ele>372.5</ele>
        <time>2013-10-10T01:02:22Z</time>
      </trkpt>
      <trkpt lat="-20.97885" lon="55.34044">
        <ele>373.3</ele>
        <time>2013-10-10T01:02:29Z</time>
      </trkpt>
      <trkpt lat="-20.97876" lon="55.34048">
        <ele>373.4</ele>
        <time>2013-10-10T01:02:36Z</time>
      </trkpt>
      <trkpt lat="-20.97867" lon="55.34051">
        <ele>374.4</ele>
        <time>2013-10-10T01:02:43Z</time>
      </trkpt>
      <trkpt lat="-20.97858" lon="55.34057">
        <ele>374.9</ele>
        <time>2013-10-10T01:02:51Z</time>
      </trkpt>
      <trkpt lat="-20.97849" lon="55.34062">
        <ele>377.2</ele>
        <time>2013-10-10T01:03:00Z</time>
      </trkpt>
      <trkpt lat="-20.97841" lon="55.34069">
        <ele>377.9</ele>
        <time>2013-10-10T01:03:08Z</time>
      </trkpt>
      <trkpt lat="-20.97832" lon="55.34073">
        <ele>378</ele>
        <time>2013-10-10T01:03:17Z</time>
      </trkpt>
      <trkpt lat="-20.9782" lon="55.34089">
        <ele>380.1</ele>
        <time>2013-10-10T01:03:30Z</time>
      </trkpt>
      <trkpt lat="-20.97826" lon="55.34097">
        <ele>381.5</ele>
        <time>2013-10-10T01:03:39Z</time>
      </trkpt>
      <trkpt lat="-20.97835" lon="55.34102">
        <ele>382</ele>
        <time>2013-10-10T01:03:47Z</time>
      </trkpt>
      <trkpt lat="-20.97844" lon="55.34106">
        <ele>383.8</ele>
        <time>2013-10-10T01:03:54Z</time>
      </trkpt>
      <trkpt lat="-20.97853" lon="55.34107">
        <ele>383.9</ele>
        <time>2013-10-10T01:04:00Z</time>
      </trkpt>
      <trkpt lat="-20.97863" lon="55.3411">
        <ele>384.2</ele>
        <time>2013-10-10T01:04:07Z</time>
      </trkpt>
      <trkpt lat="-20.97871" lon="55.34115">
        <ele>385.9</ele>
        <time>2013-10-10T01:04:14Z</time>
      </trkpt>
      <trkpt lat="-20.97874" lon="55.34124">
        <ele>386.7</ele>
        <time>2013-10-10T01:04:21Z</time>
      </trkpt>
      <trkpt lat="-20.97864" lon="55.34139">
        <ele>389.3</ele>
        <time>2013-10-10T01:04:35Z</time>
      </trkpt>
      <trkpt lat="-20.97856" lon="55.34145">
        <ele>389.9</ele>
        <time>2013-10-10T01:04:42Z</time>
      </trkpt>
      <trkpt lat="-20.97849" lon="55.34151">
        <ele>390.7</ele>
        <time>2013-10-10T01:04:50Z</time>
      </trkpt>
      <trkpt lat="-20.97842" lon="55.34159">
        <ele>391.1</ele>
        <time>2013-10-10T01:04:58Z</time>
      </trkpt>
      <trkpt lat="-20.97843" lon="55.34168">
        <ele>393.5</ele>
        <time>2013-10-10T01:05:06Z</time>
      </trkpt>
      <trkpt lat="-20.97849" lon="55.34177">
        <ele>394.8</ele>
        <time>2013-10-10T01:05:14Z</time>
      </trkpt>
      <trkpt lat="-20.97855" lon="55.34186">
        <ele>394.6</ele>
        <time>2013-10-10T01:05:21Z</time>
      </trkpt>
      <trkpt lat="-20.97858" lon="55.34196">
        <ele>395.4</ele>
        <time>2013-10-10T01:05:28Z</time>
      </trkpt>
      <trkpt lat="-20.97869" lon="55.34213">
        <ele>397.4</ele>
        <time>2013-10-10T01:05:42Z</time>
      </trkpt>
      <trkpt lat="-20.97873" lon="55.34223">
        <ele>398.4</ele>
        <time>2013-10-10T01:05:49Z</time>
      </trkpt>
      <trkpt lat="-20.97878" lon="55.34232">
        <ele>399.1</ele>
        <time>2013-10-10T01:05:56Z</time>
      </trkpt>
      <trkpt lat="-20.97884" lon="55.34241">
        <ele>399.6</ele>
        <time>2013-10-10T01:06:02Z</time>
      </trkpt>
      <trkpt lat="-20.97889" lon="55.3425">
        <ele>400.1</ele>
        <time>2013-10-10T01:06:09Z</time>
      </trkpt>
      <trkpt lat="-20.97893" lon="55.34259">
        <ele>401.9</ele>
        <time>2013-10-10T01:06:16Z</time>
      </trkpt>
      <trkpt lat="-20.97891" lon="55.34269">
        <ele>402.8</ele>
        <time>2013-10-10T01:06:25Z</time>
      </trkpt>
      <trkpt lat="-20.97885" lon="55.34276">
        <ele>404.7</ele>
        <time>2013-10-10T01:06:33Z</time>
      </trkpt>
      <trkpt lat="-20.97892" lon="55.34294">
        <ele>407.5</ele>
        <time>2013-10-10T01:06:51Z</time>
      </trkpt>
      <trkpt lat="-20.979" lon="55.34298">
        <ele>408.1</ele>
        <time>2013-10-10T01:06:58Z</time>
      </trkpt>
      <trkpt lat="-20.9791" lon="55.34301">
        <ele>409.1</ele>
        <time>2013-10-10T01:07:04Z</time>
      </trkpt>
      <trkpt lat="-20.9792" lon="55.34303">
        <ele>410.6</ele>
        <time>2013-10-10T01:07:10Z</time>
      </trkpt>
      <trkpt lat="-20.97925" lon="55.34312">
        <ele>411.6</ele>
        <time>2013-10-10T01:07:18Z</time>
      </trkpt>
      <trkpt lat="-20.97922" lon="55.34322">
        <ele>413.3</ele>
        <time>2013-10-10T01:07:25Z</time>
      </trkpt>
      <trkpt lat="-20.97917" lon="55.3433">
        <ele>413.4</ele>
        <time>2013-10-10T01:07:32Z</time>
      </trkpt>
      <trkpt lat="-20.97911" lon="55.34337">
        <ele>414.3</ele>
        <time>2013-10-10T01:07:40Z</time>
      </trkpt>
      <trkpt lat="-20.97898" lon="55.34353">
        <ele>416.6</ele>
        <time>2013-10-10T01:07:57Z</time>
      </trkpt>
      <trkpt lat="-20.97891" lon="55.3436">
        <ele>417.9</ele>
        <time>2013-10-10T01:08:05Z</time>
      </trkpt>
      <trkpt lat="-20.97884" lon="55.34366">
        <ele>419.9</ele>
        <time>2013-10-10T01:08:12Z</time>
      </trkpt>
      <trkpt lat="-20.97877" lon="55.34374">
        <ele>421.6</ele>
        <time>2013-10-10T01:08:19Z</time>
      </trkpt>
      <trkpt lat="-20.9787" lon="55.34382">
        <ele>421.4</ele>
        <time>2013-10-10T01:08:26Z</time>
      </trkpt>
      <trkpt lat="-20.97863" lon="55.34388">
        <ele>421.8</ele>
        <time>2013-10-10T01:08:33Z</time>
      </trkpt>
      <trkpt lat="-20.97855" lon="55.34396">
        <ele>423</ele>
        <time>2013-10-10T01:08:40Z</time>
      </trkpt>
      <trkpt lat="-20.97849" lon="55.34404">
        <ele>423.7</ele>
        <time>2013-10-10T01:08:47Z</time>
      </trkpt>
      <trkpt lat="-20.97833" lon="55.34416">
        <ele>425.9</ele>
        <time>2013-10-10T01:09:02Z</time>
      </trkpt>
      <trkpt lat="-20.97823" lon="55.34421">
        <ele>426.6</ele>
        <time>2013-10-10T01:09:10Z</time>
      </trkpt>
      <trkpt lat="-20.97822" lon="55.3443">
        <ele>426.2</ele>
        <time>2013-10-10T01:09:17Z</time>
      </trkpt>
      <trkpt lat="-20.97828" lon="55.34438">
        <ele>427.2</ele>
        <time>2013-10-10T01:09:24Z</time>
      </trkpt>
      <trkpt lat="-20.97835" lon="55.34446">
        <ele>429.2</ele>
        <time>2013-10-10T01:09:32Z</time>
      </trkpt>
      <trkpt lat="-20.97843" lon="55.3445">
        <ele>429.5</ele>
        <time>2013-10-10T01:09:38Z</time>
      </trkpt>
      <trkpt lat="-20.97851" lon="55.34455">
        <ele>430.9</ele>
        <time>2013-10-10T01:09:45Z</time>
      </trkpt>
      <trkpt lat="-20.9786" lon="55.3446">
        <ele>431.1</ele>
        <time>2013-10-10T01:09:52Z</time>
      </trkpt>
      <trkpt lat="-20.97878" lon="55.34465">
        <ele>432.2</ele>
        <time>2013-10-10T01:10:05Z</time>
      </trkpt>
      <trkpt lat="-20.97888" lon="55.34468">
        <ele>433.5</ele>
        <time>2013-10-10T01:10:12Z</time>
      </trkpt>
      <trkpt lat="-20.97896" lon="55.34473">
        <ele>434.5</ele>
        <time>2013-10-10T01:10:20Z</time>
      </trkpt>
      <trkpt lat="-20.97903" lon="55.3448">
        <ele>435.5</ele>
        <time>2013-10-10T01:10:28Z</time>
      </trkpt>
      <trkpt lat="-20.9791" lon="55.34488">
        <ele>436.7</ele>
        <time>2013-10-10T01:10:35Z</time>
      </trkpt>
      <trkpt lat="-20.97917" lon="55.34496">
        <ele>437.8</ele>
        <time>2013-10-10T01:10:42Z</time>
      </trkpt>
      <trkpt lat="-20.97922" lon="55.34504">
        <ele>438.4</ele>
        <time>2013-10-10T01:10:50Z</time>
      </trkpt>
      <trkpt lat="-20.97927" lon="55.34513">
        <ele>439.7</ele>
        <time>2013-10-10T01:11:00Z</time>
      </trkpt>
      <trkpt lat="-20.97938" lon="55.3453">
        <ele>442.9</ele>
        <time>2013-10-10T01:11:16Z</time>
      </trkpt>
      <trkpt lat="-20.97944" lon="55.34537">
        <ele>443.8</ele>
        <time>2013-10-10T01:11:25Z</time>
      </trkpt>
      <trkpt lat="-20.97951" lon="55.34545">
        <ele>446.1</ele>
        <time>2013-10-10T01:11:34Z</time>
      </trkpt>
      <trkpt lat="-20.97958" lon="55.34552">
        <ele>446.9</ele>
        <time>2013-10-10T01:11:41Z</time>
      </trkpt>
      <trkpt lat="-20.97965" lon="55.34561">
        <ele>448.1</ele>
        <time>2013-10-10T01:11:48Z</time>
      </trkpt>
      <trkpt lat="-20.97971" lon="55.34568">
        <ele>448.3</ele>
        <time>2013-10-10T01:11:54Z</time>
      </trkpt>
      <trkpt lat="-20.97975" lon="55.34577">
        <ele>449.3</ele>
        <time>2013-10-10T01:12:02Z</time>
      </trkpt>
      <trkpt lat="-20.97984" lon="55.34594">
        <ele>450.7</ele>
        <time>2013-10-10T01:13:09Z</time>
      </trkpt>
      <trkpt lat="-20.97971" lon="55.34579">
        <ele>450.8</ele>
        <time>2013-10-10T01:14:07Z</time>
      </trkpt>
      <trkpt lat="-20.97963" lon="55.34573">
        <ele>451.8</ele>
        <time>2013-10-10T01:14:15Z</time>
      </trkpt>
      <trkpt lat="-20.97943" lon="55.34574">
        <ele>451.9</ele>
        <time>2013-10-10T01:14:30Z</time>
      </trkpt>
      <trkpt lat="-20.97934" lon="55.34571">
        <ele>452.7</ele>
        <time>2013-10-10T01:14:37Z</time>
      </trkpt>
      <trkpt lat="-20.97925" lon="55.34568">
        <ele>453</ele>
        <time>2013-10-10T01:14:43Z</time>
      </trkpt>
      <trkpt lat="-20.97915" lon="55.34564">
        <ele>453.7</ele>
        <time>2013-10-10T01:14:50Z</time>
      </trkpt>
      <trkpt lat="-20.97906" lon="55.3456">
        <ele>454.2</ele>
        <time>2013-10-10T01:14:58Z</time>
      </trkpt>
      <trkpt lat="-20.97897" lon="55.34555">
        <ele>454.3</ele>
        <time>2013-10-10T01:15:06Z</time>
      </trkpt>
      <trkpt lat="-20.97888" lon="55.3455">
        <ele>455.6</ele>
        <time>2013-10-10T01:15:14Z</time>
      </trkpt>
      <trkpt lat="-20.97885" lon="55.34559">
        <ele>456.7</ele>
        <time>2013-10-10T01:15:29Z</time>
      </trkpt>
      <trkpt lat="-20.97901" lon="55.34571">
        <ele>458.1</ele>
        <time>2013-10-10T01:15:45Z</time>
      </trkpt>
      <trkpt lat="-20.97905" lon="55.3458">
        <ele>459</ele>
        <time>2013-10-10T01:15:52Z</time>
      </trkpt>
      <trkpt lat="-20.97912" lon="55.34588">
        <ele>459</ele>
        <time>2013-10-10T01:15:59Z</time>
      </trkpt>
      <trkpt lat="-20.97918" lon="55.34597">
        <ele>459</ele>
        <time>2013-10-10T01:16:07Z</time>
      </trkpt>
      <trkpt lat="-20.97922" lon="55.34606">
        <ele>459.5</ele>
        <time>2013-10-10T01:16:15Z</time>
      </trkpt>
      <trkpt lat="-20.97928" lon="55.34615">
        <ele>461.4</ele>
        <time>2013-10-10T01:16:23Z</time>
      </trkpt>
      <trkpt lat="-20.97936" lon="55.34621">
        <ele>462.8</ele>
        <time>2013-10-10T01:16:32Z</time>
      </trkpt>
      <trkpt lat="-20.9795" lon="55.34635">
        <ele>463.8</ele>
        <time>2013-10-10T01:16:47Z</time>
      </trkpt>
      <trkpt lat="-20.97957" lon="55.34642">
        <ele>464.9</ele>
        <time>2013-10-10T01:16:54Z</time>
      </trkpt>
      <trkpt lat="-20.97965" lon="55.34649">
        <ele>465.8</ele>
        <time>2013-10-10T01:17:02Z</time>
      </trkpt>
      <trkpt lat="-20.97973" lon="55.34654">
        <ele>467</ele>
        <time>2013-10-10T01:17:08Z</time>
      </trkpt>
      <trkpt lat="-20.97978" lon="55.34662">
        <ele>467.4</ele>
        <time>2013-10-10T01:17:15Z</time>
      </trkpt>
      <trkpt lat="-20.97983" lon="55.34671">
        <ele>469.1</ele>
        <time>2013-10-10T01:17:22Z</time>
      </trkpt>
      <trkpt lat="-20.97989" lon="55.3468">
        <ele>469.9</ele>
        <time>2013-10-10T01:17:30Z</time>
      </trkpt>
      <trkpt lat="-20.97995" lon="55.34687">
        <ele>471.4</ele>
        <time>2013-10-10T01:17:38Z</time>
      </trkpt>
      <trkpt lat="-20.98011" lon="55.34699">
        <ele>472.8</ele>
        <time>2013-10-10T01:17:53Z</time>
      </trkpt>
      <trkpt lat="-20.98018" lon="55.34705">
        <ele>474.4</ele>
        <time>2013-10-10T01:18:01Z</time>
      </trkpt>
      <trkpt lat="-20.98009" lon="55.34704">
        <ele>476.7</ele>
        <time>2013-10-10T01:18:30Z</time>
      </trkpt>
      <trkpt lat="-20.98" lon="55.34699">
        <ele>475.9</ele>
        <time>2013-10-10T01:18:37Z</time>
      </trkpt>
      <trkpt lat="-20.97991" lon="55.34695">
        <ele>476.7</ele>
        <time>2013-10-10T01:18:44Z</time>
      </trkpt>
      <trkpt lat="-20.97973" lon="55.34685">
        <ele>477.4</ele>
        <time>2013-10-10T01:18:58Z</time>
      </trkpt>
      <trkpt lat="-20.97965" lon="55.3468">
        <ele>477.5</ele>
        <time>2013-10-10T01:19:04Z</time>
      </trkpt>
      <trkpt lat="-20.97957" lon="55.34674">
        <ele>477.8</ele>
        <time>2013-10-10T01:19:10Z</time>
      </trkpt>
      <trkpt lat="-20.97949" lon="55.34667">
        <ele>477.9</ele>
        <time>2013-10-10T01:19:17Z</time>
      </trkpt>
      <trkpt lat="-20.97943" lon="55.3466">
        <ele>478.6</ele>
        <time>2013-10-10T01:19:24Z</time>
      </trkpt>
      <trkpt lat="-20.97935" lon="55.34653">
        <ele>479</ele>
        <time>2013-10-10T01:19:31Z</time>
      </trkpt>
      <trkpt lat="-20.97928" lon="55.34646">
        <ele>478.7</ele>
        <time>2013-10-10T01:19:38Z</time>
      </trkpt>
      <trkpt lat="-20.9792" lon="55.34639">
        <ele>479.8</ele>
        <time>2013-10-10T01:19:45Z</time>
      </trkpt>
      <trkpt lat="-20.97908" lon="55.34625">
        <ele>480.3</ele>
        <time>2013-10-10T01:19:58Z</time>
      </trkpt>
      <trkpt lat="-20.97901" lon="55.34619">
        <ele>480.6</ele>
        <time>2013-10-10T01:20:04Z</time>
      </trkpt>
      <trkpt lat="-20.97891" lon="55.34619">
        <ele>481.5</ele>
        <time>2013-10-10T01:20:11Z</time>
      </trkpt>
      <trkpt lat="-20.97896" lon="55.34628">
        <ele>483.1</ele>
        <time>2013-10-10T01:20:23Z</time>
      </trkpt>
      <trkpt lat="-20.97899" lon="55.34637">
        <ele>484.5</ele>
        <time>2013-10-10T01:20:32Z</time>
      </trkpt>
      <trkpt lat="-20.97901" lon="55.34648">
        <ele>486.3</ele>
        <time>2013-10-10T01:20:39Z</time>
      </trkpt>
      <trkpt lat="-20.97903" lon="55.34659">
        <ele>487.4</ele>
        <time>2013-10-10T01:20:47Z</time>
      </trkpt>
      <trkpt lat="-20.97913" lon="55.34677">
        <ele>490</ele>
        <time>2013-10-10T01:21:02Z</time>
      </trkpt>
      <trkpt lat="-20.97918" lon="55.34685">
        <ele>490.5</ele>
        <time>2013-10-10T01:21:09Z</time>
      </trkpt>
      <trkpt lat="-20.97923" lon="55.34693">
        <ele>491.6</ele>
        <time>2013-10-10T01:21:16Z</time>
      </trkpt>
      <trkpt lat="-20.97929" lon="55.34703">
        <ele>492.6</ele>
        <time>2013-10-10T01:21:24Z</time>
      </trkpt>
      <trkpt lat="-20.97932" lon="55.34712">
        <ele>493.6</ele>
        <time>2013-10-10T01:21:31Z</time>
      </trkpt>
      <trkpt lat="-20.97936" lon="55.34722">
        <ele>494.5</ele>
        <time>2013-10-10T01:21:38Z</time>
      </trkpt>
      <trkpt lat="-20.97942" lon="55.34731">
        <ele>496.1</ele>
        <time>2013-10-10T01:21:46Z</time>
      </trkpt>
      <trkpt lat="-20.97949" lon="55.34739">
        <ele>497.1</ele>
        <time>2013-10-10T01:21:53Z</time>
      </trkpt>
      <trkpt lat="-20.97967" lon="55.34746">
        <ele>499.7</ele>
        <time>2013-10-10T01:22:08Z</time>
      </trkpt>
      <trkpt lat="-20.97958" lon="55.34747">
        <ele>502.9</ele>
        <time>2013-10-10T01:22:35Z</time>
      </trkpt>
      <trkpt lat="-20.9795" lon="55.34742">
        <ele>503</ele>
        <time>2013-10-10T01:22:48Z</time>
      </trkpt>
      <trkpt lat="-20.97941" lon="55.34738">
        <ele>503.3</ele>
        <time>2013-10-10T01:22:55Z</time>
      </trkpt>
      <trkpt lat="-20.97924" lon="55.34729">
        <ele>504.6</ele>
        <time>2013-10-10T01:23:10Z</time>
      </trkpt>
      <trkpt lat="-20.97917" lon="55.34723">
        <ele>504.7</ele>
        <time>2013-10-10T01:23:17Z</time>
      </trkpt>
      <trkpt lat="-20.97911" lon="55.34716">
        <ele>504.7</ele>
        <time>2013-10-10T01:23:24Z</time>
      </trkpt>
      <trkpt lat="-20.97907" lon="55.34706">
        <ele>505.2</ele>
        <time>2013-10-10T01:23:32Z</time>
      </trkpt>
      <trkpt lat="-20.97903" lon="55.34696">
        <ele>504.8</ele>
        <time>2013-10-10T01:23:39Z</time>
      </trkpt>
      <trkpt lat="-20.979" lon="55.34686">
        <ele>505.2</ele>
        <time>2013-10-10T01:23:45Z</time>
      </trkpt>
      <trkpt lat="-20.97895" lon="55.34678">
        <ele>505.8</ele>
        <time>2013-10-10T01:23:51Z</time>
      </trkpt>
      <trkpt lat="-20.97887" lon="55.34672">
        <ele>505.4</ele>
        <time>2013-10-10T01:23:58Z</time>
      </trkpt>
      <trkpt lat="-20.97892" lon="55.34693">
        <ele>507.2</ele>
        <time>2013-10-10T01:24:17Z</time>
      </trkpt>
      <trkpt lat="-20.97889" lon="55.34703">
        <ele>508.2</ele>
        <time>2013-10-10T01:24:25Z</time>
      </trkpt>
      <trkpt lat="-20.9788" lon="55.347">
        <ele>509.8</ele>
        <time>2013-10-10T01:24:35Z</time>
      </trkpt>
      <trkpt lat="-20.97871" lon="55.34699">
        <ele>510.9</ele>
        <time>2013-10-10T01:24:43Z</time>
      </trkpt>
      <trkpt lat="-20.97864" lon="55.34705">
        <ele>510.9</ele>
        <time>2013-10-10T01:24:50Z</time>
      </trkpt>
      <trkpt lat="-20.97857" lon="55.34712">
        <ele>512.1</ele>
        <time>2013-10-10T01:24:57Z</time>
      </trkpt>
      <trkpt lat="-20.97853" lon="55.34722">
        <ele>513</ele>
        <time>2013-10-10T01:25:05Z</time>
      </trkpt>
      <trkpt lat="-20.97851" lon="55.34742">
        <ele>514.7</ele>
        <time>2013-10-10T01:25:21Z</time>
      </trkpt>
      <trkpt lat="-20.97851" lon="55.34752">
        <ele>516.2</ele>
        <time>2013-10-10T01:25:29Z</time>
      </trkpt>
      <trkpt lat="-20.97848" lon="55.34762">
        <ele>516.6</ele>
        <time>2013-10-10T01:25:36Z</time>
      </trkpt>
      <trkpt lat="-20.97845" lon="55.34771">
        <ele>517.6</ele>
        <time>2013-10-10T01:25:42Z</time>
      </trkpt>
      <trkpt lat="-20.97843" lon="55.34782">
        <ele>518.2</ele>
        <time>2013-10-10T01:25:50Z</time>
      </trkpt>
      <trkpt lat="-20.97842" lon="55.34792">
        <ele>518.6</ele>
        <time>2013-10-10T01:25:55Z</time>
      </trkpt>
      <trkpt lat="-20.97842" lon="55.34801">
        <ele>519.3</ele>
        <time>2013-10-10T01:26:01Z</time>
      </trkpt>
      <trkpt lat="-20.97841" lon="55.34811">
        <ele>519.4</ele>
        <time>2013-10-10T01:26:07Z</time>
      </trkpt>
      <trkpt lat="-20.97844" lon="55.34831">
        <ele>521.4</ele>
        <time>2013-10-10T01:26:22Z</time>
      </trkpt>
      <trkpt lat="-20.97846" lon="55.34841">
        <ele>522.5</ele>
        <time>2013-10-10T01:26:29Z</time>
      </trkpt>
      <trkpt lat="-20.97848" lon="55.34851">
        <ele>524.1</ele>
        <time>2013-10-10T01:26:35Z</time>
      </trkpt>
      <trkpt lat="-20.97859" lon="55.34852">
        <ele>525.1</ele>
        <time>2013-10-10T01:26:42Z</time>
      </trkpt>
      <trkpt lat="-20.97868" lon="55.34848">
        <ele>525.6</ele>
        <time>2013-10-10T01:26:48Z</time>
      </trkpt>
      <trkpt lat="-20.97877" lon="55.34845">
        <ele>527.1</ele>
        <time>2013-10-10T01:26:55Z</time>
      </trkpt>
      <trkpt lat="-20.97887" lon="55.34846">
        <ele>526.8</ele>
        <time>2013-10-10T01:27:01Z</time>
      </trkpt>
      <trkpt lat="-20.97897" lon="55.34848">
        <ele>527.5</ele>
        <time>2013-10-10T01:27:08Z</time>
      </trkpt>
      <trkpt lat="-20.97916" lon="55.34852">
        <ele>529.1</ele>
        <time>2013-10-10T01:27:22Z</time>
      </trkpt>
      <trkpt lat="-20.97925" lon="55.34855">
        <ele>529.9</ele>
        <time>2013-10-10T01:27:30Z</time>
      </trkpt>
      <trkpt lat="-20.97935" lon="55.34857">
        <ele>531</ele>
        <time>2013-10-10T01:27:38Z</time>
      </trkpt>
      <trkpt lat="-20.97943" lon="55.34861">
        <ele>532.1</ele>
        <time>2013-10-10T01:27:46Z</time>
      </trkpt>
      <trkpt lat="-20.97953" lon="55.34864">
        <ele>533.3</ele>
        <time>2013-10-10T01:27:54Z</time>
      </trkpt>
      <trkpt lat="-20.9796" lon="55.34872">
        <ele>535.4</ele>
        <time>2013-10-10T01:28:14Z</time>
      </trkpt>
      <trkpt lat="-20.97971" lon="55.34886">
        <ele>540.4</ele>
        <time>2013-10-10T01:28:37Z</time>
      </trkpt>
      <trkpt lat="-20.97976" lon="55.34895">
        <ele>543.1</ele>
        <time>2013-10-10T01:28:47Z</time>
      </trkpt>
      <trkpt lat="-20.97981" lon="55.34903">
        <ele>544.2</ele>
        <time>2013-10-10T01:28:56Z</time>
      </trkpt>
      <trkpt lat="-20.97984" lon="55.34913">
        <ele>545.6</ele>
        <time>2013-10-10T01:29:05Z</time>
      </trkpt>
      <trkpt lat="-20.97984" lon="55.34923">
        <ele>547.7</ele>
        <time>2013-10-10T01:29:15Z</time>
      </trkpt>
      <trkpt lat="-20.97981" lon="55.34942">
        <ele>550.8</ele>
        <time>2013-10-10T01:29:36Z</time>
      </trkpt>
      <trkpt lat="-20.9798" lon="55.34952">
        <ele>552.6</ele>
        <time>2013-10-10T01:29:44Z</time>
      </trkpt>
      <trkpt lat="-20.97981" lon="55.34962">
        <ele>555</ele>
        <time>2013-10-10T01:29:54Z</time>
      </trkpt>
      <trkpt lat="-20.97982" lon="55.34971">
        <ele>558.2</ele>
        <time>2013-10-10T01:30:04Z</time>
      </trkpt>
      <trkpt lat="-20.97987" lon="55.3498">
        <ele>561.3</ele>
        <time>2013-10-10T01:30:16Z</time>
      </trkpt>
      <trkpt lat="-20.97994" lon="55.34999">
        <ele>567.8</ele>
        <time>2013-10-10T01:30:41Z</time>
      </trkpt>
      <trkpt lat="-20.97996" lon="55.3501">
        <ele>568</ele>
        <time>2013-10-10T01:30:49Z</time>
      </trkpt>
      <trkpt lat="-20.97996" lon="55.35021">
        <ele>568.9</ele>
        <time>2013-10-10T01:30:56Z</time>
      </trkpt>
      <trkpt lat="-20.97997" lon="55.35032">
        <ele>569.2</ele>
        <time>2013-10-10T01:31:04Z</time>
      </trkpt>
      <trkpt lat="-20.98" lon="55.35041">
        <ele>569.1</ele>
        <time>2013-10-10T01:31:10Z</time>
      </trkpt>
      <trkpt lat="-20.98005" lon="55.35051">
        <ele>570</ele>
        <time>2013-10-10T01:31:17Z</time>
      </trkpt>
      <trkpt lat="-20.98015" lon="55.3507">
        <ele>568.9</ele>
        <time>2013-10-10T01:31:31Z</time>
      </trkpt>
      <trkpt lat="-20.98021" lon="55.35078">
        <ele>569.9</ele>
        <time>2013-10-10T01:31:37Z</time>
      </trkpt>
      <trkpt lat="-20.98027" lon="55.35086">
        <ele>571</ele>
        <time>2013-10-10T01:31:45Z</time>
      </trkpt>
      <trkpt lat="-20.98036" lon="55.35083">
        <ele>572.5</ele>
        <time>2013-10-10T01:31:53Z</time>
      </trkpt>
      <trkpt lat="-20.98044" lon="55.35076">
        <ele>574.1</ele>
        <time>2013-10-10T01:32:00Z</time>
      </trkpt>
      <trkpt lat="-20.98053" lon="55.35072">
        <ele>575.5</ele>
        <time>2013-10-10T01:32:08Z</time>
      </trkpt>
      <trkpt lat="-20.98058" lon="55.35081">
        <ele>575.6</ele>
        <time>2013-10-10T01:32:15Z</time>
      </trkpt>
      <trkpt lat="-20.98057" lon="55.35091">
        <ele>578</ele>
        <time>2013-10-10T01:32:24Z</time>
      </trkpt>
      <trkpt lat="-20.98052" lon="55.3511">
        <ele>581.4</ele>
        <time>2013-10-10T01:32:44Z</time>
      </trkpt>
      <trkpt lat="-20.98049" lon="55.3512">
        <ele>583.9</ele>
        <time>2013-10-10T01:32:51Z</time>
      </trkpt>
      <trkpt lat="-20.98047" lon="55.35131">
        <ele>584.8</ele>
        <time>2013-10-10T01:32:58Z</time>
      </trkpt>
      <trkpt lat="-20.98045" lon="55.3514">
        <ele>585.4</ele>
        <time>2013-10-10T01:33:08Z</time>
      </trkpt>
      <trkpt lat="-20.9805" lon="55.35149">
        <ele>588.4</ele>
        <time>2013-10-10T01:33:19Z</time>
      </trkpt>
      <trkpt lat="-20.98059" lon="55.35145">
        <ele>589.9</ele>
        <time>2013-10-10T01:33:29Z</time>
      </trkpt>
      <trkpt lat="-20.98064" lon="55.35162">
        <ele>594.5</ele>
        <time>2013-10-10T01:33:56Z</time>
      </trkpt>
      <trkpt lat="-20.98061" lon="55.35172">
        <ele>596</ele>
        <time>2013-10-10T01:34:04Z</time>
      </trkpt>
      <trkpt lat="-20.98058" lon="55.35181">
        <ele>597.3</ele>
        <time>2013-10-10T01:34:12Z</time>
      </trkpt>
      <trkpt lat="-20.98064" lon="55.3519">
        <ele>599.8</ele>
        <time>2013-10-10T01:34:21Z</time>
      </trkpt>
      <trkpt lat="-20.98068" lon="55.35199">
        <ele>600.5</ele>
        <time>2013-10-10T01:34:30Z</time>
      </trkpt>
      <trkpt lat="-20.98082" lon="55.35214">
        <ele>604.8</ele>
        <time>2013-10-10T01:34:48Z</time>
      </trkpt>
      <trkpt lat="-20.9809" lon="55.3522">
        <ele>605.6</ele>
        <time>2013-10-10T01:34:57Z</time>
      </trkpt>
      <trkpt lat="-20.98096" lon="55.35227">
        <ele>608.1</ele>
        <time>2013-10-10T01:35:05Z</time>
      </trkpt>
      <trkpt lat="-20.98104" lon="55.35234">
        <ele>611</ele>
        <time>2013-10-10T01:35:15Z</time>
      </trkpt>
      <trkpt lat="-20.9811" lon="55.35241">
        <ele>611.6</ele>
        <time>2013-10-10T01:35:24Z</time>
      </trkpt>
      <trkpt lat="-20.98112" lon="55.35251">
        <ele>613.2</ele>
        <time>2013-10-10T01:35:34Z</time>
      </trkpt>
      <trkpt lat="-20.98125" lon="55.35265">
        <ele>616.6</ele>
        <time>2013-10-10T01:35:54Z</time>
      </trkpt>
      <trkpt lat="-20.98129" lon="55.35274">
        <ele>618.5</ele>
        <time>2013-10-10T01:36:02Z</time>
      </trkpt>
      <trkpt lat="-20.98132" lon="55.35284">
        <ele>619.7</ele>
        <time>2013-10-10T01:36:10Z</time>
      </trkpt>
      <trkpt lat="-20.98134" lon="55.35294">
        <ele>620.9</ele>
        <time>2013-10-10T01:36:18Z</time>
      </trkpt>
      <trkpt lat="-20.98138" lon="55.35303">
        <ele>622.5</ele>
        <time>2013-10-10T01:36:27Z</time>
      </trkpt>
      <trkpt lat="-20.98142" lon="55.35314">
        <ele>623.3</ele>
        <time>2013-10-10T01:36:34Z</time>
      </trkpt>
      <trkpt lat="-20.9814" lon="55.35325">
        <ele>625.3</ele>
        <time>2013-10-10T01:36:42Z</time>
      </trkpt>
      <trkpt lat="-20.98153" lon="55.35331">
        <ele>628.9</ele>
        <time>2013-10-10T01:36:58Z</time>
      </trkpt>
      <trkpt lat="-20.98162" lon="55.3533">
        <ele>630.1</ele>
        <time>2013-10-10T01:37:05Z</time>
      </trkpt>
      <trkpt lat="-20.98169" lon="55.35336">
        <ele>631.6</ele>
        <time>2013-10-10T01:37:13Z</time>
      </trkpt>
      <trkpt lat="-20.98172" lon="55.35346">
        <ele>632.9</ele>
        <time>2013-10-10T01:37:23Z</time>
      </trkpt>
      <trkpt lat="-20.98172" lon="55.35356">
        <ele>634.9</ele>
        <time>2013-10-10T01:37:33Z</time>
      </trkpt>
      <trkpt lat="-20.98175" lon="55.35365">
        <ele>636.2</ele>
        <time>2013-10-10T01:37:42Z</time>
      </trkpt>
      <trkpt lat="-20.98173" lon="55.35375">
        <ele>638.5</ele>
        <time>2013-10-10T01:37:56Z</time>
      </trkpt>
      <trkpt lat="-20.98157" lon="55.35386">
        <ele>640.9</ele>
        <time>2013-10-10T01:38:13Z</time>
      </trkpt>
      <trkpt lat="-20.98149" lon="55.35392">
        <ele>643.3</ele>
        <time>2013-10-10T01:38:21Z</time>
      </trkpt>
      <trkpt lat="-20.98153" lon="55.35402">
        <ele>644.4</ele>
        <time>2013-10-10T01:38:31Z</time>
      </trkpt>
      <trkpt lat="-20.98162" lon="55.35406">
        <ele>645.3</ele>
        <time>2013-10-10T01:38:39Z</time>
      </trkpt>
      <trkpt lat="-20.9817" lon="55.35411">
        <ele>646.9</ele>
        <time>2013-10-10T01:38:47Z</time>
      </trkpt>
      <trkpt lat="-20.98179" lon="55.35412">
        <ele>649</ele>
        <time>2013-10-10T01:38:56Z</time>
      </trkpt>
      <trkpt lat="-20.98189" lon="55.35417">
        <ele>650</ele>
        <time>2013-10-10T01:39:05Z</time>
      </trkpt>
      <trkpt lat="-20.98182" lon="55.35431">
        <ele>655.8</ele>
        <time>2013-10-10T01:39:32Z</time>
      </trkpt>
      <trkpt lat="-20.98172" lon="55.3543">
        <ele>656.2</ele>
        <time>2013-10-10T01:39:39Z</time>
      </trkpt>
      <trkpt lat="-20.98164" lon="55.35435">
        <ele>656.4</ele>
        <time>2013-10-10T01:39:45Z</time>
      </trkpt>
      <trkpt lat="-20.98167" lon="55.35444">
        <ele>658.4</ele>
        <time>2013-10-10T01:39:54Z</time>
      </trkpt>
      <trkpt lat="-20.98176" lon="55.35446">
        <ele>659.4</ele>
        <time>2013-10-10T01:40:02Z</time>
      </trkpt>
      <trkpt lat="-20.98185" lon="55.35448">
        <ele>660.1</ele>
        <time>2013-10-10T01:40:11Z</time>
      </trkpt>
      <trkpt lat="-20.98204" lon="55.35454">
        <ele>661.5</ele>
        <time>2013-10-10T01:40:27Z</time>
      </trkpt>
      <trkpt lat="-20.98214" lon="55.35458">
        <ele>663.6</ele>
        <time>2013-10-10T01:40:35Z</time>
      </trkpt>
      <trkpt lat="-20.98223" lon="55.35461">
        <ele>665</ele>
        <time>2013-10-10T01:40:43Z</time>
      </trkpt>
      <trkpt lat="-20.98232" lon="55.35465">
        <ele>667.3</ele>
        <time>2013-10-10T01:40:53Z</time>
      </trkpt>
      <trkpt lat="-20.98241" lon="55.35469">
        <ele>669.4</ele>
        <time>2013-10-10T01:41:02Z</time>
      </trkpt>
      <trkpt lat="-20.98247" lon="55.35477">
        <ele>671</ele>
        <time>2013-10-10T01:41:09Z</time>
      </trkpt>
      <trkpt lat="-20.98255" lon="55.35483">
        <ele>670.7</ele>
        <time>2013-10-10T01:41:17Z</time>
      </trkpt>
      <trkpt lat="-20.98268" lon="55.35496">
        <ele>673.6</ele>
        <time>2013-10-10T01:41:36Z</time>
      </trkpt>
      <trkpt lat="-20.98272" lon="55.35505">
        <ele>674.7</ele>
        <time>2013-10-10T01:41:44Z</time>
      </trkpt>
      <trkpt lat="-20.98277" lon="55.35514">
        <ele>676.3</ele>
        <time>2013-10-10T01:41:51Z</time>
      </trkpt>
      <trkpt lat="-20.98284" lon="55.35521">
        <ele>678</ele>
        <time>2013-10-10T01:41:58Z</time>
      </trkpt>
      <trkpt lat="-20.98293" lon="55.35527">
        <ele>679.1</ele>
        <time>2013-10-10T01:42:04Z</time>
      </trkpt>
      <trkpt lat="-20.98303" lon="55.35527">
        <ele>681.7</ele>
        <time>2013-10-10T01:42:12Z</time>
      </trkpt>
      <trkpt lat="-20.98313" lon="55.35525">
        <ele>682.4</ele>
        <time>2013-10-10T01:42:20Z</time>
      </trkpt>
      <trkpt lat="-20.9833" lon="55.35515">
        <ele>685.2</ele>
        <time>2013-10-10T01:42:36Z</time>
      </trkpt>
      <trkpt lat="-20.98337" lon="55.35509">
        <ele>687.2</ele>
        <time>2013-10-10T01:42:44Z</time>
      </trkpt>
      <trkpt lat="-20.98332" lon="55.35519">
        <ele>691.1</ele>
        <time>2013-10-10T01:43:10Z</time>
      </trkpt>
      <trkpt lat="-20.98325" lon="55.35527">
        <ele>692.7</ele>
        <time>2013-10-10T01:43:17Z</time>
      </trkpt>
      <trkpt lat="-20.98319" lon="55.35534">
        <ele>693.3</ele>
        <time>2013-10-10T01:43:23Z</time>
      </trkpt>
      <trkpt lat="-20.98305" lon="55.35546">
        <ele>694</ele>
        <time>2013-10-10T01:43:41Z</time>
      </trkpt>
      <trkpt lat="-20.98299" lon="55.35555">
        <ele>694.8</ele>
        <time>2013-10-10T01:43:51Z</time>
      </trkpt>
      <trkpt lat="-20.98294" lon="55.35563">
        <ele>695.7</ele>
        <time>2013-10-10T01:43:57Z</time>
      </trkpt>
      <trkpt lat="-20.98288" lon="55.35574">
        <ele>696</ele>
        <time>2013-10-10T01:44:06Z</time>
      </trkpt>
      <trkpt lat="-20.98283" lon="55.35584">
        <ele>697.1</ele>
        <time>2013-10-10T01:44:13Z</time>
      </trkpt>
      <trkpt lat="-20.98282" lon="55.35593">
        <ele>698.5</ele>
        <time>2013-10-10T01:44:19Z</time>
      </trkpt>
      <trkpt lat="-20.9829" lon="55.35599">
        <ele>699.9</ele>
        <time>2013-10-10T01:44:27Z</time>
      </trkpt>
      <trkpt lat="-20.98308" lon="55.35595">
        <ele>703.8</ele>
        <time>2013-10-10T01:44:43Z</time>
      </trkpt>
      <trkpt lat="-20.98316" lon="55.3559">
        <ele>705.1</ele>
        <time>2013-10-10T01:44:52Z</time>
      </trkpt>
      <trkpt lat="-20.98315" lon="55.35599">
        <ele>708.7</ele>
        <time>2013-10-10T01:45:12Z</time>
      </trkpt>
      <trkpt lat="-20.98314" lon="55.35609">
        <ele>711.9</ele>
        <time>2013-10-10T01:45:26Z</time>
      </trkpt>
      <trkpt lat="-20.98322" lon="55.35605">
        <ele>713.7</ele>
        <time>2013-10-10T01:45:35Z</time>
      </trkpt>
      <trkpt lat="-20.98338" lon="55.35593">
        <ele>716</ele>
        <time>2013-10-10T01:45:52Z</time>
      </trkpt>
      <trkpt lat="-20.98347" lon="55.35588">
        <ele>717.2</ele>
        <time>2013-10-10T01:45:59Z</time>
      </trkpt>
      <trkpt lat="-20.98356" lon="55.35584">
        <ele>718.1</ele>
        <time>2013-10-10T01:46:07Z</time>
      </trkpt>
      <trkpt lat="-20.98366" lon="55.35584">
        <ele>718.8</ele>
        <time>2013-10-10T01:46:15Z</time>
      </trkpt>
      <trkpt lat="-20.9836" lon="55.35592">
        <ele>722.8</ele>
        <time>2013-10-10T01:46:29Z</time>
      </trkpt>
      <trkpt lat="-20.98352" lon="55.35597">
        <ele>723.1</ele>
        <time>2013-10-10T01:46:36Z</time>
      </trkpt>
      <trkpt lat="-20.98353" lon="55.35607">
        <ele>724.7</ele>
        <time>2013-10-10T01:46:46Z</time>
      </trkpt>
      <trkpt lat="-20.98372" lon="55.35607">
        <ele>728.3</ele>
        <time>2013-10-10T01:47:02Z</time>
      </trkpt>
      <trkpt lat="-20.98379" lon="55.35602">
        <ele>730.7</ele>
        <time>2013-10-10T01:47:09Z</time>
      </trkpt>
      <trkpt lat="-20.98386" lon="55.35594">
        <ele>732.1</ele>
        <time>2013-10-10T01:47:18Z</time>
      </trkpt>
      <trkpt lat="-20.98395" lon="55.3559">
        <ele>734</ele>
        <time>2013-10-10T01:47:27Z</time>
      </trkpt>
      <trkpt lat="-20.98405" lon="55.35594">
        <ele>734</ele>
        <time>2013-10-10T01:47:34Z</time>
      </trkpt>
      <trkpt lat="-20.98415" lon="55.35596">
        <ele>735.1</ele>
        <time>2013-10-10T01:47:42Z</time>
      </trkpt>
      <trkpt lat="-20.98424" lon="55.35598">
        <ele>736.7</ele>
        <time>2013-10-10T01:47:51Z</time>
      </trkpt>
      <trkpt lat="-20.98428" lon="55.35606">
        <ele>741.1</ele>
        <time>2013-10-10T01:48:45Z</time>
      </trkpt>
      <trkpt lat="-20.98419" lon="55.35607">
        <ele>742.9</ele>
        <time>2013-10-10T01:48:58Z</time>
      </trkpt>
      <trkpt lat="-20.98407" lon="55.35621">
        <ele>745.4</ele>
        <time>2013-10-10T01:49:22Z</time>
      </trkpt>
      <trkpt lat="-20.98405" lon="55.35631">
        <ele>744.8</ele>
        <time>2013-10-10T01:49:30Z</time>
      </trkpt>
      <trkpt lat="-20.98404" lon="55.35641">
        <ele>744.6</ele>
        <time>2013-10-10T01:49:38Z</time>
      </trkpt>
      <trkpt lat="-20.98407" lon="55.3565">
        <ele>744.5</ele>
        <time>2013-10-10T01:49:52Z</time>
      </trkpt>
      <trkpt lat="-20.98414" lon="55.35658">
        <ele>744.7</ele>
        <time>2013-10-10T01:50:18Z</time>
      </trkpt>
      <trkpt lat="-20.98422" lon="55.35678">
        <ele>744.8</ele>
        <time>2013-10-10T01:50:37Z</time>
      </trkpt>
      <trkpt lat="-20.98426" lon="55.35687">
        <ele>744.8</ele>
        <time>2013-10-10T01:50:43Z</time>
      </trkpt>
      <trkpt lat="-20.98433" lon="55.35695">
        <ele>744.5</ele>
        <time>2013-10-10T01:50:50Z</time>
      </trkpt>
      <trkpt lat="-20.98437" lon="55.35706">
        <ele>744.5</ele>
        <time>2013-10-10T01:50:59Z</time>
      </trkpt>
      <trkpt lat="-20.9844" lon="55.35717">
        <ele>744.6</ele>
        <time>2013-10-10T01:51:05Z</time>
      </trkpt>
      <trkpt lat="-20.98442" lon="55.35729">
        <ele>745</ele>
        <time>2013-10-10T01:51:11Z</time>
      </trkpt>
      <trkpt lat="-20.98446" lon="55.35738">
        <ele>744.7</ele>
        <time>2013-10-10T01:51:20Z</time>
      </trkpt>
      <trkpt lat="-20.98455" lon="55.35754">
        <ele>745.3</ele>
        <time>2013-10-10T01:51:42Z</time>
      </trkpt>
      <trkpt lat="-20.98455" lon="55.35764">
        <ele>744.8</ele>
        <time>2013-10-10T01:51:49Z</time>
      </trkpt>
      <trkpt lat="-20.98457" lon="55.35773">
        <ele>745</ele>
        <time>2013-10-10T01:51:54Z</time>
      </trkpt>
      <trkpt lat="-20.98459" lon="55.35783">
        <ele>745.2</ele>
        <time>2013-10-10T01:51:58Z</time>
      </trkpt>
      <trkpt lat="-20.98464" lon="55.35794">
        <ele>745</ele>
        <time>2013-10-10T01:52:04Z</time>
      </trkpt>
      <trkpt lat="-20.98467" lon="55.35805">
        <ele>745</ele>
        <time>2013-10-10T01:52:10Z</time>
      </trkpt>
      <trkpt lat="-20.98475" lon="55.35813">
        <ele>745</ele>
        <time>2013-10-10T01:52:18Z</time>
      </trkpt>
      <trkpt lat="-20.98483" lon="55.35816">
        <ele>745.8</ele>
        <time>2013-10-10T01:52:37Z</time>
      </trkpt>
      <trkpt lat="-20.98499" lon="55.3583">
        <ele>744.8</ele>
        <time>2013-10-10T01:52:49Z</time>
      </trkpt>
      <trkpt lat="-20.98505" lon="55.35839">
        <ele>744.7</ele>
        <time>2013-10-10T01:52:55Z</time>
      </trkpt>
      <trkpt lat="-20.98511" lon="55.35847">
        <ele>745.1</ele>
        <time>2013-10-10T01:53:01Z</time>
      </trkpt>
      <trkpt lat="-20.9852" lon="55.35852">
        <ele>744.1</ele>
        <time>2013-10-10T01:53:10Z</time>
      </trkpt>
      <trkpt lat="-20.98527" lon="55.35858">
        <ele>745.3</ele>
        <time>2013-10-10T01:53:17Z</time>
      </trkpt>
      <trkpt lat="-20.98535" lon="55.35863">
        <ele>744.7</ele>
        <time>2013-10-10T01:53:24Z</time>
      </trkpt>
      <trkpt lat="-20.98542" lon="55.3587">
        <ele>745.1</ele>
        <time>2013-10-10T01:53:30Z</time>
      </trkpt>
      <trkpt lat="-20.98546" lon="55.3588">
        <ele>744.9</ele>
        <time>2013-10-10T01:53:37Z</time>
      </trkpt>
      <trkpt lat="-20.9855" lon="55.3589">
        <ele>745.7</ele>
        <time>2013-10-10T01:53:45Z</time>
      </trkpt>
      <trkpt lat="-20.98567" lon="55.35901">
        <ele>745.2</ele>
        <time>2013-10-10T01:54:01Z</time>
      </trkpt>
      <trkpt lat="-20.98574" lon="55.35906">
        <ele>745.6</ele>
        <time>2013-10-10T01:54:10Z</time>
      </trkpt>
      <trkpt lat="-20.9858" lon="55.35915">
        <ele>745.1</ele>
        <time>2013-10-10T01:54:25Z</time>
      </trkpt>
      <trkpt lat="-20.98589" lon="55.35917">
        <ele>745</ele>
        <time>2013-10-10T01:56:54Z</time>
      </trkpt>
      <trkpt lat="-20.98599" lon="55.35931">
        <ele>745.7</ele>
        <time>2013-10-10T01:57:11Z</time>
      </trkpt>
      <trkpt lat="-20.98603" lon="55.35941">
        <ele>745.9</ele>
        <time>2013-10-10T01:57:22Z</time>
      </trkpt>
      <trkpt lat="-20.98615" lon="55.35942">
        <ele>745.1</ele>
        <time>2013-10-10T01:57:31Z</time>
      </trkpt>
      <trkpt lat="-20.98625" lon="55.3594">
        <ele>745.3</ele>
        <time>2013-10-10T01:57:37Z</time>
      </trkpt>
      <trkpt lat="-20.98634" lon="55.35937">
        <ele>745</ele>
        <time>2013-10-10T01:57:49Z</time>
      </trkpt>
      <trkpt lat="-20.98645" lon="55.3594">
        <ele>745</ele>
        <time>2013-10-10T01:58:01Z</time>
      </trkpt>
      <trkpt lat="-20.98651" lon="55.35961">
        <ele>745.9</ele>
        <time>2013-10-10T01:58:16Z</time>
      </trkpt>
      <trkpt lat="-20.98659" lon="55.35967">
        <ele>745.3</ele>
        <time>2013-10-10T01:58:22Z</time>
      </trkpt>
      <trkpt lat="-20.98665" lon="55.35974">
        <ele>745.6</ele>
        <time>2013-10-10T01:58:27Z</time>
      </trkpt>
      <trkpt lat="-20.98671" lon="55.35982">
        <ele>745.7</ele>
        <time>2013-10-10T01:58:33Z</time>
      </trkpt>
      <trkpt lat="-20.98678" lon="55.35988">
        <ele>746.2</ele>
        <time>2013-10-10T01:58:39Z</time>
      </trkpt>
      <trkpt lat="-20.98684" lon="55.35996">
        <ele>745.5</ele>
        <time>2013-10-10T01:58:46Z</time>
      </trkpt>
      <trkpt lat="-20.9869" lon="55.36004">
        <ele>745.4</ele>
        <time>2013-10-10T01:58:52Z</time>
      </trkpt>
      <trkpt lat="-20.98696" lon="55.36012">
        <ele>745.6</ele>
        <time>2013-10-10T01:58:58Z</time>
      </trkpt>
      <trkpt lat="-20.98701" lon="55.36021">
        <ele>745.2</ele>
        <time>2013-10-10T01:59:04Z</time>
      </trkpt>
      <trkpt lat="-20.98705" lon="55.36031">
        <ele>745</ele>
        <time>2013-10-10T01:59:12Z</time>
      </trkpt>
      <trkpt lat="-20.9872" lon="55.36043">
        <ele>744.7</ele>
        <time>2013-10-10T01:59:25Z</time>
      </trkpt>
      <trkpt lat="-20.98724" lon="55.36052">
        <ele>744.3</ele>
        <time>2013-10-10T01:59:32Z</time>
      </trkpt>
      <trkpt lat="-20.98729" lon="55.3606">
        <ele>745</ele>
        <time>2013-10-10T01:59:38Z</time>
      </trkpt>
      <trkpt lat="-20.9873" lon="55.3607">
        <ele>744.7</ele>
        <time>2013-10-10T01:59:46Z</time>
      </trkpt>
      <trkpt lat="-20.98728" lon="55.3608">
        <ele>745.4</ele>
        <time>2013-10-10T01:59:57Z</time>
      </trkpt>
      <trkpt lat="-20.98722" lon="55.36071">
        <ele>744.9</ele>
        <time>2013-10-10T02:00:06Z</time>
      </trkpt>
      <trkpt lat="-20.98714" lon="55.36063">
        <ele>745</ele>
        <time>2013-10-10T02:00:11Z</time>
      </trkpt>
      <trkpt lat="-20.98705" lon="55.36064">
        <ele>744.8</ele>
        <time>2013-10-10T02:00:17Z</time>
      </trkpt>
      <trkpt lat="-20.98706" lon="55.36086">
        <ele>745</ele>
        <time>2013-10-10T02:00:27Z</time>
      </trkpt>
      <trkpt lat="-20.98709" lon="55.36096">
        <ele>745</ele>
        <time>2013-10-10T02:00:31Z</time>
      </trkpt>
      <trkpt lat="-20.98706" lon="55.36106">
        <ele>745.8</ele>
        <time>2013-10-10T02:00:36Z</time>
      </trkpt>
      <trkpt lat="-20.9871" lon="55.36115">
        <ele>746</ele>
        <time>2013-10-10T02:00:48Z</time>
      </trkpt>
      <trkpt lat="-20.98717" lon="55.36121">
        <ele>745.9</ele>
        <time>2013-10-10T02:01:05Z</time>
      </trkpt>
      <trkpt lat="-20.98723" lon="55.3613">
        <ele>744.6</ele>
        <time>2013-10-10T02:01:18Z</time>
      </trkpt>
      <trkpt lat="-20.98727" lon="55.3614">
        <ele>744.5</ele>
        <time>2013-10-10T02:01:26Z</time>
      </trkpt>
      <trkpt lat="-20.9874" lon="55.36154">
        <ele>745.7</ele>
        <time>2013-10-10T02:01:39Z</time>
      </trkpt>
      <trkpt lat="-20.98745" lon="55.36163">
        <ele>746</ele>
        <time>2013-10-10T02:01:45Z</time>
      </trkpt>
      <trkpt lat="-20.98746" lon="55.36174">
        <ele>746.8</ele>
        <time>2013-10-10T02:01:51Z</time>
      </trkpt>
      <trkpt lat="-20.98753" lon="55.36181">
        <ele>746</ele>
        <time>2013-10-10T02:01:58Z</time>
      </trkpt>
      <trkpt lat="-20.98762" lon="55.36186">
        <ele>744.9</ele>
        <time>2013-10-10T02:02:04Z</time>
      </trkpt>
      <trkpt lat="-20.98769" lon="55.36193">
        <ele>746</ele>
        <time>2013-10-10T02:02:10Z</time>
      </trkpt>
      <trkpt lat="-20.98776" lon="55.36199">
        <ele>745.5</ele>
        <time>2013-10-10T02:02:15Z</time>
      </trkpt>
      <trkpt lat="-20.98786" lon="55.36198">
        <ele>745.8</ele>
        <time>2013-10-10T02:02:21Z</time>
      </trkpt>
      <trkpt lat="-20.98796" lon="55.36194">
        <ele>745.6</ele>
        <time>2013-10-10T02:02:27Z</time>
      </trkpt>
      <trkpt lat="-20.98806" lon="55.36194">
        <ele>745.3</ele>
        <time>2013-10-10T02:02:33Z</time>
      </trkpt>
      <trkpt lat="-20.98816" lon="55.36204">
        <ele>745.2</ele>
        <time>2013-10-10T02:02:50Z</time>
      </trkpt>
      <trkpt lat="-20.98819" lon="55.36218">
        <ele>745</ele>
        <time>2013-10-10T02:02:58Z</time>
      </trkpt>
      <trkpt lat="-20.98829" lon="55.36222">
        <ele>745.7</ele>
        <time>2013-10-10T02:03:04Z</time>
      </trkpt>
      <trkpt lat="-20.98837" lon="55.36229">
        <ele>745.8</ele>
        <time>2013-10-10T02:03:10Z</time>
      </trkpt>
      <trkpt lat="-20.9884" lon="55.3624">
        <ele>745.3</ele>
        <time>2013-10-10T02:03:17Z</time>
      </trkpt>
      <trkpt lat="-20.98845" lon="55.36249">
        <ele>745</ele>
        <time>2013-10-10T02:03:23Z</time>
      </trkpt>
      <trkpt lat="-20.98851" lon="55.36257">
        <ele>745.7</ele>
        <time>2013-10-10T02:03:30Z</time>
      </trkpt>
      <trkpt lat="-20.98857" lon="55.36266">
        <ele>745.5</ele>
        <time>2013-10-10T02:03:39Z</time>
      </trkpt>
      <trkpt lat="-20.98871" lon="55.36281">
        <ele>744.7</ele>
        <time>2013-10-10T02:03:53Z</time>
      </trkpt>
      <trkpt lat="-20.98869" lon="55.36291">
        <ele>745.4</ele>
        <time>2013-10-10T02:04:00Z</time>
      </trkpt>
      <trkpt lat="-20.98863" lon="55.363">
        <ele>746.1</ele>
        <time>2013-10-10T02:04:06Z</time>
      </trkpt>
      <trkpt lat="-20.98865" lon="55.3631">
        <ele>746</ele>
        <time>2013-10-10T02:04:12Z</time>
      </trkpt>
      <trkpt lat="-20.98874" lon="55.36313">
        <ele>746.3</ele>
        <time>2013-10-10T02:04:16Z</time>
      </trkpt>
      <trkpt lat="-20.98884" lon="55.36311">
        <ele>745.9</ele>
        <time>2013-10-10T02:04:20Z</time>
      </trkpt>
      <trkpt lat="-20.98897" lon="55.36311">
        <ele>745</ele>
        <time>2013-10-10T02:04:25Z</time>
      </trkpt>
      <trkpt lat="-20.98911" lon="55.36315">
        <ele>745</ele>
        <time>2013-10-10T02:04:33Z</time>
      </trkpt>
      <trkpt lat="-20.98912" lon="55.36329">
        <ele>745</ele>
        <time>2013-10-10T02:04:41Z</time>
      </trkpt>
      <trkpt lat="-20.98913" lon="55.36351">
        <ele>746.2</ele>
        <time>2013-10-10T02:04:54Z</time>
      </trkpt>
      <trkpt lat="-20.98922" lon="55.36356">
        <ele>746.4</ele>
        <time>2013-10-10T02:04:59Z</time>
      </trkpt>
      <trkpt lat="-20.98932" lon="55.36358">
        <ele>746.1</ele>
        <time>2013-10-10T02:05:04Z</time>
      </trkpt>
      <trkpt lat="-20.98941" lon="55.36361">
        <ele>746.1</ele>
        <time>2013-10-10T02:05:09Z</time>
      </trkpt>
      <trkpt lat="-20.98951" lon="55.36364">
        <ele>745.8</ele>
        <time>2013-10-10T02:05:14Z</time>
      </trkpt>
      <trkpt lat="-20.98959" lon="55.3637">
        <ele>746.2</ele>
        <time>2013-10-10T02:05:20Z</time>
      </trkpt>
      <trkpt lat="-20.98962" lon="55.36379">
        <ele>746.9</ele>
        <time>2013-10-10T02:05:26Z</time>
      </trkpt>
      <trkpt lat="-20.98968" lon="55.36386">
        <ele>746.5</ele>
        <time>2013-10-10T02:05:32Z</time>
      </trkpt>
      <trkpt lat="-20.98975" lon="55.36394">
        <ele>746.1</ele>
        <time>2013-10-10T02:05:39Z</time>
      </trkpt>
      <trkpt lat="-20.98984" lon="55.364">
        <ele>746.4</ele>
        <time>2013-10-10T02:05:49Z</time>
      </trkpt>
      <trkpt lat="-20.98999" lon="55.36412">
        <ele>746.6</ele>
        <time>2013-10-10T02:06:00Z</time>
      </trkpt>
      <trkpt lat="-20.99007" lon="55.36418">
        <ele>746</ele>
        <time>2013-10-10T02:06:07Z</time>
      </trkpt>
      <trkpt lat="-20.99016" lon="55.36424">
        <ele>746.6</ele>
        <time>2013-10-10T02:06:14Z</time>
      </trkpt>
      <trkpt lat="-20.99025" lon="55.36426">
        <ele>746.2</ele>
        <time>2013-10-10T02:06:20Z</time>
      </trkpt>
      <trkpt lat="-20.99034" lon="55.36426">
        <ele>746</ele>
        <time>2013-10-10T02:06:26Z</time>
      </trkpt>
      <trkpt lat="-20.99043" lon="55.36431">
        <ele>746.3</ele>
        <time>2013-10-10T02:06:33Z</time>
      </trkpt>
      <trkpt lat="-20.99051" lon="55.36437">
        <ele>746.8</ele>
        <time>2013-10-10T02:06:40Z</time>
      </trkpt>
      <trkpt lat="-20.99059" lon="55.36445">
        <ele>746.2</ele>
        <time>2013-10-10T02:06:47Z</time>
      </trkpt>
      <trkpt lat="-20.99066" lon="55.36451">
        <ele>745</ele>
        <time>2013-10-10T02:06:53Z</time>
      </trkpt>
      <trkpt lat="-20.99079" lon="55.36466">
        <ele>745.8</ele>
        <time>2013-10-10T02:07:05Z</time>
      </trkpt>
      <trkpt lat="-20.99084" lon="55.36474">
        <ele>745.9</ele>
        <time>2013-10-10T02:07:13Z</time>
      </trkpt>
      <trkpt lat="-20.99082" lon="55.36485">
        <ele>746.1</ele>
        <time>2013-10-10T02:07:19Z</time>
      </trkpt>
      <trkpt lat="-20.99078" lon="55.36493">
        <ele>745.9</ele>
        <time>2013-10-10T02:07:24Z</time>
      </trkpt>
      <trkpt lat="-20.9908" lon="55.36503">
        <ele>746.4</ele>
        <time>2013-10-10T02:07:30Z</time>
      </trkpt>
      <trkpt lat="-20.99089" lon="55.36508">
        <ele>746.2</ele>
        <time>2013-10-10T02:07:35Z</time>
      </trkpt>
      <trkpt lat="-20.99098" lon="55.36511">
        <ele>746</ele>
        <time>2013-10-10T02:07:40Z</time>
      </trkpt>
      <trkpt lat="-20.99107" lon="55.36515">
        <ele>746.6</ele>
        <time>2013-10-10T02:07:45Z</time>
      </trkpt>
      <trkpt lat="-20.99115" lon="55.3652">
        <ele>745.8</ele>
        <time>2013-10-10T02:07:51Z</time>
      </trkpt>
      <trkpt lat="-20.99122" lon="55.36528">
        <ele>746.7</ele>
        <time>2013-10-10T02:07:58Z</time>
      </trkpt>
      <trkpt lat="-20.9914" lon="55.36538">
        <ele>746</ele>
        <time>2013-10-10T02:08:12Z</time>
      </trkpt>
      <trkpt lat="-20.99149" lon="55.36536">
        <ele>746</ele>
        <time>2013-10-10T02:08:18Z</time>
      </trkpt>
      <trkpt lat="-20.99162" lon="55.36537">
        <ele>745</ele>
        <time>2013-10-10T02:08:26Z</time>
      </trkpt>
      <trkpt lat="-20.99173" lon="55.36546">
        <ele>746</ele>
        <time>2013-10-10T02:08:38Z</time>
      </trkpt>
      <trkpt lat="-20.99182" lon="55.36549">
        <ele>747</ele>
        <time>2013-10-10T02:08:46Z</time>
      </trkpt>
      <trkpt lat="-20.99193" lon="55.36556">
        <ele>746</ele>
        <time>2013-10-10T02:08:58Z</time>
      </trkpt>
      <trkpt lat="-20.99209" lon="55.36566">
        <ele>746.2</ele>
        <time>2013-10-10T02:09:14Z</time>
      </trkpt>
      <trkpt lat="-20.99217" lon="55.36572">
        <ele>746.3</ele>
        <time>2013-10-10T02:09:21Z</time>
      </trkpt>
      <trkpt lat="-20.99226" lon="55.36575">
        <ele>746.5</ele>
        <time>2013-10-10T02:09:28Z</time>
      </trkpt>
      <trkpt lat="-20.99236" lon="55.36578">
        <ele>747</ele>
        <time>2013-10-10T02:09:35Z</time>
      </trkpt>
      <trkpt lat="-20.99245" lon="55.36578">
        <ele>746.7</ele>
        <time>2013-10-10T02:09:42Z</time>
      </trkpt>
      <trkpt lat="-20.99254" lon="55.36577">
        <ele>746.6</ele>
        <time>2013-10-10T02:09:50Z</time>
      </trkpt>
      <trkpt lat="-20.99263" lon="55.36573">
        <ele>746.2</ele>
        <time>2013-10-10T02:09:58Z</time>
      </trkpt>
      <trkpt lat="-20.99271" lon="55.36569">
        <ele>746.4</ele>
        <time>2013-10-10T02:10:06Z</time>
      </trkpt>
      <trkpt lat="-20.9928" lon="55.36588">
        <ele>746.5</ele>
        <time>2013-10-10T02:10:20Z</time>
      </trkpt>
      <trkpt lat="-20.99289" lon="55.36589">
        <ele>746.6</ele>
        <time>2013-10-10T02:10:28Z</time>
      </trkpt>
      <trkpt lat="-20.99299" lon="55.36586">
        <ele>747.1</ele>
        <time>2013-10-10T02:10:34Z</time>
      </trkpt>
      <trkpt lat="-20.99303" lon="55.36598">
        <ele>746</ele>
        <time>2013-10-10T02:10:46Z</time>
      </trkpt>
      <trkpt lat="-20.99295" lon="55.36613">
        <ele>746.3</ele>
        <time>2013-10-10T02:10:53Z</time>
      </trkpt>
      <trkpt lat="-20.99291" lon="55.36621">
        <ele>747.3</ele>
        <time>2013-10-10T02:10:57Z</time>
      </trkpt>
      <trkpt lat="-20.99297" lon="55.3663">
        <ele>746</ele>
        <time>2013-10-10T02:11:08Z</time>
      </trkpt>
      <trkpt lat="-20.99314" lon="55.36639">
        <ele>748</ele>
        <time>2013-10-10T02:11:20Z</time>
      </trkpt>
      <trkpt lat="-20.99324" lon="55.36637">
        <ele>747.2</ele>
        <time>2013-10-10T02:11:25Z</time>
      </trkpt>
      <trkpt lat="-20.99334" lon="55.36638">
        <ele>747.4</ele>
        <time>2013-10-10T02:11:31Z</time>
      </trkpt>
      <trkpt lat="-20.99344" lon="55.36641">
        <ele>746.9</ele>
        <time>2013-10-10T02:11:37Z</time>
      </trkpt>
      <trkpt lat="-20.99352" lon="55.36646">
        <ele>746.5</ele>
        <time>2013-10-10T02:11:44Z</time>
      </trkpt>
      <trkpt lat="-20.99361" lon="55.36651">
        <ele>746.9</ele>
        <time>2013-10-10T02:11:50Z</time>
      </trkpt>
      <trkpt lat="-20.99369" lon="55.36656">
        <ele>747.6</ele>
        <time>2013-10-10T02:11:58Z</time>
      </trkpt>
      <trkpt lat="-20.99377" lon="55.36663">
        <ele>747.7</ele>
        <time>2013-10-10T02:12:10Z</time>
      </trkpt>
      <trkpt lat="-20.99396" lon="55.36663">
        <ele>747.6</ele>
        <time>2013-10-10T02:12:22Z</time>
      </trkpt>
      <trkpt lat="-20.99406" lon="55.36662">
        <ele>747.7</ele>
        <time>2013-10-10T02:12:29Z</time>
      </trkpt>
      <trkpt lat="-20.99415" lon="55.3666">
        <ele>746.4</ele>
        <time>2013-10-10T02:12:36Z</time>
      </trkpt>
      <trkpt lat="-20.99425" lon="55.36658">
        <ele>746.9</ele>
        <time>2013-10-10T02:12:43Z</time>
      </trkpt>
      <trkpt lat="-20.99435" lon="55.36657">
        <ele>747.7</ele>
        <time>2013-10-10T02:12:50Z</time>
      </trkpt>
      <trkpt lat="-20.99445" lon="55.36658">
        <ele>747.5</ele>
        <time>2013-10-10T02:12:57Z</time>
      </trkpt>
      <trkpt lat="-20.99454" lon="55.36655">
        <ele>748.7</ele>
        <time>2013-10-10T02:13:03Z</time>
      </trkpt>
      <trkpt lat="-20.99463" lon="55.36653">
        <ele>747.2</ele>
        <time>2013-10-10T02:13:09Z</time>
      </trkpt>
      <trkpt lat="-20.99473" lon="55.3665">
        <ele>747.4</ele>
        <time>2013-10-10T02:13:15Z</time>
      </trkpt>
      <trkpt lat="-20.99487" lon="55.36636">
        <ele>748.2</ele>
        <time>2013-10-10T02:13:28Z</time>
      </trkpt>
      <trkpt lat="-20.99494" lon="55.36629">
        <ele>747.9</ele>
        <time>2013-10-10T02:13:34Z</time>
      </trkpt>
      <trkpt lat="-20.995" lon="55.36621">
        <ele>747.8</ele>
        <time>2013-10-10T02:13:40Z</time>
      </trkpt>
      <trkpt lat="-20.99507" lon="55.36615">
        <ele>748.3</ele>
        <time>2013-10-10T02:13:46Z</time>
      </trkpt>
      <trkpt lat="-20.99513" lon="55.36606">
        <ele>747.7</ele>
        <time>2013-10-10T02:13:53Z</time>
      </trkpt>
      <trkpt lat="-20.99518" lon="55.36598">
        <ele>747.5</ele>
        <time>2013-10-10T02:14:01Z</time>
      </trkpt>
      <trkpt lat="-20.99521" lon="55.36587">
        <ele>747.6</ele>
        <time>2013-10-10T02:14:11Z</time>
      </trkpt>
      <trkpt lat="-20.99534" lon="55.36587">
        <ele>747</ele>
        <time>2013-10-10T02:14:22Z</time>
      </trkpt>
      <trkpt lat="-20.99552" lon="55.36597">
        <ele>747.2</ele>
        <time>2013-10-10T02:14:37Z</time>
      </trkpt>
      <trkpt lat="-20.99555" lon="55.36607">
        <ele>747.3</ele>
        <time>2013-10-10T02:14:47Z</time>
      </trkpt>
      <trkpt lat="-20.99554" lon="55.36618">
        <ele>747.6</ele>
        <time>2013-10-10T02:14:52Z</time>
      </trkpt>
      <trkpt lat="-20.99549" lon="55.36628">
        <ele>747.4</ele>
        <time>2013-10-10T02:14:56Z</time>
      </trkpt>
      <trkpt lat="-20.99544" lon="55.36637">
        <ele>747.9</ele>
        <time>2013-10-10T02:14:59Z</time>
      </trkpt>
      <trkpt lat="-20.99544" lon="55.36648">
        <ele>747.6</ele>
        <time>2013-10-10T02:15:04Z</time>
      </trkpt>
      <trkpt lat="-20.99555" lon="55.36649">
        <ele>748.7</ele>
        <time>2013-10-10T02:15:10Z</time>
      </trkpt>
      <trkpt lat="-20.99571" lon="55.36645">
        <ele>748</ele>
        <time>2013-10-10T02:15:17Z</time>
      </trkpt>
      <trkpt lat="-20.99584" lon="55.36641">
        <ele>748.3</ele>
        <time>2013-10-10T02:15:24Z</time>
      </trkpt>
      <trkpt lat="-20.99594" lon="55.36645">
        <ele>749</ele>
        <time>2013-10-10T02:15:31Z</time>
      </trkpt>
      <trkpt lat="-20.99591" lon="55.36663">
        <ele>748.5</ele>
        <time>2013-10-10T02:15:44Z</time>
      </trkpt>
      <trkpt lat="-20.99585" lon="55.36671">
        <ele>748.6</ele>
        <time>2013-10-10T02:15:48Z</time>
      </trkpt>
      <trkpt lat="-20.99592" lon="55.36679">
        <ele>747</ele>
        <time>2013-10-10T02:15:54Z</time>
      </trkpt>
      <trkpt lat="-20.99601" lon="55.36679">
        <ele>748.3</ele>
        <time>2013-10-10T02:15:58Z</time>
      </trkpt>
      <trkpt lat="-20.99611" lon="55.3668">
        <ele>748.7</ele>
        <time>2013-10-10T02:16:03Z</time>
      </trkpt>
      <trkpt lat="-20.99621" lon="55.3668">
        <ele>748.8</ele>
        <time>2013-10-10T02:16:08Z</time>
      </trkpt>
      <trkpt lat="-20.99631" lon="55.3668">
        <ele>748</ele>
        <time>2013-10-10T02:16:12Z</time>
      </trkpt>
      <trkpt lat="-20.99644" lon="55.36684">
        <ele>749</ele>
        <time>2013-10-10T02:16:20Z</time>
      </trkpt>
      <trkpt lat="-20.99653" lon="55.36687">
        <ele>749.3</ele>
        <time>2013-10-10T02:16:27Z</time>
      </trkpt>
      <trkpt lat="-20.99663" lon="55.36684">
        <ele>748.7</ele>
        <time>2013-10-10T02:16:32Z</time>
      </trkpt>
      <trkpt lat="-20.99675" lon="55.36683">
        <ele>747</ele>
        <time>2013-10-10T02:16:39Z</time>
      </trkpt>
      <trkpt lat="-20.99697" lon="55.36688">
        <ele>749</ele>
        <time>2013-10-10T02:16:55Z</time>
      </trkpt>
      <trkpt lat="-20.99701" lon="55.36697">
        <ele>748</ele>
        <time>2013-10-10T02:17:03Z</time>
      </trkpt>
      <trkpt lat="-20.99703" lon="55.36711">
        <ele>748</ele>
        <time>2013-10-10T02:17:11Z</time>
      </trkpt>
      <trkpt lat="-20.9971" lon="55.36719">
        <ele>748.3</ele>
        <time>2013-10-10T02:17:18Z</time>
      </trkpt>
      <trkpt lat="-20.99718" lon="55.36725">
        <ele>748</ele>
        <time>2013-10-10T02:17:23Z</time>
      </trkpt>
      <trkpt lat="-20.99727" lon="55.3673">
        <ele>747.7</ele>
        <time>2013-10-10T02:17:28Z</time>
      </trkpt>
      <trkpt lat="-20.99734" lon="55.36736">
        <ele>747.9</ele>
        <time>2013-10-10T02:17:33Z</time>
      </trkpt>
      <trkpt lat="-20.99742" lon="55.36741">
        <ele>748.2</ele>
        <time>2013-10-10T02:17:39Z</time>
      </trkpt>
      <trkpt lat="-20.99751" lon="55.36746">
        <ele>748.5</ele>
        <time>2013-10-10T02:17:46Z</time>
      </trkpt>
      <trkpt lat="-20.99767" lon="55.36753">
        <ele>748.7</ele>
        <time>2013-10-10T02:17:58Z</time>
      </trkpt>
      <trkpt lat="-20.99778" lon="55.36754">
        <ele>748</ele>
        <time>2013-10-10T02:18:05Z</time>
      </trkpt>
      <trkpt lat="-20.9979" lon="55.36757">
        <ele>748</ele>
        <time>2013-10-10T02:18:13Z</time>
      </trkpt>
      <trkpt lat="-20.99798" lon="55.36764">
        <ele>748</ele>
        <time>2013-10-10T02:18:21Z</time>
      </trkpt>
      <trkpt lat="-20.99805" lon="55.36772">
        <ele>749.4</ele>
        <time>2013-10-10T02:18:28Z</time>
      </trkpt>
      <trkpt lat="-20.99812" lon="55.36778">
        <ele>749</ele>
        <time>2013-10-10T02:18:34Z</time>
      </trkpt>
      <trkpt lat="-20.9982" lon="55.36784">
        <ele>749.3</ele>
        <time>2013-10-10T02:18:41Z</time>
      </trkpt>
      <trkpt lat="-20.99826" lon="55.36792">
        <ele>748.9</ele>
        <time>2013-10-10T02:18:48Z</time>
      </trkpt>
      <trkpt lat="-20.99843" lon="55.36804">
        <ele>748.4</ele>
        <time>2013-10-10T02:19:01Z</time>
      </trkpt>
      <trkpt lat="-20.99851" lon="55.3681">
        <ele>748.9</ele>
        <time>2013-10-10T02:19:08Z</time>
      </trkpt>
      <trkpt lat="-20.9986" lon="55.36814">
        <ele>748.5</ele>
        <time>2013-10-10T02:19:14Z</time>
      </trkpt>
      <trkpt lat="-20.9987" lon="55.36815">
        <ele>749.1</ele>
        <time>2013-10-10T02:19:21Z</time>
      </trkpt>
      <trkpt lat="-20.99879" lon="55.36817">
        <ele>749</ele>
        <time>2013-10-10T02:19:28Z</time>
      </trkpt>
      <trkpt lat="-20.99889" lon="55.36818">
        <ele>748.6</ele>
        <time>2013-10-10T02:19:35Z</time>
      </trkpt>
      <trkpt lat="-20.99898" lon="55.36822">
        <ele>749.8</ele>
        <time>2013-10-10T02:19:43Z</time>
      </trkpt>
      <trkpt lat="-20.99905" lon="55.36828">
        <ele>748.8</ele>
        <time>2013-10-10T02:19:51Z</time>
      </trkpt>
      <trkpt lat="-20.99915" lon="55.36846">
        <ele>749.4</ele>
        <time>2013-10-10T02:20:04Z</time>
      </trkpt>
      <trkpt lat="-20.99923" lon="55.36852">
        <ele>749.6</ele>
        <time>2013-10-10T02:20:10Z</time>
      </trkpt>
      <trkpt lat="-20.99931" lon="55.36857">
        <ele>749.2</ele>
        <time>2013-10-10T02:20:16Z</time>
      </trkpt>
      <trkpt lat="-20.99941" lon="55.36859">
        <ele>749.1</ele>
        <time>2013-10-10T02:20:22Z</time>
      </trkpt>
      <trkpt lat="-20.9995" lon="55.36863">
        <ele>749.7</ele>
        <time>2013-10-10T02:20:29Z</time>
      </trkpt>
      <trkpt lat="-20.99958" lon="55.36869">
        <ele>749.1</ele>
        <time>2013-10-10T02:20:35Z</time>
      </trkpt>
      <trkpt lat="-20.99967" lon="55.36872">
        <ele>749.1</ele>
        <time>2013-10-10T02:20:41Z</time>
      </trkpt>
      <trkpt lat="-20.99976" lon="55.36875">
        <ele>748.8</ele>
        <time>2013-10-10T02:20:47Z</time>
      </trkpt>
      <trkpt lat="-20.99985" lon="55.36878">
        <ele>749</ele>
        <time>2013-10-10T02:20:53Z</time>
      </trkpt>
      <trkpt lat="-21.00003" lon="55.36884">
        <ele>748.2</ele>
        <time>2013-10-10T02:21:07Z</time>
      </trkpt>
      <trkpt lat="-21.00011" lon="55.36887">
        <ele>748.8</ele>
        <time>2013-10-10T02:21:13Z</time>
      </trkpt>
      <trkpt lat="-21.0002" lon="55.36891">
        <ele>749.2</ele>
        <time>2013-10-10T02:21:20Z</time>
      </trkpt>
      <trkpt lat="-21.00028" lon="55.36894">
        <ele>749.1</ele>
        <time>2013-10-10T02:21:26Z</time>
      </trkpt>
      <trkpt lat="-21.00037" lon="55.369">
        <ele>748.9</ele>
        <time>2013-10-10T02:21:33Z</time>
      </trkpt>
      <trkpt lat="-21.00044" lon="55.36906">
        <ele>749</ele>
        <time>2013-10-10T02:21:39Z</time>
      </trkpt>
      <trkpt lat="-21.00053" lon="55.36911">
        <ele>748.9</ele>
        <time>2013-10-10T02:21:45Z</time>
      </trkpt>
      <trkpt lat="-21.00059" lon="55.36919">
        <ele>748.7</ele>
        <time>2013-10-10T02:21:51Z</time>
      </trkpt>
      <trkpt lat="-21.00067" lon="55.36926">
        <ele>749.4</ele>
        <time>2013-10-10T02:21:57Z</time>
      </trkpt>
      <trkpt lat="-21.00082" lon="55.3694">
        <ele>748.9</ele>
        <time>2013-10-10T02:22:11Z</time>
      </trkpt>
      <trkpt lat="-21.0009" lon="55.36947">
        <ele>749.4</ele>
        <time>2013-10-10T02:22:18Z</time>
      </trkpt>
      <trkpt lat="-21.00098" lon="55.36953">
        <ele>748.7</ele>
        <time>2013-10-10T02:22:25Z</time>
      </trkpt>
      <trkpt lat="-21.00107" lon="55.36957">
        <ele>749.3</ele>
        <time>2013-10-10T02:22:32Z</time>
      </trkpt>
      <trkpt lat="-21.00116" lon="55.36964">
        <ele>749.5</ele>
        <time>2013-10-10T02:22:39Z</time>
      </trkpt>
      <trkpt lat="-21.00124" lon="55.36969">
        <ele>749.1</ele>
        <time>2013-10-10T02:22:45Z</time>
      </trkpt>
      <trkpt lat="-21.00133" lon="55.36972">
        <ele>748.8</ele>
        <time>2013-10-10T02:22:52Z</time>
      </trkpt>
      <trkpt lat="-21.00138" lon="55.36981">
        <ele>748.9</ele>
        <time>2013-10-10T02:22:58Z</time>
      </trkpt>
      <trkpt lat="-21.00153" lon="55.36991">
        <ele>748.9</ele>
        <time>2013-10-10T02:23:11Z</time>
      </trkpt>
      <trkpt lat="-21.00157" lon="55.37001">
        <ele>748.8</ele>
        <time>2013-10-10T02:23:18Z</time>
      </trkpt>
      <trkpt lat="-21.00164" lon="55.37008">
        <ele>749.4</ele>
        <time>2013-10-10T02:23:24Z</time>
      </trkpt>
      <trkpt lat="-21.00172" lon="55.37013">
        <ele>749.8</ele>
        <time>2013-10-10T02:23:30Z</time>
      </trkpt>
      <trkpt lat="-21.00177" lon="55.37021">
        <ele>749.6</ele>
        <time>2013-10-10T02:23:37Z</time>
      </trkpt>
      <trkpt lat="-21.00187" lon="55.37022">
        <ele>749.7</ele>
        <time>2013-10-10T02:23:43Z</time>
      </trkpt>
      <trkpt lat="-21.00197" lon="55.37024">
        <ele>749.3</ele>
        <time>2013-10-10T02:23:49Z</time>
      </trkpt>
      <trkpt lat="-21.00205" lon="55.3703">
        <ele>749.6</ele>
        <time>2013-10-10T02:23:55Z</time>
      </trkpt>
      <trkpt lat="-21.00212" lon="55.37036">
        <ele>749.6</ele>
        <time>2013-10-10T02:24:01Z</time>
      </trkpt>
      <trkpt lat="-21.00222" lon="55.37053">
        <ele>749.6</ele>
        <time>2013-10-10T02:24:14Z</time>
      </trkpt>
      <trkpt lat="-21.00222" lon="55.37062">
        <ele>749.6</ele>
        <time>2013-10-10T02:24:23Z</time>
      </trkpt>
      <trkpt lat="-21.00215" lon="55.37069">
        <ele>750.4</ele>
        <time>2013-10-10T02:24:29Z</time>
      </trkpt>
      <trkpt lat="-21.00207" lon="55.37075">
        <ele>749.8</ele>
        <time>2013-10-10T02:24:35Z</time>
      </trkpt>
      <trkpt lat="-21.00198" lon="55.3708">
        <ele>750.4</ele>
        <time>2013-10-10T02:24:40Z</time>
      </trkpt>
      <trkpt lat="-21.0019" lon="55.37085">
        <ele>750.3</ele>
        <time>2013-10-10T02:24:43Z</time>
      </trkpt>
      <trkpt lat="-21.00187" lon="55.37096">
        <ele>749.9</ele>
        <time>2013-10-10T02:24:48Z</time>
      </trkpt>
      <trkpt lat="-21.00188" lon="55.37105">
        <ele>750</ele>
        <time>2013-10-10T02:24:53Z</time>
      </trkpt>
      <trkpt lat="-21.0019" lon="55.37116">
        <ele>750.3</ele>
        <time>2013-10-10T02:24:59Z</time>
      </trkpt>
      <trkpt lat="-21.00192" lon="55.37127">
        <ele>750</ele>
        <time>2013-10-10T02:25:05Z</time>
      </trkpt>
      <trkpt lat="-21.002" lon="55.37145">
        <ele>749.6</ele>
        <time>2013-10-10T02:25:15Z</time>
      </trkpt>
      <trkpt lat="-21.00206" lon="55.37153">
        <ele>750.3</ele>
        <time>2013-10-10T02:25:20Z</time>
      </trkpt>
      <trkpt lat="-21.0021" lon="55.37163">
        <ele>749.8</ele>
        <time>2013-10-10T02:25:26Z</time>
      </trkpt>
      <trkpt lat="-21.00213" lon="55.37173">
        <ele>749.8</ele>
        <time>2013-10-10T02:25:32Z</time>
      </trkpt>
      <trkpt lat="-21.0022" lon="55.37182">
        <ele>749.9</ele>
        <time>2013-10-10T02:25:39Z</time>
      </trkpt>
      <trkpt lat="-21.00225" lon="55.37191">
        <ele>749.6</ele>
        <time>2013-10-10T02:25:45Z</time>
      </trkpt>
      <trkpt lat="-21.0023" lon="55.372">
        <ele>749.4</ele>
        <time>2013-10-10T02:25:51Z</time>
      </trkpt>
      <trkpt lat="-21.00236" lon="55.37208">
        <ele>749.7</ele>
        <time>2013-10-10T02:25:57Z</time>
      </trkpt>
      <trkpt lat="-21.00245" lon="55.37213">
        <ele>749.8</ele>
        <time>2013-10-10T02:26:02Z</time>
      </trkpt>
      <trkpt lat="-21.00253" lon="55.37217">
        <ele>750.1</ele>
        <time>2013-10-10T02:26:07Z</time>
      </trkpt>
      <trkpt lat="-21.00263" lon="55.37234">
        <ele>749.1</ele>
        <time>2013-10-10T02:26:21Z</time>
      </trkpt>
      <trkpt lat="-21.00263" lon="55.37243">
        <ele>749.5</ele>
        <time>2013-10-10T02:26:27Z</time>
      </trkpt>
      <trkpt lat="-21.00262" lon="55.37253">
        <ele>749.6</ele>
        <time>2013-10-10T02:26:33Z</time>
      </trkpt>
      <trkpt lat="-21.00263" lon="55.37264">
        <ele>749.8</ele>
        <time>2013-10-10T02:26:40Z</time>
      </trkpt>
      <trkpt lat="-21.00262" lon="55.37275">
        <ele>749.6</ele>
        <time>2013-10-10T02:26:47Z</time>
      </trkpt>
      <trkpt lat="-21.00264" lon="55.37286">
        <ele>749.7</ele>
        <time>2013-10-10T02:26:53Z</time>
      </trkpt>
      <trkpt lat="-21.00266" lon="55.37296">
        <ele>749.9</ele>
        <time>2013-10-10T02:26:59Z</time>
      </trkpt>
      <trkpt lat="-21.00269" lon="55.37306">
        <ele>750.4</ele>
        <time>2013-10-10T02:27:07Z</time>
      </trkpt>
      <trkpt lat="-21.00273" lon="55.37316">
        <ele>750.4</ele>
        <time>2013-10-10T02:27:15Z</time>
      </trkpt>
      <trkpt lat="-21.00281" lon="55.37335">
        <ele>750.4</ele>
        <time>2013-10-10T02:27:28Z</time>
      </trkpt>
      <trkpt lat="-21.00287" lon="55.37345">
        <ele>751.2</ele>
        <time>2013-10-10T02:27:34Z</time>
      </trkpt>
      <trkpt lat="-21.0029" lon="55.37354">
        <ele>750.7</ele>
        <time>2013-10-10T02:27:39Z</time>
      </trkpt>
      <trkpt lat="-21.00286" lon="55.37367">
        <ele>750</ele>
        <time>2013-10-10T02:27:45Z</time>
      </trkpt>
      <trkpt lat="-21.00285" lon="55.37377">
        <ele>750.4</ele>
        <time>2013-10-10T02:27:51Z</time>
      </trkpt>
      <trkpt lat="-21.00292" lon="55.37385">
        <ele>750.6</ele>
        <time>2013-10-10T02:27:59Z</time>
      </trkpt>
      <trkpt lat="-21.00301" lon="55.37383">
        <ele>750.1</ele>
        <time>2013-10-10T02:28:15Z</time>
      </trkpt>
      <trkpt lat="-21.0031" lon="55.37381">
        <ele>750.2</ele>
        <time>2013-10-10T02:28:29Z</time>
      </trkpt>
      <trkpt lat="-21.00319" lon="55.37397">
        <ele>750.3</ele>
        <time>2013-10-10T02:28:44Z</time>
      </trkpt>
      <trkpt lat="-21.00319" lon="55.37407">
        <ele>750.8</ele>
        <time>2013-10-10T02:28:53Z</time>
      </trkpt>
      <trkpt lat="-21.00312" lon="55.37416">
        <ele>751.1</ele>
        <time>2013-10-10T02:29:00Z</time>
      </trkpt>
      <trkpt lat="-21.00305" lon="55.37423">
        <ele>751</ele>
        <time>2013-10-10T02:29:06Z</time>
      </trkpt>
      <trkpt lat="-21.00302" lon="55.37433">
        <ele>750.9</ele>
        <time>2013-10-10T02:29:13Z</time>
      </trkpt>
      <trkpt lat="-21.00308" lon="55.3744">
        <ele>750.1</ele>
        <time>2013-10-10T02:29:18Z</time>
      </trkpt>
      <trkpt lat="-21.00316" lon="55.37444">
        <ele>751</ele>
        <time>2013-10-10T02:29:23Z</time>
      </trkpt>
      <trkpt lat="-21.0031" lon="55.37451">
        <ele>750.3</ele>
        <time>2013-10-10T02:29:28Z</time>
      </trkpt>
      <trkpt lat="-21.00297" lon="55.37454">
        <ele>750.6</ele>
        <time>2013-10-10T02:29:31Z</time>
      </trkpt>
      <trkpt lat="-21.00276" lon="55.37462">
        <ele>750.6</ele>
        <time>2013-10-10T02:29:36Z</time>
      </trkpt>
      <trkpt lat="-21.00262" lon="55.37478">
        <ele>751</ele>
        <time>2013-10-10T02:29:45Z</time>
      </trkpt>
      <trkpt lat="-21.0027" lon="55.37484">
        <ele>751.2</ele>
        <time>2013-10-10T02:29:50Z</time>
      </trkpt>
      <trkpt lat="-21.00278" lon="55.37489">
        <ele>750.9</ele>
        <time>2013-10-10T02:29:53Z</time>
      </trkpt>
      <trkpt lat="-21.00287" lon="55.37493">
        <ele>751.6</ele>
        <time>2013-10-10T02:29:56Z</time>
      </trkpt>
      <trkpt lat="-21.00297" lon="55.37499">
        <ele>751.6</ele>
        <time>2013-10-10T02:30:00Z</time>
      </trkpt>
      <trkpt lat="-21.00304" lon="55.37505">
        <ele>751.7</ele>
        <time>2013-10-10T02:30:04Z</time>
      </trkpt>
      <trkpt lat="-21.00312" lon="55.37513">
        <ele>751.5</ele>
        <time>2013-10-10T02:30:09Z</time>
      </trkpt>
      <trkpt lat="-21.00317" lon="55.37523">
        <ele>751.5</ele>
        <time>2013-10-10T02:30:15Z</time>
      </trkpt>
      <trkpt lat="-21.00321" lon="55.37532">
        <ele>752.3</ele>
        <time>2013-10-10T02:30:20Z</time>
      </trkpt>
      <trkpt lat="-21.00326" lon="55.37541">
        <ele>752.3</ele>
        <time>2013-10-10T02:30:26Z</time>
      </trkpt>
      <trkpt lat="-21.00336" lon="55.37545">
        <ele>751.7</ele>
        <time>2013-10-10T02:30:33Z</time>
      </trkpt>
      <trkpt lat="-21.00337" lon="55.37567">
        <ele>751.6</ele>
        <time>2013-10-10T02:30:52Z</time>
      </trkpt>
      <trkpt lat="-21.00339" lon="55.37578">
        <ele>751.3</ele>
        <time>2013-10-10T02:30:58Z</time>
      </trkpt>
      <trkpt lat="-21.00339" lon="55.37587">
        <ele>750.9</ele>
        <time>2013-10-10T02:31:04Z</time>
      </trkpt>
      <trkpt lat="-21.00339" lon="55.37598">
        <ele>751.6</ele>
        <time>2013-10-10T02:31:09Z</time>
      </trkpt>
      <trkpt lat="-21.00343" lon="55.37608">
        <ele>751.1</ele>
        <time>2013-10-10T02:31:14Z</time>
      </trkpt>
      <trkpt lat="-21.00353" lon="55.37609">
        <ele>752</ele>
        <time>2013-10-10T02:31:19Z</time>
      </trkpt>
      <trkpt lat="-21.00362" lon="55.37611">
        <ele>751.2</ele>
        <time>2013-10-10T02:31:24Z</time>
      </trkpt>
      <trkpt lat="-21.00371" lon="55.37614">
        <ele>752.4</ele>
        <time>2013-10-10T02:31:29Z</time>
      </trkpt>
      <trkpt lat="-21.00381" lon="55.37613">
        <ele>751.1</ele>
        <time>2013-10-10T02:31:34Z</time>
      </trkpt>
      <trkpt lat="-21.00391" lon="55.37629">
        <ele>751.8</ele>
        <time>2013-10-10T02:31:50Z</time>
      </trkpt>
      <trkpt lat="-21.00401" lon="55.37633">
        <ele>752.5</ele>
        <time>2013-10-10T02:31:56Z</time>
      </trkpt>
      <trkpt lat="-21.0041" lon="55.37636">
        <ele>752.2</ele>
        <time>2013-10-10T02:32:02Z</time>
      </trkpt>
      <trkpt lat="-21.00417" lon="55.37643">
        <ele>752</ele>
        <time>2013-10-10T02:32:08Z</time>
      </trkpt>
      <trkpt lat="-21.00424" lon="55.37651">
        <ele>752.3</ele>
        <time>2013-10-10T02:32:16Z</time>
      </trkpt>
      <trkpt lat="-21.00428" lon="55.3766">
        <ele>751.9</ele>
        <time>2013-10-10T02:32:22Z</time>
      </trkpt>
      <trkpt lat="-21.00432" lon="55.37669">
        <ele>752.2</ele>
        <time>2013-10-10T02:32:28Z</time>
      </trkpt>
      <trkpt lat="-21.00435" lon="55.37679">
        <ele>752.2</ele>
        <time>2013-10-10T02:32:34Z</time>
      </trkpt>
      <trkpt lat="-21.00436" lon="55.3769">
        <ele>751.9</ele>
        <time>2013-10-10T02:32:40Z</time>
      </trkpt>
      <trkpt lat="-21.00446" lon="55.37707">
        <ele>752.1</ele>
        <time>2013-10-10T02:32:51Z</time>
      </trkpt>
      <trkpt lat="-21.00455" lon="55.3771">
        <ele>751.7</ele>
        <time>2013-10-10T02:32:57Z</time>
      </trkpt>
      <trkpt lat="-21.00465" lon="55.37713">
        <ele>752.3</ele>
        <time>2013-10-10T02:33:03Z</time>
      </trkpt>
      <trkpt lat="-21.00474" lon="55.37711">
        <ele>751.5</ele>
        <time>2013-10-10T02:33:10Z</time>
      </trkpt>
      <trkpt lat="-21.00483" lon="55.37711">
        <ele>751.9</ele>
        <time>2013-10-10T02:33:15Z</time>
      </trkpt>
      <trkpt lat="-21.00493" lon="55.37707">
        <ele>752.1</ele>
        <time>2013-10-10T02:33:21Z</time>
      </trkpt>
      <trkpt lat="-21.00502" lon="55.37704">
        <ele>753.2</ele>
        <time>2013-10-10T02:33:28Z</time>
      </trkpt>
      <trkpt lat="-21.00509" lon="55.37709">
        <ele>752.1</ele>
        <time>2013-10-10T02:33:36Z</time>
      </trkpt>
      <trkpt lat="-21.00516" lon="55.37715">
        <ele>752.1</ele>
        <time>2013-10-10T02:33:49Z</time>
      </trkpt>
      <trkpt lat="-21.00511" lon="55.37734">
        <ele>752.2</ele>
        <time>2013-10-10T02:34:06Z</time>
      </trkpt>
      <trkpt lat="-21.00515" lon="55.37744">
        <ele>752.1</ele>
        <time>2013-10-10T02:34:12Z</time>
      </trkpt>
      <trkpt lat="-21.00517" lon="55.37754">
        <ele>752.8</ele>
        <time>2013-10-10T02:34:19Z</time>
      </trkpt>
      <trkpt lat="-21.00515" lon="55.37765">
        <ele>752.8</ele>
        <time>2013-10-10T02:34:25Z</time>
      </trkpt>
      <trkpt lat="-21.00514" lon="55.37776">
        <ele>753.4</ele>
        <time>2013-10-10T02:34:33Z</time>
      </trkpt>
      <trkpt lat="-21.00512" lon="55.37785">
        <ele>753.5</ele>
        <time>2013-10-10T02:34:39Z</time>
      </trkpt>
      <trkpt lat="-21.0051" lon="55.37796">
        <ele>753.1</ele>
        <time>2013-10-10T02:34:46Z</time>
      </trkpt>
      <trkpt lat="-21.00512" lon="55.37805">
        <ele>753.6</ele>
        <time>2013-10-10T02:34:51Z</time>
      </trkpt>
      <trkpt lat="-21.00507" lon="55.37825">
        <ele>752.5</ele>
        <time>2013-10-10T02:35:06Z</time>
      </trkpt>
      <trkpt lat="-21.00508" lon="55.37836">
        <ele>753</ele>
        <time>2013-10-10T02:35:12Z</time>
      </trkpt>
      <trkpt lat="-21.00508" lon="55.37847">
        <ele>752.2</ele>
        <time>2013-10-10T02:35:18Z</time>
      </trkpt>
      <trkpt lat="-21.00511" lon="55.37858">
        <ele>752.6</ele>
        <time>2013-10-10T02:35:26Z</time>
      </trkpt>
      <trkpt lat="-21.00515" lon="55.37868">
        <ele>752.2</ele>
        <time>2013-10-10T02:35:33Z</time>
      </trkpt>
      <trkpt lat="-21.00519" lon="55.37877">
        <ele>752.5</ele>
        <time>2013-10-10T02:35:40Z</time>
      </trkpt>
      <trkpt lat="-21.00525" lon="55.37887">
        <ele>752.5</ele>
        <time>2013-10-10T02:35:46Z</time>
      </trkpt>
      <trkpt lat="-21.00534" lon="55.37893">
        <ele>752.2</ele>
        <time>2013-10-10T02:35:52Z</time>
      </trkpt>
      <trkpt lat="-21.00555" lon="55.37892">
        <ele>752.6</ele>
        <time>2013-10-10T02:36:05Z</time>
      </trkpt>
      <trkpt lat="-21.00564" lon="55.37888">
        <ele>753</ele>
        <time>2013-10-10T02:36:12Z</time>
      </trkpt>
      <trkpt lat="-21.00573" lon="55.37884">
        <ele>753.7</ele>
        <time>2013-10-10T02:36:18Z</time>
      </trkpt>
      <trkpt lat="-21.00583" lon="55.3788">
        <ele>753.8</ele>
        <time>2013-10-10T02:36:24Z</time>
      </trkpt>
      <trkpt lat="-21.00591" lon="55.37876">
        <ele>753.2</ele>
        <time>2013-10-10T02:36:30Z</time>
      </trkpt>
      <trkpt lat="-21.006" lon="55.37873">
        <ele>752.2</ele>
        <time>2013-10-10T02:36:36Z</time>
      </trkpt>
      <trkpt lat="-21.0061" lon="55.3787">
        <ele>752</ele>
        <time>2013-10-10T02:36:42Z</time>
      </trkpt>
      <trkpt lat="-21.00619" lon="55.3787">
        <ele>752</ele>
        <time>2013-10-10T02:36:48Z</time>
      </trkpt>
      <trkpt lat="-21.00629" lon="55.37866">
        <ele>752.9</ele>
        <time>2013-10-10T02:36:55Z</time>
      </trkpt>
      <trkpt lat="-21.00645" lon="55.37855">
        <ele>752</ele>
        <time>2013-10-10T02:37:07Z</time>
      </trkpt>
      <trkpt lat="-21.00651" lon="55.37863">
        <ele>752.5</ele>
        <time>2013-10-10T02:37:22Z</time>
      </trkpt>
      <trkpt lat="-21.0066" lon="55.37865">
        <ele>752.6</ele>
        <time>2013-10-10T02:37:28Z</time>
      </trkpt>
      <trkpt lat="-21.0067" lon="55.37867">
        <ele>752.5</ele>
        <time>2013-10-10T02:37:34Z</time>
      </trkpt>
      <trkpt lat="-21.00678" lon="55.37865">
        <ele>752.9</ele>
        <time>2013-10-10T02:37:40Z</time>
      </trkpt>
      <trkpt lat="-21.00687" lon="55.37859">
        <ele>753</ele>
        <time>2013-10-10T02:37:46Z</time>
      </trkpt>
      <trkpt lat="-21.00697" lon="55.37859">
        <ele>752.2</ele>
        <time>2013-10-10T02:37:52Z</time>
      </trkpt>
      <trkpt lat="-21.00707" lon="55.37855">
        <ele>752.3</ele>
        <time>2013-10-10T02:37:59Z</time>
      </trkpt>
      <trkpt lat="-21.00725" lon="55.3786">
        <ele>752.4</ele>
        <time>2013-10-10T02:38:15Z</time>
      </trkpt>
      <trkpt lat="-21.00734" lon="55.37865">
        <ele>753.9</ele>
        <time>2013-10-10T02:38:21Z</time>
      </trkpt>
      <trkpt lat="-21.00738" lon="55.37874">
        <ele>753.3</ele>
        <time>2013-10-10T02:38:27Z</time>
      </trkpt>
      <trkpt lat="-21.0074" lon="55.37885">
        <ele>753.8</ele>
        <time>2013-10-10T02:38:34Z</time>
      </trkpt>
      <trkpt lat="-21.00749" lon="55.37889">
        <ele>753.6</ele>
        <time>2013-10-10T02:38:41Z</time>
      </trkpt>
      <trkpt lat="-21.00759" lon="55.37892">
        <ele>752.9</ele>
        <time>2013-10-10T02:38:47Z</time>
      </trkpt>
      <trkpt lat="-21.00769" lon="55.37895">
        <ele>752.6</ele>
        <time>2013-10-10T02:38:53Z</time>
      </trkpt>
      <trkpt lat="-21.00778" lon="55.37895">
        <ele>753.2</ele>
        <time>2013-10-10T02:38:58Z</time>
      </trkpt>
      <trkpt lat="-21.00788" lon="55.37895">
        <ele>753.9</ele>
        <time>2013-10-10T02:39:05Z</time>
      </trkpt>
      <trkpt lat="-21.00807" lon="55.37901">
        <ele>752.9</ele>
        <time>2013-10-10T02:39:19Z</time>
      </trkpt>
      <trkpt lat="-21.00817" lon="55.379">
        <ele>753.2</ele>
        <time>2013-10-10T02:39:25Z</time>
      </trkpt>
      <trkpt lat="-21.00826" lon="55.37896">
        <ele>753.3</ele>
        <time>2013-10-10T02:39:30Z</time>
      </trkpt>
      <trkpt lat="-21.00835" lon="55.37899">
        <ele>753.2</ele>
        <time>2013-10-10T02:39:36Z</time>
      </trkpt>
      <trkpt lat="-21.00849" lon="55.37907">
        <ele>753</ele>
        <time>2013-10-10T02:39:45Z</time>
      </trkpt>
      <trkpt lat="-21.00858" lon="55.37915">
        <ele>753</ele>
        <time>2013-10-10T02:39:53Z</time>
      </trkpt>
      <trkpt lat="-21.00867" lon="55.37918">
        <ele>752.5</ele>
        <time>2013-10-10T02:40:02Z</time>
      </trkpt>
      <trkpt lat="-21.00866" lon="55.37929">
        <ele>751.1</ele>
        <time>2013-10-10T02:40:10Z</time>
      </trkpt>
      <trkpt lat="-21.00876" lon="55.37947">
        <ele>746</ele>
        <time>2013-10-10T02:40:25Z</time>
      </trkpt>
      <trkpt lat="-21.00886" lon="55.37947">
        <ele>744.3</ele>
        <time>2013-10-10T02:40:33Z</time>
      </trkpt>
      <trkpt lat="-21.00895" lon="55.37952">
        <ele>744.3</ele>
        <time>2013-10-10T02:40:46Z</time>
      </trkpt>
      <trkpt lat="-21.009" lon="55.37961">
        <ele>743.3</ele>
        <time>2013-10-10T02:40:53Z</time>
      </trkpt>
      <trkpt lat="-21.00897" lon="55.37971">
        <ele>740.6</ele>
        <time>2013-10-10T02:41:26Z</time>
      </trkpt>
      <trkpt lat="-21.00881" lon="55.37982">
        <ele>737</ele>
        <time>2013-10-10T02:41:59Z</time>
      </trkpt>
      <trkpt lat="-21.00885" lon="55.3799">
        <ele>734</ele>
        <time>2013-10-10T02:42:18Z</time>
      </trkpt>
      <trkpt lat="-21.00894" lon="55.37998">
        <ele>732</ele>
        <time>2013-10-10T02:42:32Z</time>
      </trkpt>
      <trkpt lat="-21.00901" lon="55.38016">
        <ele>730</ele>
        <time>2013-10-10T02:42:57Z</time>
      </trkpt>
      <trkpt lat="-21.00893" lon="55.38022">
        <ele>729.9</ele>
        <time>2013-10-10T02:43:11Z</time>
      </trkpt>
      <trkpt lat="-21.00883" lon="55.38022">
        <ele>730.6</ele>
        <time>2013-10-10T02:43:20Z</time>
      </trkpt>
      <trkpt lat="-21.00874" lon="55.38025">
        <ele>730.9</ele>
        <time>2013-10-10T02:43:27Z</time>
      </trkpt>
      <trkpt lat="-21.00865" lon="55.38028">
        <ele>730</ele>
        <time>2013-10-10T02:43:32Z</time>
      </trkpt>
      <trkpt lat="-21.00864" lon="55.38037">
        <ele>733</ele>
        <time>2013-10-10T02:43:44Z</time>
      </trkpt>
      <trkpt lat="-21.00854" lon="55.38055">
        <ele>734.1</ele>
        <time>2013-10-10T02:44:07Z</time>
      </trkpt>
      <trkpt lat="-21.00844" lon="55.38058">
        <ele>735.1</ele>
        <time>2013-10-10T02:44:19Z</time>
      </trkpt>
      <trkpt lat="-21.00835" lon="55.38058">
        <ele>736.3</ele>
        <time>2013-10-10T02:44:26Z</time>
      </trkpt>
      <trkpt lat="-21.00819" lon="55.38063">
        <ele>736</ele>
        <time>2013-10-10T02:44:33Z</time>
      </trkpt>
      <trkpt lat="-21.00772" lon="55.38069">
        <ele>740</ele>
        <time>2013-10-10T02:45:00Z</time>
      </trkpt>
      <trkpt lat="-21.0067" lon="55.38053">
        <ele>742</ele>
        <time>2013-10-10T02:45:18Z</time>
      </trkpt>
      <trkpt lat="-21.00651" lon="55.3805">
        <ele>742</ele>
        <time>2013-10-10T02:45:22Z</time>
      </trkpt>
      <trkpt lat="-21.00646" lon="55.38036">
        <ele>744</ele>
        <time>2013-10-10T02:45:30Z</time>
      </trkpt>
      <trkpt lat="-21.00651" lon="55.38019">
        <ele>746</ele>
        <time>2013-10-10T02:45:38Z</time>
      </trkpt>
      <trkpt lat="-21.00658" lon="55.3801">
        <ele>746</ele>
        <time>2013-10-10T02:45:42Z</time>
      </trkpt>
      <trkpt lat="-21.00673" lon="55.38001">
        <ele>746</ele>
        <time>2013-10-10T02:45:46Z</time>
      </trkpt>
      <trkpt lat="-21.00687" lon="55.37999">
        <ele>747.2</ele>
        <time>2013-10-10T02:45:49Z</time>
      </trkpt>
      <trkpt lat="-21.00703" lon="55.37997">
        <ele>747.6</ele>
        <time>2013-10-10T02:45:51Z</time>
      </trkpt>
      <trkpt lat="-21.00719" lon="55.37996">
        <ele>748.1</ele>
        <time>2013-10-10T02:45:53Z</time>
      </trkpt>
      <trkpt lat="-21.00734" lon="55.37994">
        <ele>748.2</ele>
        <time>2013-10-10T02:45:55Z</time>
      </trkpt>
      <trkpt lat="-21.00747" lon="55.37991">
        <ele>748.6</ele>
        <time>2013-10-10T02:45:57Z</time>
      </trkpt>
      <trkpt lat="-21.00761" lon="55.37987">
        <ele>748</ele>
        <time>2013-10-10T02:45:59Z</time>
      </trkpt>
      <trkpt lat="-21.00781" lon="55.37974">
        <ele>749</ele>
        <time>2013-10-10T02:46:04Z</time>
      </trkpt>
      <trkpt lat="-21.00783" lon="55.3797">
        <ele>753.3</ele>
        <time>2013-10-10T02:46:25Z</time>
      </trkpt>
      <trkpt lat="-21.00774" lon="55.37979">
        <ele>753.3</ele>
        <time>2013-10-10T02:46:28Z</time>
      </trkpt>
      <trkpt lat="-21.00767" lon="55.37991">
        <ele>754.2</ele>
        <time>2013-10-10T02:46:31Z</time>
      </trkpt>
      <trkpt lat="-21.00762" lon="55.38">
        <ele>754.5</ele>
        <time>2013-10-10T02:46:33Z</time>
      </trkpt>
      <trkpt lat="-21.00756" lon="55.38012">
        <ele>754.6</ele>
        <time>2013-10-10T02:46:36Z</time>
      </trkpt>
      <trkpt lat="-21.00752" lon="55.38024">
        <ele>754.7</ele>
        <time>2013-10-10T02:46:39Z</time>
      </trkpt>
      <trkpt lat="-21.00748" lon="55.38035">
        <ele>754.3</ele>
        <time>2013-10-10T02:46:42Z</time>
      </trkpt>
      <trkpt lat="-21.00744" lon="55.38044">
        <ele>754.1</ele>
        <time>2013-10-10T02:46:45Z</time>
      </trkpt>
      <trkpt lat="-21.00725" lon="55.38137">
        <ele>754</ele>
        <time>2013-10-10T02:46:58Z</time>
      </trkpt>
      <trkpt lat="-21.00719" lon="55.38158">
        <ele>754</ele>
        <time>2013-10-10T02:47:05Z</time>
      </trkpt>
      <trkpt lat="-21.00714" lon="55.3817">
        <ele>755</ele>
        <time>2013-10-10T02:47:13Z</time>
      </trkpt>
      <trkpt lat="-21.00696" lon="55.38191">
        <ele>754</ele>
        <time>2013-10-10T02:47:31Z</time>
      </trkpt>
      <trkpt lat="-21.00684" lon="55.38195">
        <ele>754</ele>
        <time>2013-10-10T02:47:39Z</time>
      </trkpt>
      <trkpt lat="-21.00671" lon="55.38198">
        <ele>754</ele>
        <time>2013-10-10T02:47:47Z</time>
      </trkpt>
      <trkpt lat="-21.00665" lon="55.38209">
        <ele>754</ele>
        <time>2013-10-10T02:47:55Z</time>
      </trkpt>
      <trkpt lat="-21.00665" lon="55.38222">
        <ele>754</ele>
        <time>2013-10-10T02:48:03Z</time>
      </trkpt>
      <trkpt lat="-21.00666" lon="55.38234">
        <ele>754</ele>
        <time>2013-10-10T02:48:11Z</time>
      </trkpt>
      <trkpt lat="-21.00665" lon="55.38245">
        <ele>755</ele>
        <time>2013-10-10T02:48:19Z</time>
      </trkpt>
      <trkpt lat="-21.00661" lon="55.38262">
        <ele>754</ele>
        <time>2013-10-10T02:48:46Z</time>
      </trkpt>
      <trkpt lat="-21.00649" lon="55.38267">
        <ele>754</ele>
        <time>2013-10-10T02:48:54Z</time>
      </trkpt>
      <trkpt lat="-21.0064" lon="55.38272">
        <ele>755</ele>
        <time>2013-10-10T02:49:02Z</time>
      </trkpt>
      <trkpt lat="-21.00613" lon="55.38268">
        <ele>755</ele>
        <time>2013-10-10T02:50:02Z</time>
      </trkpt>
      <trkpt lat="-21.00593" lon="55.38287">
        <ele>755</ele>
        <time>2013-10-10T02:50:12Z</time>
      </trkpt>
      <trkpt lat="-21.00589" lon="55.38299">
        <ele>757</ele>
        <time>2013-10-10T02:50:19Z</time>
      </trkpt>
      <trkpt lat="-21.00587" lon="55.38309">
        <ele>757.3</ele>
        <time>2013-10-10T02:50:24Z</time>
      </trkpt>
      <trkpt lat="-21.0059" lon="55.3832">
        <ele>757.2</ele>
        <time>2013-10-10T02:50:29Z</time>
      </trkpt>
      <trkpt lat="-21.00595" lon="55.38328">
        <ele>756.3</ele>
        <time>2013-10-10T02:50:38Z</time>
      </trkpt>
      <trkpt lat="-21.00601" lon="55.38337">
        <ele>756.2</ele>
        <time>2013-10-10T02:50:54Z</time>
      </trkpt>
      <trkpt lat="-21.00597" lon="55.38346">
        <ele>756.8</ele>
        <time>2013-10-10T02:51:01Z</time>
      </trkpt>
      <trkpt lat="-21.00593" lon="55.38354">
        <ele>757.4</ele>
        <time>2013-10-10T02:51:40Z</time>
      </trkpt>
      <trkpt lat="-21.00599" lon="55.38374">
        <ele>756.5</ele>
        <time>2013-10-10T02:51:54Z</time>
      </trkpt>
      <trkpt lat="-21.00602" lon="55.38383">
        <ele>756.3</ele>
        <time>2013-10-10T02:52:00Z</time>
      </trkpt>
      <trkpt lat="-21.0061" lon="55.38388">
        <ele>757.1</ele>
        <time>2013-10-10T02:52:06Z</time>
      </trkpt>
      <trkpt lat="-21.00614" lon="55.38397">
        <ele>757.3</ele>
        <time>2013-10-10T02:52:15Z</time>
      </trkpt>
      <trkpt lat="-21.0062" lon="55.38406">
        <ele>757.4</ele>
        <time>2013-10-10T02:52:22Z</time>
      </trkpt>
      <trkpt lat="-21.00627" lon="55.38414">
        <ele>757.7</ele>
        <time>2013-10-10T02:52:28Z</time>
      </trkpt>
      <trkpt lat="-21.00632" lon="55.38421">
        <ele>756.1</ele>
        <time>2013-10-10T02:52:34Z</time>
      </trkpt>
      <trkpt lat="-21.00636" lon="55.3843">
        <ele>756.4</ele>
        <time>2013-10-10T02:52:40Z</time>
      </trkpt>
      <trkpt lat="-21.0064" lon="55.38441">
        <ele>757.4</ele>
        <time>2013-10-10T02:52:47Z</time>
      </trkpt>
      <trkpt lat="-21.00652" lon="55.38459">
        <ele>756.5</ele>
        <time>2013-10-10T02:53:01Z</time>
      </trkpt>
      <trkpt lat="-21.00654" lon="55.38469">
        <ele>757</ele>
        <time>2013-10-10T02:53:08Z</time>
      </trkpt>
      <trkpt lat="-21.00651" lon="55.38479">
        <ele>757.4</ele>
        <time>2013-10-10T02:53:14Z</time>
      </trkpt>
      <trkpt lat="-21.00646" lon="55.38488">
        <ele>757.9</ele>
        <time>2013-10-10T02:53:20Z</time>
      </trkpt>
      <trkpt lat="-21.00643" lon="55.38498">
        <ele>758.1</ele>
        <time>2013-10-10T02:53:26Z</time>
      </trkpt>
      <trkpt lat="-21.00647" lon="55.38508">
        <ele>757.7</ele>
        <time>2013-10-10T02:53:33Z</time>
      </trkpt>
      <trkpt lat="-21.00651" lon="55.38517">
        <ele>758.3</ele>
        <time>2013-10-10T02:53:39Z</time>
      </trkpt>
      <trkpt lat="-21.00657" lon="55.38525">
        <ele>758.3</ele>
        <time>2013-10-10T02:53:45Z</time>
      </trkpt>
      <trkpt lat="-21.00664" lon="55.38532">
        <ele>758.4</ele>
        <time>2013-10-10T02:53:51Z</time>
      </trkpt>
      <trkpt lat="-21.00675" lon="55.38548">
        <ele>758.5</ele>
        <time>2013-10-10T02:54:03Z</time>
      </trkpt>
      <trkpt lat="-21.00682" lon="55.38554">
        <ele>759.4</ele>
        <time>2013-10-10T02:54:09Z</time>
      </trkpt>
      <trkpt lat="-21.00689" lon="55.3856">
        <ele>759.4</ele>
        <time>2013-10-10T02:54:15Z</time>
      </trkpt>
      <trkpt lat="-21.00696" lon="55.38568">
        <ele>759</ele>
        <time>2013-10-10T02:54:22Z</time>
      </trkpt>
      <trkpt lat="-21.00705" lon="55.38572">
        <ele>759.1</ele>
        <time>2013-10-10T02:54:29Z</time>
      </trkpt>
      <trkpt lat="-21.00713" lon="55.38579">
        <ele>758.8</ele>
        <time>2013-10-10T02:54:36Z</time>
      </trkpt>
      <trkpt lat="-21.00717" lon="55.38587">
        <ele>758.6</ele>
        <time>2013-10-10T02:54:42Z</time>
      </trkpt>
      <trkpt lat="-21.00722" lon="55.38597">
        <ele>758.9</ele>
        <time>2013-10-10T02:54:49Z</time>
      </trkpt>
      <trkpt lat="-21.00728" lon="55.38605">
        <ele>759.1</ele>
        <time>2013-10-10T02:54:55Z</time>
      </trkpt>
      <trkpt lat="-21.00737" lon="55.38623">
        <ele>758.9</ele>
        <time>2013-10-10T02:55:08Z</time>
      </trkpt>
      <trkpt lat="-21.00743" lon="55.38631">
        <ele>759.1</ele>
        <time>2013-10-10T02:55:49Z</time>
      </trkpt>
      <trkpt lat="-21.00746" lon="55.38641">
        <ele>759.6</ele>
        <time>2013-10-10T02:55:58Z</time>
      </trkpt>
      <trkpt lat="-21.00753" lon="55.3866">
        <ele>758.9</ele>
        <time>2013-10-10T02:56:11Z</time>
      </trkpt>
      <trkpt lat="-21.00756" lon="55.38669">
        <ele>758.5</ele>
        <time>2013-10-10T02:56:17Z</time>
      </trkpt>
      <trkpt lat="-21.00762" lon="55.38678">
        <ele>760.3</ele>
        <time>2013-10-10T02:56:24Z</time>
      </trkpt>
      <trkpt lat="-21.00768" lon="55.38685">
        <ele>759.8</ele>
        <time>2013-10-10T02:56:31Z</time>
      </trkpt>
      <trkpt lat="-21.00774" lon="55.38694">
        <ele>759.1</ele>
        <time>2013-10-10T02:56:38Z</time>
      </trkpt>
      <trkpt lat="-21.0078" lon="55.38701">
        <ele>760</ele>
        <time>2013-10-10T02:56:45Z</time>
      </trkpt>
      <trkpt lat="-21.00789" lon="55.38706">
        <ele>759.8</ele>
        <time>2013-10-10T02:56:52Z</time>
      </trkpt>
      <trkpt lat="-21.00797" lon="55.38711">
        <ele>759.9</ele>
        <time>2013-10-10T02:56:58Z</time>
      </trkpt>
      <trkpt lat="-21.00801" lon="55.3872">
        <ele>759.9</ele>
        <time>2013-10-10T02:57:04Z</time>
      </trkpt>
      <trkpt lat="-21.00807" lon="55.38737">
        <ele>760.7</ele>
        <time>2013-10-10T02:57:16Z</time>
      </trkpt>
      <trkpt lat="-21.00806" lon="55.38747">
        <ele>759.4</ele>
        <time>2013-10-10T02:57:23Z</time>
      </trkpt>
      <trkpt lat="-21.0081" lon="55.38756">
        <ele>759.3</ele>
        <time>2013-10-10T02:57:30Z</time>
      </trkpt>
      <trkpt lat="-21.00817" lon="55.38763">
        <ele>759.5</ele>
        <time>2013-10-10T02:57:36Z</time>
      </trkpt>
      <trkpt lat="-21.00824" lon="55.3877">
        <ele>758.7</ele>
        <time>2013-10-10T02:57:42Z</time>
      </trkpt>
      <trkpt lat="-21.00829" lon="55.38779">
        <ele>758.7</ele>
        <time>2013-10-10T02:57:48Z</time>
      </trkpt>
      <trkpt lat="-21.00835" lon="55.38788">
        <ele>759</ele>
        <time>2013-10-10T02:57:54Z</time>
      </trkpt>
      <trkpt lat="-21.00839" lon="55.38797">
        <ele>759</ele>
        <time>2013-10-10T02:58:00Z</time>
      </trkpt>
      <trkpt lat="-21.00841" lon="55.38807">
        <ele>759.2</ele>
        <time>2013-10-10T02:58:06Z</time>
      </trkpt>
      <trkpt lat="-21.00839" lon="55.38828">
        <ele>759.4</ele>
        <time>2013-10-10T02:58:18Z</time>
      </trkpt>
      <trkpt lat="-21.00842" lon="55.38838">
        <ele>759.7</ele>
        <time>2013-10-10T02:58:25Z</time>
      </trkpt>
      <trkpt lat="-21.00844" lon="55.38847">
        <ele>759.7</ele>
        <time>2013-10-10T02:58:31Z</time>
      </trkpt>
      <trkpt lat="-21.00849" lon="55.38857">
        <ele>759.4</ele>
        <time>2013-10-10T02:58:39Z</time>
      </trkpt>
      <trkpt lat="-21.00855" lon="55.38866">
        <ele>760</ele>
        <time>2013-10-10T02:58:46Z</time>
      </trkpt>
      <trkpt lat="-21.0086" lon="55.38874">
        <ele>759.3</ele>
        <time>2013-10-10T02:58:53Z</time>
      </trkpt>
      <trkpt lat="-21.00867" lon="55.38883">
        <ele>760</ele>
        <time>2013-10-10T02:59:01Z</time>
      </trkpt>
      <trkpt lat="-21.00872" lon="55.38892">
        <ele>759.4</ele>
        <time>2013-10-10T02:59:07Z</time>
      </trkpt>
      <trkpt lat="-21.00879" lon="55.38911">
        <ele>759.1</ele>
        <time>2013-10-10T02:59:19Z</time>
      </trkpt>
      <trkpt lat="-21.00882" lon="55.3892">
        <ele>759</ele>
        <time>2013-10-10T02:59:25Z</time>
      </trkpt>
      <trkpt lat="-21.00883" lon="55.3893">
        <ele>758.8</ele>
        <time>2013-10-10T02:59:31Z</time>
      </trkpt>
      <trkpt lat="-21.00887" lon="55.38939">
        <ele>758.7</ele>
        <time>2013-10-10T02:59:38Z</time>
      </trkpt>
      <trkpt lat="-21.0089" lon="55.38949">
        <ele>758.7</ele>
        <time>2013-10-10T02:59:45Z</time>
      </trkpt>
      <trkpt lat="-21.00893" lon="55.38958">
        <ele>759</ele>
        <time>2013-10-10T02:59:51Z</time>
      </trkpt>
      <trkpt lat="-21.00893" lon="55.38969">
        <ele>759.5</ele>
        <time>2013-10-10T02:59:57Z</time>
      </trkpt>
      <trkpt lat="-21.00893" lon="55.38979">
        <ele>759.6</ele>
        <time>2013-10-10T03:00:04Z</time>
      </trkpt>
      <trkpt lat="-21.00895" lon="55.3899">
        <ele>759.7</ele>
        <time>2013-10-10T03:00:12Z</time>
      </trkpt>
      <trkpt lat="-21.00891" lon="55.39011">
        <ele>758.9</ele>
        <time>2013-10-10T03:00:26Z</time>
      </trkpt>
      <trkpt lat="-21.00891" lon="55.39022">
        <ele>758</ele>
        <time>2013-10-10T03:00:33Z</time>
      </trkpt>
      <trkpt lat="-21.00893" lon="55.39033">
        <ele>758.9</ele>
        <time>2013-10-10T03:00:39Z</time>
      </trkpt>
      <trkpt lat="-21.00892" lon="55.39043">
        <ele>758.9</ele>
        <time>2013-10-10T03:00:45Z</time>
      </trkpt>
      <trkpt lat="-21.0089" lon="55.39053">
        <ele>758.5</ele>
        <time>2013-10-10T03:00:52Z</time>
      </trkpt>
      <trkpt lat="-21.00888" lon="55.39064">
        <ele>759.1</ele>
        <time>2013-10-10T03:00:59Z</time>
      </trkpt>
      <trkpt lat="-21.00887" lon="55.39073">
        <ele>759.3</ele>
        <time>2013-10-10T03:01:06Z</time>
      </trkpt>
      <trkpt lat="-21.00885" lon="55.39083">
        <ele>759</ele>
        <time>2013-10-10T03:01:12Z</time>
      </trkpt>
      <trkpt lat="-21.00881" lon="55.39093">
        <ele>758.9</ele>
        <time>2013-10-10T03:01:19Z</time>
      </trkpt>
      <trkpt lat="-21.00869" lon="55.3911">
        <ele>758.7</ele>
        <time>2013-10-10T03:01:33Z</time>
      </trkpt>
      <trkpt lat="-21.00863" lon="55.39118">
        <ele>759.2</ele>
        <time>2013-10-10T03:01:40Z</time>
      </trkpt>
      <trkpt lat="-21.00857" lon="55.39126">
        <ele>759.4</ele>
        <time>2013-10-10T03:01:47Z</time>
      </trkpt>
      <trkpt lat="-21.00855" lon="55.39135">
        <ele>758.8</ele>
        <time>2013-10-10T03:01:53Z</time>
      </trkpt>
      <trkpt lat="-21.00853" lon="55.39145">
        <ele>759.3</ele>
        <time>2013-10-10T03:01:59Z</time>
      </trkpt>
      <trkpt lat="-21.00857" lon="55.39155">
        <ele>760.1</ele>
        <time>2013-10-10T03:02:06Z</time>
      </trkpt>
      <trkpt lat="-21.00867" lon="55.39156">
        <ele>760.2</ele>
        <time>2013-10-10T03:02:13Z</time>
      </trkpt>
      <trkpt lat="-21.00876" lon="55.39161">
        <ele>759.6</ele>
        <time>2013-10-10T03:02:20Z</time>
      </trkpt>
      <trkpt lat="-21.00895" lon="55.39165">
        <ele>759.7</ele>
        <time>2013-10-10T03:02:31Z</time>
      </trkpt>
      <trkpt lat="-21.00903" lon="55.39172">
        <ele>759.8</ele>
        <time>2013-10-10T03:02:38Z</time>
      </trkpt>
      <trkpt lat="-21.0091" lon="55.39178">
        <ele>760.5</ele>
        <time>2013-10-10T03:02:46Z</time>
      </trkpt>
      <trkpt lat="-21.00917" lon="55.39186">
        <ele>759.8</ele>
        <time>2013-10-10T03:02:53Z</time>
      </trkpt>
      <trkpt lat="-21.00924" lon="55.39193">
        <ele>759.4</ele>
        <time>2013-10-10T03:03:01Z</time>
      </trkpt>
      <trkpt lat="-21.00927" lon="55.39204">
        <ele>758.9</ele>
        <time>2013-10-10T03:03:08Z</time>
      </trkpt>
      <trkpt lat="-21.00933" lon="55.39212">
        <ele>758.4</ele>
        <time>2013-10-10T03:03:15Z</time>
      </trkpt>
      <trkpt lat="-21.00942" lon="55.39216">
        <ele>759.8</ele>
        <time>2013-10-10T03:03:22Z</time>
      </trkpt>
      <trkpt lat="-21.0096" lon="55.39218">
        <ele>758.9</ele>
        <time>2013-10-10T03:03:34Z</time>
      </trkpt>
      <trkpt lat="-21.00969" lon="55.39221">
        <ele>759.7</ele>
        <time>2013-10-10T03:03:42Z</time>
      </trkpt>
      <trkpt lat="-21.00978" lon="55.39224">
        <ele>760</ele>
        <time>2013-10-10T03:03:49Z</time>
      </trkpt>
      <trkpt lat="-21.00988" lon="55.39226">
        <ele>759.5</ele>
        <time>2013-10-10T03:03:55Z</time>
      </trkpt>
      <trkpt lat="-21.00997" lon="55.39226">
        <ele>760.2</ele>
        <time>2013-10-10T03:04:01Z</time>
      </trkpt>
      <trkpt lat="-21.01007" lon="55.39228">
        <ele>760.2</ele>
        <time>2013-10-10T03:04:07Z</time>
      </trkpt>
      <trkpt lat="-21.01016" lon="55.39233">
        <ele>760.9</ele>
        <time>2013-10-10T03:04:14Z</time>
      </trkpt>
      <trkpt lat="-21.01026" lon="55.39235">
        <ele>760.5</ele>
        <time>2013-10-10T03:04:22Z</time>
      </trkpt>
      <trkpt lat="-21.01036" lon="55.39235">
        <ele>759.9</ele>
        <time>2013-10-10T03:04:29Z</time>
      </trkpt>
      <trkpt lat="-21.01053" lon="55.39243">
        <ele>759.8</ele>
        <time>2013-10-10T03:05:02Z</time>
      </trkpt>
      <trkpt lat="-21.01061" lon="55.39247">
        <ele>760.4</ele>
        <time>2013-10-10T03:05:09Z</time>
      </trkpt>
      <trkpt lat="-21.01069" lon="55.39254">
        <ele>759.7</ele>
        <time>2013-10-10T03:05:16Z</time>
      </trkpt>
      <trkpt lat="-21.01078" lon="55.39249">
        <ele>759.9</ele>
        <time>2013-10-10T03:05:24Z</time>
      </trkpt>
      <trkpt lat="-21.01088" lon="55.3925">
        <ele>758.8</ele>
        <time>2013-10-10T03:05:31Z</time>
      </trkpt>
      <trkpt lat="-21.01095" lon="55.39265">
        <ele>759.8</ele>
        <time>2013-10-10T03:05:46Z</time>
      </trkpt>
      <trkpt lat="-21.01095" lon="55.39275">
        <ele>759</ele>
        <time>2013-10-10T03:05:52Z</time>
      </trkpt>
      <trkpt lat="-21.01103" lon="55.39279">
        <ele>759.9</ele>
        <time>2013-10-10T03:05:58Z</time>
      </trkpt>
      <trkpt lat="-21.01113" lon="55.39282">
        <ele>758.9</ele>
        <time>2013-10-10T03:06:04Z</time>
      </trkpt>
      <trkpt lat="-21.01123" lon="55.39282">
        <ele>760</ele>
        <time>2013-10-10T03:06:10Z</time>
      </trkpt>
      <trkpt lat="-21.01133" lon="55.39283">
        <ele>759.7</ele>
        <time>2013-10-10T03:06:16Z</time>
      </trkpt>
      <trkpt lat="-21.01142" lon="55.39284">
        <ele>759.5</ele>
        <time>2013-10-10T03:06:22Z</time>
      </trkpt>
      <trkpt lat="-21.01147" lon="55.39292">
        <ele>759.5</ele>
        <time>2013-10-10T03:06:30Z</time>
      </trkpt>
      <trkpt lat="-21.01151" lon="55.39301">
        <ele>760</ele>
        <time>2013-10-10T03:06:36Z</time>
      </trkpt>
      <trkpt lat="-21.01164" lon="55.39317">
        <ele>759.6</ele>
        <time>2013-10-10T03:06:48Z</time>
      </trkpt>
      <trkpt lat="-21.0117" lon="55.39324">
        <ele>759.4</ele>
        <time>2013-10-10T03:06:54Z</time>
      </trkpt>
      <trkpt lat="-21.01177" lon="55.39331">
        <ele>759.5</ele>
        <time>2013-10-10T03:07:00Z</time>
      </trkpt>
      <trkpt lat="-21.01186" lon="55.39336">
        <ele>759.7</ele>
        <time>2013-10-10T03:07:06Z</time>
      </trkpt>
      <trkpt lat="-21.01195" lon="55.39334">
        <ele>759</ele>
        <time>2013-10-10T03:07:12Z</time>
      </trkpt>
      <trkpt lat="-21.01203" lon="55.39329">
        <ele>758.8</ele>
        <time>2013-10-10T03:07:19Z</time>
      </trkpt>
      <trkpt lat="-21.01211" lon="55.39335">
        <ele>758.5</ele>
        <time>2013-10-10T03:07:27Z</time>
      </trkpt>
      <trkpt lat="-21.01207" lon="55.39345">
        <ele>758.9</ele>
        <time>2013-10-10T03:07:34Z</time>
      </trkpt>
      <trkpt lat="-21.01201" lon="55.39353">
        <ele>758.8</ele>
        <time>2013-10-10T03:07:40Z</time>
      </trkpt>
      <trkpt lat="-21.01201" lon="55.39373">
        <ele>758.7</ele>
        <time>2013-10-10T03:07:52Z</time>
      </trkpt>
      <trkpt lat="-21.01208" lon="55.3938">
        <ele>758.7</ele>
        <time>2013-10-10T03:07:57Z</time>
      </trkpt>
      <trkpt lat="-21.01216" lon="55.39387">
        <ele>758.7</ele>
        <time>2013-10-10T03:08:03Z</time>
      </trkpt>
      <trkpt lat="-21.01224" lon="55.39393">
        <ele>759.2</ele>
        <time>2013-10-10T03:08:09Z</time>
      </trkpt>
      <trkpt lat="-21.01232" lon="55.39398">
        <ele>758.5</ele>
        <time>2013-10-10T03:08:15Z</time>
      </trkpt>
      <trkpt lat="-21.01242" lon="55.394">
        <ele>758.5</ele>
        <time>2013-10-10T03:08:22Z</time>
      </trkpt>
      <trkpt lat="-21.01249" lon="55.39408">
        <ele>758.3</ele>
        <time>2013-10-10T03:08:29Z</time>
      </trkpt>
      <trkpt lat="-21.0125" lon="55.39419">
        <ele>758.4</ele>
        <time>2013-10-10T03:08:36Z</time>
      </trkpt>
      <trkpt lat="-21.01252" lon="55.39429">
        <ele>758.6</ele>
        <time>2013-10-10T03:08:42Z</time>
      </trkpt>
      <trkpt lat="-21.01268" lon="55.39442">
        <ele>759.5</ele>
        <time>2013-10-10T03:08:54Z</time>
      </trkpt>
      <trkpt lat="-21.01278" lon="55.39442">
        <ele>759.1</ele>
        <time>2013-10-10T03:09:00Z</time>
      </trkpt>
      <trkpt lat="-21.01287" lon="55.39445">
        <ele>758.8</ele>
        <time>2013-10-10T03:09:06Z</time>
      </trkpt>
      <trkpt lat="-21.01294" lon="55.39453">
        <ele>759.4</ele>
        <time>2013-10-10T03:09:13Z</time>
      </trkpt>
      <trkpt lat="-21.01302" lon="55.39458">
        <ele>760</ele>
        <time>2013-10-10T03:09:19Z</time>
      </trkpt>
      <trkpt lat="-21.01311" lon="55.39458">
        <ele>760</ele>
        <time>2013-10-10T03:09:25Z</time>
      </trkpt>
      <trkpt lat="-21.01317" lon="55.39467">
        <ele>760.2</ele>
        <time>2013-10-10T03:09:33Z</time>
      </trkpt>
      <trkpt lat="-21.01326" lon="55.39469">
        <ele>759.9</ele>
        <time>2013-10-10T03:09:40Z</time>
      </trkpt>
      <trkpt lat="-21.01332" lon="55.39477">
        <ele>759.5</ele>
        <time>2013-10-10T03:09:48Z</time>
      </trkpt>
      <trkpt lat="-21.01341" lon="55.39497">
        <ele>758.6</ele>
        <time>2013-10-10T03:10:01Z</time>
      </trkpt>
      <trkpt lat="-21.01346" lon="55.39505">
        <ele>759.1</ele>
        <time>2013-10-10T03:10:07Z</time>
      </trkpt>
      <trkpt lat="-21.01352" lon="55.39514">
        <ele>759.1</ele>
        <time>2013-10-10T03:10:14Z</time>
      </trkpt>
      <trkpt lat="-21.0136" lon="55.39519">
        <ele>758.8</ele>
        <time>2013-10-10T03:10:20Z</time>
      </trkpt>
      <trkpt lat="-21.0137" lon="55.3952">
        <ele>758.3</ele>
        <time>2013-10-10T03:10:26Z</time>
      </trkpt>
      <trkpt lat="-21.01379" lon="55.39524">
        <ele>758.5</ele>
        <time>2013-10-10T03:10:32Z</time>
      </trkpt>
      <trkpt lat="-21.01386" lon="55.3953">
        <ele>758.8</ele>
        <time>2013-10-10T03:10:39Z</time>
      </trkpt>
      <trkpt lat="-21.01393" lon="55.39537">
        <ele>759.5</ele>
        <time>2013-10-10T03:10:46Z</time>
      </trkpt>
      <trkpt lat="-21.01401" lon="55.39542">
        <ele>758.5</ele>
        <time>2013-10-10T03:10:52Z</time>
      </trkpt>
      <trkpt lat="-21.0142" lon="55.39546">
        <ele>759</ele>
        <time>2013-10-10T03:11:05Z</time>
      </trkpt>
      <trkpt lat="-21.01429" lon="55.3955">
        <ele>758.5</ele>
        <time>2013-10-10T03:11:11Z</time>
      </trkpt>
      <trkpt lat="-21.01438" lon="55.39553">
        <ele>759.8</ele>
        <time>2013-10-10T03:11:18Z</time>
      </trkpt>
      <trkpt lat="-21.01447" lon="55.39556">
        <ele>759.3</ele>
        <time>2013-10-10T03:11:24Z</time>
      </trkpt>
      <trkpt lat="-21.01457" lon="55.39557">
        <ele>759.6</ele>
        <time>2013-10-10T03:11:30Z</time>
      </trkpt>
      <trkpt lat="-21.01467" lon="55.39558">
        <ele>759.4</ele>
        <time>2013-10-10T03:11:36Z</time>
      </trkpt>
      <trkpt lat="-21.01476" lon="55.39555">
        <ele>758.8</ele>
        <time>2013-10-10T03:11:43Z</time>
      </trkpt>
      <trkpt lat="-21.01486" lon="55.3955">
        <ele>758.7</ele>
        <time>2013-10-10T03:11:49Z</time>
      </trkpt>
      <trkpt lat="-21.01496" lon="55.39552">
        <ele>759.5</ele>
        <time>2013-10-10T03:11:55Z</time>
      </trkpt>
      <trkpt lat="-21.01513" lon="55.39558">
        <ele>760</ele>
        <time>2013-10-10T03:12:08Z</time>
      </trkpt>
      <trkpt lat="-21.01523" lon="55.39559">
        <ele>759.9</ele>
        <time>2013-10-10T03:12:14Z</time>
      </trkpt>
      <trkpt lat="-21.01531" lon="55.39555">
        <ele>759.2</ele>
        <time>2013-10-10T03:12:20Z</time>
      </trkpt>
      <trkpt lat="-21.01537" lon="55.39545">
        <ele>758.8</ele>
        <time>2013-10-10T03:12:28Z</time>
      </trkpt>
      <trkpt lat="-21.01546" lon="55.39541">
        <ele>758.5</ele>
        <time>2013-10-10T03:12:35Z</time>
      </trkpt>
      <trkpt lat="-21.01555" lon="55.39541">
        <ele>758.7</ele>
        <time>2013-10-10T03:12:42Z</time>
      </trkpt>
      <trkpt lat="-21.01545" lon="55.39539">
        <ele>759.3</ele>
        <time>2013-10-10T03:12:51Z</time>
      </trkpt>
      <trkpt lat="-21.01537" lon="55.39545">
        <ele>759</ele>
        <time>2013-10-10T03:12:55Z</time>
      </trkpt>
      <trkpt lat="-21.01529" lon="55.39551">
        <ele>759.8</ele>
        <time>2013-10-10T03:12:59Z</time>
      </trkpt>
      <trkpt lat="-21.01511" lon="55.39565">
        <ele>759.3</ele>
        <time>2013-10-10T03:13:07Z</time>
      </trkpt>
      <trkpt lat="-21.01512" lon="55.39574">
        <ele>759.4</ele>
        <time>2013-10-10T03:13:12Z</time>
      </trkpt>
      <trkpt lat="-21.01518" lon="55.39583">
        <ele>759.2</ele>
        <time>2013-10-10T03:13:17Z</time>
      </trkpt>
      <trkpt lat="-21.01524" lon="55.39591">
        <ele>759.9</ele>
        <time>2013-10-10T03:13:23Z</time>
      </trkpt>
      <trkpt lat="-21.0156" lon="55.3961">
        <ele>760</ele>
        <time>2013-10-10T03:13:42Z</time>
      </trkpt>
      <trkpt lat="-21.01592" lon="55.39623">
        <ele>760</ele>
        <time>2013-10-10T03:13:53Z</time>
      </trkpt>
      <trkpt lat="-21.01601" lon="55.39619">
        <ele>760.4</ele>
        <time>2013-10-10T03:13:59Z</time>
      </trkpt>
      <trkpt lat="-21.0161" lon="55.39615">
        <ele>760.2</ele>
        <time>2013-10-10T03:14:06Z</time>
      </trkpt>
      <trkpt lat="-21.01628" lon="55.39611">
        <ele>759.2</ele>
        <time>2013-10-10T03:14:21Z</time>
      </trkpt>
      <trkpt lat="-21.01638" lon="55.39613">
        <ele>758.2</ele>
        <time>2013-10-10T03:14:27Z</time>
      </trkpt>
      <trkpt lat="-21.01647" lon="55.39612">
        <ele>759.6</ele>
        <time>2013-10-10T03:14:34Z</time>
      </trkpt>
      <trkpt lat="-21.01651" lon="55.39602">
        <ele>759.5</ele>
        <time>2013-10-10T03:14:39Z</time>
      </trkpt>
      <trkpt lat="-21.01658" lon="55.39596">
        <ele>758.8</ele>
        <time>2013-10-10T03:14:47Z</time>
      </trkpt>
      <trkpt lat="-21.01665" lon="55.39602">
        <ele>758.1</ele>
        <time>2013-10-10T03:14:56Z</time>
      </trkpt>
      <trkpt lat="-21.01674" lon="55.396">
        <ele>758.2</ele>
        <time>2013-10-10T03:15:01Z</time>
      </trkpt>
      <trkpt lat="-21.01685" lon="55.39597">
        <ele>758.3</ele>
        <time>2013-10-10T03:15:06Z</time>
      </trkpt>
      <trkpt lat="-21.01695" lon="55.39597">
        <ele>758.1</ele>
        <time>2013-10-10T03:15:10Z</time>
      </trkpt>
      <trkpt lat="-21.01713" lon="55.39589">
        <ele>758.2</ele>
        <time>2013-10-10T03:15:21Z</time>
      </trkpt>
      <trkpt lat="-21.01721" lon="55.39584">
        <ele>757.3</ele>
        <time>2013-10-10T03:15:26Z</time>
      </trkpt>
      <trkpt lat="-21.0173" lon="55.39579">
        <ele>757.8</ele>
        <time>2013-10-10T03:15:31Z</time>
      </trkpt>
      <trkpt lat="-21.01739" lon="55.39575">
        <ele>757.6</ele>
        <time>2013-10-10T03:15:36Z</time>
      </trkpt>
      <trkpt lat="-21.01749" lon="55.39575">
        <ele>756.9</ele>
        <time>2013-10-10T03:15:41Z</time>
      </trkpt>
      <trkpt lat="-21.01739" lon="55.3958">
        <ele>755</ele>
        <time>2013-10-10T03:15:51Z</time>
      </trkpt>
      <trkpt lat="-21.01718" lon="55.39575">
        <ele>756</ele>
        <time>2013-10-10T03:16:01Z</time>
      </trkpt>
      <trkpt lat="-21.01709" lon="55.39571">
        <ele>756.1</ele>
        <time>2013-10-10T03:16:06Z</time>
      </trkpt>
      <trkpt lat="-21.017" lon="55.39575">
        <ele>756.1</ele>
        <time>2013-10-10T03:16:14Z</time>
      </trkpt>
      <trkpt lat="-21.01691" lon="55.39594">
        <ele>756.5</ele>
        <time>2013-10-10T03:16:24Z</time>
      </trkpt>
      <trkpt lat="-21.01683" lon="55.39599">
        <ele>756.5</ele>
        <time>2013-10-10T03:16:28Z</time>
      </trkpt>
      <trkpt lat="-21.01674" lon="55.39601">
        <ele>756.1</ele>
        <time>2013-10-10T03:16:31Z</time>
      </trkpt>
      <trkpt lat="-21.01667" lon="55.39595">
        <ele>756.4</ele>
        <time>2013-10-10T03:16:42Z</time>
      </trkpt>
      <trkpt lat="-21.01663" lon="55.39606">
        <ele>756.6</ele>
        <time>2013-10-10T03:16:54Z</time>
      </trkpt>
      <trkpt lat="-21.01659" lon="55.39615">
        <ele>756.9</ele>
        <time>2013-10-10T03:16:57Z</time>
      </trkpt>
      <trkpt lat="-21.01654" lon="55.39623">
        <ele>756.8</ele>
        <time>2013-10-10T03:17:00Z</time>
      </trkpt>
      <trkpt lat="-21.01645" lon="55.3963">
        <ele>757</ele>
        <time>2013-10-10T03:17:04Z</time>
      </trkpt>
      <trkpt lat="-21.01636" lon="55.39634">
        <ele>756.7</ele>
        <time>2013-10-10T03:17:09Z</time>
      </trkpt>
      <trkpt lat="-21.01628" lon="55.39641">
        <ele>756.2</ele>
        <time>2013-10-10T03:17:14Z</time>
      </trkpt>
      <trkpt lat="-21.01623" lon="55.39651">
        <ele>755.9</ele>
        <time>2013-10-10T03:17:18Z</time>
      </trkpt>
      <trkpt lat="-21.01619" lon="55.39671">
        <ele>756.9</ele>
        <time>2013-10-10T03:17:27Z</time>
      </trkpt>
      <trkpt lat="-21.01617" lon="55.39682">
        <ele>756.5</ele>
        <time>2013-10-10T03:17:33Z</time>
      </trkpt>
      <trkpt lat="-21.01611" lon="55.39691">
        <ele>756.6</ele>
        <time>2013-10-10T03:17:39Z</time>
      </trkpt>
      <trkpt lat="-21.01599" lon="55.39685">
        <ele>757.4</ele>
        <time>2013-10-10T03:18:02Z</time>
      </trkpt>
      <trkpt lat="-21.01589" lon="55.39682">
        <ele>757.3</ele>
        <time>2013-10-10T03:18:07Z</time>
      </trkpt>
      <trkpt lat="-21.0158" lon="55.39679">
        <ele>757.2</ele>
        <time>2013-10-10T03:18:13Z</time>
      </trkpt>
      <trkpt lat="-21.01584" lon="55.3967">
        <ele>757.1</ele>
        <time>2013-10-10T03:18:24Z</time>
      </trkpt>
      <trkpt lat="-21.01582" lon="55.39689">
        <ele>756.1</ele>
        <time>2013-10-10T03:18:36Z</time>
      </trkpt>
      <trkpt lat="-21.01575" lon="55.39701">
        <ele>755.7</ele>
        <time>2013-10-10T03:18:39Z</time>
      </trkpt>
      <trkpt lat="-21.01566" lon="55.39712">
        <ele>756</ele>
        <time>2013-10-10T03:18:42Z</time>
      </trkpt>
      <trkpt lat="-21.0156" lon="55.3972">
        <ele>756.1</ele>
        <time>2013-10-10T03:18:44Z</time>
      </trkpt>
      <trkpt lat="-21.01555" lon="55.39728">
        <ele>755.9</ele>
        <time>2013-10-10T03:18:46Z</time>
      </trkpt>
      <trkpt lat="-21.01548" lon="55.3974">
        <ele>755.5</ele>
        <time>2013-10-10T03:18:49Z</time>
      </trkpt>
      <trkpt lat="-21.01544" lon="55.3975">
        <ele>755.8</ele>
        <time>2013-10-10T03:18:52Z</time>
      </trkpt>
      <trkpt lat="-21.01542" lon="55.39759">
        <ele>756.4</ele>
        <time>2013-10-10T03:18:55Z</time>
      </trkpt>
      <trkpt lat="-21.01541" lon="55.3977">
        <ele>756.9</ele>
        <time>2013-10-10T03:18:59Z</time>
      </trkpt>
      <trkpt lat="-21.0154" lon="55.39781">
        <ele>756.2</ele>
        <time>2013-10-10T03:19:03Z</time>
      </trkpt>
      <trkpt lat="-21.0154" lon="55.39791">
        <ele>756.3</ele>
        <time>2013-10-10T03:19:07Z</time>
      </trkpt>
      <trkpt lat="-21.01537" lon="55.398">
        <ele>757.4</ele>
        <time>2013-10-10T03:19:11Z</time>
      </trkpt>
      <trkpt lat="-21.01531" lon="55.39809">
        <ele>756.4</ele>
        <time>2013-10-10T03:19:17Z</time>
      </trkpt>
      <trkpt lat="-21.01533" lon="55.3982">
        <ele>756.7</ele>
        <time>2013-10-10T03:19:23Z</time>
      </trkpt>
      <trkpt lat="-21.01536" lon="55.3983">
        <ele>757.5</ele>
        <time>2013-10-10T03:19:29Z</time>
      </trkpt>
      <trkpt lat="-21.01538" lon="55.39851">
        <ele>756.5</ele>
        <time>2013-10-10T03:19:42Z</time>
      </trkpt>
      <trkpt lat="-21.0154" lon="55.39861">
        <ele>756.9</ele>
        <time>2013-10-10T03:19:48Z</time>
      </trkpt>
      <trkpt lat="-21.01546" lon="55.3987">
        <ele>757.4</ele>
        <time>2013-10-10T03:19:54Z</time>
      </trkpt>
      <trkpt lat="-21.01552" lon="55.39878">
        <ele>756</ele>
        <time>2013-10-10T03:20:00Z</time>
      </trkpt>
      <trkpt lat="-21.0156" lon="55.39885">
        <ele>755.7</ele>
        <time>2013-10-10T03:20:07Z</time>
      </trkpt>
      <trkpt lat="-21.01569" lon="55.39888">
        <ele>756.6</ele>
        <time>2013-10-10T03:20:24Z</time>
      </trkpt>
      <trkpt lat="-21.01577" lon="55.39894">
        <ele>756.7</ele>
        <time>2013-10-10T03:20:32Z</time>
      </trkpt>
      <trkpt lat="-21.01593" lon="55.39903">
        <ele>756.6</ele>
        <time>2013-10-10T03:20:45Z</time>
      </trkpt>
      <trkpt lat="-21.01602" lon="55.399">
        <ele>756.6</ele>
        <time>2013-10-10T03:20:53Z</time>
      </trkpt>
      <trkpt lat="-21.01611" lon="55.39904">
        <ele>755.9</ele>
        <time>2013-10-10T03:21:01Z</time>
      </trkpt>
      <trkpt lat="-21.01621" lon="55.39906">
        <ele>757</ele>
        <time>2013-10-10T03:21:16Z</time>
      </trkpt>
      <trkpt lat="-21.0163" lon="55.39911">
        <ele>756.6</ele>
        <time>2013-10-10T03:21:23Z</time>
      </trkpt>
      <trkpt lat="-21.01638" lon="55.39915">
        <ele>756.4</ele>
        <time>2013-10-10T03:21:30Z</time>
      </trkpt>
      <trkpt lat="-21.01647" lon="55.39919">
        <ele>756.6</ele>
        <time>2013-10-10T03:21:38Z</time>
      </trkpt>
      <trkpt lat="-21.01664" lon="55.39926">
        <ele>756.6</ele>
        <time>2013-10-10T03:21:52Z</time>
      </trkpt>
      <trkpt lat="-21.01673" lon="55.39921">
        <ele>756.9</ele>
        <time>2013-10-10T03:22:02Z</time>
      </trkpt>
      <trkpt lat="-21.01679" lon="55.39928">
        <ele>755</ele>
        <time>2013-10-10T03:23:11Z</time>
      </trkpt>
      <trkpt lat="-21.01691" lon="55.39907">
        <ele>757</ele>
        <time>2013-10-10T03:23:53Z</time>
      </trkpt>
      <trkpt lat="-21.01702" lon="55.39898">
        <ele>756</ele>
        <time>2013-10-10T03:24:01Z</time>
      </trkpt>
      <trkpt lat="-21.0171" lon="55.3989">
        <ele>757</ele>
        <time>2013-10-10T03:24:09Z</time>
      </trkpt>
      <trkpt lat="-21.01711" lon="55.39881">
        <ele>756</ele>
        <time>2013-10-10T03:24:53Z</time>
      </trkpt>
      <trkpt lat="-21.0173" lon="55.3987">
        <ele>756</ele>
        <time>2013-10-10T03:25:09Z</time>
      </trkpt>
      <trkpt lat="-21.01739" lon="55.39862">
        <ele>756</ele>
        <time>2013-10-10T03:25:17Z</time>
      </trkpt>
      <trkpt lat="-21.01751" lon="55.39863">
        <ele>756</ele>
        <time>2013-10-10T03:25:25Z</time>
      </trkpt>
      <trkpt lat="-21.01763" lon="55.39862">
        <ele>756</ele>
        <time>2013-10-10T03:25:33Z</time>
      </trkpt>
      <trkpt lat="-21.01774" lon="55.39862">
        <ele>756</ele>
        <time>2013-10-10T03:25:41Z</time>
      </trkpt>
      <trkpt lat="-21.01785" lon="55.39862">
        <ele>756</ele>
        <time>2013-10-10T03:25:49Z</time>
      </trkpt>
      <trkpt lat="-21.01809" lon="55.39847">
        <ele>756</ele>
        <time>2013-10-10T03:26:27Z</time>
      </trkpt>
      <trkpt lat="-21.01923" lon="55.39792">
        <ele>756.5</ele>
        <time>2013-10-10T03:28:00Z</time>
      </trkpt>
      <trkpt lat="-21.02133" lon="55.39779">
        <ele>757</ele>
        <time>2013-10-10T03:30:20Z</time>
      </trkpt>
      <trkpt lat="-21.02182" lon="55.39772">
        <ele>757.1</ele>
        <time>2013-10-10T03:30:55Z</time>
      </trkpt>
      <trkpt lat="-21.02192" lon="55.39771">
        <ele>756.9</ele>
        <time>2013-10-10T03:31:02Z</time>
      </trkpt>
      <trkpt lat="-21.02202" lon="55.39771">
        <ele>757</ele>
        <time>2013-10-10T03:31:08Z</time>
      </trkpt>
      <trkpt lat="-21.02212" lon="55.39772">
        <ele>755.7</ele>
        <time>2013-10-10T03:31:15Z</time>
      </trkpt>
      <trkpt lat="-21.02222" lon="55.39772">
        <ele>756.4</ele>
        <time>2013-10-10T03:31:22Z</time>
      </trkpt>
      <trkpt lat="-21.02232" lon="55.39772">
        <ele>754.1</ele>
        <time>2013-10-10T03:31:29Z</time>
      </trkpt>
      <trkpt lat="-21.02241" lon="55.39772">
        <ele>753.8</ele>
        <time>2013-10-10T03:31:36Z</time>
      </trkpt>
      <trkpt lat="-21.0225" lon="55.39771">
        <ele>752.8</ele>
        <time>2013-10-10T03:31:42Z</time>
      </trkpt>
      <trkpt lat="-21.0226" lon="55.39769">
        <ele>751.5</ele>
        <time>2013-10-10T03:31:48Z</time>
      </trkpt>
      <trkpt lat="-21.02279" lon="55.39768">
        <ele>749</ele>
        <time>2013-10-10T03:32:01Z</time>
      </trkpt>
      <trkpt lat="-21.02289" lon="55.39766">
        <ele>747.3</ele>
        <time>2013-10-10T03:32:08Z</time>
      </trkpt>
      <trkpt lat="-21.02298" lon="55.39764">
        <ele>747.3</ele>
        <time>2013-10-10T03:32:14Z</time>
      </trkpt>
      <trkpt lat="-21.02307" lon="55.39764">
        <ele>746.2</ele>
        <time>2013-10-10T03:32:20Z</time>
      </trkpt>
      <trkpt lat="-21.02316" lon="55.39765">
        <ele>743.8</ele>
        <time>2013-10-10T03:32:27Z</time>
      </trkpt>
      <trkpt lat="-21.02325" lon="55.39761">
        <ele>742.8</ele>
        <time>2013-10-10T03:32:33Z</time>
      </trkpt>
      <trkpt lat="-21.02334" lon="55.39761">
        <ele>742.1</ele>
        <time>2013-10-10T03:32:39Z</time>
      </trkpt>
      <trkpt lat="-21.02343" lon="55.39761">
        <ele>741.5</ele>
        <time>2013-10-10T03:32:45Z</time>
      </trkpt>
      <trkpt lat="-21.02352" lon="55.39758">
        <ele>740.3</ele>
        <time>2013-10-10T03:32:52Z</time>
      </trkpt>
      <trkpt lat="-21.02371" lon="55.39751">
        <ele>738.5</ele>
        <time>2013-10-10T03:33:07Z</time>
      </trkpt>
      <trkpt lat="-21.0238" lon="55.39749">
        <ele>737.9</ele>
        <time>2013-10-10T03:33:13Z</time>
      </trkpt>
      <trkpt lat="-21.02389" lon="55.39747">
        <ele>736.8</ele>
        <time>2013-10-10T03:33:19Z</time>
      </trkpt>
      <trkpt lat="-21.02397" lon="55.39742">
        <ele>735.9</ele>
        <time>2013-10-10T03:33:25Z</time>
      </trkpt>
      <trkpt lat="-21.02406" lon="55.39738">
        <ele>734.6</ele>
        <time>2013-10-10T03:33:32Z</time>
      </trkpt>
      <trkpt lat="-21.02409" lon="55.39729">
        <ele>732.7</ele>
        <time>2013-10-10T03:33:38Z</time>
      </trkpt>
      <trkpt lat="-21.02415" lon="55.3972">
        <ele>731.9</ele>
        <time>2013-10-10T03:33:45Z</time>
      </trkpt>
      <trkpt lat="-21.02425" lon="55.39719">
        <ele>730.8</ele>
        <time>2013-10-10T03:33:52Z</time>
      </trkpt>
      <trkpt lat="-21.02434" lon="55.39716">
        <ele>730.8</ele>
        <time>2013-10-10T03:33:59Z</time>
      </trkpt>
      <trkpt lat="-21.02449" lon="55.39707">
        <ele>728.7</ele>
        <time>2013-10-10T03:34:13Z</time>
      </trkpt>
      <trkpt lat="-21.02459" lon="55.39705">
        <ele>727.7</ele>
        <time>2013-10-10T03:34:20Z</time>
      </trkpt>
      <trkpt lat="-21.02468" lon="55.39699">
        <ele>727.5</ele>
        <time>2013-10-10T03:34:27Z</time>
      </trkpt>
      <trkpt lat="-21.02477" lon="55.39693">
        <ele>725.3</ele>
        <time>2013-10-10T03:34:34Z</time>
      </trkpt>
      <trkpt lat="-21.02482" lon="55.39684">
        <ele>723.7</ele>
        <time>2013-10-10T03:34:41Z</time>
      </trkpt>
      <trkpt lat="-21.02491" lon="55.39681">
        <ele>722.8</ele>
        <time>2013-10-10T03:34:47Z</time>
      </trkpt>
      <trkpt lat="-21.02501" lon="55.39677">
        <ele>722.5</ele>
        <time>2013-10-10T03:34:55Z</time>
      </trkpt>
      <trkpt lat="-21.02507" lon="55.39669">
        <ele>720.8</ele>
        <time>2013-10-10T03:35:03Z</time>
      </trkpt>
      <trkpt lat="-21.02523" lon="55.39658">
        <ele>718.6</ele>
        <time>2013-10-10T03:35:18Z</time>
      </trkpt>
      <trkpt lat="-21.02532" lon="55.39653">
        <ele>718.2</ele>
        <time>2013-10-10T03:35:25Z</time>
      </trkpt>
      <trkpt lat="-21.02538" lon="55.39646">
        <ele>717.5</ele>
        <time>2013-10-10T03:35:31Z</time>
      </trkpt>
      <trkpt lat="-21.02545" lon="55.39639">
        <ele>715.2</ele>
        <time>2013-10-10T03:35:38Z</time>
      </trkpt>
      <trkpt lat="-21.02554" lon="55.39633">
        <ele>714.1</ele>
        <time>2013-10-10T03:35:47Z</time>
      </trkpt>
      <trkpt lat="-21.02562" lon="55.39627">
        <ele>713.3</ele>
        <time>2013-10-10T03:35:53Z</time>
      </trkpt>
      <trkpt lat="-21.02569" lon="55.39619">
        <ele>712.3</ele>
        <time>2013-10-10T03:36:00Z</time>
      </trkpt>
      <trkpt lat="-21.02575" lon="55.39612">
        <ele>711.5</ele>
        <time>2013-10-10T03:36:06Z</time>
      </trkpt>
      <trkpt lat="-21.02588" lon="55.39595">
        <ele>711</ele>
        <time>2013-10-10T03:36:19Z</time>
      </trkpt>
      <trkpt lat="-21.02593" lon="55.39585">
        <ele>708.9</ele>
        <time>2013-10-10T03:36:26Z</time>
      </trkpt>
      <trkpt lat="-21.02597" lon="55.39577">
        <ele>708</ele>
        <time>2013-10-10T03:36:33Z</time>
      </trkpt>
      <trkpt lat="-21.02602" lon="55.39567">
        <ele>706</ele>
        <time>2013-10-10T03:36:40Z</time>
      </trkpt>
      <trkpt lat="-21.02611" lon="55.3956">
        <ele>706.2</ele>
        <time>2013-10-10T03:36:48Z</time>
      </trkpt>
      <trkpt lat="-21.02621" lon="55.39561">
        <ele>705.1</ele>
        <time>2013-10-10T03:36:56Z</time>
      </trkpt>
      <trkpt lat="-21.02628" lon="55.39553">
        <ele>704.6</ele>
        <time>2013-10-10T03:37:03Z</time>
      </trkpt>
      <trkpt lat="-21.02635" lon="55.39547">
        <ele>703.4</ele>
        <time>2013-10-10T03:37:10Z</time>
      </trkpt>
      <trkpt lat="-21.02655" lon="55.39547">
        <ele>702.7</ele>
        <time>2013-10-10T03:37:22Z</time>
      </trkpt>
      <trkpt lat="-21.02661" lon="55.39539">
        <ele>703.4</ele>
        <time>2013-10-10T03:37:28Z</time>
      </trkpt>
      <trkpt lat="-21.02666" lon="55.3953">
        <ele>704.3</ele>
        <time>2013-10-10T03:37:34Z</time>
      </trkpt>
      <trkpt lat="-21.02672" lon="55.39524">
        <ele>702.7</ele>
        <time>2013-10-10T03:37:39Z</time>
      </trkpt>
      <trkpt lat="-21.02681" lon="55.39517">
        <ele>704</ele>
        <time>2013-10-10T03:37:45Z</time>
      </trkpt>
      <trkpt lat="-21.02689" lon="55.39513">
        <ele>703.7</ele>
        <time>2013-10-10T03:37:51Z</time>
      </trkpt>
      <trkpt lat="-21.02698" lon="55.39506">
        <ele>704.7</ele>
        <time>2013-10-10T03:37:58Z</time>
      </trkpt>
      <trkpt lat="-21.02706" lon="55.39499">
        <ele>703.6</ele>
        <time>2013-10-10T03:38:04Z</time>
      </trkpt>
      <trkpt lat="-21.02713" lon="55.39492">
        <ele>703.1</ele>
        <time>2013-10-10T03:38:10Z</time>
      </trkpt>
      <trkpt lat="-21.02717" lon="55.39482">
        <ele>703.7</ele>
        <time>2013-10-10T03:38:16Z</time>
      </trkpt>
      <trkpt lat="-21.02736" lon="55.39481">
        <ele>703.7</ele>
        <time>2013-10-10T03:38:33Z</time>
      </trkpt>
      <trkpt lat="-21.02746" lon="55.39482">
        <ele>703.5</ele>
        <time>2013-10-10T03:38:39Z</time>
      </trkpt>
      <trkpt lat="-21.02754" lon="55.39478">
        <ele>703.5</ele>
        <time>2013-10-10T03:38:45Z</time>
      </trkpt>
      <trkpt lat="-21.02762" lon="55.39471">
        <ele>704.3</ele>
        <time>2013-10-10T03:38:53Z</time>
      </trkpt>
      <trkpt lat="-21.02771" lon="55.39472">
        <ele>705</ele>
        <time>2013-10-10T03:39:00Z</time>
      </trkpt>
      <trkpt lat="-21.0278" lon="55.39467">
        <ele>704.5</ele>
        <time>2013-10-10T03:39:06Z</time>
      </trkpt>
      <trkpt lat="-21.02787" lon="55.3946">
        <ele>704.3</ele>
        <time>2013-10-10T03:39:12Z</time>
      </trkpt>
      <trkpt lat="-21.02798" lon="55.3946">
        <ele>704.6</ele>
        <time>2013-10-10T03:39:19Z</time>
      </trkpt>
      <trkpt lat="-21.02812" lon="55.39447">
        <ele>704.4</ele>
        <time>2013-10-10T03:39:32Z</time>
      </trkpt>
      <trkpt lat="-21.0282" lon="55.39443">
        <ele>703.8</ele>
        <time>2013-10-10T03:39:41Z</time>
      </trkpt>
      <trkpt lat="-21.0283" lon="55.39443">
        <ele>705</ele>
        <time>2013-10-10T03:39:48Z</time>
      </trkpt>
      <trkpt lat="-21.0284" lon="55.39442">
        <ele>703.8</ele>
        <time>2013-10-10T03:39:55Z</time>
      </trkpt>
      <trkpt lat="-21.0285" lon="55.3944">
        <ele>705</ele>
        <time>2013-10-10T03:40:03Z</time>
      </trkpt>
      <trkpt lat="-21.02858" lon="55.39435">
        <ele>704.9</ele>
        <time>2013-10-10T03:40:09Z</time>
      </trkpt>
      <trkpt lat="-21.02864" lon="55.39427">
        <ele>704</ele>
        <time>2013-10-10T03:40:14Z</time>
      </trkpt>
      <trkpt lat="-21.02873" lon="55.39424">
        <ele>704.7</ele>
        <time>2013-10-10T03:40:20Z</time>
      </trkpt>
      <trkpt lat="-21.02893" lon="55.39422">
        <ele>704</ele>
        <time>2013-10-10T03:40:33Z</time>
      </trkpt>
      <trkpt lat="-21.029" lon="55.39416">
        <ele>706</ele>
        <time>2013-10-10T03:40:39Z</time>
      </trkpt>
      <trkpt lat="-21.02902" lon="55.39406">
        <ele>704.6</ele>
        <time>2013-10-10T03:40:46Z</time>
      </trkpt>
      <trkpt lat="-21.0291" lon="55.394">
        <ele>704.9</ele>
        <time>2013-10-10T03:41:03Z</time>
      </trkpt>
      <trkpt lat="-21.02919" lon="55.39403">
        <ele>705.5</ele>
        <time>2013-10-10T03:41:09Z</time>
      </trkpt>
      <trkpt lat="-21.02929" lon="55.39403">
        <ele>705.4</ele>
        <time>2013-10-10T03:41:15Z</time>
      </trkpt>
      <trkpt lat="-21.02938" lon="55.39397">
        <ele>705.4</ele>
        <time>2013-10-10T03:41:22Z</time>
      </trkpt>
      <trkpt lat="-21.02955" lon="55.394">
        <ele>705.5</ele>
        <time>2013-10-10T03:41:34Z</time>
      </trkpt>
      <trkpt lat="-21.02965" lon="55.39399">
        <ele>705.6</ele>
        <time>2013-10-10T03:41:42Z</time>
      </trkpt>
      <trkpt lat="-21.02975" lon="55.39399">
        <ele>705.4</ele>
        <time>2013-10-10T03:41:49Z</time>
      </trkpt>
      <trkpt lat="-21.02984" lon="55.39401">
        <ele>706.2</ele>
        <time>2013-10-10T03:41:56Z</time>
      </trkpt>
      <trkpt lat="-21.02992" lon="55.39405">
        <ele>705.8</ele>
        <time>2013-10-10T03:42:03Z</time>
      </trkpt>
      <trkpt lat="-21.03001" lon="55.39401">
        <ele>706.1</ele>
        <time>2013-10-10T03:42:10Z</time>
      </trkpt>
      <trkpt lat="-21.03004" lon="55.39391">
        <ele>705.2</ele>
        <time>2013-10-10T03:42:16Z</time>
      </trkpt>
      <trkpt lat="-21.03011" lon="55.39384">
        <ele>705</ele>
        <time>2013-10-10T03:42:22Z</time>
      </trkpt>
      <trkpt lat="-21.0302" lon="55.39382">
        <ele>705.2</ele>
        <time>2013-10-10T03:42:27Z</time>
      </trkpt>
      <trkpt lat="-21.03037" lon="55.3937">
        <ele>705.2</ele>
        <time>2013-10-10T03:42:39Z</time>
      </trkpt>
      <trkpt lat="-21.03039" lon="55.39359">
        <ele>705.8</ele>
        <time>2013-10-10T03:42:47Z</time>
      </trkpt>
      <trkpt lat="-21.03044" lon="55.39351">
        <ele>705.9</ele>
        <time>2013-10-10T03:42:55Z</time>
      </trkpt>
      <trkpt lat="-21.03185" lon="55.39369">
        <ele>716</ele>
        <time>2013-10-10T03:44:55Z</time>
      </trkpt>
      <trkpt lat="-21.03228" lon="55.39379">
        <ele>721</ele>
        <time>2013-10-10T03:45:34Z</time>
      </trkpt>
      <trkpt lat="-21.03237" lon="55.39384">
        <ele>722</ele>
        <time>2013-10-10T03:45:43Z</time>
      </trkpt>
      <trkpt lat="-21.03246" lon="55.39387">
        <ele>723.8</ele>
        <time>2013-10-10T03:45:51Z</time>
      </trkpt>
      <trkpt lat="-21.03253" lon="55.39381">
        <ele>724.1</ele>
        <time>2013-10-10T03:46:00Z</time>
      </trkpt>
      <trkpt lat="-21.03263" lon="55.39378">
        <ele>724.6</ele>
        <time>2013-10-10T03:46:07Z</time>
      </trkpt>
      <trkpt lat="-21.03268" lon="55.3937">
        <ele>725.8</ele>
        <time>2013-10-10T03:46:17Z</time>
      </trkpt>
      <trkpt lat="-21.03286" lon="55.39383">
        <ele>730.4</ele>
        <time>2013-10-10T03:47:02Z</time>
      </trkpt>
      <trkpt lat="-21.03294" lon="55.3938">
        <ele>732.3</ele>
        <time>2013-10-10T03:47:07Z</time>
      </trkpt>
      <trkpt lat="-21.03305" lon="55.3938">
        <ele>733.4</ele>
        <time>2013-10-10T03:47:13Z</time>
      </trkpt>
      <trkpt lat="-21.03314" lon="55.39382">
        <ele>733.7</ele>
        <time>2013-10-10T03:47:18Z</time>
      </trkpt>
      <trkpt lat="-21.03333" lon="55.39386">
        <ele>734.8</ele>
        <time>2013-10-10T03:47:29Z</time>
      </trkpt>
      <trkpt lat="-21.03343" lon="55.39384">
        <ele>735.8</ele>
        <time>2013-10-10T03:47:36Z</time>
      </trkpt>
      <trkpt lat="-21.03352" lon="55.3938">
        <ele>735.8</ele>
        <time>2013-10-10T03:47:41Z</time>
      </trkpt>
      <trkpt lat="-21.03362" lon="55.39376">
        <ele>735.6</ele>
        <time>2013-10-10T03:47:48Z</time>
      </trkpt>
      <trkpt lat="-21.03371" lon="55.39377">
        <ele>736.8</ele>
        <time>2013-10-10T03:47:57Z</time>
      </trkpt>
      <trkpt lat="-21.0338" lon="55.39382">
        <ele>738.1</ele>
        <time>2013-10-10T03:48:05Z</time>
      </trkpt>
      <trkpt lat="-21.03381" lon="55.39392">
        <ele>739.9</ele>
        <time>2013-10-10T03:48:13Z</time>
      </trkpt>
      <trkpt lat="-21.03388" lon="55.39398">
        <ele>740.7</ele>
        <time>2013-10-10T03:48:20Z</time>
      </trkpt>
      <trkpt lat="-21.03397" lon="55.39381">
        <ele>742.6</ele>
        <time>2013-10-10T03:48:35Z</time>
      </trkpt>
      <trkpt lat="-21.03407" lon="55.3938">
        <ele>743</ele>
        <time>2013-10-10T03:48:43Z</time>
      </trkpt>
      <trkpt lat="-21.03414" lon="55.39386">
        <ele>744.7</ele>
        <time>2013-10-10T03:48:57Z</time>
      </trkpt>
      <trkpt lat="-21.03419" lon="55.39395">
        <ele>744.3</ele>
        <time>2013-10-10T03:49:08Z</time>
      </trkpt>
      <trkpt lat="-21.03418" lon="55.39405">
        <ele>744.8</ele>
        <time>2013-10-10T03:49:15Z</time>
      </trkpt>
      <trkpt lat="-21.03426" lon="55.39412">
        <ele>745.4</ele>
        <time>2013-10-10T03:49:23Z</time>
      </trkpt>
      <trkpt lat="-21.03437" lon="55.39396">
        <ele>746</ele>
        <time>2013-10-10T03:49:35Z</time>
      </trkpt>
      <trkpt lat="-21.03445" lon="55.39389">
        <ele>746.4</ele>
        <time>2013-10-10T03:49:43Z</time>
      </trkpt>
      <trkpt lat="-21.0345" lon="55.39381">
        <ele>746.5</ele>
        <time>2013-10-10T03:49:57Z</time>
      </trkpt>
      <trkpt lat="-21.03461" lon="55.39382">
        <ele>745</ele>
        <time>2013-10-10T03:50:07Z</time>
      </trkpt>
      <trkpt lat="-21.03472" lon="55.3938">
        <ele>745</ele>
        <time>2013-10-10T03:50:19Z</time>
      </trkpt>
      <trkpt lat="-21.03482" lon="55.39378">
        <ele>745</ele>
        <time>2013-10-10T03:50:27Z</time>
      </trkpt>
      <trkpt lat="-21.03503" lon="55.39387">
        <ele>746</ele>
        <time>2013-10-10T03:50:47Z</time>
      </trkpt>
      <trkpt lat="-21.03508" lon="55.39396">
        <ele>746.5</ele>
        <time>2013-10-10T03:50:55Z</time>
      </trkpt>
      <trkpt lat="-21.03511" lon="55.39405">
        <ele>747.2</ele>
        <time>2013-10-10T03:51:02Z</time>
      </trkpt>
      <trkpt lat="-21.03513" lon="55.39416">
        <ele>745.7</ele>
        <time>2013-10-10T03:51:09Z</time>
      </trkpt>
      <trkpt lat="-21.03513" lon="55.39425">
        <ele>745.7</ele>
        <time>2013-10-10T03:51:15Z</time>
      </trkpt>
      <trkpt lat="-21.03522" lon="55.39427">
        <ele>746.3</ele>
        <time>2013-10-10T03:51:22Z</time>
      </trkpt>
      <trkpt lat="-21.03531" lon="55.39429">
        <ele>747.4</ele>
        <time>2013-10-10T03:51:27Z</time>
      </trkpt>
      <trkpt lat="-21.0354" lon="55.39433">
        <ele>747.1</ele>
        <time>2013-10-10T03:51:33Z</time>
      </trkpt>
      <trkpt lat="-21.03556" lon="55.39446">
        <ele>748.6</ele>
        <time>2013-10-10T03:51:47Z</time>
      </trkpt>
      <trkpt lat="-21.03566" lon="55.39448">
        <ele>749.5</ele>
        <time>2013-10-10T03:51:54Z</time>
      </trkpt>
      <trkpt lat="-21.03574" lon="55.39442">
        <ele>749.8</ele>
        <time>2013-10-10T03:52:00Z</time>
      </trkpt>
      <trkpt lat="-21.03584" lon="55.39438">
        <ele>751.4</ele>
        <time>2013-10-10T03:52:06Z</time>
      </trkpt>
      <trkpt lat="-21.03594" lon="55.39436">
        <ele>752.1</ele>
        <time>2013-10-10T03:52:14Z</time>
      </trkpt>
      <trkpt lat="-21.03604" lon="55.39436">
        <ele>752.6</ele>
        <time>2013-10-10T03:52:22Z</time>
      </trkpt>
      <trkpt lat="-21.03613" lon="55.39442">
        <ele>752.8</ele>
        <time>2013-10-10T03:52:29Z</time>
      </trkpt>
      <trkpt lat="-21.03622" lon="55.39443">
        <ele>754.7</ele>
        <time>2013-10-10T03:52:36Z</time>
      </trkpt>
      <trkpt lat="-21.03638" lon="55.39433">
        <ele>755.3</ele>
        <time>2013-10-10T03:52:51Z</time>
      </trkpt>
      <trkpt lat="-21.03648" lon="55.39434">
        <ele>755.8</ele>
        <time>2013-10-10T03:52:59Z</time>
      </trkpt>
      <trkpt lat="-21.03657" lon="55.39438">
        <ele>756.7</ele>
        <time>2013-10-10T03:53:07Z</time>
      </trkpt>
      <trkpt lat="-21.03666" lon="55.39442">
        <ele>758</ele>
        <time>2013-10-10T03:53:16Z</time>
      </trkpt>
      <trkpt lat="-21.03673" lon="55.39435">
        <ele>758.1</ele>
        <time>2013-10-10T03:53:23Z</time>
      </trkpt>
      <trkpt lat="-21.03675" lon="55.39426">
        <ele>758.4</ele>
        <time>2013-10-10T03:53:32Z</time>
      </trkpt>
      <trkpt lat="-21.03678" lon="55.39416">
        <ele>758.4</ele>
        <time>2013-10-10T03:55:07Z</time>
      </trkpt>
      <trkpt lat="-21.03688" lon="55.39398">
        <ele>758.9</ele>
        <time>2013-10-10T03:55:23Z</time>
      </trkpt>
      <trkpt lat="-21.03689" lon="55.39388">
        <ele>760.1</ele>
        <time>2013-10-10T03:55:31Z</time>
      </trkpt>
      <trkpt lat="-21.03683" lon="55.3938">
        <ele>760.1</ele>
        <time>2013-10-10T03:55:42Z</time>
      </trkpt>
      <trkpt lat="-21.03689" lon="55.39373">
        <ele>760.5</ele>
        <time>2013-10-10T03:55:51Z</time>
      </trkpt>
      <trkpt lat="-21.03697" lon="55.39369">
        <ele>760.2</ele>
        <time>2013-10-10T03:55:59Z</time>
      </trkpt>
      <trkpt lat="-21.03703" lon="55.39362">
        <ele>761.5</ele>
        <time>2013-10-10T03:56:08Z</time>
      </trkpt>
      <trkpt lat="-21.03712" lon="55.39343">
        <ele>762.3</ele>
        <time>2013-10-10T03:56:24Z</time>
      </trkpt>
      <trkpt lat="-21.03718" lon="55.39336">
        <ele>762.2</ele>
        <time>2013-10-10T03:56:31Z</time>
      </trkpt>
      <trkpt lat="-21.03726" lon="55.3933">
        <ele>762.7</ele>
        <time>2013-10-10T03:56:38Z</time>
      </trkpt>
      <trkpt lat="-21.03734" lon="55.39326">
        <ele>762.9</ele>
        <time>2013-10-10T03:56:46Z</time>
      </trkpt>
      <trkpt lat="-21.03744" lon="55.39326">
        <ele>768.4</ele>
        <time>2013-10-10T03:57:08Z</time>
      </trkpt>
      <trkpt lat="-21.03753" lon="55.39324">
        <ele>771.4</ele>
        <time>2013-10-10T03:57:17Z</time>
      </trkpt>
      <trkpt lat="-21.03768" lon="55.3931">
        <ele>773.3</ele>
        <time>2013-10-10T03:57:34Z</time>
      </trkpt>
      <trkpt lat="-21.03777" lon="55.39305">
        <ele>773.4</ele>
        <time>2013-10-10T03:57:41Z</time>
      </trkpt>
      <trkpt lat="-21.03775" lon="55.39295">
        <ele>773</ele>
        <time>2013-10-10T03:57:49Z</time>
      </trkpt>
      <trkpt lat="-21.03782" lon="55.39288">
        <ele>776.8</ele>
        <time>2013-10-10T03:58:02Z</time>
      </trkpt>
      <trkpt lat="-21.03773" lon="55.39284">
        <ele>776.9</ele>
        <time>2013-10-10T03:58:23Z</time>
      </trkpt>
      <trkpt lat="-21.0377" lon="55.39268">
        <ele>781.3</ele>
        <time>2013-10-10T03:58:50Z</time>
      </trkpt>
      <trkpt lat="-21.0378" lon="55.39262">
        <ele>781</ele>
        <time>2013-10-10T03:58:54Z</time>
      </trkpt>
      <trkpt lat="-21.03845" lon="55.3924">
        <ele>783</ele>
        <time>2013-10-10T03:59:05Z</time>
      </trkpt>
      <trkpt lat="-21.03861" lon="55.39233">
        <ele>783.7</ele>
        <time>2013-10-10T03:59:10Z</time>
      </trkpt>
      <trkpt lat="-21.03863" lon="55.39223">
        <ele>786</ele>
        <time>2013-10-10T03:59:28Z</time>
      </trkpt>
      <trkpt lat="-21.0386" lon="55.39251">
        <ele>787</ele>
        <time>2013-10-10T03:59:49Z</time>
      </trkpt>
      <trkpt lat="-21.03862" lon="55.39263">
        <ele>789.2</ele>
        <time>2013-10-10T04:00:00Z</time>
      </trkpt>
      <trkpt lat="-21.03871" lon="55.39262">
        <ele>791.1</ele>
        <time>2013-10-10T04:00:20Z</time>
      </trkpt>
      <trkpt lat="-21.03868" lon="55.39252">
        <ele>795</ele>
        <time>2013-10-10T04:00:43Z</time>
      </trkpt>
      <trkpt lat="-21.03868" lon="55.39231">
        <ele>803.4</ele>
        <time>2013-10-10T04:01:13Z</time>
      </trkpt>
      <trkpt lat="-21.03873" lon="55.39223">
        <ele>804.9</ele>
        <time>2013-10-10T04:01:28Z</time>
      </trkpt>
      <trkpt lat="-21.0388" lon="55.39216">
        <ele>808.1</ele>
        <time>2013-10-10T04:01:42Z</time>
      </trkpt>
      <trkpt lat="-21.03887" lon="55.39209">
        <ele>808.9</ele>
        <time>2013-10-10T04:01:48Z</time>
      </trkpt>
      <trkpt lat="-21.03893" lon="55.39203">
        <ele>812.9</ele>
        <time>2013-10-10T04:02:05Z</time>
      </trkpt>
      <trkpt lat="-21.03903" lon="55.39204">
        <ele>813.8</ele>
        <time>2013-10-10T04:02:12Z</time>
      </trkpt>
      <trkpt lat="-21.03912" lon="55.3921">
        <ele>815</ele>
        <time>2013-10-10T04:02:21Z</time>
      </trkpt>
      <trkpt lat="-21.03913" lon="55.39224">
        <ele>816</ele>
        <time>2013-10-10T04:02:29Z</time>
      </trkpt>
      <trkpt lat="-21.03923" lon="55.39235">
        <ele>818</ele>
        <time>2013-10-10T04:02:37Z</time>
      </trkpt>
      <trkpt lat="-21.03932" lon="55.39242">
        <ele>820</ele>
        <time>2013-10-10T04:02:45Z</time>
      </trkpt>
      <trkpt lat="-21.03941" lon="55.39246">
        <ele>823.6</ele>
        <time>2013-10-10T04:02:57Z</time>
      </trkpt>
      <trkpt lat="-21.03947" lon="55.39229">
        <ele>830.1</ele>
        <time>2013-10-10T04:03:27Z</time>
      </trkpt>
      <trkpt lat="-21.03955" lon="55.39234">
        <ele>833.3</ele>
        <time>2013-10-10T04:03:39Z</time>
      </trkpt>
      <trkpt lat="-21.03964" lon="55.39237">
        <ele>834.8</ele>
        <time>2013-10-10T04:03:46Z</time>
      </trkpt>
      <trkpt lat="-21.03973" lon="55.39241">
        <ele>837.6</ele>
        <time>2013-10-10T04:03:57Z</time>
      </trkpt>
      <trkpt lat="-21.03981" lon="55.39245">
        <ele>841.9</ele>
        <time>2013-10-10T04:04:17Z</time>
      </trkpt>
      <trkpt lat="-21.03999" lon="55.39252">
        <ele>846.4</ele>
        <time>2013-10-10T04:04:39Z</time>
      </trkpt>
      <trkpt lat="-21.04008" lon="55.39254">
        <ele>850.8</ele>
        <time>2013-10-10T04:04:55Z</time>
      </trkpt>
      <trkpt lat="-21.04017" lon="55.39259">
        <ele>855.2</ele>
        <time>2013-10-10T04:05:14Z</time>
      </trkpt>
      <trkpt lat="-21.04027" lon="55.39262">
        <ele>856.9</ele>
        <time>2013-10-10T04:05:28Z</time>
      </trkpt>
      <trkpt lat="-21.04043" lon="55.39262">
        <ele>860.5</ele>
        <time>2013-10-10T04:05:43Z</time>
      </trkpt>
      <trkpt lat="-21.04054" lon="55.39266">
        <ele>862</ele>
        <time>2013-10-10T04:05:53Z</time>
      </trkpt>
      <trkpt lat="-21.04062" lon="55.3926">
        <ele>865</ele>
        <time>2013-10-10T04:06:05Z</time>
      </trkpt>
      <trkpt lat="-21.04069" lon="55.39254">
        <ele>868.4</ele>
        <time>2013-10-10T04:06:20Z</time>
      </trkpt>
      <trkpt lat="-21.04077" lon="55.39259">
        <ele>872.4</ele>
        <time>2013-10-10T04:06:36Z</time>
      </trkpt>
      <trkpt lat="-21.04098" lon="55.39267">
        <ele>877</ele>
        <time>2013-10-10T04:06:59Z</time>
      </trkpt>
      <trkpt lat="-21.04108" lon="55.39262">
        <ele>878</ele>
        <time>2013-10-10T04:07:07Z</time>
      </trkpt>
      <trkpt lat="-21.04117" lon="55.39258">
        <ele>881.4</ele>
        <time>2013-10-10T04:07:23Z</time>
      </trkpt>
      <trkpt lat="-21.04123" lon="55.39251">
        <ele>883.2</ele>
        <time>2013-10-10T04:07:33Z</time>
      </trkpt>
      <trkpt lat="-21.04129" lon="55.39243">
        <ele>885.7</ele>
        <time>2013-10-10T04:07:49Z</time>
      </trkpt>
      <trkpt lat="-21.04143" lon="55.39231">
        <ele>888.5</ele>
        <time>2013-10-10T04:08:06Z</time>
      </trkpt>
      <trkpt lat="-21.04152" lon="55.39227">
        <ele>890.4</ele>
        <time>2013-10-10T04:08:16Z</time>
      </trkpt>
      <trkpt lat="-21.04159" lon="55.39221">
        <ele>891.5</ele>
        <time>2013-10-10T04:08:25Z</time>
      </trkpt>
      <trkpt lat="-21.04168" lon="55.39217">
        <ele>894</ele>
        <time>2013-10-10T04:08:37Z</time>
      </trkpt>
      <trkpt lat="-21.04174" lon="55.39209">
        <ele>896.8</ele>
        <time>2013-10-10T04:08:51Z</time>
      </trkpt>
      <trkpt lat="-21.04189" lon="55.39198">
        <ele>901.7</ele>
        <time>2013-10-10T04:09:15Z</time>
      </trkpt>
      <trkpt lat="-21.04196" lon="55.39191">
        <ele>903.7</ele>
        <time>2013-10-10T04:09:26Z</time>
      </trkpt>
      <trkpt lat="-21.04202" lon="55.39182">
        <ele>905.4</ele>
        <time>2013-10-10T04:09:35Z</time>
      </trkpt>
      <trkpt lat="-21.04208" lon="55.39174">
        <ele>906.6</ele>
        <time>2013-10-10T04:09:45Z</time>
      </trkpt>
      <trkpt lat="-21.04215" lon="55.39168">
        <ele>909.1</ele>
        <time>2013-10-10T04:09:57Z</time>
      </trkpt>
      <trkpt lat="-21.04233" lon="55.39164">
        <ele>915</ele>
        <time>2013-10-10T04:10:28Z</time>
      </trkpt>
      <trkpt lat="-21.04225" lon="55.39168">
        <ele>922.7</ele>
        <time>2013-10-10T04:11:02Z</time>
      </trkpt>
      <trkpt lat="-21.04232" lon="55.39186">
        <ele>929.3</ele>
        <time>2013-10-10T04:11:32Z</time>
      </trkpt>
      <trkpt lat="-21.04235" lon="55.39195">
        <ele>932.3</ele>
        <time>2013-10-10T04:11:46Z</time>
      </trkpt>
      <trkpt lat="-21.04243" lon="55.39189">
        <ele>939</ele>
        <time>2013-10-10T04:12:15Z</time>
      </trkpt>
      <trkpt lat="-21.04236" lon="55.39203">
        <ele>946</ele>
        <time>2013-10-10T04:12:47Z</time>
      </trkpt>
      <trkpt lat="-21.04243" lon="55.39211">
        <ele>947.4</ele>
        <time>2013-10-10T04:12:53Z</time>
      </trkpt>
      <trkpt lat="-21.04245" lon="55.3922">
        <ele>950.5</ele>
        <time>2013-10-10T04:13:02Z</time>
      </trkpt>
      <trkpt lat="-21.04246" lon="55.3923">
        <ele>952.6</ele>
        <time>2013-10-10T04:13:12Z</time>
      </trkpt>
      <trkpt lat="-21.04247" lon="55.3924">
        <ele>954.4</ele>
        <time>2013-10-10T04:13:22Z</time>
      </trkpt>
      <trkpt lat="-21.04263" lon="55.39248">
        <ele>954.7</ele>
        <time>2013-10-10T04:13:44Z</time>
      </trkpt>
      <trkpt lat="-21.04263" lon="55.39248">
        <ele>954.7</ele>
        <time>2013-10-10T04:13:44Z</time>
      </trkpt>
      <trkpt lat="-21.04271" lon="55.39242">
        <ele>956.7</ele>
        <time>2013-10-10T04:13:54Z</time>
      </trkpt>
      <trkpt lat="-21.04277" lon="55.39235">
        <ele>956.7</ele>
        <time>2013-10-10T04:14:03Z</time>
      </trkpt>
      <trkpt lat="-21.04286" lon="55.39232">
        <ele>958.8</ele>
        <time>2013-10-10T04:14:14Z</time>
      </trkpt>
      <trkpt lat="-21.04294" lon="55.39229">
        <ele>958.6</ele>
        <time>2013-10-10T04:14:26Z</time>
      </trkpt>
      <trkpt lat="-21.04313" lon="55.39223">
        <ele>961.1</ele>
        <time>2013-10-10T04:14:45Z</time>
      </trkpt>
      <trkpt lat="-21.04322" lon="55.3922">
        <ele>961.7</ele>
        <time>2013-10-10T04:14:55Z</time>
      </trkpt>
      <trkpt lat="-21.0433" lon="55.39214">
        <ele>963.4</ele>
        <time>2013-10-10T04:16:03Z</time>
      </trkpt>
      <trkpt lat="-21.04345" lon="55.39203">
        <ele>963.6</ele>
        <time>2013-10-10T04:16:22Z</time>
      </trkpt>
      <trkpt lat="-21.04353" lon="55.39197">
        <ele>964.6</ele>
        <time>2013-10-10T04:16:30Z</time>
      </trkpt>
      <trkpt lat="-21.04359" lon="55.39189">
        <ele>964.3</ele>
        <time>2013-10-10T04:16:38Z</time>
      </trkpt>
      <trkpt lat="-21.04364" lon="55.39181">
        <ele>964.6</ele>
        <time>2013-10-10T04:17:00Z</time>
      </trkpt>
      <trkpt lat="-21.04373" lon="55.39178">
        <ele>965.6</ele>
        <time>2013-10-10T04:17:17Z</time>
      </trkpt>
      <trkpt lat="-21.04389" lon="55.39165">
        <ele>967.5</ele>
        <time>2013-10-10T04:17:35Z</time>
      </trkpt>
      <trkpt lat="-21.04397" lon="55.39161">
        <ele>967.8</ele>
        <time>2013-10-10T04:17:43Z</time>
      </trkpt>
      <trkpt lat="-21.04404" lon="55.39154">
        <ele>969.9</ele>
        <time>2013-10-10T04:17:56Z</time>
      </trkpt>
      <trkpt lat="-21.04412" lon="55.39148">
        <ele>971.9</ele>
        <time>2013-10-10T04:18:08Z</time>
      </trkpt>
      <trkpt lat="-21.04415" lon="55.39139">
        <ele>975.3</ele>
        <time>2013-10-10T04:18:24Z</time>
      </trkpt>
      <trkpt lat="-21.04428" lon="55.39123">
        <ele>976.4</ele>
        <time>2013-10-10T04:18:44Z</time>
      </trkpt>
      <trkpt lat="-21.04436" lon="55.39117">
        <ele>978</ele>
        <time>2013-10-10T04:18:53Z</time>
      </trkpt>
      <trkpt lat="-21.04444" lon="55.39111">
        <ele>978.4</ele>
        <time>2013-10-10T04:19:03Z</time>
      </trkpt>
      <trkpt lat="-21.04453" lon="55.39109">
        <ele>979.7</ele>
        <time>2013-10-10T04:19:19Z</time>
      </trkpt>
      <trkpt lat="-21.04462" lon="55.3911">
        <ele>980.5</ele>
        <time>2013-10-10T04:19:28Z</time>
      </trkpt>
      <trkpt lat="-21.04481" lon="55.39111">
        <ele>980.1</ele>
        <time>2013-10-10T04:19:42Z</time>
      </trkpt>
      <trkpt lat="-21.0449" lon="55.39112">
        <ele>980.6</ele>
        <time>2013-10-10T04:19:50Z</time>
      </trkpt>
      <trkpt lat="-21.045" lon="55.39111">
        <ele>981.8</ele>
        <time>2013-10-10T04:19:59Z</time>
      </trkpt>
      <trkpt lat="-21.04509" lon="55.39115">
        <ele>982.5</ele>
        <time>2013-10-10T04:20:11Z</time>
      </trkpt>
      <trkpt lat="-21.04514" lon="55.39123">
        <ele>977.5</ele>
        <time>2013-10-10T04:20:36Z</time>
      </trkpt>
      <trkpt lat="-21.04525" lon="55.39112">
        <ele>967.9</ele>
        <time>2013-10-10T04:21:10Z</time>
      </trkpt>
      <trkpt lat="-21.04526" lon="55.39102">
        <ele>963.5</ele>
        <time>2013-10-10T04:21:22Z</time>
      </trkpt>
      <trkpt lat="-21.0453" lon="55.39092">
        <ele>959.7</ele>
        <time>2013-10-10T04:21:33Z</time>
      </trkpt>
      <trkpt lat="-21.04535" lon="55.391">
        <ele>956</ele>
        <time>2013-10-10T04:21:46Z</time>
      </trkpt>
      <trkpt lat="-21.04549" lon="55.39108">
        <ele>951.7</ele>
        <time>2013-10-10T04:22:01Z</time>
      </trkpt>
      <trkpt lat="-21.04555" lon="55.39099">
        <ele>951.1</ele>
        <time>2013-10-10T04:22:09Z</time>
      </trkpt>
      <trkpt lat="-21.04557" lon="55.39089">
        <ele>949.3</ele>
        <time>2013-10-10T04:22:16Z</time>
      </trkpt>
      <trkpt lat="-21.04558" lon="55.39099">
        <ele>945.4</ele>
        <time>2013-10-10T04:22:33Z</time>
      </trkpt>
      <trkpt lat="-21.04561" lon="55.39109">
        <ele>944.2</ele>
        <time>2013-10-10T04:22:41Z</time>
      </trkpt>
      <trkpt lat="-21.04562" lon="55.39098">
        <ele>940.6</ele>
        <time>2013-10-10T04:22:58Z</time>
      </trkpt>
      <trkpt lat="-21.04565" lon="55.39098">
        <ele>934.7</ele>
        <time>2013-10-10T04:23:17Z</time>
      </trkpt>
      <trkpt lat="-21.04568" lon="55.39108">
        <ele>933.9</ele>
        <time>2013-10-10T04:23:25Z</time>
      </trkpt>
      <trkpt lat="-21.04564" lon="55.39117">
        <ele>932.1</ele>
        <time>2013-10-10T04:23:34Z</time>
      </trkpt>
      <trkpt lat="-21.04573" lon="55.39113">
        <ele>928.6</ele>
        <time>2013-10-10T04:23:47Z</time>
      </trkpt>
      <trkpt lat="-21.04578" lon="55.39104">
        <ele>926.9</ele>
        <time>2013-10-10T04:23:54Z</time>
      </trkpt>
      <trkpt lat="-21.04581" lon="55.39113">
        <ele>923.6</ele>
        <time>2013-10-10T04:24:09Z</time>
      </trkpt>
      <trkpt lat="-21.04569" lon="55.39129">
        <ele>920.4</ele>
        <time>2013-10-10T04:24:25Z</time>
      </trkpt>
      <trkpt lat="-21.04565" lon="55.39138">
        <ele>918.6</ele>
        <time>2013-10-10T04:24:35Z</time>
      </trkpt>
      <trkpt lat="-21.04572" lon="55.39133">
        <ele>916.6</ele>
        <time>2013-10-10T04:24:45Z</time>
      </trkpt>
      <trkpt lat="-21.04572" lon="55.39144">
        <ele>912.6</ele>
        <time>2013-10-10T04:25:00Z</time>
      </trkpt>
      <trkpt lat="-21.04569" lon="55.39153">
        <ele>910.9</ele>
        <time>2013-10-10T04:25:07Z</time>
      </trkpt>
      <trkpt lat="-21.04577" lon="55.39158">
        <ele>905.2</ele>
        <time>2013-10-10T04:25:31Z</time>
      </trkpt>
      <trkpt lat="-21.04586" lon="55.39172">
        <ele>901.3</ele>
        <time>2013-10-10T04:25:41Z</time>
      </trkpt>
      <trkpt lat="-21.04593" lon="55.39178">
        <ele>901.1</ele>
        <time>2013-10-10T04:25:45Z</time>
      </trkpt>
      <trkpt lat="-21.04603" lon="55.39175">
        <ele>899.5</ele>
        <time>2013-10-10T04:25:52Z</time>
      </trkpt>
      <trkpt lat="-21.04614" lon="55.39175">
        <ele>898.2</ele>
        <time>2013-10-10T04:25:57Z</time>
      </trkpt>
      <trkpt lat="-21.04624" lon="55.39176">
        <ele>897.6</ele>
        <time>2013-10-10T04:26:01Z</time>
      </trkpt>
      <trkpt lat="-21.04634" lon="55.39175">
        <ele>896</ele>
        <time>2013-10-10T04:26:05Z</time>
      </trkpt>
      <trkpt lat="-21.04633" lon="55.39165">
        <ele>892.6</ele>
        <time>2013-10-10T04:26:16Z</time>
      </trkpt>
      <trkpt lat="-21.04629" lon="55.39155">
        <ele>890.3</ele>
        <time>2013-10-10T04:26:25Z</time>
      </trkpt>
      <trkpt lat="-21.0462" lon="55.39157">
        <ele>888.4</ele>
        <time>2013-10-10T04:26:33Z</time>
      </trkpt>
      <trkpt lat="-21.04626" lon="55.39138">
        <ele>882.9</ele>
        <time>2013-10-10T04:26:53Z</time>
      </trkpt>
      <trkpt lat="-21.04631" lon="55.39129">
        <ele>880.6</ele>
        <time>2013-10-10T04:27:03Z</time>
      </trkpt>
      <trkpt lat="-21.04641" lon="55.39125">
        <ele>879.8</ele>
        <time>2013-10-10T04:27:13Z</time>
      </trkpt>
      <trkpt lat="-21.04651" lon="55.39124">
        <ele>882.4</ele>
        <time>2013-10-10T04:27:22Z</time>
      </trkpt>
      <trkpt lat="-21.0466" lon="55.39123">
        <ele>880</ele>
        <time>2013-10-10T04:27:29Z</time>
      </trkpt>
      <trkpt lat="-21.04673" lon="55.39125">
        <ele>879</ele>
        <time>2013-10-10T04:27:37Z</time>
      </trkpt>
      <trkpt lat="-21.04694" lon="55.39127">
        <ele>883</ele>
        <time>2013-10-10T04:27:57Z</time>
      </trkpt>
      <trkpt lat="-21.04706" lon="55.39128">
        <ele>884</ele>
        <time>2013-10-10T04:28:09Z</time>
      </trkpt>
      <trkpt lat="-21.04718" lon="55.39132">
        <ele>886</ele>
        <time>2013-10-10T04:28:21Z</time>
      </trkpt>
      <trkpt lat="-21.04729" lon="55.39138">
        <ele>887</ele>
        <time>2013-10-10T04:28:29Z</time>
      </trkpt>
      <trkpt lat="-21.04738" lon="55.39142">
        <ele>887</ele>
        <time>2013-10-10T04:28:37Z</time>
      </trkpt>
      <trkpt lat="-21.04742" lon="55.39156">
        <ele>888</ele>
        <time>2013-10-10T04:29:00Z</time>
      </trkpt>
      <trkpt lat="-21.04761" lon="55.39151">
        <ele>890</ele>
        <time>2013-10-10T04:29:38Z</time>
      </trkpt>
      <trkpt lat="-21.04761" lon="55.39141">
        <ele>891</ele>
        <time>2013-10-10T04:29:54Z</time>
      </trkpt>
      <trkpt lat="-21.04758" lon="55.3913">
        <ele>893</ele>
        <time>2013-10-10T04:30:10Z</time>
      </trkpt>
      <trkpt lat="-21.04782" lon="55.39147">
        <ele>899</ele>
        <time>2013-10-10T04:30:38Z</time>
      </trkpt>
      <trkpt lat="-21.04799" lon="55.3916">
        <ele>899</ele>
        <time>2013-10-10T04:30:46Z</time>
      </trkpt>
      <trkpt lat="-21.04812" lon="55.39172">
        <ele>898</ele>
        <time>2013-10-10T04:30:50Z</time>
      </trkpt>
      <trkpt lat="-21.04825" lon="55.39184">
        <ele>898</ele>
        <time>2013-10-10T04:30:54Z</time>
      </trkpt>
      <trkpt lat="-21.04836" lon="55.39197">
        <ele>899</ele>
        <time>2013-10-10T04:30:58Z</time>
      </trkpt>
      <trkpt lat="-21.04843" lon="55.39205">
        <ele>900</ele>
        <time>2013-10-10T04:31:02Z</time>
      </trkpt>
      <trkpt lat="-21.04877" lon="55.392">
        <ele>906</ele>
        <time>2013-10-10T04:31:45Z</time>
      </trkpt>
      <trkpt lat="-21.04951" lon="55.39161">
        <ele>923</ele>
        <time>2013-10-10T04:33:46Z</time>
      </trkpt>
      <trkpt lat="-21.04958" lon="55.39152">
        <ele>926</ele>
        <time>2013-10-10T04:34:00Z</time>
      </trkpt>
      <trkpt lat="-21.04967" lon="55.39151">
        <ele>927.4</ele>
        <time>2013-10-10T04:34:08Z</time>
      </trkpt>
      <trkpt lat="-21.04977" lon="55.39153">
        <ele>928.3</ele>
        <time>2013-10-10T04:34:14Z</time>
      </trkpt>
      <trkpt lat="-21.04987" lon="55.39153">
        <ele>930.2</ele>
        <time>2013-10-10T04:34:20Z</time>
      </trkpt>
      <trkpt lat="-21.04997" lon="55.39154">
        <ele>932</ele>
        <time>2013-10-10T04:34:28Z</time>
      </trkpt>
      <trkpt lat="-21.05006" lon="55.39156">
        <ele>932.5</ele>
        <time>2013-10-10T04:34:37Z</time>
      </trkpt>
      <trkpt lat="-21.05025" lon="55.39161">
        <ele>935.8</ele>
        <time>2013-10-10T04:34:52Z</time>
      </trkpt>
      <trkpt lat="-21.05034" lon="55.39163">
        <ele>936.3</ele>
        <time>2013-10-10T04:34:58Z</time>
      </trkpt>
      <trkpt lat="-21.05043" lon="55.39162">
        <ele>938.2</ele>
        <time>2013-10-10T04:35:10Z</time>
      </trkpt>
      <trkpt lat="-21.05052" lon="55.39157">
        <ele>941.5</ele>
        <time>2013-10-10T04:35:29Z</time>
      </trkpt>
      <trkpt lat="-21.0506" lon="55.39162">
        <ele>944.9</ele>
        <time>2013-10-10T04:35:44Z</time>
      </trkpt>
      <trkpt lat="-21.05076" lon="55.39169">
        <ele>947.4</ele>
        <time>2013-10-10T04:35:59Z</time>
      </trkpt>
      <trkpt lat="-21.05085" lon="55.39171">
        <ele>947.4</ele>
        <time>2013-10-10T04:36:06Z</time>
      </trkpt>
      <trkpt lat="-21.05095" lon="55.39171">
        <ele>950.5</ele>
        <time>2013-10-10T04:36:18Z</time>
      </trkpt>
      <trkpt lat="-21.05104" lon="55.39176">
        <ele>950.8</ele>
        <time>2013-10-10T04:36:24Z</time>
      </trkpt>
      <trkpt lat="-21.05114" lon="55.39178">
        <ele>951.8</ele>
        <time>2013-10-10T04:36:36Z</time>
      </trkpt>
      <trkpt lat="-21.05123" lon="55.39178">
        <ele>953.8</ele>
        <time>2013-10-10T04:36:48Z</time>
      </trkpt>
      <trkpt lat="-21.05143" lon="55.39179">
        <ele>958.5</ele>
        <time>2013-10-10T04:37:15Z</time>
      </trkpt>
      <trkpt lat="-21.05152" lon="55.39178">
        <ele>961</ele>
        <time>2013-10-10T04:37:25Z</time>
      </trkpt>
      <trkpt lat="-21.05162" lon="55.39174">
        <ele>962.8</ele>
        <time>2013-10-10T04:37:35Z</time>
      </trkpt>
      <trkpt lat="-21.05172" lon="55.39173">
        <ele>964.6</ele>
        <time>2013-10-10T04:37:44Z</time>
      </trkpt>
      <trkpt lat="-21.05182" lon="55.39172">
        <ele>965.2</ele>
        <time>2013-10-10T04:37:55Z</time>
      </trkpt>
      <trkpt lat="-21.05197" lon="55.39161">
        <ele>970.1</ele>
        <time>2013-10-10T04:38:14Z</time>
      </trkpt>
      <trkpt lat="-21.05208" lon="55.39152">
        <ele>972</ele>
        <time>2013-10-10T04:38:23Z</time>
      </trkpt>
      <trkpt lat="-21.05215" lon="55.39144">
        <ele>974</ele>
        <time>2013-10-10T04:38:31Z</time>
      </trkpt>
      <trkpt lat="-21.05228" lon="55.39137">
        <ele>974</ele>
        <time>2013-10-10T04:38:39Z</time>
      </trkpt>
      <trkpt lat="-21.05236" lon="55.39131">
        <ele>976</ele>
        <time>2013-10-10T04:38:47Z</time>
      </trkpt>
      <trkpt lat="-21.05241" lon="55.39122">
        <ele>978.7</ele>
        <time>2013-10-10T04:39:02Z</time>
      </trkpt>
      <trkpt lat="-21.05256" lon="55.39125">
        <ele>985.6</ele>
        <time>2013-10-10T04:39:30Z</time>
      </trkpt>
      <trkpt lat="-21.05264" lon="55.39131">
        <ele>987</ele>
        <time>2013-10-10T04:39:41Z</time>
      </trkpt>
      <trkpt lat="-21.05274" lon="55.39135">
        <ele>988.4</ele>
        <time>2013-10-10T04:39:50Z</time>
      </trkpt>
      <trkpt lat="-21.05284" lon="55.39132">
        <ele>989.5</ele>
        <time>2013-10-10T04:40:00Z</time>
      </trkpt>
      <trkpt lat="-21.05289" lon="55.39123">
        <ele>991.9</ele>
        <time>2013-10-10T04:40:07Z</time>
      </trkpt>
      <trkpt lat="-21.05308" lon="55.39124">
        <ele>996.3</ele>
        <time>2013-10-10T04:40:31Z</time>
      </trkpt>
      <trkpt lat="-21.05315" lon="55.39118">
        <ele>999.5</ele>
        <time>2013-10-10T04:40:46Z</time>
      </trkpt>
      <trkpt lat="-21.05323" lon="55.39114">
        <ele>1001.1</ele>
        <time>2013-10-10T04:40:54Z</time>
      </trkpt>
      <trkpt lat="-21.05333" lon="55.3911">
        <ele>1001.3</ele>
        <time>2013-10-10T04:41:03Z</time>
      </trkpt>
      <trkpt lat="-21.05342" lon="55.39114">
        <ele>1003.4</ele>
        <time>2013-10-10T04:41:12Z</time>
      </trkpt>
      <trkpt lat="-21.0536" lon="55.39124">
        <ele>1005.1</ele>
        <time>2013-10-10T04:41:30Z</time>
      </trkpt>
      <trkpt lat="-21.05369" lon="55.39124">
        <ele>1004.1</ele>
        <time>2013-10-10T04:41:37Z</time>
      </trkpt>
      <trkpt lat="-21.05377" lon="55.3912">
        <ele>1006</ele>
        <time>2013-10-10T04:41:51Z</time>
      </trkpt>
      <trkpt lat="-21.05387" lon="55.39118">
        <ele>1008.4</ele>
        <time>2013-10-10T04:42:03Z</time>
      </trkpt>
      <trkpt lat="-21.05396" lon="55.3912">
        <ele>1009.1</ele>
        <time>2013-10-10T04:42:14Z</time>
      </trkpt>
      <trkpt lat="-21.05409" lon="55.39128">
        <ele>1015</ele>
        <time>2013-10-10T04:42:56Z</time>
      </trkpt>
      <trkpt lat="-21.05418" lon="55.39137">
        <ele>1017</ele>
        <time>2013-10-10T04:43:05Z</time>
      </trkpt>
      <trkpt lat="-21.05425" lon="55.39151">
        <ele>1019</ele>
        <time>2013-10-10T04:43:13Z</time>
      </trkpt>
      <trkpt lat="-21.05435" lon="55.39149">
        <ele>1026.9</ele>
        <time>2013-10-10T04:43:43Z</time>
      </trkpt>
      <trkpt lat="-21.05431" lon="55.39136">
        <ele>1030</ele>
        <time>2013-10-10T04:44:01Z</time>
      </trkpt>
      <trkpt lat="-21.05426" lon="55.39122">
        <ele>1031</ele>
        <time>2013-10-10T04:44:05Z</time>
      </trkpt>
      <trkpt lat="-21.05439" lon="55.39132">
        <ele>1034</ele>
        <time>2013-10-10T04:44:25Z</time>
      </trkpt>
      <trkpt lat="-21.0544" lon="55.39128">
        <ele>1037</ele>
        <time>2013-10-10T04:44:48Z</time>
      </trkpt>
      <trkpt lat="-21.05449" lon="55.39136">
        <ele>1038</ele>
        <time>2013-10-10T04:44:55Z</time>
      </trkpt>
      <trkpt lat="-21.05489" lon="55.39165">
        <ele>1049</ele>
        <time>2013-10-10T04:45:50Z</time>
      </trkpt>
      <trkpt lat="-21.05512" lon="55.39169">
        <ele>1054.8</ele>
        <time>2013-10-10T04:46:52Z</time>
      </trkpt>
      <trkpt lat="-21.0551" lon="55.39155">
        <ele>1054</ele>
        <time>2013-10-10T04:48:05Z</time>
      </trkpt>
      <trkpt lat="-21.05527" lon="55.39153">
        <ele>1062.7</ele>
        <time>2013-10-10T04:48:53Z</time>
      </trkpt>
      <trkpt lat="-21.05535" lon="55.39158">
        <ele>1065.9</ele>
        <time>2013-10-10T04:49:03Z</time>
      </trkpt>
      <trkpt lat="-21.05541" lon="55.39166">
        <ele>1069</ele>
        <time>2013-10-10T04:49:17Z</time>
      </trkpt>
      <trkpt lat="-21.05556" lon="55.39176">
        <ele>1076.4</ele>
        <time>2013-10-10T04:49:48Z</time>
      </trkpt>
      <trkpt lat="-21.05562" lon="55.39185">
        <ele>1078.9</ele>
        <time>2013-10-10T04:50:01Z</time>
      </trkpt>
      <trkpt lat="-21.05566" lon="55.39194">
        <ele>1081</ele>
        <time>2013-10-10T04:50:14Z</time>
      </trkpt>
      <trkpt lat="-21.05571" lon="55.39203">
        <ele>1085.4</ele>
        <time>2013-10-10T04:50:30Z</time>
      </trkpt>
      <trkpt lat="-21.05577" lon="55.39221">
        <ele>1091.7</ele>
        <time>2013-10-10T04:51:03Z</time>
      </trkpt>
      <trkpt lat="-21.05584" lon="55.39228">
        <ele>1093.4</ele>
        <time>2013-10-10T04:51:13Z</time>
      </trkpt>
      <trkpt lat="-21.05589" lon="55.39237">
        <ele>1095.7</ele>
        <time>2013-10-10T04:51:27Z</time>
      </trkpt>
      <trkpt lat="-21.05597" lon="55.39242">
        <ele>1098.9</ele>
        <time>2013-10-10T04:51:41Z</time>
      </trkpt>
      <trkpt lat="-21.05614" lon="55.39251">
        <ele>1103.4</ele>
        <time>2013-10-10T04:52:04Z</time>
      </trkpt>
      <trkpt lat="-21.05623" lon="55.39254">
        <ele>1106.4</ele>
        <time>2013-10-10T04:52:20Z</time>
      </trkpt>
      <trkpt lat="-21.05629" lon="55.39261">
        <ele>1109.7</ele>
        <time>2013-10-10T04:52:37Z</time>
      </trkpt>
      <trkpt lat="-21.05632" lon="55.39271">
        <ele>1112</ele>
        <time>2013-10-10T04:52:52Z</time>
      </trkpt>
      <trkpt lat="-21.05645" lon="55.39285">
        <ele>1117.3</ele>
        <time>2013-10-10T04:53:23Z</time>
      </trkpt>
      <trkpt lat="-21.05649" lon="55.39295">
        <ele>1118.5</ele>
        <time>2013-10-10T04:53:32Z</time>
      </trkpt>
      <trkpt lat="-21.05652" lon="55.39304">
        <ele>1121.1</ele>
        <time>2013-10-10T04:53:44Z</time>
      </trkpt>
      <trkpt lat="-21.05657" lon="55.39312">
        <ele>1125.6</ele>
        <time>2013-10-10T04:54:01Z</time>
      </trkpt>
      <trkpt lat="-21.0567" lon="55.39322">
        <ele>1130</ele>
        <time>2013-10-10T04:54:26Z</time>
      </trkpt>
      <trkpt lat="-21.05688" lon="55.39335">
        <ele>1144</ele>
        <time>2013-10-10T04:55:47Z</time>
      </trkpt>
      <trkpt lat="-21.05723" lon="55.39348">
        <ele>1163</ele>
        <time>2013-10-10T04:57:24Z</time>
      </trkpt>
      <trkpt lat="-21.05724" lon="55.39359">
        <ele>1165</ele>
        <time>2013-10-10T04:57:37Z</time>
      </trkpt>
      <trkpt lat="-21.05716" lon="55.39353">
        <ele>1167.5</ele>
        <time>2013-10-10T04:57:45Z</time>
      </trkpt>
      <trkpt lat="-21.05706" lon="55.39355">
        <ele>1168.3</ele>
        <time>2013-10-10T04:57:50Z</time>
      </trkpt>
      <trkpt lat="-21.05716" lon="55.39355">
        <ele>1170.5</ele>
        <time>2013-10-10T04:58:05Z</time>
      </trkpt>
      <trkpt lat="-21.05699" lon="55.39361">
        <ele>1178.8</ele>
        <time>2013-10-10T04:58:39Z</time>
      </trkpt>
      <trkpt lat="-21.05689" lon="55.39359">
        <ele>1181.7</ele>
        <time>2013-10-10T04:58:54Z</time>
      </trkpt>
      <trkpt lat="-21.057" lon="55.39363">
        <ele>1186</ele>
        <time>2013-10-10T04:59:20Z</time>
      </trkpt>
      <trkpt lat="-21.05689" lon="55.39373">
        <ele>1189.4</ele>
        <time>2013-10-10T04:59:35Z</time>
      </trkpt>
      <trkpt lat="-21.05676" lon="55.3936">
        <ele>1191</ele>
        <time>2013-10-10T04:59:49Z</time>
      </trkpt>
      <trkpt lat="-21.05685" lon="55.39349">
        <ele>1191</ele>
        <time>2013-10-10T04:59:59Z</time>
      </trkpt>
      <trkpt lat="-21.05668" lon="55.39353">
        <ele>1198</ele>
        <time>2013-10-10T05:00:28Z</time>
      </trkpt>
      <trkpt lat="-21.05655" lon="55.39371">
        <ele>1209.4</ele>
        <time>2013-10-10T05:01:25Z</time>
      </trkpt>
      <trkpt lat="-21.05659" lon="55.3938">
        <ele>1212.5</ele>
        <time>2013-10-10T05:01:36Z</time>
      </trkpt>
      <trkpt lat="-21.05659" lon="55.39394">
        <ele>1215</ele>
        <time>2013-10-10T05:01:51Z</time>
      </trkpt>
      <trkpt lat="-21.05648" lon="55.39397">
        <ele>1231.6</ele>
        <time>2013-10-10T05:03:06Z</time>
      </trkpt>
      <trkpt lat="-21.05659" lon="55.39417">
        <ele>1234</ele>
        <time>2013-10-10T05:03:28Z</time>
      </trkpt>
      <trkpt lat="-21.05663" lon="55.39428">
        <ele>1236.3</ele>
        <time>2013-10-10T05:03:39Z</time>
      </trkpt>
      <trkpt lat="-21.05666" lon="55.39437">
        <ele>1238</ele>
        <time>2013-10-10T05:03:47Z</time>
      </trkpt>
      <trkpt lat="-21.05674" lon="55.3944">
        <ele>1239.4</ele>
        <time>2013-10-10T05:03:59Z</time>
      </trkpt>
      <trkpt lat="-21.05684" lon="55.39441">
        <ele>1240</ele>
        <time>2013-10-10T05:04:08Z</time>
      </trkpt>
      <trkpt lat="-21.05696" lon="55.39456">
        <ele>1241.7</ele>
        <time>2013-10-10T05:04:20Z</time>
      </trkpt>
      <trkpt lat="-21.05704" lon="55.39462">
        <ele>1242.4</ele>
        <time>2013-10-10T05:04:30Z</time>
      </trkpt>
      <trkpt lat="-21.05718" lon="55.39458">
        <ele>1243</ele>
        <time>2013-10-10T05:04:42Z</time>
      </trkpt>
      <trkpt lat="-21.05728" lon="55.39462">
        <ele>1245</ele>
        <time>2013-10-10T05:04:50Z</time>
      </trkpt>
      <trkpt lat="-21.05736" lon="55.39456">
        <ele>1246.6</ele>
        <time>2013-10-10T05:04:59Z</time>
      </trkpt>
      <trkpt lat="-21.05747" lon="55.39458">
        <ele>1247.9</ele>
        <time>2013-10-10T05:05:07Z</time>
      </trkpt>
      <trkpt lat="-21.05756" lon="55.39462">
        <ele>1248</ele>
        <time>2013-10-10T05:05:11Z</time>
      </trkpt>
      <trkpt lat="-21.05774" lon="55.39467">
        <ele>1249.7</ele>
        <time>2013-10-10T05:05:22Z</time>
      </trkpt>
      <trkpt lat="-21.05781" lon="55.39462">
        <ele>1251.3</ele>
        <time>2013-10-10T05:05:27Z</time>
      </trkpt>
      <trkpt lat="-21.0579" lon="55.39466">
        <ele>1251.5</ele>
        <time>2013-10-10T05:05:34Z</time>
      </trkpt>
      <trkpt lat="-21.05795" lon="55.39474">
        <ele>1251.6</ele>
        <time>2013-10-10T05:05:39Z</time>
      </trkpt>
      <trkpt lat="-21.05797" lon="55.39484">
        <ele>1251</ele>
        <time>2013-10-10T05:05:44Z</time>
      </trkpt>
      <trkpt lat="-21.05799" lon="55.39494">
        <ele>1251.3</ele>
        <time>2013-10-10T05:05:51Z</time>
      </trkpt>
      <trkpt lat="-21.058" lon="55.39504">
        <ele>1252.9</ele>
        <time>2013-10-10T05:05:59Z</time>
      </trkpt>
      <trkpt lat="-21.05803" lon="55.39513">
        <ele>1251.8</ele>
        <time>2013-10-10T05:08:22Z</time>
      </trkpt>
      <trkpt lat="-21.05809" lon="55.39513">
        <ele>1250.8</ele>
        <time>2013-10-10T05:09:48Z</time>
      </trkpt>
      <trkpt lat="-21.05829" lon="55.39524">
        <ele>1246</ele>
        <time>2013-10-10T05:10:11Z</time>
      </trkpt>
      <trkpt lat="-21.05839" lon="55.39522">
        <ele>1244</ele>
        <time>2013-10-10T05:10:19Z</time>
      </trkpt>
      <trkpt lat="-21.0585" lon="55.39521">
        <ele>1242</ele>
        <time>2013-10-10T05:10:27Z</time>
      </trkpt>
      <trkpt lat="-21.05861" lon="55.39526">
        <ele>1241</ele>
        <time>2013-10-10T05:10:35Z</time>
      </trkpt>
      <trkpt lat="-21.05872" lon="55.39527">
        <ele>1239</ele>
        <time>2013-10-10T05:10:43Z</time>
      </trkpt>
      <trkpt lat="-21.05883" lon="55.39527">
        <ele>1236</ele>
        <time>2013-10-10T05:10:51Z</time>
      </trkpt>
      <trkpt lat="-21.05906" lon="55.39523">
        <ele>1236</ele>
        <time>2013-10-10T05:11:11Z</time>
      </trkpt>
      <trkpt lat="-21.05914" lon="55.39528">
        <ele>1237</ele>
        <time>2013-10-10T05:11:19Z</time>
      </trkpt>
      <trkpt lat="-21.05923" lon="55.39533">
        <ele>1238</ele>
        <time>2013-10-10T05:11:27Z</time>
      </trkpt>
      <trkpt lat="-21.0593" lon="55.3954">
        <ele>1239</ele>
        <time>2013-10-10T05:11:35Z</time>
      </trkpt>
      <trkpt lat="-21.05939" lon="55.39546">
        <ele>1240</ele>
        <time>2013-10-10T05:11:43Z</time>
      </trkpt>
      <trkpt lat="-21.0595" lon="55.39551">
        <ele>1238</ele>
        <time>2013-10-10T05:11:51Z</time>
      </trkpt>
      <trkpt lat="-21.05961" lon="55.39551">
        <ele>1237</ele>
        <time>2013-10-10T05:11:59Z</time>
      </trkpt>
      <trkpt lat="-21.05984" lon="55.39553">
        <ele>1238</ele>
        <time>2013-10-10T05:12:15Z</time>
      </trkpt>
      <trkpt lat="-21.05993" lon="55.39551">
        <ele>1235</ele>
        <time>2013-10-10T05:12:23Z</time>
      </trkpt>
      <trkpt lat="-21.06005" lon="55.39554">
        <ele>1227</ele>
        <time>2013-10-10T05:12:47Z</time>
      </trkpt>
      <trkpt lat="-21.06017" lon="55.39545">
        <ele>1228</ele>
        <time>2013-10-10T05:12:59Z</time>
      </trkpt>
      <trkpt lat="-21.06027" lon="55.39543">
        <ele>1227</ele>
        <time>2013-10-10T05:13:07Z</time>
      </trkpt>
      <trkpt lat="-21.06046" lon="55.39546">
        <ele>1228.3</ele>
        <time>2013-10-10T05:13:21Z</time>
      </trkpt>
      <trkpt lat="-21.06053" lon="55.39553">
        <ele>1226.8</ele>
        <time>2013-10-10T05:13:28Z</time>
      </trkpt>
      <trkpt lat="-21.06054" lon="55.39563">
        <ele>1226.6</ele>
        <time>2013-10-10T05:13:34Z</time>
      </trkpt>
      <trkpt lat="-21.06057" lon="55.39572">
        <ele>1227.4</ele>
        <time>2013-10-10T05:13:39Z</time>
      </trkpt>
      <trkpt lat="-21.06065" lon="55.3958">
        <ele>1230.3</ele>
        <time>2013-10-10T05:13:48Z</time>
      </trkpt>
      <trkpt lat="-21.06074" lon="55.39583">
        <ele>1230.6</ele>
        <time>2013-10-10T05:13:56Z</time>
      </trkpt>
      <trkpt lat="-21.06082" lon="55.39588">
        <ele>1230.1</ele>
        <time>2013-10-10T05:14:05Z</time>
      </trkpt>
      <trkpt lat="-21.06091" lon="55.39593">
        <ele>1229</ele>
        <time>2013-10-10T05:14:14Z</time>
      </trkpt>
      <trkpt lat="-21.06101" lon="55.39611">
        <ele>1225.4</ele>
        <time>2013-10-10T05:14:27Z</time>
      </trkpt>
      <trkpt lat="-21.06105" lon="55.39621">
        <ele>1225.2</ele>
        <time>2013-10-10T05:14:33Z</time>
      </trkpt>
      <trkpt lat="-21.06108" lon="55.3963">
        <ele>1224.5</ele>
        <time>2013-10-10T05:14:38Z</time>
      </trkpt>
      <trkpt lat="-21.06108" lon="55.39641">
        <ele>1223.3</ele>
        <time>2013-10-10T05:14:43Z</time>
      </trkpt>
      <trkpt lat="-21.06108" lon="55.3965">
        <ele>1223.6</ele>
        <time>2013-10-10T05:14:50Z</time>
      </trkpt>
      <trkpt lat="-21.06111" lon="55.3966">
        <ele>1224.3</ele>
        <time>2013-10-10T05:15:00Z</time>
      </trkpt>
      <trkpt lat="-21.06116" lon="55.39669">
        <ele>1220.7</ele>
        <time>2013-10-10T05:15:15Z</time>
      </trkpt>
      <trkpt lat="-21.06124" lon="55.39672">
        <ele>1218.3</ele>
        <time>2013-10-10T05:15:25Z</time>
      </trkpt>
      <trkpt lat="-21.06141" lon="55.39678">
        <ele>1212.6</ele>
        <time>2013-10-10T05:15:44Z</time>
      </trkpt>
      <trkpt lat="-21.06149" lon="55.39684">
        <ele>1210.4</ele>
        <time>2013-10-10T05:15:52Z</time>
      </trkpt>
      <trkpt lat="-21.06151" lon="55.39694">
        <ele>1209.6</ele>
        <time>2013-10-10T05:16:00Z</time>
      </trkpt>
      <trkpt lat="-21.06154" lon="55.39704">
        <ele>1208.5</ele>
        <time>2013-10-10T05:16:07Z</time>
      </trkpt>
      <trkpt lat="-21.06158" lon="55.39713">
        <ele>1205.5</ele>
        <time>2013-10-10T05:16:16Z</time>
      </trkpt>
      <trkpt lat="-21.06156" lon="55.39723">
        <ele>1201.7</ele>
        <time>2013-10-10T05:16:38Z</time>
      </trkpt>
      <trkpt lat="-21.06163" lon="55.39741">
        <ele>1198.1</ele>
        <time>2013-10-10T05:17:29Z</time>
      </trkpt>
      <trkpt lat="-21.06167" lon="55.3975">
        <ele>1193.4</ele>
        <time>2013-10-10T05:17:44Z</time>
      </trkpt>
      <trkpt lat="-21.06183" lon="55.39758">
        <ele>1190.2</ele>
        <time>2013-10-10T05:17:58Z</time>
      </trkpt>
      <trkpt lat="-21.06193" lon="55.39763">
        <ele>1189.1</ele>
        <time>2013-10-10T05:18:08Z</time>
      </trkpt>
      <trkpt lat="-21.06203" lon="55.39766">
        <ele>1187.3</ele>
        <time>2013-10-10T05:18:15Z</time>
      </trkpt>
      <trkpt lat="-21.06213" lon="55.39765">
        <ele>1187.6</ele>
        <time>2013-10-10T05:18:23Z</time>
      </trkpt>
      <trkpt lat="-21.06223" lon="55.39768">
        <ele>1187.2</ele>
        <time>2013-10-10T05:18:31Z</time>
      </trkpt>
      <trkpt lat="-21.0623" lon="55.39773">
        <ele>1187.3</ele>
        <time>2013-10-10T05:18:39Z</time>
      </trkpt>
      <trkpt lat="-21.06235" lon="55.39783">
        <ele>1188.1</ele>
        <time>2013-10-10T05:18:52Z</time>
      </trkpt>
      <trkpt lat="-21.06241" lon="55.39803">
        <ele>1186.9</ele>
        <time>2013-10-10T05:19:06Z</time>
      </trkpt>
      <trkpt lat="-21.06248" lon="55.39809">
        <ele>1185.6</ele>
        <time>2013-10-10T05:19:13Z</time>
      </trkpt>
      <trkpt lat="-21.06256" lon="55.39816">
        <ele>1184.9</ele>
        <time>2013-10-10T05:19:20Z</time>
      </trkpt>
      <trkpt lat="-21.06265" lon="55.39817">
        <ele>1183.3</ele>
        <time>2013-10-10T05:19:28Z</time>
      </trkpt>
      <trkpt lat="-21.06274" lon="55.39821">
        <ele>1180.3</ele>
        <time>2013-10-10T05:19:39Z</time>
      </trkpt>
      <trkpt lat="-21.06282" lon="55.39818">
        <ele>1178</ele>
        <time>2013-10-10T05:19:50Z</time>
      </trkpt>
      <trkpt lat="-21.06291" lon="55.39823">
        <ele>1177</ele>
        <time>2013-10-10T05:19:59Z</time>
      </trkpt>
      <trkpt lat="-21.0631" lon="55.39818">
        <ele>1173.8</ele>
        <time>2013-10-10T05:20:13Z</time>
      </trkpt>
      <trkpt lat="-21.06319" lon="55.39813">
        <ele>1173</ele>
        <time>2013-10-10T05:20:19Z</time>
      </trkpt>
      <trkpt lat="-21.06327" lon="55.39809">
        <ele>1171.4</ele>
        <time>2013-10-10T05:20:26Z</time>
      </trkpt>
      <trkpt lat="-21.06337" lon="55.39807">
        <ele>1169.1</ele>
        <time>2013-10-10T05:20:35Z</time>
      </trkpt>
      <trkpt lat="-21.06346" lon="55.39805">
        <ele>1167.1</ele>
        <time>2013-10-10T05:20:42Z</time>
      </trkpt>
      <trkpt lat="-21.06356" lon="55.39803">
        <ele>1165</ele>
        <time>2013-10-10T05:20:49Z</time>
      </trkpt>
      <trkpt lat="-21.06366" lon="55.39797">
        <ele>1164.5</ele>
        <time>2013-10-10T05:20:54Z</time>
      </trkpt>
      <trkpt lat="-21.06376" lon="55.39793">
        <ele>1163.2</ele>
        <time>2013-10-10T05:20:59Z</time>
      </trkpt>
      <trkpt lat="-21.06384" lon="55.39789">
        <ele>1163</ele>
        <time>2013-10-10T05:21:05Z</time>
      </trkpt>
      <trkpt lat="-21.06405" lon="55.39792">
        <ele>1161.2</ele>
        <time>2013-10-10T05:21:17Z</time>
      </trkpt>
      <trkpt lat="-21.06414" lon="55.39792">
        <ele>1160.7</ele>
        <time>2013-10-10T05:21:23Z</time>
      </trkpt>
      <trkpt lat="-21.06423" lon="55.39796">
        <ele>1159.3</ele>
        <time>2013-10-10T05:21:30Z</time>
      </trkpt>
      <trkpt lat="-21.06432" lon="55.39793">
        <ele>1156.9</ele>
        <time>2013-10-10T05:21:38Z</time>
      </trkpt>
      <trkpt lat="-21.06441" lon="55.39792">
        <ele>1153.7</ele>
        <time>2013-10-10T05:21:49Z</time>
      </trkpt>
      <trkpt lat="-21.06451" lon="55.39792">
        <ele>1151.8</ele>
        <time>2013-10-10T05:21:58Z</time>
      </trkpt>
      <trkpt lat="-21.0646" lon="55.39793">
        <ele>1149.7</ele>
        <time>2013-10-10T05:22:06Z</time>
      </trkpt>
      <trkpt lat="-21.06468" lon="55.3979">
        <ele>1148.3</ele>
        <time>2013-10-10T05:22:12Z</time>
      </trkpt>
      <trkpt lat="-21.06487" lon="55.39787">
        <ele>1145.4</ele>
        <time>2013-10-10T05:22:27Z</time>
      </trkpt>
      <trkpt lat="-21.06497" lon="55.39786">
        <ele>1143.9</ele>
        <time>2013-10-10T05:22:33Z</time>
      </trkpt>
      <trkpt lat="-21.06507" lon="55.39784">
        <ele>1142.9</ele>
        <time>2013-10-10T05:22:39Z</time>
      </trkpt>
      <trkpt lat="-21.06516" lon="55.39782">
        <ele>1142.2</ele>
        <time>2013-10-10T05:22:45Z</time>
      </trkpt>
      <trkpt lat="-21.06524" lon="55.39775">
        <ele>1141</ele>
        <time>2013-10-10T05:22:52Z</time>
      </trkpt>
      <trkpt lat="-21.06531" lon="55.39769">
        <ele>1140.3</ele>
        <time>2013-10-10T05:22:58Z</time>
      </trkpt>
      <trkpt lat="-21.06538" lon="55.39762">
        <ele>1138.9</ele>
        <time>2013-10-10T05:23:04Z</time>
      </trkpt>
      <trkpt lat="-21.06547" lon="55.39757">
        <ele>1137</ele>
        <time>2013-10-10T05:23:13Z</time>
      </trkpt>
      <trkpt lat="-21.06556" lon="55.39758">
        <ele>1135.8</ele>
        <time>2013-10-10T05:23:20Z</time>
      </trkpt>
      <trkpt lat="-21.06573" lon="55.39771">
        <ele>1130.9</ele>
        <time>2013-10-10T05:23:38Z</time>
      </trkpt>
      <trkpt lat="-21.06582" lon="55.39774">
        <ele>1128.1</ele>
        <time>2013-10-10T05:23:47Z</time>
      </trkpt>
      <trkpt lat="-21.06591" lon="55.39772">
        <ele>1127.3</ele>
        <time>2013-10-10T05:23:55Z</time>
      </trkpt>
      <trkpt lat="-21.066" lon="55.39767">
        <ele>1125.8</ele>
        <time>2013-10-10T05:24:03Z</time>
      </trkpt>
      <trkpt lat="-21.06608" lon="55.39764">
        <ele>1125.1</ele>
        <time>2013-10-10T05:24:12Z</time>
      </trkpt>
      <trkpt lat="-21.06617" lon="55.39758">
        <ele>1123.3</ele>
        <time>2013-10-10T05:24:22Z</time>
      </trkpt>
      <trkpt lat="-21.06634" lon="55.39756">
        <ele>1116.3</ele>
        <time>2013-10-10T05:24:42Z</time>
      </trkpt>
      <trkpt lat="-21.06644" lon="55.39754">
        <ele>1115.5</ele>
        <time>2013-10-10T05:24:52Z</time>
      </trkpt>
      <trkpt lat="-21.06651" lon="55.39747">
        <ele>1114.8</ele>
        <time>2013-10-10T05:26:33Z</time>
      </trkpt>
      <trkpt lat="-21.06661" lon="55.39764">
        <ele>1108.4</ele>
        <time>2013-10-10T05:27:04Z</time>
      </trkpt>
      <trkpt lat="-21.06664" lon="55.39775">
        <ele>1105.5</ele>
        <time>2013-10-10T05:27:14Z</time>
      </trkpt>
      <trkpt lat="-21.0667" lon="55.39783">
        <ele>1101.9</ele>
        <time>2013-10-10T05:27:26Z</time>
      </trkpt>
      <trkpt lat="-21.06674" lon="55.39792">
        <ele>1097.1</ele>
        <time>2013-10-10T05:27:40Z</time>
      </trkpt>
      <trkpt lat="-21.06688" lon="55.39804">
        <ele>1091.7</ele>
        <time>2013-10-10T05:27:58Z</time>
      </trkpt>
      <trkpt lat="-21.06696" lon="55.39811">
        <ele>1091.1</ele>
        <time>2013-10-10T05:28:05Z</time>
      </trkpt>
      <trkpt lat="-21.06704" lon="55.39815">
        <ele>1089.1</ele>
        <time>2013-10-10T05:28:48Z</time>
      </trkpt>
      <trkpt lat="-21.06714" lon="55.39833">
        <ele>1084.1</ele>
        <time>2013-10-10T05:29:38Z</time>
      </trkpt>
      <trkpt lat="-21.06718" lon="55.39842">
        <ele>1082.4</ele>
        <time>2013-10-10T05:29:45Z</time>
      </trkpt>
      <trkpt lat="-21.06722" lon="55.39851">
        <ele>1079.9</ele>
        <time>2013-10-10T05:29:53Z</time>
      </trkpt>
      <trkpt lat="-21.06737" lon="55.39862">
        <ele>1075.9</ele>
        <time>2013-10-10T05:30:12Z</time>
      </trkpt>
      <trkpt lat="-21.06746" lon="55.39862">
        <ele>1074.1</ele>
        <time>2013-10-10T05:30:19Z</time>
      </trkpt>
      <trkpt lat="-21.06755" lon="55.39862">
        <ele>1072.2</ele>
        <time>2013-10-10T05:30:31Z</time>
      </trkpt>
      <trkpt lat="-21.06764" lon="55.39866">
        <ele>1070</ele>
        <time>2013-10-10T05:30:39Z</time>
      </trkpt>
      <trkpt lat="-21.06771" lon="55.39873">
        <ele>1070.3</ele>
        <time>2013-10-10T05:30:46Z</time>
      </trkpt>
      <trkpt lat="-21.06777" lon="55.39882">
        <ele>1068.8</ele>
        <time>2013-10-10T05:30:52Z</time>
      </trkpt>
      <trkpt lat="-21.06781" lon="55.39891">
        <ele>1068.8</ele>
        <time>2013-10-10T05:30:59Z</time>
      </trkpt>
      <trkpt lat="-21.06793" lon="55.39906">
        <ele>1069.1</ele>
        <time>2013-10-10T05:31:16Z</time>
      </trkpt>
      <trkpt lat="-21.06803" lon="55.39908">
        <ele>1069.6</ele>
        <time>2013-10-10T05:31:25Z</time>
      </trkpt>
      <trkpt lat="-21.06812" lon="55.39904">
        <ele>1068.4</ele>
        <time>2013-10-10T05:31:32Z</time>
      </trkpt>
      <trkpt lat="-21.06822" lon="55.39901">
        <ele>1067.5</ele>
        <time>2013-10-10T05:31:39Z</time>
      </trkpt>
      <trkpt lat="-21.06831" lon="55.399">
        <ele>1065.1</ele>
        <time>2013-10-10T05:31:47Z</time>
      </trkpt>
      <trkpt lat="-21.0684" lon="55.39902">
        <ele>1063.7</ele>
        <time>2013-10-10T05:31:56Z</time>
      </trkpt>
      <trkpt lat="-21.06849" lon="55.39903">
        <ele>1063</ele>
        <time>2013-10-10T05:32:12Z</time>
      </trkpt>
      <trkpt lat="-21.06868" lon="55.39907">
        <ele>1069</ele>
        <time>2013-10-10T05:32:46Z</time>
      </trkpt>
      <trkpt lat="-21.06877" lon="55.39906">
        <ele>1070.3</ele>
        <time>2013-10-10T05:32:57Z</time>
      </trkpt>
      <trkpt lat="-21.06881" lon="55.39915">
        <ele>1070.2</ele>
        <time>2013-10-10T05:33:09Z</time>
      </trkpt>
      <trkpt lat="-21.06881" lon="55.39925">
        <ele>1068.1</ele>
        <time>2013-10-10T05:33:21Z</time>
      </trkpt>
      <trkpt lat="-21.06886" lon="55.39944">
        <ele>1064.5</ele>
        <time>2013-10-10T05:33:46Z</time>
      </trkpt>
      <trkpt lat="-21.06889" lon="55.39954">
        <ele>1062.4</ele>
        <time>2013-10-10T05:33:56Z</time>
      </trkpt>
      <trkpt lat="-21.06887" lon="55.39964">
        <ele>1058.6</ele>
        <time>2013-10-10T05:34:10Z</time>
      </trkpt>
      <trkpt lat="-21.06896" lon="55.39965">
        <ele>1058.8</ele>
        <time>2013-10-10T05:34:48Z</time>
      </trkpt>
      <trkpt lat="-21.069" lon="55.39968">
        <ele>1059.8</ele>
        <time>2013-10-10T05:36:38Z</time>
      </trkpt>
      <trkpt lat="-21.06903" lon="55.39978">
        <ele>1059.4</ele>
        <time>2013-10-10T05:38:45Z</time>
      </trkpt>
      <trkpt lat="-21.06918" lon="55.39989">
        <ele>1063.4</ele>
        <time>2013-10-10T05:39:11Z</time>
      </trkpt>
      <trkpt lat="-21.06926" lon="55.39996">
        <ele>1065.1</ele>
        <time>2013-10-10T05:39:25Z</time>
      </trkpt>
      <trkpt lat="-21.06935" lon="55.4">
        <ele>1067</ele>
        <time>2013-10-10T05:39:36Z</time>
      </trkpt>
      <trkpt lat="-21.06938" lon="55.40009">
        <ele>1068.9</ele>
        <time>2013-10-10T05:39:51Z</time>
      </trkpt>
      <trkpt lat="-21.06947" lon="55.40026">
        <ele>1074.4</ele>
        <time>2013-10-10T05:40:15Z</time>
      </trkpt>
      <trkpt lat="-21.06954" lon="55.40034">
        <ele>1075</ele>
        <time>2013-10-10T05:40:25Z</time>
      </trkpt>
      <trkpt lat="-21.06963" lon="55.40039">
        <ele>1075.5</ele>
        <time>2013-10-10T05:40:34Z</time>
      </trkpt>
      <trkpt lat="-21.06972" lon="55.40042">
        <ele>1078</ele>
        <time>2013-10-10T05:40:43Z</time>
      </trkpt>
      <trkpt lat="-21.0698" lon="55.40037">
        <ele>1078.9</ele>
        <time>2013-10-10T05:41:10Z</time>
      </trkpt>
      <trkpt lat="-21.0699" lon="55.4002">
        <ele>1083.1</ele>
        <time>2013-10-10T05:41:31Z</time>
      </trkpt>
      <trkpt lat="-21.06999" lon="55.4002">
        <ele>1085</ele>
        <time>2013-10-10T05:41:41Z</time>
      </trkpt>
      <trkpt lat="-21.07009" lon="55.40022">
        <ele>1085</ele>
        <time>2013-10-10T05:41:50Z</time>
      </trkpt>
      <trkpt lat="-21.07015" lon="55.40029">
        <ele>1083.6</ele>
        <time>2013-10-10T05:42:02Z</time>
      </trkpt>
      <trkpt lat="-21.07024" lon="55.4003">
        <ele>1085.9</ele>
        <time>2013-10-10T05:42:16Z</time>
      </trkpt>
      <trkpt lat="-21.07022" lon="55.40012">
        <ele>1090.6</ele>
        <time>2013-10-10T05:42:38Z</time>
      </trkpt>
      <trkpt lat="-21.07031" lon="55.40012">
        <ele>1093</ele>
        <time>2013-10-10T05:42:55Z</time>
      </trkpt>
      <trkpt lat="-21.07038" lon="55.40005">
        <ele>1095.4</ele>
        <time>2013-10-10T05:43:04Z</time>
      </trkpt>
      <trkpt lat="-21.07037" lon="55.39996">
        <ele>1096.7</ele>
        <time>2013-10-10T05:43:10Z</time>
      </trkpt>
      <trkpt lat="-21.07046" lon="55.39994">
        <ele>1099.4</ele>
        <time>2013-10-10T05:43:25Z</time>
      </trkpt>
      <trkpt lat="-21.07047" lon="55.40015">
        <ele>1104.6</ele>
        <time>2013-10-10T05:43:49Z</time>
      </trkpt>
      <trkpt lat="-21.0705" lon="55.40004">
        <ele>1106.6</ele>
        <time>2013-10-10T05:43:57Z</time>
      </trkpt>
      <trkpt lat="-21.07058" lon="55.4">
        <ele>1109.3</ele>
        <time>2013-10-10T05:44:14Z</time>
      </trkpt>
      <trkpt lat="-21.07062" lon="55.40008">
        <ele>1111.5</ele>
        <time>2013-10-10T05:44:25Z</time>
      </trkpt>
      <trkpt lat="-21.07071" lon="55.40005">
        <ele>1112.7</ele>
        <time>2013-10-10T05:44:34Z</time>
      </trkpt>
      <trkpt lat="-21.07072" lon="55.39979">
        <ele>1116.8</ele>
        <time>2013-10-10T05:44:53Z</time>
      </trkpt>
      <trkpt lat="-21.07081" lon="55.39983">
        <ele>1121</ele>
        <time>2013-10-10T05:45:09Z</time>
      </trkpt>
      <trkpt lat="-21.07084" lon="55.39992">
        <ele>1122</ele>
        <time>2013-10-10T05:45:18Z</time>
      </trkpt>
      <trkpt lat="-21.07086" lon="55.40002">
        <ele>1123.1</ele>
        <time>2013-10-10T05:45:26Z</time>
      </trkpt>
      <trkpt lat="-21.0709" lon="55.40011">
        <ele>1123.5</ele>
        <time>2013-10-10T05:45:33Z</time>
      </trkpt>
      <trkpt lat="-21.07092" lon="55.40021">
        <ele>1126.1</ele>
        <time>2013-10-10T05:45:41Z</time>
      </trkpt>
      <trkpt lat="-21.07109" lon="55.4003">
        <ele>1130.9</ele>
        <time>2013-10-10T05:46:06Z</time>
      </trkpt>
      <trkpt lat="-21.07118" lon="55.40026">
        <ele>1132.9</ele>
        <time>2013-10-10T05:46:15Z</time>
      </trkpt>
      <trkpt lat="-21.0712" lon="55.40017">
        <ele>1137.7</ele>
        <time>2013-10-10T05:46:51Z</time>
      </trkpt>
      <trkpt lat="-21.07135" lon="55.40007">
        <ele>1143.1</ele>
        <time>2013-10-10T05:47:17Z</time>
      </trkpt>
      <trkpt lat="-21.07133" lon="55.39997">
        <ele>1148</ele>
        <time>2013-10-10T05:47:41Z</time>
      </trkpt>
      <trkpt lat="-21.07141" lon="55.39992">
        <ele>1158.2</ele>
        <time>2013-10-10T05:48:29Z</time>
      </trkpt>
      <trkpt lat="-21.07143" lon="55.39973">
        <ele>1162.9</ele>
        <time>2013-10-10T05:49:01Z</time>
      </trkpt>
      <trkpt lat="-21.0715" lon="55.39963">
        <ele>1166</ele>
        <time>2013-10-10T05:49:13Z</time>
      </trkpt>
      <trkpt lat="-21.07151" lon="55.39953">
        <ele>1172.6</ele>
        <time>2013-10-10T05:49:53Z</time>
      </trkpt>
      <trkpt lat="-21.07161" lon="55.39944">
        <ele>1182.3</ele>
        <time>2013-10-10T05:50:44Z</time>
      </trkpt>
      <trkpt lat="-21.0716" lon="55.39954">
        <ele>1182.4</ele>
        <time>2013-10-10T05:50:48Z</time>
      </trkpt>
      <trkpt lat="-21.07158" lon="55.39964">
        <ele>1182.8</ele>
        <time>2013-10-10T05:50:57Z</time>
      </trkpt>
      <trkpt lat="-21.0717" lon="55.3998">
        <ele>1187</ele>
        <time>2013-10-10T05:51:27Z</time>
      </trkpt>
      <trkpt lat="-21.07174" lon="55.3999">
        <ele>1188.5</ele>
        <time>2013-10-10T05:51:36Z</time>
      </trkpt>
      <trkpt lat="-21.07181" lon="55.39997">
        <ele>1188.7</ele>
        <time>2013-10-10T05:51:48Z</time>
      </trkpt>
      <trkpt lat="-21.07189" lon="55.40002">
        <ele>1189.7</ele>
        <time>2013-10-10T05:51:57Z</time>
      </trkpt>
      <trkpt lat="-21.07198" lon="55.40006">
        <ele>1191.9</ele>
        <time>2013-10-10T05:52:06Z</time>
      </trkpt>
      <trkpt lat="-21.07215" lon="55.40013">
        <ele>1193.1</ele>
        <time>2013-10-10T05:52:27Z</time>
      </trkpt>
      <trkpt lat="-21.07224" lon="55.40016">
        <ele>1196.1</ele>
        <time>2013-10-10T05:52:41Z</time>
      </trkpt>
      <trkpt lat="-21.07232" lon="55.40016">
        <ele>1197.2</ele>
        <time>2013-10-10T05:52:52Z</time>
      </trkpt>
      <trkpt lat="-21.07242" lon="55.40016">
        <ele>1200.6</ele>
        <time>2013-10-10T05:53:08Z</time>
      </trkpt>
      <trkpt lat="-21.07255" lon="55.40017">
        <ele>1203</ele>
        <time>2013-10-10T05:53:31Z</time>
      </trkpt>
      <trkpt lat="-21.07264" lon="55.4002">
        <ele>1206.1</ele>
        <time>2013-10-10T05:53:47Z</time>
      </trkpt>
      <trkpt lat="-21.07271" lon="55.40013">
        <ele>1206.7</ele>
        <time>2013-10-10T05:53:53Z</time>
      </trkpt>
      <trkpt lat="-21.07276" lon="55.40004">
        <ele>1207.4</ele>
        <time>2013-10-10T05:54:01Z</time>
      </trkpt>
      <trkpt lat="-21.07286" lon="55.40002">
        <ele>1209.5</ele>
        <time>2013-10-10T05:54:12Z</time>
      </trkpt>
      <trkpt lat="-21.07306" lon="55.40002">
        <ele>1212.1</ele>
        <time>2013-10-10T05:54:34Z</time>
      </trkpt>
      <trkpt lat="-21.07315" lon="55.39999">
        <ele>1212.7</ele>
        <time>2013-10-10T05:54:44Z</time>
      </trkpt>
      <trkpt lat="-21.07324" lon="55.39996">
        <ele>1212.8</ele>
        <time>2013-10-10T05:54:53Z</time>
      </trkpt>
      <trkpt lat="-21.07333" lon="55.39993">
        <ele>1214.5</ele>
        <time>2013-10-10T05:55:03Z</time>
      </trkpt>
      <trkpt lat="-21.07341" lon="55.39989">
        <ele>1214.5</ele>
        <time>2013-10-10T05:55:12Z</time>
      </trkpt>
      <trkpt lat="-21.07351" lon="55.39989">
        <ele>1215.2</ele>
        <time>2013-10-10T05:55:23Z</time>
      </trkpt>
      <trkpt lat="-21.0737" lon="55.39985">
        <ele>1216.2</ele>
        <time>2013-10-10T05:55:44Z</time>
      </trkpt>
      <trkpt lat="-21.07379" lon="55.39985">
        <ele>1218.5</ele>
        <time>2013-10-10T05:56:01Z</time>
      </trkpt>
      <trkpt lat="-21.07388" lon="55.39983">
        <ele>1218.8</ele>
        <time>2013-10-10T05:56:21Z</time>
      </trkpt>
      <trkpt lat="-21.07398" lon="55.39984">
        <ele>1221.4</ele>
        <time>2013-10-10T05:56:32Z</time>
      </trkpt>
      <trkpt lat="-21.07416" lon="55.39977">
        <ele>1224</ele>
        <time>2013-10-10T05:56:54Z</time>
      </trkpt>
      <trkpt lat="-21.07422" lon="55.3997">
        <ele>1225.1</ele>
        <time>2013-10-10T05:57:04Z</time>
      </trkpt>
      <trkpt lat="-21.07428" lon="55.39961">
        <ele>1226.3</ele>
        <time>2013-10-10T05:57:14Z</time>
      </trkpt>
      <trkpt lat="-21.07434" lon="55.39953">
        <ele>1228</ele>
        <time>2013-10-10T05:57:23Z</time>
      </trkpt>
      <trkpt lat="-21.07437" lon="55.39943">
        <ele>1228.5</ele>
        <time>2013-10-10T05:57:31Z</time>
      </trkpt>
      <trkpt lat="-21.07441" lon="55.39934">
        <ele>1229.3</ele>
        <time>2013-10-10T05:57:40Z</time>
      </trkpt>
      <trkpt lat="-21.07459" lon="55.39935">
        <ele>1232.3</ele>
        <time>2013-10-10T05:57:59Z</time>
      </trkpt>
      <trkpt lat="-21.07468" lon="55.39934">
        <ele>1235.1</ele>
        <time>2013-10-10T05:58:11Z</time>
      </trkpt>
      <trkpt lat="-21.07477" lon="55.3993">
        <ele>1236.1</ele>
        <time>2013-10-10T05:58:21Z</time>
      </trkpt>
      <trkpt lat="-21.07482" lon="55.39922">
        <ele>1236.9</ele>
        <time>2013-10-10T05:58:33Z</time>
      </trkpt>
      <trkpt lat="-21.07489" lon="55.39913">
        <ele>1238.4</ele>
        <time>2013-10-10T05:58:44Z</time>
      </trkpt>
      <trkpt lat="-21.07503" lon="55.39924">
        <ele>1241.1</ele>
        <time>2013-10-10T05:59:06Z</time>
      </trkpt>
      <trkpt lat="-21.0751" lon="55.39918">
        <ele>1241.8</ele>
        <time>2013-10-10T05:59:12Z</time>
      </trkpt>
      <trkpt lat="-21.07516" lon="55.39908">
        <ele>1242</ele>
        <time>2013-10-10T05:59:19Z</time>
      </trkpt>
      <trkpt lat="-21.07526" lon="55.399">
        <ele>1243</ele>
        <time>2013-10-10T05:59:27Z</time>
      </trkpt>
      <trkpt lat="-21.07534" lon="55.39892">
        <ele>1245</ele>
        <time>2013-10-10T05:59:39Z</time>
      </trkpt>
      <trkpt lat="-21.07543" lon="55.39892">
        <ele>1248.2</ele>
        <time>2013-10-10T05:59:50Z</time>
      </trkpt>
      <trkpt lat="-21.07562" lon="55.39895">
        <ele>1251.7</ele>
        <time>2013-10-10T06:00:23Z</time>
      </trkpt>
      <trkpt lat="-21.07572" lon="55.39895">
        <ele>1253.3</ele>
        <time>2013-10-10T06:00:33Z</time>
      </trkpt>
      <trkpt lat="-21.0758" lon="55.39898">
        <ele>1252.9</ele>
        <time>2013-10-10T06:00:41Z</time>
      </trkpt>
      <trkpt lat="-21.07591" lon="55.39899">
        <ele>1254.6</ele>
        <time>2013-10-10T06:00:54Z</time>
      </trkpt>
      <trkpt lat="-21.07608" lon="55.39898">
        <ele>1258.3</ele>
        <time>2013-10-10T06:01:19Z</time>
      </trkpt>
      <trkpt lat="-21.07617" lon="55.39895">
        <ele>1262.3</ele>
        <time>2013-10-10T06:01:34Z</time>
      </trkpt>
      <trkpt lat="-21.07623" lon="55.39902">
        <ele>1265.8</ele>
        <time>2013-10-10T06:01:55Z</time>
      </trkpt>
      <trkpt lat="-21.07632" lon="55.39916">
        <ele>1270.9</ele>
        <time>2013-10-10T06:02:27Z</time>
      </trkpt>
      <trkpt lat="-21.07641" lon="55.39919">
        <ele>1272.6</ele>
        <time>2013-10-10T06:02:38Z</time>
      </trkpt>
      <trkpt lat="-21.0765" lon="55.39917">
        <ele>1274.1</ele>
        <time>2013-10-10T06:02:52Z</time>
      </trkpt>
      <trkpt lat="-21.07657" lon="55.39924">
        <ele>1275.4</ele>
        <time>2013-10-10T06:03:01Z</time>
      </trkpt>
      <trkpt lat="-21.07677" lon="55.39923">
        <ele>1277.8</ele>
        <time>2013-10-10T06:03:29Z</time>
      </trkpt>
      <trkpt lat="-21.07686" lon="55.39921">
        <ele>1279.2</ele>
        <time>2013-10-10T06:03:43Z</time>
      </trkpt>
      <trkpt lat="-21.07695" lon="55.39923">
        <ele>1280.9</ele>
        <time>2013-10-10T06:04:00Z</time>
      </trkpt>
      <trkpt lat="-21.07704" lon="55.39922">
        <ele>1283.2</ele>
        <time>2013-10-10T06:04:13Z</time>
      </trkpt>
      <trkpt lat="-21.07723" lon="55.39922">
        <ele>1285.6</ele>
        <time>2013-10-10T06:04:40Z</time>
      </trkpt>
      <trkpt lat="-21.07733" lon="55.39923">
        <ele>1286.5</ele>
        <time>2013-10-10T06:04:51Z</time>
      </trkpt>
      <trkpt lat="-21.07742" lon="55.39921">
        <ele>1289</ele>
        <time>2013-10-10T06:05:02Z</time>
      </trkpt>
      <trkpt lat="-21.0775" lon="55.39915">
        <ele>1291.1</ele>
        <time>2013-10-10T06:05:14Z</time>
      </trkpt>
      <trkpt lat="-21.07768" lon="55.39909">
        <ele>1295.9</ele>
        <time>2013-10-10T06:05:48Z</time>
      </trkpt>
      <trkpt lat="-21.07778" lon="55.39908">
        <ele>1297.8</ele>
        <time>2013-10-10T06:05:58Z</time>
      </trkpt>
      <trkpt lat="-21.07787" lon="55.39908">
        <ele>1299.2</ele>
        <time>2013-10-10T06:06:09Z</time>
      </trkpt>
      <trkpt lat="-21.07796" lon="55.39904">
        <ele>1302.5</ele>
        <time>2013-10-10T06:06:30Z</time>
      </trkpt>
      <trkpt lat="-21.07807" lon="55.39886">
        <ele>1304.4</ele>
        <time>2013-10-10T06:06:43Z</time>
      </trkpt>
      <trkpt lat="-21.07813" lon="55.39878">
        <ele>1305.5</ele>
        <time>2013-10-10T06:06:52Z</time>
      </trkpt>
      <trkpt lat="-21.07821" lon="55.39884">
        <ele>1307.1</ele>
        <time>2013-10-10T06:07:01Z</time>
      </trkpt>
      <trkpt lat="-21.07826" lon="55.39874">
        <ele>1309.4</ele>
        <time>2013-10-10T06:07:12Z</time>
      </trkpt>
      <trkpt lat="-21.07829" lon="55.39864">
        <ele>1309.9</ele>
        <time>2013-10-10T06:07:17Z</time>
      </trkpt>
      <trkpt lat="-21.07839" lon="55.39865">
        <ele>1312.9</ele>
        <time>2013-10-10T06:07:38Z</time>
      </trkpt>
      <trkpt lat="-21.07847" lon="55.39847">
        <ele>1316.9</ele>
        <time>2013-10-10T06:08:07Z</time>
      </trkpt>
      <trkpt lat="-21.0786" lon="55.3984">
        <ele>1320</ele>
        <time>2013-10-10T06:08:28Z</time>
      </trkpt>
      <trkpt lat="-21.07868" lon="55.39835">
        <ele>1321</ele>
        <time>2013-10-10T06:08:40Z</time>
      </trkpt>
      <trkpt lat="-21.0788" lon="55.39849">
        <ele>1324.7</ele>
        <time>2013-10-10T06:09:01Z</time>
      </trkpt>
      <trkpt lat="-21.07889" lon="55.39847">
        <ele>1324.3</ele>
        <time>2013-10-10T06:09:09Z</time>
      </trkpt>
      <trkpt lat="-21.07898" lon="55.39846">
        <ele>1322.8</ele>
        <time>2013-10-10T06:09:18Z</time>
      </trkpt>
      <trkpt lat="-21.07907" lon="55.39845">
        <ele>1322.5</ele>
        <time>2013-10-10T06:09:26Z</time>
      </trkpt>
      <trkpt lat="-21.07917" lon="55.39846">
        <ele>1323</ele>
        <time>2013-10-10T06:09:36Z</time>
      </trkpt>
      <trkpt lat="-21.07926" lon="55.39843">
        <ele>1323.6</ele>
        <time>2013-10-10T06:09:44Z</time>
      </trkpt>
      <trkpt lat="-21.07943" lon="55.39833">
        <ele>1325.9</ele>
        <time>2013-10-10T06:10:03Z</time>
      </trkpt>
      <trkpt lat="-21.07953" lon="55.39831">
        <ele>1327.7</ele>
        <time>2013-10-10T06:10:11Z</time>
      </trkpt>
      <trkpt lat="-21.07962" lon="55.39835">
        <ele>1327.9</ele>
        <time>2013-10-10T06:10:21Z</time>
      </trkpt>
      <trkpt lat="-21.07969" lon="55.3984">
        <ele>1325.8</ele>
        <time>2013-10-10T06:10:29Z</time>
      </trkpt>
      <trkpt lat="-21.07978" lon="55.39844">
        <ele>1324.9</ele>
        <time>2013-10-10T06:10:35Z</time>
      </trkpt>
      <trkpt lat="-21.07989" lon="55.39845">
        <ele>1323.9</ele>
        <time>2013-10-10T06:10:41Z</time>
      </trkpt>
      <trkpt lat="-21.07999" lon="55.39846">
        <ele>1323</ele>
        <time>2013-10-10T06:10:47Z</time>
      </trkpt>
      <trkpt lat="-21.08017" lon="55.3985">
        <ele>1320.2</ele>
        <time>2013-10-10T06:10:57Z</time>
      </trkpt>
      <trkpt lat="-21.08028" lon="55.39852">
        <ele>1319.8</ele>
        <time>2013-10-10T06:11:03Z</time>
      </trkpt>
      <trkpt lat="-21.08037" lon="55.39856">
        <ele>1318.3</ele>
        <time>2013-10-10T06:11:11Z</time>
      </trkpt>
      <trkpt lat="-21.08047" lon="55.39857">
        <ele>1317.4</ele>
        <time>2013-10-10T06:11:18Z</time>
      </trkpt>
      <trkpt lat="-21.08054" lon="55.39863">
        <ele>1314.6</ele>
        <time>2013-10-10T06:11:27Z</time>
      </trkpt>
      <trkpt lat="-21.08063" lon="55.39868">
        <ele>1311</ele>
        <time>2013-10-10T06:11:40Z</time>
      </trkpt>
      <trkpt lat="-21.08067" lon="55.39876">
        <ele>1307.6</ele>
        <time>2013-10-10T06:11:50Z</time>
      </trkpt>
      <trkpt lat="-21.08081" lon="55.39889">
        <ele>1302.1</ele>
        <time>2013-10-10T06:12:09Z</time>
      </trkpt>
      <trkpt lat="-21.08086" lon="55.39898">
        <ele>1298.7</ele>
        <time>2013-10-10T06:12:21Z</time>
      </trkpt>
      <trkpt lat="-21.08088" lon="55.39907">
        <ele>1296</ele>
        <time>2013-10-10T06:12:32Z</time>
      </trkpt>
      <trkpt lat="-21.08088" lon="55.39917">
        <ele>1293.6</ele>
        <time>2013-10-10T06:12:39Z</time>
      </trkpt>
      <trkpt lat="-21.08091" lon="55.39926">
        <ele>1290</ele>
        <time>2013-10-10T06:12:50Z</time>
      </trkpt>
      <trkpt lat="-21.08101" lon="55.39926">
        <ele>1287.8</ele>
        <time>2013-10-10T06:12:58Z</time>
      </trkpt>
      <trkpt lat="-21.08116" lon="55.39934">
        <ele>1282.5</ele>
        <time>2013-10-10T06:13:20Z</time>
      </trkpt>
      <trkpt lat="-21.08124" lon="55.39926">
        <ele>1278</ele>
        <time>2013-10-10T06:13:32Z</time>
      </trkpt>
      <trkpt lat="-21.08131" lon="55.39917">
        <ele>1269</ele>
        <time>2013-10-10T06:14:00Z</time>
      </trkpt>
      <trkpt lat="-21.08151" lon="55.39918">
        <ele>1266.7</ele>
        <time>2013-10-10T06:14:19Z</time>
      </trkpt>
      <trkpt lat="-21.0816" lon="55.3992">
        <ele>1264.5</ele>
        <time>2013-10-10T06:14:28Z</time>
      </trkpt>
      <trkpt lat="-21.08168" lon="55.39914">
        <ele>1263</ele>
        <time>2013-10-10T06:14:37Z</time>
      </trkpt>
      <trkpt lat="-21.08174" lon="55.39907">
        <ele>1262.2</ele>
        <time>2013-10-10T06:14:44Z</time>
      </trkpt>
      <trkpt lat="-21.08183" lon="55.39905">
        <ele>1265.2</ele>
        <time>2013-10-10T06:14:55Z</time>
      </trkpt>
      <trkpt lat="-21.08184" lon="55.39915">
        <ele>1266.9</ele>
        <time>2013-10-10T06:15:05Z</time>
      </trkpt>
      <trkpt lat="-21.08188" lon="55.39933">
        <ele>1270.6</ele>
        <time>2013-10-10T06:15:22Z</time>
      </trkpt>
      <trkpt lat="-21.08184" lon="55.39946">
        <ele>1271</ele>
        <time>2013-10-10T06:15:31Z</time>
      </trkpt>
      <trkpt lat="-21.08181" lon="55.39956">
        <ele>1273</ele>
        <time>2013-10-10T06:15:39Z</time>
      </trkpt>
      <trkpt lat="-21.08193" lon="55.39959">
        <ele>1276.9</ele>
        <time>2013-10-10T06:15:54Z</time>
      </trkpt>
      <trkpt lat="-21.08201" lon="55.39955">
        <ele>1278.1</ele>
        <time>2013-10-10T06:16:00Z</time>
      </trkpt>
      <trkpt lat="-21.08209" lon="55.39949">
        <ele>1279.9</ele>
        <time>2013-10-10T06:16:08Z</time>
      </trkpt>
      <trkpt lat="-21.08223" lon="55.39937">
        <ele>1281</ele>
        <time>2013-10-10T06:16:21Z</time>
      </trkpt>
      <trkpt lat="-21.0823" lon="55.39931">
        <ele>1280.4</ele>
        <time>2013-10-10T06:16:27Z</time>
      </trkpt>
      <trkpt lat="-21.08237" lon="55.39923">
        <ele>1280.7</ele>
        <time>2013-10-10T06:16:34Z</time>
      </trkpt>
      <trkpt lat="-21.08245" lon="55.39918">
        <ele>1280.9</ele>
        <time>2013-10-10T06:16:42Z</time>
      </trkpt>
      <trkpt lat="-21.08254" lon="55.39919">
        <ele>1282.1</ele>
        <time>2013-10-10T06:16:53Z</time>
      </trkpt>
      <trkpt lat="-21.08261" lon="55.39925">
        <ele>1283</ele>
        <time>2013-10-10T06:17:04Z</time>
      </trkpt>
      <trkpt lat="-21.08271" lon="55.39927">
        <ele>1286.9</ele>
        <time>2013-10-10T06:17:22Z</time>
      </trkpt>
      <trkpt lat="-21.08291" lon="55.39925">
        <ele>1285.3</ele>
        <time>2013-10-10T06:17:38Z</time>
      </trkpt>
      <trkpt lat="-21.08297" lon="55.39933">
        <ele>1287.1</ele>
        <time>2013-10-10T06:17:49Z</time>
      </trkpt>
      <trkpt lat="-21.08298" lon="55.39944">
        <ele>1289.8</ele>
        <time>2013-10-10T06:17:59Z</time>
      </trkpt>
      <trkpt lat="-21.083" lon="55.39954">
        <ele>1291.2</ele>
        <time>2013-10-10T06:18:10Z</time>
      </trkpt>
      <trkpt lat="-21.08308" lon="55.39958">
        <ele>1293.6</ele>
        <time>2013-10-10T06:18:23Z</time>
      </trkpt>
      <trkpt lat="-21.08318" lon="55.39975">
        <ele>1296.2</ele>
        <time>2013-10-10T06:18:44Z</time>
      </trkpt>
      <trkpt lat="-21.08321" lon="55.39985">
        <ele>1295.9</ele>
        <time>2013-10-10T06:18:50Z</time>
      </trkpt>
      <trkpt lat="-21.08328" lon="55.39992">
        <ele>1297.1</ele>
        <time>2013-10-10T06:19:00Z</time>
      </trkpt>
      <trkpt lat="-21.08335" lon="55.39999">
        <ele>1297</ele>
        <time>2013-10-10T06:19:09Z</time>
      </trkpt>
      <trkpt lat="-21.08341" lon="55.40007">
        <ele>1296.8</ele>
        <time>2013-10-10T06:19:16Z</time>
      </trkpt>
      <trkpt lat="-21.08349" lon="55.40012">
        <ele>1295.7</ele>
        <time>2013-10-10T06:19:23Z</time>
      </trkpt>
      <trkpt lat="-21.08356" lon="55.4002">
        <ele>1296</ele>
        <time>2013-10-10T06:19:32Z</time>
      </trkpt>
      <trkpt lat="-21.08371" lon="55.4003">
        <ele>1298.7</ele>
        <time>2013-10-10T06:19:50Z</time>
      </trkpt>
      <trkpt lat="-21.08379" lon="55.40025">
        <ele>1297.4</ele>
        <time>2013-10-10T06:19:58Z</time>
      </trkpt>
      <trkpt lat="-21.08386" lon="55.40018">
        <ele>1296.1</ele>
        <time>2013-10-10T06:20:05Z</time>
      </trkpt>
      <trkpt lat="-21.08396" lon="55.40016">
        <ele>1294.7</ele>
        <time>2013-10-10T06:20:12Z</time>
      </trkpt>
      <trkpt lat="-21.08405" lon="55.40019">
        <ele>1293</ele>
        <time>2013-10-10T06:20:19Z</time>
      </trkpt>
      <trkpt lat="-21.08413" lon="55.40025">
        <ele>1290</ele>
        <time>2013-10-10T06:20:30Z</time>
      </trkpt>
      <trkpt lat="-21.08421" lon="55.4003">
        <ele>1284.2</ele>
        <time>2013-10-10T06:20:47Z</time>
      </trkpt>
      <trkpt lat="-21.08433" lon="55.40047">
        <ele>1274</ele>
        <time>2013-10-10T06:21:10Z</time>
      </trkpt>
      <trkpt lat="-21.0844" lon="55.40055">
        <ele>1267</ele>
        <time>2013-10-10T06:21:26Z</time>
      </trkpt>
      <trkpt lat="-21.08449" lon="55.40056">
        <ele>1260</ele>
        <time>2013-10-10T06:21:42Z</time>
      </trkpt>
      <trkpt lat="-21.0846" lon="55.4005">
        <ele>1257</ele>
        <time>2013-10-10T06:21:54Z</time>
      </trkpt>
      <trkpt lat="-21.08473" lon="55.40064">
        <ele>1258.5</ele>
        <time>2013-10-10T06:22:13Z</time>
      </trkpt>
      <trkpt lat="-21.0848" lon="55.40071">
        <ele>1258.5</ele>
        <time>2013-10-10T06:22:20Z</time>
      </trkpt>
      <trkpt lat="-21.08488" lon="55.40076">
        <ele>1256.7</ele>
        <time>2013-10-10T06:22:29Z</time>
      </trkpt>
      <trkpt lat="-21.08497" lon="55.40079">
        <ele>1256.1</ele>
        <time>2013-10-10T06:22:36Z</time>
      </trkpt>
      <trkpt lat="-21.08505" lon="55.40084">
        <ele>1257.3</ele>
        <time>2013-10-10T06:22:43Z</time>
      </trkpt>
      <trkpt lat="-21.08514" lon="55.40088">
        <ele>1258.2</ele>
        <time>2013-10-10T06:22:51Z</time>
      </trkpt>
      <trkpt lat="-21.08522" lon="55.40092">
        <ele>1258.2</ele>
        <time>2013-10-10T06:22:58Z</time>
      </trkpt>
      <trkpt lat="-21.08538" lon="55.40101">
        <ele>1257.9</ele>
        <time>2013-10-10T06:23:13Z</time>
      </trkpt>
      <trkpt lat="-21.08544" lon="55.4011">
        <ele>1256.2</ele>
        <time>2013-10-10T06:24:04Z</time>
      </trkpt>
      <trkpt lat="-21.0856" lon="55.4012">
        <ele>1253</ele>
        <time>2013-10-10T06:24:20Z</time>
      </trkpt>
      <trkpt lat="-21.0857" lon="55.40123">
        <ele>1252.3</ele>
        <time>2013-10-10T06:24:27Z</time>
      </trkpt>
      <trkpt lat="-21.08578" lon="55.40127">
        <ele>1253.1</ele>
        <time>2013-10-10T06:24:35Z</time>
      </trkpt>
      <trkpt lat="-21.08587" lon="55.40131">
        <ele>1253.7</ele>
        <time>2013-10-10T06:24:42Z</time>
      </trkpt>
      <trkpt lat="-21.08596" lon="55.40135">
        <ele>1254.5</ele>
        <time>2013-10-10T06:24:50Z</time>
      </trkpt>
      <trkpt lat="-21.08605" lon="55.40138">
        <ele>1254.7</ele>
        <time>2013-10-10T06:24:59Z</time>
      </trkpt>
      <trkpt lat="-21.08609" lon="55.40146">
        <ele>1251.2</ele>
        <time>2013-10-10T06:25:10Z</time>
      </trkpt>
      <trkpt lat="-21.08625" lon="55.4016">
        <ele>1248.7</ele>
        <time>2013-10-10T06:25:32Z</time>
      </trkpt>
      <trkpt lat="-21.08633" lon="55.40166">
        <ele>1247.6</ele>
        <time>2013-10-10T06:25:41Z</time>
      </trkpt>
      <trkpt lat="-21.08642" lon="55.4017">
        <ele>1244.2</ele>
        <time>2013-10-10T06:25:53Z</time>
      </trkpt>
      <trkpt lat="-21.08651" lon="55.40171">
        <ele>1243.8</ele>
        <time>2013-10-10T06:26:02Z</time>
      </trkpt>
      <trkpt lat="-21.08661" lon="55.4017">
        <ele>1244</ele>
        <time>2013-10-10T06:26:14Z</time>
      </trkpt>
      <trkpt lat="-21.08676" lon="55.40182">
        <ele>1252</ele>
        <time>2013-10-10T06:26:48Z</time>
      </trkpt>
      <trkpt lat="-21.0868" lon="55.40192">
        <ele>1252</ele>
        <time>2013-10-10T06:27:00Z</time>
      </trkpt>
      <trkpt lat="-21.08691" lon="55.40186">
        <ele>1255</ele>
        <time>2013-10-10T06:27:12Z</time>
      </trkpt>
      <trkpt lat="-21.08695" lon="55.40178">
        <ele>1256</ele>
        <time>2013-10-10T06:27:20Z</time>
      </trkpt>
      <trkpt lat="-21.08705" lon="55.40197">
        <ele>1259</ele>
        <time>2013-10-10T06:27:39Z</time>
      </trkpt>
      <trkpt lat="-21.08707" lon="55.40207">
        <ele>1261</ele>
        <time>2013-10-10T06:27:51Z</time>
      </trkpt>
      <trkpt lat="-21.08714" lon="55.402">
        <ele>1265</ele>
        <time>2013-10-10T06:28:17Z</time>
      </trkpt>
      <trkpt lat="-21.08714" lon="55.40215">
        <ele>1276</ele>
        <time>2013-10-10T06:29:15Z</time>
      </trkpt>
      <trkpt lat="-21.08728" lon="55.40232">
        <ele>1283</ele>
        <time>2013-10-10T06:30:01Z</time>
      </trkpt>
      <trkpt lat="-21.08734" lon="55.40223">
        <ele>1285</ele>
        <time>2013-10-10T06:30:13Z</time>
      </trkpt>
      <trkpt lat="-21.08743" lon="55.40217">
        <ele>1292</ele>
        <time>2013-10-10T06:30:55Z</time>
      </trkpt>
      <trkpt lat="-21.08763" lon="55.40219">
        <ele>1298</ele>
        <time>2013-10-10T06:31:39Z</time>
      </trkpt>
      <trkpt lat="-21.08774" lon="55.40225">
        <ele>1301</ele>
        <time>2013-10-10T06:31:51Z</time>
      </trkpt>
      <trkpt lat="-21.08784" lon="55.40223">
        <ele>1304</ele>
        <time>2013-10-10T06:32:06Z</time>
      </trkpt>
      <trkpt lat="-21.08801" lon="55.40236">
        <ele>1309</ele>
        <time>2013-10-10T06:32:35Z</time>
      </trkpt>
      <trkpt lat="-21.08804" lon="55.40245">
        <ele>1308.5</ele>
        <time>2013-10-10T06:32:44Z</time>
      </trkpt>
      <trkpt lat="-21.08807" lon="55.40255">
        <ele>1309.3</ele>
        <time>2013-10-10T06:32:53Z</time>
      </trkpt>
      <trkpt lat="-21.08812" lon="55.40263">
        <ele>1308.1</ele>
        <time>2013-10-10T06:33:02Z</time>
      </trkpt>
      <trkpt lat="-21.08815" lon="55.40272">
        <ele>1308.8</ele>
        <time>2013-10-10T06:33:09Z</time>
      </trkpt>
      <trkpt lat="-21.08818" lon="55.40282">
        <ele>1307.8</ele>
        <time>2013-10-10T06:33:17Z</time>
      </trkpt>
      <trkpt lat="-21.08824" lon="55.40302">
        <ele>1305.9</ele>
        <time>2013-10-10T06:33:32Z</time>
      </trkpt>
      <trkpt lat="-21.08828" lon="55.40311">
        <ele>1304.6</ele>
        <time>2013-10-10T06:33:40Z</time>
      </trkpt>
      <trkpt lat="-21.08829" lon="55.40321">
        <ele>1302.6</ele>
        <time>2013-10-10T06:33:48Z</time>
      </trkpt>
      <trkpt lat="-21.08825" lon="55.40329">
        <ele>1300.3</ele>
        <time>2013-10-10T06:34:01Z</time>
      </trkpt>
      <trkpt lat="-21.08826" lon="55.40341">
        <ele>1299</ele>
        <time>2013-10-10T06:34:12Z</time>
      </trkpt>
      <trkpt lat="-21.0883" lon="55.4035">
        <ele>1300.2</ele>
        <time>2013-10-10T06:34:19Z</time>
      </trkpt>
      <trkpt lat="-21.08831" lon="55.40371">
        <ele>1300.4</ele>
        <time>2013-10-10T06:34:37Z</time>
      </trkpt>
      <trkpt lat="-21.08832" lon="55.40381">
        <ele>1299.4</ele>
        <time>2013-10-10T06:34:42Z</time>
      </trkpt>
      <trkpt lat="-21.08832" lon="55.40394">
        <ele>1298</ele>
        <time>2013-10-10T06:34:48Z</time>
      </trkpt>
      <trkpt lat="-21.08831" lon="55.40408">
        <ele>1303</ele>
        <time>2013-10-10T06:35:04Z</time>
      </trkpt>
      <trkpt lat="-21.08835" lon="55.40417">
        <ele>1304.3</ele>
        <time>2013-10-10T06:35:15Z</time>
      </trkpt>
      <trkpt lat="-21.08837" lon="55.40428">
        <ele>1296</ele>
        <time>2013-10-10T06:35:43Z</time>
      </trkpt>
      <trkpt lat="-21.08838" lon="55.4045">
        <ele>1282</ele>
        <time>2013-10-10T06:36:30Z</time>
      </trkpt>
      <trkpt lat="-21.08845" lon="55.40457">
        <ele>1276.3</ele>
        <time>2013-10-10T06:36:45Z</time>
      </trkpt>
      <trkpt lat="-21.0885" lon="55.40466">
        <ele>1274.2</ele>
        <time>2013-10-10T06:36:50Z</time>
      </trkpt>
      <trkpt lat="-21.08873" lon="55.40485">
        <ele>1264</ele>
        <time>2013-10-10T06:37:08Z</time>
      </trkpt>
      <trkpt lat="-21.08881" lon="55.40492">
        <ele>1258</ele>
        <time>2013-10-10T06:37:20Z</time>
      </trkpt>
      <trkpt lat="-21.08882" lon="55.40503">
        <ele>1250</ele>
        <time>2013-10-10T06:37:40Z</time>
      </trkpt>
      <trkpt lat="-21.08882" lon="55.40513">
        <ele>1245</ele>
        <time>2013-10-10T06:37:52Z</time>
      </trkpt>
      <trkpt lat="-21.08868" lon="55.40525">
        <ele>1235</ele>
        <time>2013-10-10T06:38:20Z</time>
      </trkpt>
      <trkpt lat="-21.08858" lon="55.40527">
        <ele>1231</ele>
        <time>2013-10-10T06:38:32Z</time>
      </trkpt>
      <trkpt lat="-21.0885" lon="55.40536">
        <ele>1227</ele>
        <time>2013-10-10T06:38:44Z</time>
      </trkpt>
      <trkpt lat="-21.08839" lon="55.40533">
        <ele>1222</ele>
        <time>2013-10-10T06:38:56Z</time>
      </trkpt>
      <trkpt lat="-21.08816" lon="55.40535">
        <ele>1213</ele>
        <time>2013-10-10T06:39:21Z</time>
      </trkpt>
      <trkpt lat="-21.08806" lon="55.40535">
        <ele>1210</ele>
        <time>2013-10-10T06:39:31Z</time>
      </trkpt>
      <trkpt lat="-21.088" lon="55.40545">
        <ele>1202</ele>
        <time>2013-10-10T06:39:53Z</time>
      </trkpt>
      <trkpt lat="-21.0879" lon="55.40545">
        <ele>1199</ele>
        <time>2013-10-10T06:40:03Z</time>
      </trkpt>
      <trkpt lat="-21.08771" lon="55.40547">
        <ele>1189</ele>
        <time>2013-10-10T06:40:35Z</time>
      </trkpt>
      <trkpt lat="-21.08763" lon="55.40551">
        <ele>1187</ele>
        <time>2013-10-10T06:40:51Z</time>
      </trkpt>
      <trkpt lat="-21.08754" lon="55.40558">
        <ele>1185</ele>
        <time>2013-10-10T06:41:03Z</time>
      </trkpt>
      <trkpt lat="-21.08745" lon="55.40561">
        <ele>1185</ele>
        <time>2013-10-10T06:41:07Z</time>
      </trkpt>
      <trkpt lat="-21.08671" lon="55.40587">
        <ele>1178</ele>
        <time>2013-10-10T06:41:28Z</time>
      </trkpt>
      <trkpt lat="-21.08662" lon="55.40596">
        <ele>1176</ele>
        <time>2013-10-10T06:41:36Z</time>
      </trkpt>
      <trkpt lat="-21.08595" lon="55.40627">
        <ele>1162</ele>
        <time>2013-10-10T06:42:48Z</time>
      </trkpt>
      <trkpt lat="-21.08581" lon="55.40645">
        <ele>1154</ele>
        <time>2013-10-10T06:43:38Z</time>
      </trkpt>
      <trkpt lat="-21.08597" lon="55.40644">
        <ele>1152</ele>
        <time>2013-10-10T06:43:50Z</time>
      </trkpt>
      <trkpt lat="-21.08609" lon="55.40639">
        <ele>1150</ele>
        <time>2013-10-10T06:43:58Z</time>
      </trkpt>
      <trkpt lat="-21.08602" lon="55.40656">
        <ele>1145</ele>
        <time>2013-10-10T06:44:17Z</time>
      </trkpt>
      <trkpt lat="-21.08588" lon="55.40679">
        <ele>1144</ele>
        <time>2013-10-10T06:44:31Z</time>
      </trkpt>
      <trkpt lat="-21.08593" lon="55.40688">
        <ele>1145</ele>
        <time>2013-10-10T06:44:37Z</time>
      </trkpt>
      <trkpt lat="-21.086" lon="55.40698">
        <ele>1143</ele>
        <time>2013-10-10T06:44:45Z</time>
      </trkpt>
      <trkpt lat="-21.08604" lon="55.4071">
        <ele>1142</ele>
        <time>2013-10-10T06:44:53Z</time>
      </trkpt>
      <trkpt lat="-21.0861" lon="55.4072">
        <ele>1143</ele>
        <time>2013-10-10T06:45:01Z</time>
      </trkpt>
      <trkpt lat="-21.0862" lon="55.40725">
        <ele>1143</ele>
        <time>2013-10-10T06:45:11Z</time>
      </trkpt>
      <trkpt lat="-21.08631" lon="55.40725">
        <ele>1143</ele>
        <time>2013-10-10T06:45:23Z</time>
      </trkpt>
      <trkpt lat="-21.08649" lon="55.40738">
        <ele>1141</ele>
        <time>2013-10-10T06:45:43Z</time>
      </trkpt>
      <trkpt lat="-21.08659" lon="55.40741">
        <ele>1143</ele>
        <time>2013-10-10T06:45:48Z</time>
      </trkpt>
      <trkpt lat="-21.08655" lon="55.40751">
        <ele>1144</ele>
        <time>2013-10-10T06:45:59Z</time>
      </trkpt>
      <trkpt lat="-21.08645" lon="55.40757">
        <ele>1145</ele>
        <time>2013-10-10T06:46:06Z</time>
      </trkpt>
      <trkpt lat="-21.08657" lon="55.40765">
        <ele>1146</ele>
        <time>2013-10-10T06:46:24Z</time>
      </trkpt>
      <trkpt lat="-21.0867" lon="55.40794">
        <ele>1149.8</ele>
        <time>2013-10-10T06:48:14Z</time>
      </trkpt>
      <trkpt lat="-21.08679" lon="55.40799">
        <ele>1151.8</ele>
        <time>2013-10-10T06:48:21Z</time>
      </trkpt>
      <trkpt lat="-21.08688" lon="55.40802">
        <ele>1153</ele>
        <time>2013-10-10T06:48:32Z</time>
      </trkpt>
      <trkpt lat="-21.08697" lon="55.40805">
        <ele>1154.8</ele>
        <time>2013-10-10T06:48:41Z</time>
      </trkpt>
      <trkpt lat="-21.08705" lon="55.40814">
        <ele>1156</ele>
        <time>2013-10-10T06:48:53Z</time>
      </trkpt>
      <trkpt lat="-21.08713" lon="55.40822">
        <ele>1157</ele>
        <time>2013-10-10T06:49:03Z</time>
      </trkpt>
      <trkpt lat="-21.08725" lon="55.40837">
        <ele>1162.2</ele>
        <time>2013-10-10T06:49:27Z</time>
      </trkpt>
      <trkpt lat="-21.08733" lon="55.40843">
        <ele>1162.5</ele>
        <time>2013-10-10T06:49:34Z</time>
      </trkpt>
      <trkpt lat="-21.08736" lon="55.40853">
        <ele>1162.6</ele>
        <time>2013-10-10T06:49:41Z</time>
      </trkpt>
      <trkpt lat="-21.08741" lon="55.40862">
        <ele>1164</ele>
        <time>2013-10-10T06:49:49Z</time>
      </trkpt>
      <trkpt lat="-21.08745" lon="55.4087">
        <ele>1164.9</ele>
        <time>2013-10-10T06:50:03Z</time>
      </trkpt>
      <trkpt lat="-21.08754" lon="55.40876">
        <ele>1164.6</ele>
        <time>2013-10-10T06:50:14Z</time>
      </trkpt>
      <trkpt lat="-21.08771" lon="55.40885">
        <ele>1163.5</ele>
        <time>2013-10-10T06:50:31Z</time>
      </trkpt>
      <trkpt lat="-21.08779" lon="55.40891">
        <ele>1164.5</ele>
        <time>2013-10-10T06:50:38Z</time>
      </trkpt>
      <trkpt lat="-21.08788" lon="55.40895">
        <ele>1165.9</ele>
        <time>2013-10-10T06:50:45Z</time>
      </trkpt>
      <trkpt lat="-21.08797" lon="55.40898">
        <ele>1166.3</ele>
        <time>2013-10-10T06:50:52Z</time>
      </trkpt>
      <trkpt lat="-21.08806" lon="55.40901">
        <ele>1166.5</ele>
        <time>2013-10-10T06:50:59Z</time>
      </trkpt>
      <trkpt lat="-21.08816" lon="55.40901">
        <ele>1167.3</ele>
        <time>2013-10-10T06:51:08Z</time>
      </trkpt>
      <trkpt lat="-21.08823" lon="55.40907">
        <ele>1168</ele>
        <time>2013-10-10T06:51:16Z</time>
      </trkpt>
      <trkpt lat="-21.0884" lon="55.40914">
        <ele>1171.7</ele>
        <time>2013-10-10T06:51:35Z</time>
      </trkpt>
      <trkpt lat="-21.08848" lon="55.40922">
        <ele>1172.7</ele>
        <time>2013-10-10T06:51:44Z</time>
      </trkpt>
      <trkpt lat="-21.08858" lon="55.40923">
        <ele>1173.6</ele>
        <time>2013-10-10T06:51:52Z</time>
      </trkpt>
      <trkpt lat="-21.08865" lon="55.4093">
        <ele>1174.1</ele>
        <time>2013-10-10T06:52:00Z</time>
      </trkpt>
      <trkpt lat="-21.08873" lon="55.40935">
        <ele>1175.5</ele>
        <time>2013-10-10T06:52:08Z</time>
      </trkpt>
      <trkpt lat="-21.08882" lon="55.40934">
        <ele>1176.2</ele>
        <time>2013-10-10T06:52:15Z</time>
      </trkpt>
      <trkpt lat="-21.08891" lon="55.40932">
        <ele>1178.2</ele>
        <time>2013-10-10T06:52:28Z</time>
      </trkpt>
      <trkpt lat="-21.08909" lon="55.40922">
        <ele>1181.5</ele>
        <time>2013-10-10T06:52:49Z</time>
      </trkpt>
      <trkpt lat="-21.08918" lon="55.40921">
        <ele>1183.1</ele>
        <time>2013-10-10T06:53:02Z</time>
      </trkpt>
      <trkpt lat="-21.08927" lon="55.40923">
        <ele>1184.9</ele>
        <time>2013-10-10T06:53:09Z</time>
      </trkpt>
      <trkpt lat="-21.0893" lon="55.40934">
        <ele>1188.5</ele>
        <time>2013-10-10T06:53:33Z</time>
      </trkpt>
      <trkpt lat="-21.08954" lon="55.40948">
        <ele>1190</ele>
        <time>2013-10-10T06:54:06Z</time>
      </trkpt>
      <trkpt lat="-21.08959" lon="55.40956">
        <ele>1193.1</ele>
        <time>2013-10-10T06:54:24Z</time>
      </trkpt>
      <trkpt lat="-21.08964" lon="55.40964">
        <ele>1195.2</ele>
        <time>2013-10-10T06:54:34Z</time>
      </trkpt>
      <trkpt lat="-21.08974" lon="55.40984">
        <ele>1199</ele>
        <time>2013-10-10T06:54:58Z</time>
      </trkpt>
      <trkpt lat="-21.08983" lon="55.40987">
        <ele>1203.6</ele>
        <time>2013-10-10T06:55:18Z</time>
      </trkpt>
      <trkpt lat="-21.08992" lon="55.40987">
        <ele>1207.4</ele>
        <time>2013-10-10T06:55:33Z</time>
      </trkpt>
      <trkpt lat="-21.09" lon="55.40982">
        <ele>1208.9</ele>
        <time>2013-10-10T06:55:45Z</time>
      </trkpt>
      <trkpt lat="-21.09002" lon="55.41011">
        <ele>1205</ele>
        <time>2013-10-10T06:56:21Z</time>
      </trkpt>
      <trkpt lat="-21.09003" lon="55.4102">
        <ele>1204</ele>
        <time>2013-10-10T06:56:34Z</time>
      </trkpt>
      <trkpt lat="-21.09007" lon="55.41029">
        <ele>1201.8</ele>
        <time>2013-10-10T06:56:44Z</time>
      </trkpt>
      <trkpt lat="-21.09" lon="55.41023">
        <ele>1198.9</ele>
        <time>2013-10-10T06:56:58Z</time>
      </trkpt>
      <trkpt lat="-21.08983" lon="55.41028">
        <ele>1193.5</ele>
        <time>2013-10-10T06:57:25Z</time>
      </trkpt>
      <trkpt lat="-21.08978" lon="55.41038">
        <ele>1191</ele>
        <time>2013-10-10T06:57:36Z</time>
      </trkpt>
      <trkpt lat="-21.08956" lon="55.41045">
        <ele>1195</ele>
        <time>2013-10-10T06:58:05Z</time>
      </trkpt>
      <trkpt lat="-21.08958" lon="55.41068">
        <ele>1199</ele>
        <time>2013-10-10T06:58:45Z</time>
      </trkpt>
      <trkpt lat="-21.08949" lon="55.41075">
        <ele>1197</ele>
        <time>2013-10-10T06:58:57Z</time>
      </trkpt>
      <trkpt lat="-21.0895" lon="55.41087">
        <ele>1195</ele>
        <time>2013-10-10T06:59:09Z</time>
      </trkpt>
      <trkpt lat="-21.08976" lon="55.41106">
        <ele>1195</ele>
        <time>2013-10-10T06:59:25Z</time>
      </trkpt>
      <trkpt lat="-21.08987" lon="55.41097">
        <ele>1197</ele>
        <time>2013-10-10T06:59:43Z</time>
      </trkpt>
      <trkpt lat="-21.08994" lon="55.4112">
        <ele>1201</ele>
        <time>2013-10-10T06:59:58Z</time>
      </trkpt>
      <trkpt lat="-21.09" lon="55.41129">
        <ele>1201</ele>
        <time>2013-10-10T07:00:05Z</time>
      </trkpt>
      <trkpt lat="-21.09007" lon="55.41136">
        <ele>1197</ele>
        <time>2013-10-10T07:00:17Z</time>
      </trkpt>
      <trkpt lat="-21.09024" lon="55.41155">
        <ele>1192</ele>
        <time>2013-10-10T07:00:45Z</time>
      </trkpt>
      <trkpt lat="-21.09034" lon="55.41162">
        <ele>1190</ele>
        <time>2013-10-10T07:00:57Z</time>
      </trkpt>
      <trkpt lat="-21.09036" lon="55.41176">
        <ele>1188</ele>
        <time>2013-10-10T07:01:09Z</time>
      </trkpt>
      <trkpt lat="-21.0904" lon="55.41185">
        <ele>1189</ele>
        <time>2013-10-10T07:01:25Z</time>
      </trkpt>
      <trkpt lat="-21.09057" lon="55.41196">
        <ele>1191</ele>
        <time>2013-10-10T07:01:57Z</time>
      </trkpt>
      <trkpt lat="-21.09065" lon="55.41201">
        <ele>1190</ele>
        <time>2013-10-10T07:03:18Z</time>
      </trkpt>
      <trkpt lat="-21.09058" lon="55.41204">
        <ele>1190</ele>
        <time>2013-10-10T07:05:38Z</time>
      </trkpt>
      <trkpt lat="-21.09056" lon="55.41194">
        <ele>1190</ele>
        <time>2013-10-10T07:10:52Z</time>
      </trkpt>
      <trkpt lat="-21.09055" lon="55.41196">
        <ele>1191</ele>
        <time>2013-10-10T07:12:42Z</time>
      </trkpt>
      <trkpt lat="-21.09055" lon="55.41196">
        <ele>1190</ele>
        <time>2013-10-10T07:14:18Z</time>
      </trkpt>
      <trkpt lat="-21.09057" lon="55.41195">
        <ele>1190.1</ele>
        <time>2013-10-10T07:16:45Z</time>
      </trkpt>
      <trkpt lat="-21.09042" lon="55.41206">
        <ele>1193.3</ele>
        <time>2013-10-10T07:25:19Z</time>
      </trkpt>
      <trkpt lat="-21.09033" lon="55.4121">
        <ele>1192.7</ele>
        <time>2013-10-10T07:25:44Z</time>
      </trkpt>
      <trkpt lat="-21.09024" lon="55.41213">
        <ele>1191.3</ele>
        <time>2013-10-10T07:26:08Z</time>
      </trkpt>
      <trkpt lat="-21.09007" lon="55.41224">
        <ele>1192.1</ele>
        <time>2013-10-10T07:26:44Z</time>
      </trkpt>
      <trkpt lat="-21.08999" lon="55.4123">
        <ele>1193</ele>
        <time>2013-10-10T07:26:58Z</time>
      </trkpt>
      <trkpt lat="-21.08997" lon="55.41239">
        <ele>1193.7</ele>
        <time>2013-10-10T07:27:09Z</time>
      </trkpt>
      <trkpt lat="-21.09006" lon="55.41258">
        <ele>1194.5</ele>
        <time>2013-10-10T07:28:22Z</time>
      </trkpt>
      <trkpt lat="-21.08996" lon="55.41259">
        <ele>1194</ele>
        <time>2013-10-10T07:29:04Z</time>
      </trkpt>
      <trkpt lat="-21.08974" lon="55.41253">
        <ele>1195</ele>
        <time>2013-10-10T07:29:12Z</time>
      </trkpt>
      <trkpt lat="-21.0898" lon="55.41271">
        <ele>1197</ele>
        <time>2013-10-10T07:29:24Z</time>
      </trkpt>
      <trkpt lat="-21.08991" lon="55.41289">
        <ele>1197</ele>
        <time>2013-10-10T07:29:45Z</time>
      </trkpt>
      <trkpt lat="-21.08993" lon="55.41299">
        <ele>1198</ele>
        <time>2013-10-10T07:30:25Z</time>
      </trkpt>
      <trkpt lat="-21.08999" lon="55.41311">
        <ele>1197</ele>
        <time>2013-10-10T07:31:58Z</time>
      </trkpt>
      <trkpt lat="-21.09023" lon="55.41346">
        <ele>1199</ele>
        <time>2013-10-10T07:32:41Z</time>
      </trkpt>
      <trkpt lat="-21.0903" lon="55.41354">
        <ele>1199</ele>
        <time>2013-10-10T07:32:49Z</time>
      </trkpt>
      <trkpt lat="-21.09169" lon="55.41513">
        <ele>1207</ele>
        <time>2013-10-10T07:35:51Z</time>
      </trkpt>
      <trkpt lat="-21.09232" lon="55.41949">
        <ele>1414.6</ele>
        <time>2013-10-10T08:02:27Z</time>
      </trkpt>
      <trkpt lat="-21.09232" lon="55.41959">
        <ele>1411.7</ele>
        <time>2013-10-10T08:02:37Z</time>
      </trkpt>
      <trkpt lat="-21.09228" lon="55.41968">
        <ele>1409.7</ele>
        <time>2013-10-10T08:02:46Z</time>
      </trkpt>
      <trkpt lat="-21.09224" lon="55.41978">
        <ele>1410.1</ele>
        <time>2013-10-10T08:02:54Z</time>
      </trkpt>
      <trkpt lat="-21.09217" lon="55.41986">
        <ele>1410</ele>
        <time>2013-10-10T08:03:03Z</time>
      </trkpt>
      <trkpt lat="-21.09217" lon="55.41996">
        <ele>1411.8</ele>
        <time>2013-10-10T08:03:10Z</time>
      </trkpt>
      <trkpt lat="-21.09218" lon="55.42006">
        <ele>1412.5</ele>
        <time>2013-10-10T08:03:19Z</time>
      </trkpt>
      <trkpt lat="-21.09221" lon="55.42026">
        <ele>1412.3</ele>
        <time>2013-10-10T08:03:29Z</time>
      </trkpt>
      <trkpt lat="-21.09223" lon="55.42036">
        <ele>1412.6</ele>
        <time>2013-10-10T08:03:38Z</time>
      </trkpt>
      <trkpt lat="-21.09222" lon="55.42046">
        <ele>1413.4</ele>
        <time>2013-10-10T08:03:45Z</time>
      </trkpt>
      <trkpt lat="-21.09214" lon="55.42051">
        <ele>1413</ele>
        <time>2013-10-10T08:04:04Z</time>
      </trkpt>
      <trkpt lat="-21.09205" lon="55.42052">
        <ele>1415</ele>
        <time>2013-10-10T08:04:13Z</time>
      </trkpt>
      <trkpt lat="-21.09197" lon="55.42057">
        <ele>1415.9</ele>
        <time>2013-10-10T08:04:24Z</time>
      </trkpt>
      <trkpt lat="-21.09184" lon="55.42072">
        <ele>1415.3</ele>
        <time>2013-10-10T08:04:40Z</time>
      </trkpt>
      <trkpt lat="-21.09179" lon="55.42082">
        <ele>1413</ele>
        <time>2013-10-10T08:04:47Z</time>
      </trkpt>
      <trkpt lat="-21.09169" lon="55.42087">
        <ele>1410.4</ele>
        <time>2013-10-10T08:04:58Z</time>
      </trkpt>
      <trkpt lat="-21.09162" lon="55.42095">
        <ele>1408.2</ele>
        <time>2013-10-10T08:05:05Z</time>
      </trkpt>
      <trkpt lat="-21.09152" lon="55.42098">
        <ele>1406.9</ele>
        <time>2013-10-10T08:05:12Z</time>
      </trkpt>
      <trkpt lat="-21.09145" lon="55.42105">
        <ele>1405.2</ele>
        <time>2013-10-10T08:05:19Z</time>
      </trkpt>
      <trkpt lat="-21.09136" lon="55.42106">
        <ele>1404.4</ele>
        <time>2013-10-10T08:05:23Z</time>
      </trkpt>
      <trkpt lat="-21.09127" lon="55.4211">
        <ele>1402.9</ele>
        <time>2013-10-10T08:05:32Z</time>
      </trkpt>
      <trkpt lat="-21.09112" lon="55.42121">
        <ele>1400.6</ele>
        <time>2013-10-10T08:05:47Z</time>
      </trkpt>
      <trkpt lat="-21.09104" lon="55.42127">
        <ele>1398.6</ele>
        <time>2013-10-10T08:05:56Z</time>
      </trkpt>
      <trkpt lat="-21.09095" lon="55.42128">
        <ele>1396.7</ele>
        <time>2013-10-10T08:06:03Z</time>
      </trkpt>
      <trkpt lat="-21.09086" lon="55.42129">
        <ele>1393.4</ele>
        <time>2013-10-10T08:06:12Z</time>
      </trkpt>
      <trkpt lat="-21.09082" lon="55.42138">
        <ele>1392.1</ele>
        <time>2013-10-10T08:06:17Z</time>
      </trkpt>
      <trkpt lat="-21.09081" lon="55.42148">
        <ele>1390.2</ele>
        <time>2013-10-10T08:06:26Z</time>
      </trkpt>
      <trkpt lat="-21.09072" lon="55.42145">
        <ele>1387.9</ele>
        <time>2013-10-10T08:06:34Z</time>
      </trkpt>
      <trkpt lat="-21.09058" lon="55.42144">
        <ele>1382.3</ele>
        <time>2013-10-10T08:06:53Z</time>
      </trkpt>
      <trkpt lat="-21.09054" lon="55.42153">
        <ele>1380.3</ele>
        <time>2013-10-10T08:07:03Z</time>
      </trkpt>
      <trkpt lat="-21.09049" lon="55.42161">
        <ele>1376.8</ele>
        <time>2013-10-10T08:07:17Z</time>
      </trkpt>
      <trkpt lat="-21.09042" lon="55.42168">
        <ele>1374.8</ele>
        <time>2013-10-10T08:07:32Z</time>
      </trkpt>
      <trkpt lat="-21.09039" lon="55.42178">
        <ele>1373.1</ele>
        <time>2013-10-10T08:07:37Z</time>
      </trkpt>
      <trkpt lat="-21.09035" lon="55.42198">
        <ele>1372.1</ele>
        <time>2013-10-10T08:07:47Z</time>
      </trkpt>
      <trkpt lat="-21.09031" lon="55.42208">
        <ele>1372.4</ele>
        <time>2013-10-10T08:07:52Z</time>
      </trkpt>
      <trkpt lat="-21.09025" lon="55.42217">
        <ele>1371.7</ele>
        <time>2013-10-10T08:07:58Z</time>
      </trkpt>
      <trkpt lat="-21.09017" lon="55.42228">
        <ele>1371</ele>
        <time>2013-10-10T08:08:05Z</time>
      </trkpt>
      <trkpt lat="-21.0901" lon="55.42237">
        <ele>1371.1</ele>
        <time>2013-10-10T08:08:12Z</time>
      </trkpt>
      <trkpt lat="-21.09005" lon="55.42246">
        <ele>1371.4</ele>
        <time>2013-10-10T08:08:19Z</time>
      </trkpt>
      <trkpt lat="-21.09" lon="55.42254">
        <ele>1371</ele>
        <time>2013-10-10T08:08:24Z</time>
      </trkpt>
      <trkpt lat="-21.08994" lon="55.42264">
        <ele>1371.7</ele>
        <time>2013-10-10T08:08:30Z</time>
      </trkpt>
      <trkpt lat="-21.08985" lon="55.42267">
        <ele>1373</ele>
        <time>2013-10-10T08:08:40Z</time>
      </trkpt>
      <trkpt lat="-21.08969" lon="55.4228">
        <ele>1372</ele>
        <time>2013-10-10T08:09:00Z</time>
      </trkpt>
      <trkpt lat="-21.08961" lon="55.42286">
        <ele>1373.3</ele>
        <time>2013-10-10T08:09:07Z</time>
      </trkpt>
      <trkpt lat="-21.08951" lon="55.42286">
        <ele>1373.2</ele>
        <time>2013-10-10T08:09:14Z</time>
      </trkpt>
      <trkpt lat="-21.08942" lon="55.42289">
        <ele>1372.7</ele>
        <time>2013-10-10T08:09:21Z</time>
      </trkpt>
      <trkpt lat="-21.08933" lon="55.42289">
        <ele>1372.3</ele>
        <time>2013-10-10T08:09:30Z</time>
      </trkpt>
      <trkpt lat="-21.08924" lon="55.42293">
        <ele>1370.8</ele>
        <time>2013-10-10T08:09:37Z</time>
      </trkpt>
      <trkpt lat="-21.08914" lon="55.42293">
        <ele>1370.7</ele>
        <time>2013-10-10T08:09:46Z</time>
      </trkpt>
      <trkpt lat="-21.08916" lon="55.42294">
        <ele>1371.5</ele>
        <time>2013-10-10T08:10:47Z</time>
      </trkpt>
      <trkpt lat="-21.08909" lon="55.42346">
        <ele>1370</ele>
        <time>2013-10-10T08:11:00Z</time>
      </trkpt>
      <trkpt lat="-21.08907" lon="55.42357">
        <ele>1369.8</ele>
        <time>2013-10-10T08:11:05Z</time>
      </trkpt>
      <trkpt lat="-21.08904" lon="55.42367">
        <ele>1369.3</ele>
        <time>2013-10-10T08:11:11Z</time>
      </trkpt>
      <trkpt lat="-21.08899" lon="55.42375">
        <ele>1370.2</ele>
        <time>2013-10-10T08:11:22Z</time>
      </trkpt>
      <trkpt lat="-21.08883" lon="55.42378">
        <ele>1371</ele>
        <time>2013-10-10T08:11:31Z</time>
      </trkpt>
      <trkpt lat="-21.08877" lon="55.42386">
        <ele>1372</ele>
        <time>2013-10-10T08:11:41Z</time>
      </trkpt>
      <trkpt lat="-21.08873" lon="55.42395">
        <ele>1372</ele>
        <time>2013-10-10T08:11:47Z</time>
      </trkpt>
      <trkpt lat="-21.08869" lon="55.42406">
        <ele>1372.7</ele>
        <time>2013-10-10T08:11:55Z</time>
      </trkpt>
      <trkpt lat="-21.08857" lon="55.42422">
        <ele>1372</ele>
        <time>2013-10-10T08:12:12Z</time>
      </trkpt>
      <trkpt lat="-21.08849" lon="55.42427">
        <ele>1367.8</ele>
        <time>2013-10-10T08:12:28Z</time>
      </trkpt>
      <trkpt lat="-21.0884" lon="55.4244">
        <ele>1366</ele>
        <time>2013-10-10T08:12:40Z</time>
      </trkpt>
      <trkpt lat="-21.0885" lon="55.4244">
        <ele>1368</ele>
        <time>2013-10-10T08:12:56Z</time>
      </trkpt>
      <trkpt lat="-21.08832" lon="55.42431">
        <ele>1368.3</ele>
        <time>2013-10-10T08:13:13Z</time>
      </trkpt>
      <trkpt lat="-21.08822" lon="55.42431">
        <ele>1367.2</ele>
        <time>2013-10-10T08:13:19Z</time>
      </trkpt>
      <trkpt lat="-21.08813" lon="55.42429">
        <ele>1366.9</ele>
        <time>2013-10-10T08:13:25Z</time>
      </trkpt>
      <trkpt lat="-21.08805" lon="55.42424">
        <ele>1367.6</ele>
        <time>2013-10-10T08:13:32Z</time>
      </trkpt>
      <trkpt lat="-21.08793" lon="55.42416">
        <ele>1367</ele>
        <time>2013-10-10T08:13:41Z</time>
      </trkpt>
      <trkpt lat="-21.08782" lon="55.42392">
        <ele>1369.3</ele>
        <time>2013-10-10T08:13:52Z</time>
      </trkpt>
      <trkpt lat="-21.08772" lon="55.42395">
        <ele>1366.3</ele>
        <time>2013-10-10T08:14:03Z</time>
      </trkpt>
      <trkpt lat="-21.08763" lon="55.4241">
        <ele>1361</ele>
        <time>2013-10-10T08:14:37Z</time>
      </trkpt>
      <trkpt lat="-21.08756" lon="55.42417">
        <ele>1356.3</ele>
        <time>2013-10-10T08:14:50Z</time>
      </trkpt>
      <trkpt lat="-21.08747" lon="55.42418">
        <ele>1352.7</ele>
        <time>2013-10-10T08:15:00Z</time>
      </trkpt>
      <trkpt lat="-21.08738" lon="55.42419">
        <ele>1349.8</ele>
        <time>2013-10-10T08:15:14Z</time>
      </trkpt>
      <trkpt lat="-21.08719" lon="55.42423">
        <ele>1345.3</ele>
        <time>2013-10-10T08:15:29Z</time>
      </trkpt>
      <trkpt lat="-21.08711" lon="55.42428">
        <ele>1343.4</ele>
        <time>2013-10-10T08:15:36Z</time>
      </trkpt>
      <trkpt lat="-21.08701" lon="55.42431">
        <ele>1341.9</ele>
        <time>2013-10-10T08:15:44Z</time>
      </trkpt>
      <trkpt lat="-21.08694" lon="55.42438">
        <ele>1339.8</ele>
        <time>2013-10-10T08:15:50Z</time>
      </trkpt>
      <trkpt lat="-21.08687" lon="55.42443">
        <ele>1338.8</ele>
        <time>2013-10-10T08:15:59Z</time>
      </trkpt>
      <trkpt lat="-21.08674" lon="55.42445">
        <ele>1338</ele>
        <time>2013-10-10T08:16:13Z</time>
      </trkpt>
      <trkpt lat="-21.0866" lon="55.42479">
        <ele>1341.9</ele>
        <time>2013-10-10T08:16:39Z</time>
      </trkpt>
      <trkpt lat="-21.08658" lon="55.4249">
        <ele>1341.8</ele>
        <time>2013-10-10T08:16:43Z</time>
      </trkpt>
      <trkpt lat="-21.08652" lon="55.4252">
        <ele>1341</ele>
        <time>2013-10-10T08:16:52Z</time>
      </trkpt>
      <trkpt lat="-21.08641" lon="55.42554">
        <ele>1342</ele>
        <time>2013-10-10T08:17:03Z</time>
      </trkpt>
      <trkpt lat="-21.08633" lon="55.42549">
        <ele>1343.4</ele>
        <time>2013-10-10T08:17:17Z</time>
      </trkpt>
      <trkpt lat="-21.08626" lon="55.42556">
        <ele>1345</ele>
        <time>2013-10-10T08:17:26Z</time>
      </trkpt>
      <trkpt lat="-21.08619" lon="55.42563">
        <ele>1345.8</ele>
        <time>2013-10-10T08:17:34Z</time>
      </trkpt>
      <trkpt lat="-21.0862" lon="55.42573">
        <ele>1347.2</ele>
        <time>2013-10-10T08:17:49Z</time>
      </trkpt>
      <trkpt lat="-21.08617" lon="55.42593">
        <ele>1350.9</ele>
        <time>2013-10-10T08:18:17Z</time>
      </trkpt>
      <trkpt lat="-21.08614" lon="55.42603">
        <ele>1351.9</ele>
        <time>2013-10-10T08:18:24Z</time>
      </trkpt>
      <trkpt lat="-21.08612" lon="55.42612">
        <ele>1352.4</ele>
        <time>2013-10-10T08:18:30Z</time>
      </trkpt>
      <trkpt lat="-21.08603" lon="55.42616">
        <ele>1353.5</ele>
        <time>2013-10-10T08:18:37Z</time>
      </trkpt>
      <trkpt lat="-21.08599" lon="55.42624">
        <ele>1354.9</ele>
        <time>2013-10-10T08:18:45Z</time>
      </trkpt>
      <trkpt lat="-21.08599" lon="55.42635">
        <ele>1357.7</ele>
        <time>2013-10-10T08:18:56Z</time>
      </trkpt>
      <trkpt lat="-21.08546" lon="55.42671">
        <ele>1380</ele>
        <time>2013-10-10T08:22:31Z</time>
      </trkpt>
      <trkpt lat="-21.08538" lon="55.42688">
        <ele>1384</ele>
        <time>2013-10-10T08:24:26Z</time>
      </trkpt>
      <trkpt lat="-21.08525" lon="55.42683">
        <ele>1387</ele>
        <time>2013-10-10T08:24:49Z</time>
      </trkpt>
      <trkpt lat="-21.08506" lon="55.42683">
        <ele>1390</ele>
        <time>2013-10-10T08:25:19Z</time>
      </trkpt>
      <trkpt lat="-21.08503" lon="55.42695">
        <ele>1395</ele>
        <time>2013-10-10T08:25:50Z</time>
      </trkpt>
      <trkpt lat="-21.08498" lon="55.42707">
        <ele>1399</ele>
        <time>2013-10-10T08:26:10Z</time>
      </trkpt>
      <trkpt lat="-21.08482" lon="55.42707">
        <ele>1407</ele>
        <time>2013-10-10T08:27:01Z</time>
      </trkpt>
      <trkpt lat="-21.08462" lon="55.42709">
        <ele>1409</ele>
        <time>2013-10-10T08:27:11Z</time>
      </trkpt>
      <trkpt lat="-21.08468" lon="55.42722">
        <ele>1411</ele>
        <time>2013-10-10T08:27:23Z</time>
      </trkpt>
      <trkpt lat="-21.08471" lon="55.42724">
        <ele>1420</ele>
        <time>2013-10-10T08:28:22Z</time>
      </trkpt>
      <trkpt lat="-21.08463" lon="55.42731">
        <ele>1423</ele>
        <time>2013-10-10T08:28:38Z</time>
      </trkpt>
      <trkpt lat="-21.08452" lon="55.4273">
        <ele>1437</ele>
        <time>2013-10-10T08:30:29Z</time>
      </trkpt>
      <trkpt lat="-21.08442" lon="55.42729">
        <ele>1433.6</ele>
        <time>2013-10-10T08:30:43Z</time>
      </trkpt>
      <trkpt lat="-21.08435" lon="55.42723">
        <ele>1432</ele>
        <time>2013-10-10T08:30:54Z</time>
      </trkpt>
      <trkpt lat="-21.08428" lon="55.42705">
        <ele>1425.2</ele>
        <time>2013-10-10T08:31:21Z</time>
      </trkpt>
      <trkpt lat="-21.08425" lon="55.42696">
        <ele>1420.2</ele>
        <time>2013-10-10T08:31:35Z</time>
      </trkpt>
      <trkpt lat="-21.08417" lon="55.42699">
        <ele>1412.8</ele>
        <time>2013-10-10T08:32:02Z</time>
      </trkpt>
      <trkpt lat="-21.08403" lon="55.42686">
        <ele>1409.4</ele>
        <time>2013-10-10T08:32:38Z</time>
      </trkpt>
      <trkpt lat="-21.08399" lon="55.42677">
        <ele>1405.1</ele>
        <time>2013-10-10T08:32:53Z</time>
      </trkpt>
      <trkpt lat="-21.08394" lon="55.42685">
        <ele>1403</ele>
        <time>2013-10-10T08:33:04Z</time>
      </trkpt>
      <trkpt lat="-21.08378" lon="55.42681">
        <ele>1393</ele>
        <time>2013-10-10T08:33:56Z</time>
      </trkpt>
      <trkpt lat="-21.08371" lon="55.42688">
        <ele>1390</ele>
        <time>2013-10-10T08:34:13Z</time>
      </trkpt>
      <trkpt lat="-21.08373" lon="55.42688">
        <ele>1381</ele>
        <time>2013-10-10T08:34:52Z</time>
      </trkpt>
      <trkpt lat="-21.08363" lon="55.42683">
        <ele>1383.3</ele>
        <time>2013-10-10T08:35:02Z</time>
      </trkpt>
      <trkpt lat="-21.08354" lon="55.42687">
        <ele>1381.4</ele>
        <time>2013-10-10T08:35:13Z</time>
      </trkpt>
      <trkpt lat="-21.0835" lon="55.42696">
        <ele>1377.9</ele>
        <time>2013-10-10T08:35:21Z</time>
      </trkpt>
      <trkpt lat="-21.08332" lon="55.42696">
        <ele>1366.8</ele>
        <time>2013-10-10T08:36:12Z</time>
      </trkpt>
      <trkpt lat="-21.08328" lon="55.42687">
        <ele>1367.1</ele>
        <time>2013-10-10T08:36:23Z</time>
      </trkpt>
      <trkpt lat="-21.0831" lon="55.42693">
        <ele>1364.5</ele>
        <time>2013-10-10T08:36:43Z</time>
      </trkpt>
      <trkpt lat="-21.083" lon="55.42693">
        <ele>1362.4</ele>
        <time>2013-10-10T08:36:52Z</time>
      </trkpt>
      <trkpt lat="-21.08294" lon="55.427">
        <ele>1363.4</ele>
        <time>2013-10-10T08:36:57Z</time>
      </trkpt>
      <trkpt lat="-21.08286" lon="55.42704">
        <ele>1363.6</ele>
        <time>2013-10-10T08:37:04Z</time>
      </trkpt>
      <trkpt lat="-21.08276" lon="55.42713">
        <ele>1363</ele>
        <time>2013-10-10T08:37:12Z</time>
      </trkpt>
      <trkpt lat="-21.08281" lon="55.42722">
        <ele>1365.1</ele>
        <time>2013-10-10T08:37:23Z</time>
      </trkpt>
      <trkpt lat="-21.08277" lon="55.42732">
        <ele>1361.3</ele>
        <time>2013-10-10T08:37:31Z</time>
      </trkpt>
      <trkpt lat="-21.0827" lon="55.42752">
        <ele>1360.7</ele>
        <time>2013-10-10T08:37:48Z</time>
      </trkpt>
      <trkpt lat="-21.08262" lon="55.42757">
        <ele>1359.4</ele>
        <time>2013-10-10T08:37:58Z</time>
      </trkpt>
      <trkpt lat="-21.08253" lon="55.42761">
        <ele>1357.7</ele>
        <time>2013-10-10T08:38:07Z</time>
      </trkpt>
      <trkpt lat="-21.08244" lon="55.42765">
        <ele>1358.3</ele>
        <time>2013-10-10T08:38:17Z</time>
      </trkpt>
      <trkpt lat="-21.08229" lon="55.42768">
        <ele>1358</ele>
        <time>2013-10-10T08:38:37Z</time>
      </trkpt>
      <trkpt lat="-21.08206" lon="55.42719">
        <ele>1367.3</ele>
        <time>2013-10-10T08:39:30Z</time>
      </trkpt>
      <trkpt lat="-21.08197" lon="55.42714">
        <ele>1366.1</ele>
        <time>2013-10-10T08:39:38Z</time>
      </trkpt>
      <trkpt lat="-21.08189" lon="55.42708">
        <ele>1363.2</ele>
        <time>2013-10-10T08:39:45Z</time>
      </trkpt>
      <trkpt lat="-21.08177" lon="55.42697">
        <ele>1360.8</ele>
        <time>2013-10-10T08:40:00Z</time>
      </trkpt>
      <trkpt lat="-21.08174" lon="55.42688">
        <ele>1358.2</ele>
        <time>2013-10-10T08:40:07Z</time>
      </trkpt>
      <trkpt lat="-21.08171" lon="55.42677">
        <ele>1355.6</ele>
        <time>2013-10-10T08:40:15Z</time>
      </trkpt>
      <trkpt lat="-21.08168" lon="55.42668">
        <ele>1356.4</ele>
        <time>2013-10-10T08:40:22Z</time>
      </trkpt>
      <trkpt lat="-21.08164" lon="55.42659">
        <ele>1356.4</ele>
        <time>2013-10-10T08:40:30Z</time>
      </trkpt>
      <trkpt lat="-21.08156" lon="55.42653">
        <ele>1355.2</ele>
        <time>2013-10-10T08:40:40Z</time>
      </trkpt>
      <trkpt lat="-21.08146" lon="55.42654">
        <ele>1354.8</ele>
        <time>2013-10-10T08:40:47Z</time>
      </trkpt>
      <trkpt lat="-21.08126" lon="55.42655">
        <ele>1354.9</ele>
        <time>2013-10-10T08:41:00Z</time>
      </trkpt>
      <trkpt lat="-21.08117" lon="55.42658">
        <ele>1355.5</ele>
        <time>2013-10-10T08:41:05Z</time>
      </trkpt>
      <trkpt lat="-21.08109" lon="55.42662">
        <ele>1354.7</ele>
        <time>2013-10-10T08:41:12Z</time>
      </trkpt>
      <trkpt lat="-21.08099" lon="55.42669">
        <ele>1353</ele>
        <time>2013-10-10T08:41:25Z</time>
      </trkpt>
      <trkpt lat="-21.08089" lon="55.42685">
        <ele>1354</ele>
        <time>2013-10-10T08:41:33Z</time>
      </trkpt>
      <trkpt lat="-21.08083" lon="55.42693">
        <ele>1355</ele>
        <time>2013-10-10T08:41:39Z</time>
      </trkpt>
      <trkpt lat="-21.08077" lon="55.42685">
        <ele>1357</ele>
        <time>2013-10-10T08:41:51Z</time>
      </trkpt>
      <trkpt lat="-21.08057" lon="55.42677">
        <ele>1359</ele>
        <time>2013-10-10T08:42:06Z</time>
      </trkpt>
      <trkpt lat="-21.08047" lon="55.42682">
        <ele>1360</ele>
        <time>2013-10-10T08:42:14Z</time>
      </trkpt>
      <trkpt lat="-21.08038" lon="55.42685">
        <ele>1360.5</ele>
        <time>2013-10-10T08:42:23Z</time>
      </trkpt>
      <trkpt lat="-21.08021" lon="55.42672">
        <ele>1363</ele>
        <time>2013-10-10T08:42:45Z</time>
      </trkpt>
      <trkpt lat="-21.08011" lon="55.4265">
        <ele>1364</ele>
        <time>2013-10-10T08:43:00Z</time>
      </trkpt>
      <trkpt lat="-21.07999" lon="55.42646">
        <ele>1366</ele>
        <time>2013-10-10T08:43:14Z</time>
      </trkpt>
      <trkpt lat="-21.08008" lon="55.42639">
        <ele>1369</ele>
        <time>2013-10-10T08:43:26Z</time>
      </trkpt>
      <trkpt lat="-21.07999" lon="55.42644">
        <ele>1375</ele>
        <time>2013-10-10T08:44:02Z</time>
      </trkpt>
      <trkpt lat="-21.07986" lon="55.42632">
        <ele>1380</ele>
        <time>2013-10-10T08:44:26Z</time>
      </trkpt>
      <trkpt lat="-21.08007" lon="55.42628">
        <ele>1380</ele>
        <time>2013-10-10T08:44:34Z</time>
      </trkpt>
      <trkpt lat="-21.08011" lon="55.42615">
        <ele>1382</ele>
        <time>2013-10-10T08:44:42Z</time>
      </trkpt>
      <trkpt lat="-21.08006" lon="55.42604">
        <ele>1384</ele>
        <time>2013-10-10T08:44:58Z</time>
      </trkpt>
      <trkpt lat="-21.0799" lon="55.42594">
        <ele>1387</ele>
        <time>2013-10-10T08:45:22Z</time>
      </trkpt>
      <trkpt lat="-21.07985" lon="55.42583">
        <ele>1388</ele>
        <time>2013-10-10T08:45:28Z</time>
      </trkpt>
      <trkpt lat="-21.07981" lon="55.42572">
        <ele>1388</ele>
        <time>2013-10-10T08:45:34Z</time>
      </trkpt>
      <trkpt lat="-21.07971" lon="55.42571">
        <ele>1393</ele>
        <time>2013-10-10T08:45:59Z</time>
      </trkpt>
      <trkpt lat="-21.07969" lon="55.42556">
        <ele>1393</ele>
        <time>2013-10-10T08:46:09Z</time>
      </trkpt>
      <trkpt lat="-21.07953" lon="55.42547">
        <ele>1396.4</ele>
        <time>2013-10-10T08:46:22Z</time>
      </trkpt>
      <trkpt lat="-21.07925" lon="55.42525">
        <ele>1400</ele>
        <time>2013-10-10T08:46:46Z</time>
      </trkpt>
      <trkpt lat="-21.07933" lon="55.42503">
        <ele>1404</ele>
        <time>2013-10-10T08:47:08Z</time>
      </trkpt>
      <trkpt lat="-21.07941" lon="55.42479">
        <ele>1403.9</ele>
        <time>2013-10-10T08:47:37Z</time>
      </trkpt>
      <trkpt lat="-21.07932" lon="55.42483">
        <ele>1404.1</ele>
        <time>2013-10-10T08:47:41Z</time>
      </trkpt>
      <trkpt lat="-21.07922" lon="55.42484">
        <ele>1405</ele>
        <time>2013-10-10T08:47:47Z</time>
      </trkpt>
      <trkpt lat="-21.07922" lon="55.42474">
        <ele>1405.2</ele>
        <time>2013-10-10T08:47:55Z</time>
      </trkpt>
      <trkpt lat="-21.07924" lon="55.42461">
        <ele>1407</ele>
        <time>2013-10-10T08:48:04Z</time>
      </trkpt>
      <trkpt lat="-21.07924" lon="55.42447">
        <ele>1408</ele>
        <time>2013-10-10T08:48:12Z</time>
      </trkpt>
      <trkpt lat="-21.07922" lon="55.42433">
        <ele>1408.6</ele>
        <time>2013-10-10T08:48:36Z</time>
      </trkpt>
      <trkpt lat="-21.07914" lon="55.42429">
        <ele>1407.4</ele>
        <time>2013-10-10T08:48:43Z</time>
      </trkpt>
      <trkpt lat="-21.07906" lon="55.42423">
        <ele>1405.1</ele>
        <time>2013-10-10T08:48:57Z</time>
      </trkpt>
      <trkpt lat="-21.07898" lon="55.42417">
        <ele>1403.4</ele>
        <time>2013-10-10T08:49:06Z</time>
      </trkpt>
      <trkpt lat="-21.07889" lon="55.42417">
        <ele>1400.9</ele>
        <time>2013-10-10T08:49:14Z</time>
      </trkpt>
      <trkpt lat="-21.07879" lon="55.42421">
        <ele>1399.3</ele>
        <time>2013-10-10T08:49:21Z</time>
      </trkpt>
      <trkpt lat="-21.07862" lon="55.42429">
        <ele>1398.1</ele>
        <time>2013-10-10T08:49:33Z</time>
      </trkpt>
      <trkpt lat="-21.07852" lon="55.42433">
        <ele>1398.6</ele>
        <time>2013-10-10T08:49:41Z</time>
      </trkpt>
      <trkpt lat="-21.07846" lon="55.42425">
        <ele>1398.1</ele>
        <time>2013-10-10T08:49:52Z</time>
      </trkpt>
      <trkpt lat="-21.07844" lon="55.42415">
        <ele>1396.8</ele>
        <time>2013-10-10T08:50:00Z</time>
      </trkpt>
      <trkpt lat="-21.07844" lon="55.42405">
        <ele>1394.9</ele>
        <time>2013-10-10T08:50:07Z</time>
      </trkpt>
      <trkpt lat="-21.07842" lon="55.42395">
        <ele>1394.1</ele>
        <time>2013-10-10T08:50:15Z</time>
      </trkpt>
      <trkpt lat="-21.07836" lon="55.42388">
        <ele>1391.3</ele>
        <time>2013-10-10T08:50:22Z</time>
      </trkpt>
      <trkpt lat="-21.07829" lon="55.42382">
        <ele>1390.5</ele>
        <time>2013-10-10T08:50:29Z</time>
      </trkpt>
      <trkpt lat="-21.0781" lon="55.42376">
        <ele>1389.5</ele>
        <time>2013-10-10T08:50:47Z</time>
      </trkpt>
      <trkpt lat="-21.07802" lon="55.42371">
        <ele>1389.1</ele>
        <time>2013-10-10T08:50:54Z</time>
      </trkpt>
      <trkpt lat="-21.07793" lon="55.42366">
        <ele>1389.3</ele>
        <time>2013-10-10T08:51:01Z</time>
      </trkpt>
      <trkpt lat="-21.07784" lon="55.42363">
        <ele>1388.2</ele>
        <time>2013-10-10T08:51:12Z</time>
      </trkpt>
      <trkpt lat="-21.07777" lon="55.42356">
        <ele>1386.9</ele>
        <time>2013-10-10T08:51:22Z</time>
      </trkpt>
      <trkpt lat="-21.07768" lon="55.42351">
        <ele>1384.9</ele>
        <time>2013-10-10T08:51:30Z</time>
      </trkpt>
      <trkpt lat="-21.07759" lon="55.4235">
        <ele>1385.6</ele>
        <time>2013-10-10T08:51:36Z</time>
      </trkpt>
      <trkpt lat="-21.07752" lon="55.42332">
        <ele>1383.7</ele>
        <time>2013-10-10T08:52:02Z</time>
      </trkpt>
      <trkpt lat="-21.07747" lon="55.42323">
        <ele>1382.5</ele>
        <time>2013-10-10T08:52:10Z</time>
      </trkpt>
      <trkpt lat="-21.07739" lon="55.42318">
        <ele>1382.4</ele>
        <time>2013-10-10T08:52:20Z</time>
      </trkpt>
      <trkpt lat="-21.0773" lon="55.42313">
        <ele>1382.5</ele>
        <time>2013-10-10T08:52:27Z</time>
      </trkpt>
      <trkpt lat="-21.07721" lon="55.42311">
        <ele>1381.8</ele>
        <time>2013-10-10T08:52:33Z</time>
      </trkpt>
      <trkpt lat="-21.07712" lon="55.42306">
        <ele>1382</ele>
        <time>2013-10-10T08:52:41Z</time>
      </trkpt>
      <trkpt lat="-21.07693" lon="55.42301">
        <ele>1380.3</ele>
        <time>2013-10-10T08:52:58Z</time>
      </trkpt>
      <trkpt lat="-21.07684" lon="55.42299">
        <ele>1380</ele>
        <time>2013-10-10T08:53:04Z</time>
      </trkpt>
      <trkpt lat="-21.07675" lon="55.42296">
        <ele>1379.8</ele>
        <time>2013-10-10T08:53:17Z</time>
      </trkpt>
      <trkpt lat="-21.07668" lon="55.42304">
        <ele>1378.8</ele>
        <time>2013-10-10T08:54:56Z</time>
      </trkpt>
      <trkpt lat="-21.07668" lon="55.42284">
        <ele>1379.1</ele>
        <time>2013-10-10T09:02:38Z</time>
      </trkpt>
      <trkpt lat="-21.07664" lon="55.42304">
        <ele>1379.3</ele>
        <time>2013-10-10T09:04:02Z</time>
      </trkpt>
      <trkpt lat="-21.07668" lon="55.42307">
        <ele>1378.9</ele>
        <time>2013-10-10T09:05:47Z</time>
      </trkpt>
      <trkpt lat="-21.07678" lon="55.4229">
        <ele>1379.2</ele>
        <time>2013-10-10T09:07:56Z</time>
      </trkpt>
      <trkpt lat="-21.07697" lon="55.42268">
        <ele>1379</ele>
        <time>2013-10-10T09:08:01Z</time>
      </trkpt>
      <trkpt lat="-21.07704" lon="55.42261">
        <ele>1379</ele>
        <time>2013-10-10T09:08:05Z</time>
      </trkpt>
      <trkpt lat="-21.07699" lon="55.42269">
        <ele>1379.7</ele>
        <time>2013-10-10T09:08:12Z</time>
      </trkpt>
      <trkpt lat="-21.07692" lon="55.42277">
        <ele>1380.2</ele>
        <time>2013-10-10T09:08:16Z</time>
      </trkpt>
      <trkpt lat="-21.07685" lon="55.42283">
        <ele>1380.1</ele>
        <time>2013-10-10T09:08:21Z</time>
      </trkpt>
      <trkpt lat="-21.07685" lon="55.42283">
        <ele>1380.1</ele>
        <time>2013-10-10T09:08:21Z</time>
      </trkpt>
      <trkpt lat="-21.07679" lon="55.42291">
        <ele>1380.5</ele>
        <time>2013-10-10T09:08:29Z</time>
      </trkpt>
      <trkpt lat="-21.07671" lon="55.42298">
        <ele>1379</ele>
        <time>2013-10-10T09:09:41Z</time>
      </trkpt>
      <trkpt lat="-21.07672" lon="55.42298">
        <ele>1380.5</ele>
        <time>2013-10-10T09:10:44Z</time>
      </trkpt>
      <trkpt lat="-21.07666" lon="55.42306">
        <ele>1379.6</ele>
        <time>2013-10-10T09:11:42Z</time>
      </trkpt>
      <trkpt lat="-21.07664" lon="55.42316">
        <ele>1380.7</ele>
        <time>2013-10-10T09:14:48Z</time>
      </trkpt>
      <trkpt lat="-21.07662" lon="55.42326">
        <ele>1379.4</ele>
        <time>2013-10-10T09:14:55Z</time>
      </trkpt>
      <trkpt lat="-21.07651" lon="55.42343">
        <ele>1380.9</ele>
        <time>2013-10-10T09:15:16Z</time>
      </trkpt>
      <trkpt lat="-21.07645" lon="55.42352">
        <ele>1381.6</ele>
        <time>2013-10-10T09:15:25Z</time>
      </trkpt>
      <trkpt lat="-21.07642" lon="55.42361">
        <ele>1382</ele>
        <time>2013-10-10T09:15:35Z</time>
      </trkpt>
      <trkpt lat="-21.07638" lon="55.42372">
        <ele>1382.2</ele>
        <time>2013-10-10T09:15:47Z</time>
      </trkpt>
      <trkpt lat="-21.07642" lon="55.42381">
        <ele>1383.8</ele>
        <time>2013-10-10T09:15:58Z</time>
      </trkpt>
      <trkpt lat="-21.07637" lon="55.42401">
        <ele>1386.1</ele>
        <time>2013-10-10T09:16:42Z</time>
      </trkpt>
      <trkpt lat="-21.07641" lon="55.42411">
        <ele>1386.6</ele>
        <time>2013-10-10T09:16:48Z</time>
      </trkpt>
      <trkpt lat="-21.07643" lon="55.42421">
        <ele>1388.7</ele>
        <time>2013-10-10T09:16:56Z</time>
      </trkpt>
      <trkpt lat="-21.07646" lon="55.42432">
        <ele>1390.4</ele>
        <time>2013-10-10T09:17:03Z</time>
      </trkpt>
      <trkpt lat="-21.07631" lon="55.42447">
        <ele>1393</ele>
        <time>2013-10-10T09:17:29Z</time>
      </trkpt>
      <trkpt lat="-21.0764" lon="55.42448">
        <ele>1393.8</ele>
        <time>2013-10-10T09:17:57Z</time>
      </trkpt>
      <trkpt lat="-21.07637" lon="55.4246">
        <ele>1396.8</ele>
        <time>2013-10-10T09:18:09Z</time>
      </trkpt>
      <trkpt lat="-21.07639" lon="55.42481">
        <ele>1398.1</ele>
        <time>2013-10-10T09:18:36Z</time>
      </trkpt>
      <trkpt lat="-21.07644" lon="55.42488">
        <ele>1401.6</ele>
        <time>2013-10-10T09:18:51Z</time>
      </trkpt>
      <trkpt lat="-21.07646" lon="55.42498">
        <ele>1403.9</ele>
        <time>2013-10-10T09:19:08Z</time>
      </trkpt>
      <trkpt lat="-21.07645" lon="55.42508">
        <ele>1407.9</ele>
        <time>2013-10-10T09:19:28Z</time>
      </trkpt>
      <trkpt lat="-21.0763" lon="55.42528">
        <ele>1410</ele>
        <time>2013-10-10T09:19:49Z</time>
      </trkpt>
      <trkpt lat="-21.07623" lon="55.42535">
        <ele>1413.6</ele>
        <time>2013-10-10T09:20:08Z</time>
      </trkpt>
      <trkpt lat="-21.07614" lon="55.42537">
        <ele>1414.3</ele>
        <time>2013-10-10T09:20:14Z</time>
      </trkpt>
      <trkpt lat="-21.07608" lon="55.42545">
        <ele>1416.5</ele>
        <time>2013-10-10T09:20:25Z</time>
      </trkpt>
      <trkpt lat="-21.07592" lon="55.42562">
        <ele>1419</ele>
        <time>2013-10-10T09:20:44Z</time>
      </trkpt>
      <trkpt lat="-21.07579" lon="55.42562">
        <ele>1423.7</ele>
        <time>2013-10-10T09:21:04Z</time>
      </trkpt>
      <trkpt lat="-21.07582" lon="55.4255">
        <ele>1422</ele>
        <time>2013-10-10T09:21:11Z</time>
      </trkpt>
      <trkpt lat="-21.07592" lon="55.4255">
        <ele>1424.3</ele>
        <time>2013-10-10T09:21:19Z</time>
      </trkpt>
      <trkpt lat="-21.07601" lon="55.4256">
        <ele>1425</ele>
        <time>2013-10-10T09:21:24Z</time>
      </trkpt>
      <trkpt lat="-21.07606" lon="55.42575">
        <ele>1425.6</ele>
        <time>2013-10-10T09:21:29Z</time>
      </trkpt>
      <trkpt lat="-21.07614" lon="55.42569">
        <ele>1427.2</ele>
        <time>2013-10-10T09:21:37Z</time>
      </trkpt>
      <trkpt lat="-21.07608" lon="55.42575">
        <ele>1430.9</ele>
        <time>2013-10-10T09:22:06Z</time>
      </trkpt>
      <trkpt lat="-21.07586" lon="55.42578">
        <ele>1434</ele>
        <time>2013-10-10T09:22:20Z</time>
      </trkpt>
      <trkpt lat="-21.0758" lon="55.42586">
        <ele>1434.5</ele>
        <time>2013-10-10T09:22:26Z</time>
      </trkpt>
      <trkpt lat="-21.07579" lon="55.42596">
        <ele>1438.3</ele>
        <time>2013-10-10T09:22:46Z</time>
      </trkpt>
      <trkpt lat="-21.07574" lon="55.42604">
        <ele>1440.6</ele>
        <time>2013-10-10T09:22:58Z</time>
      </trkpt>
      <trkpt lat="-21.07564" lon="55.42616">
        <ele>1441</ele>
        <time>2013-10-10T09:23:08Z</time>
      </trkpt>
      <trkpt lat="-21.07545" lon="55.42622">
        <ele>1446.3</ele>
        <time>2013-10-10T09:23:30Z</time>
      </trkpt>
      <trkpt lat="-21.07537" lon="55.42626">
        <ele>1450.5</ele>
        <time>2013-10-10T09:23:51Z</time>
      </trkpt>
      <trkpt lat="-21.07528" lon="55.42628">
        <ele>1453.1</ele>
        <time>2013-10-10T09:24:05Z</time>
      </trkpt>
      <trkpt lat="-21.0752" lon="55.42634">
        <ele>1453.9</ele>
        <time>2013-10-10T09:24:19Z</time>
      </trkpt>
      <trkpt lat="-21.07502" lon="55.42649">
        <ele>1456.4</ele>
        <time>2013-10-10T09:24:34Z</time>
      </trkpt>
      <trkpt lat="-21.07493" lon="55.42652">
        <ele>1459.5</ele>
        <time>2013-10-10T09:25:02Z</time>
      </trkpt>
      <trkpt lat="-21.07484" lon="55.4265">
        <ele>1460.3</ele>
        <time>2013-10-10T09:25:14Z</time>
      </trkpt>
      <trkpt lat="-21.07475" lon="55.42656">
        <ele>1460.3</ele>
        <time>2013-10-10T09:25:19Z</time>
      </trkpt>
      <trkpt lat="-21.07468" lon="55.42661">
        <ele>1460.1</ele>
        <time>2013-10-10T09:25:23Z</time>
      </trkpt>
      <trkpt lat="-21.0745" lon="55.42671">
        <ele>1460.7</ele>
        <time>2013-10-10T09:25:35Z</time>
      </trkpt>
      <trkpt lat="-21.07442" lon="55.42675">
        <ele>1460.5</ele>
        <time>2013-10-10T09:25:42Z</time>
      </trkpt>
      <trkpt lat="-21.07433" lon="55.42679">
        <ele>1460.4</ele>
        <time>2013-10-10T09:25:48Z</time>
      </trkpt>
      <trkpt lat="-21.07425" lon="55.42683">
        <ele>1461.7</ele>
        <time>2013-10-10T09:25:55Z</time>
      </trkpt>
      <trkpt lat="-21.07417" lon="55.42688">
        <ele>1461.6</ele>
        <time>2013-10-10T09:26:02Z</time>
      </trkpt>
      <trkpt lat="-21.07407" lon="55.42693">
        <ele>1460.9</ele>
        <time>2013-10-10T09:26:09Z</time>
      </trkpt>
      <trkpt lat="-21.07401" lon="55.42702">
        <ele>1461.4</ele>
        <time>2013-10-10T09:26:16Z</time>
      </trkpt>
      <trkpt lat="-21.07396" lon="55.4271">
        <ele>1461.3</ele>
        <time>2013-10-10T09:26:22Z</time>
      </trkpt>
      <trkpt lat="-21.07391" lon="55.42719">
        <ele>1461.3</ele>
        <time>2013-10-10T09:26:29Z</time>
      </trkpt>
      <trkpt lat="-21.07381" lon="55.42737">
        <ele>1461.9</ele>
        <time>2013-10-10T09:26:47Z</time>
      </trkpt>
      <trkpt lat="-21.07378" lon="55.42747">
        <ele>1461.9</ele>
        <time>2013-10-10T09:26:53Z</time>
      </trkpt>
      <trkpt lat="-21.0738" lon="55.42757">
        <ele>1461.5</ele>
        <time>2013-10-10T09:26:59Z</time>
      </trkpt>
      <trkpt lat="-21.07383" lon="55.42768">
        <ele>1461.2</ele>
        <time>2013-10-10T09:27:07Z</time>
      </trkpt>
      <trkpt lat="-21.07386" lon="55.42778">
        <ele>1461.9</ele>
        <time>2013-10-10T09:27:15Z</time>
      </trkpt>
      <trkpt lat="-21.07391" lon="55.42786">
        <ele>1462.4</ele>
        <time>2013-10-10T09:27:22Z</time>
      </trkpt>
      <trkpt lat="-21.07394" lon="55.42796">
        <ele>1463.7</ele>
        <time>2013-10-10T09:27:29Z</time>
      </trkpt>
      <trkpt lat="-21.074" lon="55.42804">
        <ele>1464.3</ele>
        <time>2013-10-10T09:27:36Z</time>
      </trkpt>
      <trkpt lat="-21.07411" lon="55.4282">
        <ele>1467</ele>
        <time>2013-10-10T09:27:53Z</time>
      </trkpt>
      <trkpt lat="-21.07418" lon="55.42826">
        <ele>1468.3</ele>
        <time>2013-10-10T09:28:04Z</time>
      </trkpt>
      <trkpt lat="-21.07423" lon="55.42834">
        <ele>1469.6</ele>
        <time>2013-10-10T09:28:11Z</time>
      </trkpt>
      <trkpt lat="-21.07425" lon="55.42844">
        <ele>1471.2</ele>
        <time>2013-10-10T09:28:22Z</time>
      </trkpt>
      <trkpt lat="-21.07431" lon="55.42851">
        <ele>1472.7</ele>
        <time>2013-10-10T09:28:31Z</time>
      </trkpt>
      <trkpt lat="-21.07435" lon="55.42861">
        <ele>1475.2</ele>
        <time>2013-10-10T09:28:46Z</time>
      </trkpt>
      <trkpt lat="-21.07429" lon="55.42882">
        <ele>1477.7</ele>
        <time>2013-10-10T09:28:55Z</time>
      </trkpt>
      <trkpt lat="-21.07427" lon="55.42892">
        <ele>1478.8</ele>
        <time>2013-10-10T09:29:00Z</time>
      </trkpt>
      <trkpt lat="-21.07428" lon="55.42904">
        <ele>1479.1</ele>
        <time>2013-10-10T09:29:05Z</time>
      </trkpt>
      <trkpt lat="-21.07427" lon="55.42913">
        <ele>1479</ele>
        <time>2013-10-10T09:29:09Z</time>
      </trkpt>
      <trkpt lat="-21.07426" lon="55.42923">
        <ele>1480.2</ele>
        <time>2013-10-10T09:29:12Z</time>
      </trkpt>
      <trkpt lat="-21.07426" lon="55.42936">
        <ele>1480.9</ele>
        <time>2013-10-10T09:29:15Z</time>
      </trkpt>
      <trkpt lat="-21.07434" lon="55.42933">
        <ele>1482.9</ele>
        <time>2013-10-10T09:29:26Z</time>
      </trkpt>
      <trkpt lat="-21.07439" lon="55.42924">
        <ele>1483.3</ele>
        <time>2013-10-10T09:29:33Z</time>
      </trkpt>
      <trkpt lat="-21.07454" lon="55.4291">
        <ele>1484</ele>
        <time>2013-10-10T09:29:39Z</time>
      </trkpt>
      <trkpt lat="-21.07468" lon="55.42901">
        <ele>1485</ele>
        <time>2013-10-10T09:29:43Z</time>
      </trkpt>
      <trkpt lat="-21.07476" lon="55.42896">
        <ele>1485.2</ele>
        <time>2013-10-10T09:29:46Z</time>
      </trkpt>
      <trkpt lat="-21.07499" lon="55.42939">
        <ele>1505</ele>
        <time>2013-10-10T09:31:44Z</time>
      </trkpt>
      <trkpt lat="-21.075" lon="55.42918">
        <ele>1514.3</ele>
        <time>2013-10-10T09:32:37Z</time>
      </trkpt>
      <trkpt lat="-21.07506" lon="55.42908">
        <ele>1515</ele>
        <time>2013-10-10T09:32:41Z</time>
      </trkpt>
      <trkpt lat="-21.07505" lon="55.42918">
        <ele>1519</ele>
        <time>2013-10-10T09:32:54Z</time>
      </trkpt>
      <trkpt lat="-21.07503" lon="55.42928">
        <ele>1519.5</ele>
        <time>2013-10-10T09:32:59Z</time>
      </trkpt>
      <trkpt lat="-21.07496" lon="55.42938">
        <ele>1520</ele>
        <time>2013-10-10T09:33:05Z</time>
      </trkpt>
      <trkpt lat="-21.07506" lon="55.42943">
        <ele>1524</ele>
        <time>2013-10-10T09:33:35Z</time>
      </trkpt>
      <trkpt lat="-21.07514" lon="55.42973">
        <ele>1527.1</ele>
        <time>2013-10-10T09:33:50Z</time>
      </trkpt>
      <trkpt lat="-21.07526" lon="55.42952">
        <ele>1527</ele>
        <time>2013-10-10T09:33:55Z</time>
      </trkpt>
      <trkpt lat="-21.07532" lon="55.42976">
        <ele>1530</ele>
        <time>2013-10-10T09:34:08Z</time>
      </trkpt>
      <trkpt lat="-21.07522" lon="55.42971">
        <ele>1533</ele>
        <time>2013-10-10T09:34:27Z</time>
      </trkpt>
      <trkpt lat="-21.07519" lon="55.42981">
        <ele>1534</ele>
        <time>2013-10-10T09:34:35Z</time>
      </trkpt>
      <trkpt lat="-21.07506" lon="55.42989">
        <ele>1540</ele>
        <time>2013-10-10T09:35:16Z</time>
      </trkpt>
      <trkpt lat="-21.0752" lon="55.43003">
        <ele>1543.6</ele>
        <time>2013-10-10T09:35:44Z</time>
      </trkpt>
      <trkpt lat="-21.07522" lon="55.43013">
        <ele>1544.8</ele>
        <time>2013-10-10T09:35:52Z</time>
      </trkpt>
      <trkpt lat="-21.07524" lon="55.43024">
        <ele>1545.3</ele>
        <time>2013-10-10T09:35:58Z</time>
      </trkpt>
      <trkpt lat="-21.07526" lon="55.43033">
        <ele>1546.5</ele>
        <time>2013-10-10T09:36:05Z</time>
      </trkpt>
      <trkpt lat="-21.0753" lon="55.43042">
        <ele>1547.8</ele>
        <time>2013-10-10T09:36:15Z</time>
      </trkpt>
      <trkpt lat="-21.07523" lon="55.43034">
        <ele>1547</ele>
        <time>2013-10-10T09:36:30Z</time>
      </trkpt>
      <trkpt lat="-21.07541" lon="55.43051">
        <ele>1550</ele>
        <time>2013-10-10T09:36:44Z</time>
      </trkpt>
      <trkpt lat="-21.07549" lon="55.43074">
        <ele>1553</ele>
        <time>2013-10-10T09:37:02Z</time>
      </trkpt>
      <trkpt lat="-21.07557" lon="55.43069">
        <ele>1555.6</ele>
        <time>2013-10-10T09:37:14Z</time>
      </trkpt>
      <trkpt lat="-21.07562" lon="55.43079">
        <ele>1558.2</ele>
        <time>2013-10-10T09:37:32Z</time>
      </trkpt>
      <trkpt lat="-21.07554" lon="55.43072">
        <ele>1562</ele>
        <time>2013-10-10T09:37:47Z</time>
      </trkpt>
      <trkpt lat="-21.07552" lon="55.43091">
        <ele>1567</ele>
        <time>2013-10-10T09:38:18Z</time>
      </trkpt>
      <trkpt lat="-21.07545" lon="55.43098">
        <ele>1569.3</ele>
        <time>2013-10-10T09:38:26Z</time>
      </trkpt>
      <trkpt lat="-21.07537" lon="55.43107">
        <ele>1569</ele>
        <time>2013-10-10T09:38:32Z</time>
      </trkpt>
      <trkpt lat="-21.07544" lon="55.431">
        <ele>1572.9</ele>
        <time>2013-10-10T09:38:52Z</time>
      </trkpt>
      <trkpt lat="-21.07551" lon="55.43106">
        <ele>1573</ele>
        <time>2013-10-10T09:38:58Z</time>
      </trkpt>
      <trkpt lat="-21.07552" lon="55.4312">
        <ele>1576.1</ele>
        <time>2013-10-10T09:39:32Z</time>
      </trkpt>
      <trkpt lat="-21.07545" lon="55.43127">
        <ele>1576.4</ele>
        <time>2013-10-10T09:39:35Z</time>
      </trkpt>
      <trkpt lat="-21.07537" lon="55.43132">
        <ele>1577.8</ele>
        <time>2013-10-10T09:39:39Z</time>
      </trkpt>
      <trkpt lat="-21.07526" lon="55.43134">
        <ele>1577.7</ele>
        <time>2013-10-10T09:39:42Z</time>
      </trkpt>
      <trkpt lat="-21.07545" lon="55.43127">
        <ele>1580</ele>
        <time>2013-10-10T09:39:56Z</time>
      </trkpt>
      <trkpt lat="-21.07555" lon="55.43128">
        <ele>1581.5</ele>
        <time>2013-10-10T09:40:04Z</time>
      </trkpt>
      <trkpt lat="-21.07541" lon="55.43145">
        <ele>1584</ele>
        <time>2013-10-10T09:40:19Z</time>
      </trkpt>
      <trkpt lat="-21.07554" lon="55.43133">
        <ele>1585</ele>
        <time>2013-10-10T09:40:31Z</time>
      </trkpt>
      <trkpt lat="-21.07565" lon="55.43127">
        <ele>1585</ele>
        <time>2013-10-10T09:40:35Z</time>
      </trkpt>
      <trkpt lat="-21.07556" lon="55.43135">
        <ele>1588</ele>
        <time>2013-10-10T09:40:47Z</time>
      </trkpt>
      <trkpt lat="-21.07551" lon="55.43143">
        <ele>1590</ele>
        <time>2013-10-10T09:41:03Z</time>
      </trkpt>
      <trkpt lat="-21.07571" lon="55.43138">
        <ele>1591.9</ele>
        <time>2013-10-10T09:41:18Z</time>
      </trkpt>
      <trkpt lat="-21.07581" lon="55.43139">
        <ele>1592</ele>
        <time>2013-10-10T09:41:22Z</time>
      </trkpt>
      <trkpt lat="-21.07573" lon="55.43143">
        <ele>1593.6</ele>
        <time>2013-10-10T09:41:29Z</time>
      </trkpt>
      <trkpt lat="-21.07564" lon="55.43145">
        <ele>1594.8</ele>
        <time>2013-10-10T09:41:32Z</time>
      </trkpt>
      <trkpt lat="-21.07556" lon="55.43156">
        <ele>1596</ele>
        <time>2013-10-10T09:41:41Z</time>
      </trkpt>
      <trkpt lat="-21.07548" lon="55.43165">
        <ele>1597</ele>
        <time>2013-10-10T09:41:49Z</time>
      </trkpt>
      <trkpt lat="-21.0756" lon="55.43167">
        <ele>1600</ele>
        <time>2013-10-10T09:42:13Z</time>
      </trkpt>
      <trkpt lat="-21.07557" lon="55.43185">
        <ele>1607</ele>
        <time>2013-10-10T09:42:53Z</time>
      </trkpt>
      <trkpt lat="-21.07541" lon="55.43204">
        <ele>1609</ele>
        <time>2013-10-10T09:43:10Z</time>
      </trkpt>
      <trkpt lat="-21.07567" lon="55.43199">
        <ele>1613</ele>
        <time>2013-10-10T09:43:39Z</time>
      </trkpt>
      <trkpt lat="-21.07556" lon="55.43212">
        <ele>1616</ele>
        <time>2013-10-10T09:43:53Z</time>
      </trkpt>
      <trkpt lat="-21.07576" lon="55.43216">
        <ele>1619</ele>
        <time>2013-10-10T09:44:25Z</time>
      </trkpt>
      <trkpt lat="-21.07578" lon="55.4323">
        <ele>1627.7</ele>
        <time>2013-10-10T09:45:34Z</time>
      </trkpt>
      <trkpt lat="-21.07618" lon="55.43257">
        <ele>1640.8</ele>
        <time>2013-10-10T09:47:40Z</time>
      </trkpt>
      <trkpt lat="-21.07616" lon="55.43258">
        <ele>1645</ele>
        <time>2013-10-10T09:47:40Z</time>
      </trkpt>
      <trkpt lat="-21.07616" lon="55.43258">
        <ele>1645</ele>
        <time>2013-10-10T09:47:40Z</time>
      </trkpt>
      <trkpt lat="-21.07623" lon="55.43264">
        <ele>1714.9</ele>
        <time>2013-10-10T09:48:10Z</time>
      </trkpt>
      <trkpt lat="-21.07624" lon="55.43274">
        <ele>1718.8</ele>
        <time>2013-10-10T09:48:44Z</time>
      </trkpt>
      <trkpt lat="-21.07613" lon="55.4328">
        <ele>1722</ele>
        <time>2013-10-10T09:49:05Z</time>
      </trkpt>
      <trkpt lat="-21.07606" lon="55.43287">
        <ele>1724</ele>
        <time>2013-10-10T09:49:17Z</time>
      </trkpt>
      <trkpt lat="-21.076" lon="55.43298">
        <ele>1727</ele>
        <time>2013-10-10T09:49:51Z</time>
      </trkpt>
      <trkpt lat="-21.07592" lon="55.43301">
        <ele>1728</ele>
        <time>2013-10-10T09:50:02Z</time>
      </trkpt>
      <trkpt lat="-21.07587" lon="55.43311">
        <ele>1730</ele>
        <time>2013-10-10T09:50:13Z</time>
      </trkpt>
      <trkpt lat="-21.07589" lon="55.43323">
        <ele>1734</ele>
        <time>2013-10-10T09:50:37Z</time>
      </trkpt>
      <trkpt lat="-21.07599" lon="55.43332">
        <ele>1734</ele>
        <time>2013-10-10T09:50:46Z</time>
      </trkpt>
      <trkpt lat="-21.07618" lon="55.43328">
        <ele>1736</ele>
        <time>2013-10-10T09:51:04Z</time>
      </trkpt>
      <trkpt lat="-21.07615" lon="55.43318">
        <ele>1737.9</ele>
        <time>2013-10-10T09:51:14Z</time>
      </trkpt>
      <trkpt lat="-21.07624" lon="55.43319">
        <ele>1741.7</ele>
        <time>2013-10-10T09:51:41Z</time>
      </trkpt>
      <trkpt lat="-21.0763" lon="55.43327">
        <ele>1743.1</ele>
        <time>2013-10-10T09:51:48Z</time>
      </trkpt>
      <trkpt lat="-21.0764" lon="55.43329">
        <ele>1744.6</ele>
        <time>2013-10-10T09:51:59Z</time>
      </trkpt>
      <trkpt lat="-21.0765" lon="55.43332">
        <ele>1745.6</ele>
        <time>2013-10-10T09:52:08Z</time>
      </trkpt>
      <trkpt lat="-21.07658" lon="55.43337">
        <ele>1747</ele>
        <time>2013-10-10T09:52:19Z</time>
      </trkpt>
      <trkpt lat="-21.07666" lon="55.43335">
        <ele>1747.5</ele>
        <time>2013-10-10T09:52:39Z</time>
      </trkpt>
      <trkpt lat="-21.07677" lon="55.43336">
        <ele>1751.4</ele>
        <time>2013-10-10T09:52:58Z</time>
      </trkpt>
      <trkpt lat="-21.07686" lon="55.43336">
        <ele>1753.2</ele>
        <time>2013-10-10T09:53:15Z</time>
      </trkpt>
      <trkpt lat="-21.07683" lon="55.43345">
        <ele>1753.8</ele>
        <time>2013-10-10T09:53:24Z</time>
      </trkpt>
      <trkpt lat="-21.07692" lon="55.43349">
        <ele>1756.4</ele>
        <time>2013-10-10T09:53:37Z</time>
      </trkpt>
      <trkpt lat="-21.077" lon="55.43356">
        <ele>1757.1</ele>
        <time>2013-10-10T09:53:43Z</time>
      </trkpt>
      <trkpt lat="-21.07709" lon="55.43355">
        <ele>1757.8</ele>
        <time>2013-10-10T09:53:51Z</time>
      </trkpt>
      <trkpt lat="-21.07715" lon="55.43363">
        <ele>1758.7</ele>
        <time>2013-10-10T09:54:00Z</time>
      </trkpt>
      <trkpt lat="-21.07723" lon="55.43373">
        <ele>1760</ele>
        <time>2013-10-10T09:54:16Z</time>
      </trkpt>
      <trkpt lat="-21.07727" lon="55.43385">
        <ele>1761</ele>
        <time>2013-10-10T09:54:24Z</time>
      </trkpt>
      <trkpt lat="-21.07732" lon="55.43394">
        <ele>1762.2</ele>
        <time>2013-10-10T09:54:31Z</time>
      </trkpt>
      <trkpt lat="-21.07732" lon="55.43404">
        <ele>1763.4</ele>
        <time>2013-10-10T09:54:44Z</time>
      </trkpt>
      <trkpt lat="-21.07738" lon="55.43413">
        <ele>1766.7</ele>
        <time>2013-10-10T09:55:05Z</time>
      </trkpt>
      <trkpt lat="-21.07745" lon="55.43418">
        <ele>1769.9</ele>
        <time>2013-10-10T09:55:25Z</time>
      </trkpt>
      <trkpt lat="-21.07749" lon="55.43428">
        <ele>1771</ele>
        <time>2013-10-10T09:55:30Z</time>
      </trkpt>
      <trkpt lat="-21.07749" lon="55.43437">
        <ele>1770.8</ele>
        <time>2013-10-10T09:55:34Z</time>
      </trkpt>
      <trkpt lat="-21.07758" lon="55.43441">
        <ele>1770.9</ele>
        <time>2013-10-10T09:55:45Z</time>
      </trkpt>
      <trkpt lat="-21.07766" lon="55.43437">
        <ele>1771.1</ele>
        <time>2013-10-10T09:56:09Z</time>
      </trkpt>
      <trkpt lat="-21.07758" lon="55.43433">
        <ele>1771.9</ele>
        <time>2013-10-10T10:02:21Z</time>
      </trkpt>
      <trkpt lat="-21.07777" lon="55.43455">
        <ele>1766.2</ele>
        <time>2013-10-10T10:04:40Z</time>
      </trkpt>
      <trkpt lat="-21.07781" lon="55.43464">
        <ele>1765.9</ele>
        <time>2013-10-10T10:04:46Z</time>
      </trkpt>
      <trkpt lat="-21.07781" lon="55.43474">
        <ele>1765.4</ele>
        <time>2013-10-10T10:04:52Z</time>
      </trkpt>
      <trkpt lat="-21.0779" lon="55.43477">
        <ele>1764.4</ele>
        <time>2013-10-10T10:04:59Z</time>
      </trkpt>
      <trkpt lat="-21.07799" lon="55.43475">
        <ele>1761.7</ele>
        <time>2013-10-10T10:05:06Z</time>
      </trkpt>
      <trkpt lat="-21.07807" lon="55.43478">
        <ele>1759.2</ele>
        <time>2013-10-10T10:05:12Z</time>
      </trkpt>
      <trkpt lat="-21.07816" lon="55.43484">
        <ele>1759.1</ele>
        <time>2013-10-10T10:05:21Z</time>
      </trkpt>
      <trkpt lat="-21.07825" lon="55.43489">
        <ele>1759.2</ele>
        <time>2013-10-10T10:05:28Z</time>
      </trkpt>
      <trkpt lat="-21.07827" lon="55.43498">
        <ele>1760</ele>
        <time>2013-10-10T10:05:35Z</time>
      </trkpt>
      <trkpt lat="-21.07823" lon="55.43517">
        <ele>1758.9</ele>
        <time>2013-10-10T10:05:50Z</time>
      </trkpt>
      <trkpt lat="-21.0782" lon="55.43528">
        <ele>1759.8</ele>
        <time>2013-10-10T10:05:58Z</time>
      </trkpt>
      <trkpt lat="-21.07821" lon="55.43538">
        <ele>1759.1</ele>
        <time>2013-10-10T10:06:07Z</time>
      </trkpt>
      <trkpt lat="-21.07819" lon="55.43548">
        <ele>1759.3</ele>
        <time>2013-10-10T10:06:16Z</time>
      </trkpt>
      <trkpt lat="-21.07821" lon="55.43558">
        <ele>1759</ele>
        <time>2013-10-10T10:06:24Z</time>
      </trkpt>
      <trkpt lat="-21.07821" lon="55.43568">
        <ele>1759.6</ele>
        <time>2013-10-10T10:06:31Z</time>
      </trkpt>
      <trkpt lat="-21.07822" lon="55.43578">
        <ele>1759.2</ele>
        <time>2013-10-10T10:06:38Z</time>
      </trkpt>
      <trkpt lat="-21.07829" lon="55.43598">
        <ele>1759.8</ele>
        <time>2013-10-10T10:06:54Z</time>
      </trkpt>
      <trkpt lat="-21.07834" lon="55.43607">
        <ele>1760</ele>
        <time>2013-10-10T10:07:00Z</time>
      </trkpt>
      <trkpt lat="-21.07839" lon="55.43617">
        <ele>1760</ele>
        <time>2013-10-10T10:07:07Z</time>
      </trkpt>
      <trkpt lat="-21.07844" lon="55.43626">
        <ele>1760.3</ele>
        <time>2013-10-10T10:07:15Z</time>
      </trkpt>
      <trkpt lat="-21.07843" lon="55.43636">
        <ele>1759.9</ele>
        <time>2013-10-10T10:07:21Z</time>
      </trkpt>
      <trkpt lat="-21.07842" lon="55.43647">
        <ele>1760.6</ele>
        <time>2013-10-10T10:07:29Z</time>
      </trkpt>
      <trkpt lat="-21.07848" lon="55.43655">
        <ele>1761</ele>
        <time>2013-10-10T10:07:36Z</time>
      </trkpt>
      <trkpt lat="-21.07852" lon="55.43663">
        <ele>1760.3</ele>
        <time>2013-10-10T10:07:43Z</time>
      </trkpt>
      <trkpt lat="-21.07865" lon="55.43679">
        <ele>1761.4</ele>
        <time>2013-10-10T10:07:59Z</time>
      </trkpt>
      <trkpt lat="-21.07879" lon="55.43685">
        <ele>1760</ele>
        <time>2013-10-10T10:08:06Z</time>
      </trkpt>
      <trkpt lat="-21.07888" lon="55.43688">
        <ele>1760.5</ele>
        <time>2013-10-10T10:08:10Z</time>
      </trkpt>
      <trkpt lat="-21.07895" lon="55.43695">
        <ele>1760.4</ele>
        <time>2013-10-10T10:08:15Z</time>
      </trkpt>
      <trkpt lat="-21.07895" lon="55.43706">
        <ele>1760.9</ele>
        <time>2013-10-10T10:08:26Z</time>
      </trkpt>
      <trkpt lat="-21.07896" lon="55.43716">
        <ele>1761</ele>
        <time>2013-10-10T10:08:32Z</time>
      </trkpt>
      <trkpt lat="-21.07895" lon="55.43726">
        <ele>1760.9</ele>
        <time>2013-10-10T10:08:38Z</time>
      </trkpt>
      <trkpt lat="-21.07889" lon="55.43734">
        <ele>1761.4</ele>
        <time>2013-10-10T10:08:45Z</time>
      </trkpt>
      <trkpt lat="-21.07893" lon="55.43752">
        <ele>1761.7</ele>
        <time>2013-10-10T10:09:00Z</time>
      </trkpt>
      <trkpt lat="-21.07902" lon="55.43756">
        <ele>1761.4</ele>
        <time>2013-10-10T10:09:06Z</time>
      </trkpt>
      <trkpt lat="-21.07911" lon="55.43761">
        <ele>1761.1</ele>
        <time>2013-10-10T10:09:14Z</time>
      </trkpt>
      <trkpt lat="-21.07919" lon="55.43767">
        <ele>1760.9</ele>
        <time>2013-10-10T10:09:20Z</time>
      </trkpt>
      <trkpt lat="-21.07927" lon="55.43771">
        <ele>1759.9</ele>
        <time>2013-10-10T10:09:25Z</time>
      </trkpt>
      <trkpt lat="-21.07936" lon="55.43778">
        <ele>1759.2</ele>
        <time>2013-10-10T10:09:30Z</time>
      </trkpt>
      <trkpt lat="-21.07943" lon="55.43785">
        <ele>1759.1</ele>
        <time>2013-10-10T10:09:37Z</time>
      </trkpt>
      <trkpt lat="-21.07948" lon="55.43793">
        <ele>1759.9</ele>
        <time>2013-10-10T10:09:46Z</time>
      </trkpt>
      <trkpt lat="-21.07927" lon="55.43831">
        <ele>1759</ele>
        <time>2013-10-10T10:13:33Z</time>
      </trkpt>
      <trkpt lat="-21.07924" lon="55.43842">
        <ele>1759.7</ele>
        <time>2013-10-10T10:13:41Z</time>
      </trkpt>
      <trkpt lat="-21.07918" lon="55.43849">
        <ele>1759.9</ele>
        <time>2013-10-10T10:13:48Z</time>
      </trkpt>
      <trkpt lat="-21.07911" lon="55.43855">
        <ele>1759</ele>
        <time>2013-10-10T10:13:56Z</time>
      </trkpt>
      <trkpt lat="-21.07904" lon="55.43863">
        <ele>1759</ele>
        <time>2013-10-10T10:14:03Z</time>
      </trkpt>
      <trkpt lat="-21.07902" lon="55.43874">
        <ele>1759.2</ele>
        <time>2013-10-10T10:14:11Z</time>
      </trkpt>
      <trkpt lat="-21.07899" lon="55.43883">
        <ele>1758.9</ele>
        <time>2013-10-10T10:14:17Z</time>
      </trkpt>
      <trkpt lat="-21.07895" lon="55.43892">
        <ele>1759.6</ele>
        <time>2013-10-10T10:14:24Z</time>
      </trkpt>
      <trkpt lat="-21.07891" lon="55.43911">
        <ele>1759.8</ele>
        <time>2013-10-10T10:14:40Z</time>
      </trkpt>
      <trkpt lat="-21.07889" lon="55.43922">
        <ele>1760.5</ele>
        <time>2013-10-10T10:14:45Z</time>
      </trkpt>
      <trkpt lat="-21.07886" lon="55.43932">
        <ele>1759.8</ele>
        <time>2013-10-10T10:14:54Z</time>
      </trkpt>
      <trkpt lat="-21.07882" lon="55.4394">
        <ele>1758.5</ele>
        <time>2013-10-10T10:15:01Z</time>
      </trkpt>
      <trkpt lat="-21.07886" lon="55.43949">
        <ele>1758.6</ele>
        <time>2013-10-10T10:15:09Z</time>
      </trkpt>
      <trkpt lat="-21.07886" lon="55.43958">
        <ele>1759.3</ele>
        <time>2013-10-10T10:15:17Z</time>
      </trkpt>
      <trkpt lat="-21.07885" lon="55.43969">
        <ele>1761.4</ele>
        <time>2013-10-10T10:15:27Z</time>
      </trkpt>
      <trkpt lat="-21.07876" lon="55.43986">
        <ele>1762.2</ele>
        <time>2013-10-10T10:15:39Z</time>
      </trkpt>
      <trkpt lat="-21.07869" lon="55.43993">
        <ele>1761.9</ele>
        <time>2013-10-10T10:15:45Z</time>
      </trkpt>
      <trkpt lat="-21.07861" lon="55.43999">
        <ele>1762.6</ele>
        <time>2013-10-10T10:15:50Z</time>
      </trkpt>
      <trkpt lat="-21.07856" lon="55.44008">
        <ele>1763.2</ele>
        <time>2013-10-10T10:15:56Z</time>
      </trkpt>
      <trkpt lat="-21.07853" lon="55.44018">
        <ele>1764.5</ele>
        <time>2013-10-10T10:16:04Z</time>
      </trkpt>
      <trkpt lat="-21.07859" lon="55.44026">
        <ele>1764.2</ele>
        <time>2013-10-10T10:16:11Z</time>
      </trkpt>
      <trkpt lat="-21.07867" lon="55.44031">
        <ele>1765.8</ele>
        <time>2013-10-10T10:16:18Z</time>
      </trkpt>
      <trkpt lat="-21.07868" lon="55.44041">
        <ele>1765.8</ele>
        <time>2013-10-10T10:16:27Z</time>
      </trkpt>
      <trkpt lat="-21.07873" lon="55.4405">
        <ele>1767.2</ele>
        <time>2013-10-10T10:16:35Z</time>
      </trkpt>
      <trkpt lat="-21.07872" lon="55.44069">
        <ele>1769.1</ele>
        <time>2013-10-10T10:16:50Z</time>
      </trkpt>
      <trkpt lat="-21.07873" lon="55.44079">
        <ele>1770.3</ele>
        <time>2013-10-10T10:16:59Z</time>
      </trkpt>
      <trkpt lat="-21.07868" lon="55.4409">
        <ele>1771.8</ele>
        <time>2013-10-10T10:17:09Z</time>
      </trkpt>
      <trkpt lat="-21.07867" lon="55.441">
        <ele>1772.2</ele>
        <time>2013-10-10T10:17:18Z</time>
      </trkpt>
      <trkpt lat="-21.07865" lon="55.44111">
        <ele>1771.7</ele>
        <time>2013-10-10T10:17:26Z</time>
      </trkpt>
      <trkpt lat="-21.07864" lon="55.44122">
        <ele>1773</ele>
        <time>2013-10-10T10:17:33Z</time>
      </trkpt>
      <trkpt lat="-21.07862" lon="55.44132">
        <ele>1772.1</ele>
        <time>2013-10-10T10:17:40Z</time>
      </trkpt>
      <trkpt lat="-21.07856" lon="55.4415">
        <ele>1773</ele>
        <time>2013-10-10T10:17:55Z</time>
      </trkpt>
      <trkpt lat="-21.0785" lon="55.44158">
        <ele>1771.9</ele>
        <time>2013-10-10T10:18:01Z</time>
      </trkpt>
      <trkpt lat="-21.07846" lon="55.44167">
        <ele>1772.3</ele>
        <time>2013-10-10T10:18:07Z</time>
      </trkpt>
      <trkpt lat="-21.07846" lon="55.44178">
        <ele>1772.5</ele>
        <time>2013-10-10T10:18:15Z</time>
      </trkpt>
      <trkpt lat="-21.07848" lon="55.44188">
        <ele>1772.8</ele>
        <time>2013-10-10T10:18:22Z</time>
      </trkpt>
      <trkpt lat="-21.07846" lon="55.44198">
        <ele>1773.4</ele>
        <time>2013-10-10T10:18:29Z</time>
      </trkpt>
      <trkpt lat="-21.07845" lon="55.44209">
        <ele>1773.6</ele>
        <time>2013-10-10T10:18:36Z</time>
      </trkpt>
      <trkpt lat="-21.07845" lon="55.44219">
        <ele>1774</ele>
        <time>2013-10-10T10:18:43Z</time>
      </trkpt>
      <trkpt lat="-21.07845" lon="55.44241">
        <ele>1775.4</ele>
        <time>2013-10-10T10:18:58Z</time>
      </trkpt>
      <trkpt lat="-21.07846" lon="55.44252">
        <ele>1775.6</ele>
        <time>2013-10-10T10:19:04Z</time>
      </trkpt>
      <trkpt lat="-21.07848" lon="55.44262">
        <ele>1776.6</ele>
        <time>2013-10-10T10:19:11Z</time>
      </trkpt>
      <trkpt lat="-21.07853" lon="55.44271">
        <ele>1776.8</ele>
        <time>2013-10-10T10:19:19Z</time>
      </trkpt>
      <trkpt lat="-21.07858" lon="55.4428">
        <ele>1777.3</ele>
        <time>2013-10-10T10:19:27Z</time>
      </trkpt>
      <trkpt lat="-21.07861" lon="55.44289">
        <ele>1777.7</ele>
        <time>2013-10-10T10:19:36Z</time>
      </trkpt>
      <trkpt lat="-21.07863" lon="55.44299">
        <ele>1778.6</ele>
        <time>2013-10-10T10:19:49Z</time>
      </trkpt>
      <trkpt lat="-21.07862" lon="55.44318">
        <ele>1780.5</ele>
        <time>2013-10-10T10:20:15Z</time>
      </trkpt>
      <trkpt lat="-21.07861" lon="55.44328">
        <ele>1779.9</ele>
        <time>2013-10-10T10:20:23Z</time>
      </trkpt>
      <trkpt lat="-21.07859" lon="55.44338">
        <ele>1780.8</ele>
        <time>2013-10-10T10:20:30Z</time>
      </trkpt>
      <trkpt lat="-21.07858" lon="55.44349">
        <ele>1780.6</ele>
        <time>2013-10-10T10:20:37Z</time>
      </trkpt>
      <trkpt lat="-21.07855" lon="55.44359">
        <ele>1779.8</ele>
        <time>2013-10-10T10:20:45Z</time>
      </trkpt>
      <trkpt lat="-21.07848" lon="55.44367">
        <ele>1780.2</ele>
        <time>2013-10-10T10:20:53Z</time>
      </trkpt>
      <trkpt lat="-21.07834" lon="55.44382">
        <ele>1778.5</ele>
        <time>2013-10-10T10:21:07Z</time>
      </trkpt>
      <trkpt lat="-21.07831" lon="55.44391">
        <ele>1778.9</ele>
        <time>2013-10-10T10:21:14Z</time>
      </trkpt>
      <trkpt lat="-21.07828" lon="55.444">
        <ele>1780.4</ele>
        <time>2013-10-10T10:21:24Z</time>
      </trkpt>
      <trkpt lat="-21.07829" lon="55.44411">
        <ele>1781.7</ele>
        <time>2013-10-10T10:21:34Z</time>
      </trkpt>
      <trkpt lat="-21.07823" lon="55.44419">
        <ele>1782.8</ele>
        <time>2013-10-10T10:21:42Z</time>
      </trkpt>
      <trkpt lat="-21.07818" lon="55.44428">
        <ele>1784.1</ele>
        <time>2013-10-10T10:21:51Z</time>
      </trkpt>
      <trkpt lat="-21.07816" lon="55.44438">
        <ele>1783.3</ele>
        <time>2013-10-10T10:21:59Z</time>
      </trkpt>
      <trkpt lat="-21.07817" lon="55.44458">
        <ele>1785.6</ele>
        <time>2013-10-10T10:22:19Z</time>
      </trkpt>
      <trkpt lat="-21.07821" lon="55.44468">
        <ele>1786.6</ele>
        <time>2013-10-10T10:22:27Z</time>
      </trkpt>
      <trkpt lat="-21.07824" lon="55.44478">
        <ele>1787.4</ele>
        <time>2013-10-10T10:22:35Z</time>
      </trkpt>
      <trkpt lat="-21.07824" lon="55.44488">
        <ele>1788.5</ele>
        <time>2013-10-10T10:22:44Z</time>
      </trkpt>
      <trkpt lat="-21.07819" lon="55.44498">
        <ele>1789.5</ele>
        <time>2013-10-10T10:22:53Z</time>
      </trkpt>
      <trkpt lat="-21.07824" lon="55.44506">
        <ele>1791.4</ele>
        <time>2013-10-10T10:23:04Z</time>
      </trkpt>
      <trkpt lat="-21.07832" lon="55.44524">
        <ele>1793</ele>
        <time>2013-10-10T10:23:19Z</time>
      </trkpt>
      <trkpt lat="-21.07834" lon="55.44534">
        <ele>1794.2</ele>
        <time>2013-10-10T10:23:31Z</time>
      </trkpt>
      <trkpt lat="-21.07838" lon="55.44544">
        <ele>1795.7</ele>
        <time>2013-10-10T10:23:39Z</time>
      </trkpt>
      <trkpt lat="-21.07832" lon="55.44553">
        <ele>1795.8</ele>
        <time>2013-10-10T10:23:47Z</time>
      </trkpt>
      <trkpt lat="-21.07833" lon="55.44564">
        <ele>1797.4</ele>
        <time>2013-10-10T10:23:55Z</time>
      </trkpt>
      <trkpt lat="-21.07829" lon="55.44574">
        <ele>1797.6</ele>
        <time>2013-10-10T10:24:03Z</time>
      </trkpt>
      <trkpt lat="-21.07823" lon="55.44582">
        <ele>1797.4</ele>
        <time>2013-10-10T10:24:10Z</time>
      </trkpt>
      <trkpt lat="-21.07806" lon="55.44594">
        <ele>1798.6</ele>
        <time>2013-10-10T10:24:23Z</time>
      </trkpt>
      <trkpt lat="-21.07806" lon="55.44603">
        <ele>1800.8</ele>
        <time>2013-10-10T10:24:35Z</time>
      </trkpt>
      <trkpt lat="-21.07804" lon="55.44613">
        <ele>1802</ele>
        <time>2013-10-10T10:24:45Z</time>
      </trkpt>
      <trkpt lat="-21.078" lon="55.44622">
        <ele>1802.9</ele>
        <time>2013-10-10T10:24:57Z</time>
      </trkpt>
      <trkpt lat="-21.07795" lon="55.44631">
        <ele>1804.2</ele>
        <time>2013-10-10T10:25:09Z</time>
      </trkpt>
      <trkpt lat="-21.07791" lon="55.4464">
        <ele>1805.2</ele>
        <time>2013-10-10T10:25:22Z</time>
      </trkpt>
      <trkpt lat="-21.07804" lon="55.44654">
        <ele>1806</ele>
        <time>2013-10-10T10:25:37Z</time>
      </trkpt>
      <trkpt lat="-21.07817" lon="55.44661">
        <ele>1808</ele>
        <time>2013-10-10T10:25:45Z</time>
      </trkpt>
      <trkpt lat="-21.07825" lon="55.44666">
        <ele>1810.6</ele>
        <time>2013-10-10T10:26:02Z</time>
      </trkpt>
      <trkpt lat="-21.07823" lon="55.44677">
        <ele>1812.9</ele>
        <time>2013-10-10T10:26:09Z</time>
      </trkpt>
      <trkpt lat="-21.07819" lon="55.44687">
        <ele>1813.8</ele>
        <time>2013-10-10T10:26:23Z</time>
      </trkpt>
      <trkpt lat="-21.07815" lon="55.44707">
        <ele>1816.7</ele>
        <time>2013-10-10T10:26:36Z</time>
      </trkpt>
      <trkpt lat="-21.07824" lon="55.44711">
        <ele>1818.9</ele>
        <time>2013-10-10T10:26:44Z</time>
      </trkpt>
      <trkpt lat="-21.07832" lon="55.44716">
        <ele>1820.3</ele>
        <time>2013-10-10T10:26:54Z</time>
      </trkpt>
      <trkpt lat="-21.07834" lon="55.44726">
        <ele>1821.4</ele>
        <time>2013-10-10T10:27:05Z</time>
      </trkpt>
      <trkpt lat="-21.07834" lon="55.44736">
        <ele>1822.1</ele>
        <time>2013-10-10T10:27:14Z</time>
      </trkpt>
      <trkpt lat="-21.07827" lon="55.44742">
        <ele>1823.1</ele>
        <time>2013-10-10T10:27:21Z</time>
      </trkpt>
      <trkpt lat="-21.07822" lon="55.44751">
        <ele>1826.1</ele>
        <time>2013-10-10T10:27:34Z</time>
      </trkpt>
      <trkpt lat="-21.07808" lon="55.44763">
        <ele>1827.5</ele>
        <time>2013-10-10T10:27:53Z</time>
      </trkpt>
      <trkpt lat="-21.07803" lon="55.44771">
        <ele>1828.4</ele>
        <time>2013-10-10T10:28:01Z</time>
      </trkpt>
      <trkpt lat="-21.07804" lon="55.44782">
        <ele>1830.8</ele>
        <time>2013-10-10T10:28:11Z</time>
      </trkpt>
      <trkpt lat="-21.078" lon="55.44792">
        <ele>1829.8</ele>
        <time>2013-10-10T10:28:21Z</time>
      </trkpt>
      <trkpt lat="-21.07795" lon="55.448">
        <ele>1829.3</ele>
        <time>2013-10-10T10:28:28Z</time>
      </trkpt>
      <trkpt lat="-21.07788" lon="55.44807">
        <ele>1829.5</ele>
        <time>2013-10-10T10:28:35Z</time>
      </trkpt>
      <trkpt lat="-21.07775" lon="55.44824">
        <ele>1829.1</ele>
        <time>2013-10-10T10:28:49Z</time>
      </trkpt>
      <trkpt lat="-21.0777" lon="55.44834">
        <ele>1828.7</ele>
        <time>2013-10-10T10:28:57Z</time>
      </trkpt>
      <trkpt lat="-21.07762" lon="55.44839">
        <ele>1829.2</ele>
        <time>2013-10-10T10:29:05Z</time>
      </trkpt>
      <trkpt lat="-21.07754" lon="55.44845">
        <ele>1828.9</ele>
        <time>2013-10-10T10:29:15Z</time>
      </trkpt>
      <trkpt lat="-21.07749" lon="55.44853">
        <ele>1830.2</ele>
        <time>2013-10-10T10:29:25Z</time>
      </trkpt>
      <trkpt lat="-21.07747" lon="55.44863">
        <ele>1830.5</ele>
        <time>2013-10-10T10:29:33Z</time>
      </trkpt>
      <trkpt lat="-21.07738" lon="55.44862">
        <ele>1830.3</ele>
        <time>2013-10-10T10:29:52Z</time>
      </trkpt>
      <trkpt lat="-21.0772" lon="55.44857">
        <ele>1831.4</ele>
        <time>2013-10-10T10:30:10Z</time>
      </trkpt>
      <trkpt lat="-21.07716" lon="55.44845">
        <ele>1830</ele>
        <time>2013-10-10T10:30:20Z</time>
      </trkpt>
      <trkpt lat="-21.07714" lon="55.44834">
        <ele>1830</ele>
        <time>2013-10-10T10:30:28Z</time>
      </trkpt>
      <trkpt lat="-21.07705" lon="55.44836">
        <ele>1831</ele>
        <time>2013-10-10T10:30:37Z</time>
      </trkpt>
      <trkpt lat="-21.07697" lon="55.44842">
        <ele>1831.1</ele>
        <time>2013-10-10T10:30:44Z</time>
      </trkpt>
      <trkpt lat="-21.07691" lon="55.44833">
        <ele>1830.9</ele>
        <time>2013-10-10T10:30:53Z</time>
      </trkpt>
      <trkpt lat="-21.07675" lon="55.44835">
        <ele>1832.3</ele>
        <time>2013-10-10T10:31:10Z</time>
      </trkpt>
      <trkpt lat="-21.07674" lon="55.44845">
        <ele>1832.9</ele>
        <time>2013-10-10T10:31:17Z</time>
      </trkpt>
      <trkpt lat="-21.07666" lon="55.44849">
        <ele>1833.1</ele>
        <time>2013-10-10T10:31:24Z</time>
      </trkpt>
      <trkpt lat="-21.07657" lon="55.44845">
        <ele>1833.4</ele>
        <time>2013-10-10T10:31:31Z</time>
      </trkpt>
      <trkpt lat="-21.07649" lon="55.44851">
        <ele>1833.9</ele>
        <time>2013-10-10T10:31:39Z</time>
      </trkpt>
      <trkpt lat="-21.07646" lon="55.4486">
        <ele>1834</ele>
        <time>2013-10-10T10:31:45Z</time>
      </trkpt>
      <trkpt lat="-21.0764" lon="55.44868">
        <ele>1834.7</ele>
        <time>2013-10-10T10:31:54Z</time>
      </trkpt>
      <trkpt lat="-21.07621" lon="55.44865">
        <ele>1836.5</ele>
        <time>2013-10-10T10:32:08Z</time>
      </trkpt>
      <trkpt lat="-21.07612" lon="55.44861">
        <ele>1836.4</ele>
        <time>2013-10-10T10:32:15Z</time>
      </trkpt>
      <trkpt lat="-21.07605" lon="55.44867">
        <ele>1837.2</ele>
        <time>2013-10-10T10:32:22Z</time>
      </trkpt>
      <trkpt lat="-21.076" lon="55.44876">
        <ele>1837.3</ele>
        <time>2013-10-10T10:32:31Z</time>
      </trkpt>
      <trkpt lat="-21.07592" lon="55.44883">
        <ele>1837.8</ele>
        <time>2013-10-10T10:32:38Z</time>
      </trkpt>
      <trkpt lat="-21.07584" lon="55.44888">
        <ele>1838.1</ele>
        <time>2013-10-10T10:32:47Z</time>
      </trkpt>
      <trkpt lat="-21.07575" lon="55.44886">
        <ele>1839.8</ele>
        <time>2013-10-10T10:32:58Z</time>
      </trkpt>
      <trkpt lat="-21.0756" lon="55.44899">
        <ele>1839.6</ele>
        <time>2013-10-10T10:33:16Z</time>
      </trkpt>
      <trkpt lat="-21.07551" lon="55.44894">
        <ele>1842.3</ele>
        <time>2013-10-10T10:33:29Z</time>
      </trkpt>
      <trkpt lat="-21.07541" lon="55.44894">
        <ele>1842</ele>
        <time>2013-10-10T10:33:38Z</time>
      </trkpt>
      <trkpt lat="-21.07532" lon="55.44896">
        <ele>1842.9</ele>
        <time>2013-10-10T10:33:48Z</time>
      </trkpt>
      <trkpt lat="-21.07522" lon="55.44893">
        <ele>1844.2</ele>
        <time>2013-10-10T10:33:56Z</time>
      </trkpt>
      <trkpt lat="-21.07513" lon="55.44892">
        <ele>1843.7</ele>
        <time>2013-10-10T10:34:03Z</time>
      </trkpt>
      <trkpt lat="-21.07496" lon="55.44902">
        <ele>1845.1</ele>
        <time>2013-10-10T10:34:15Z</time>
      </trkpt>
      <trkpt lat="-21.07489" lon="55.44908">
        <ele>1844.6</ele>
        <time>2013-10-10T10:34:23Z</time>
      </trkpt>
      <trkpt lat="-21.07481" lon="55.44902">
        <ele>1846.1</ele>
        <time>2013-10-10T10:34:33Z</time>
      </trkpt>
      <trkpt lat="-21.07474" lon="55.44896">
        <ele>1846.9</ele>
        <time>2013-10-10T10:34:41Z</time>
      </trkpt>
      <trkpt lat="-21.07465" lon="55.44891">
        <ele>1847.5</ele>
        <time>2013-10-10T10:34:49Z</time>
      </trkpt>
      <trkpt lat="-21.07457" lon="55.44888">
        <ele>1849.1</ele>
        <time>2013-10-10T10:34:56Z</time>
      </trkpt>
      <trkpt lat="-21.07447" lon="55.44887">
        <ele>1849</ele>
        <time>2013-10-10T10:35:04Z</time>
      </trkpt>
      <trkpt lat="-21.07431" lon="55.44897">
        <ele>1850</ele>
        <time>2013-10-10T10:35:20Z</time>
      </trkpt>
      <trkpt lat="-21.07423" lon="55.4489">
        <ele>1850</ele>
        <time>2013-10-10T10:35:31Z</time>
      </trkpt>
      <trkpt lat="-21.07413" lon="55.44887">
        <ele>1851</ele>
        <time>2013-10-10T10:35:39Z</time>
      </trkpt>
      <trkpt lat="-21.07404" lon="55.44887">
        <ele>1851</ele>
        <time>2013-10-10T10:35:51Z</time>
      </trkpt>
      <trkpt lat="-21.07391" lon="55.44881">
        <ele>1852</ele>
        <time>2013-10-10T10:36:03Z</time>
      </trkpt>
      <trkpt lat="-21.07377" lon="55.4487">
        <ele>1855</ele>
        <time>2013-10-10T10:36:23Z</time>
      </trkpt>
      <trkpt lat="-21.07367" lon="55.44872">
        <ele>1857.6</ele>
        <time>2013-10-10T10:36:38Z</time>
      </trkpt>
      <trkpt lat="-21.07357" lon="55.4487">
        <ele>1860.5</ele>
        <time>2013-10-10T10:36:54Z</time>
      </trkpt>
      <trkpt lat="-21.07348" lon="55.44871">
        <ele>1862.4</ele>
        <time>2013-10-10T10:37:06Z</time>
      </trkpt>
      <trkpt lat="-21.07337" lon="55.4486">
        <ele>1863</ele>
        <time>2013-10-10T10:37:34Z</time>
      </trkpt>
      <trkpt lat="-21.07329" lon="55.44857">
        <ele>1864.5</ele>
        <time>2013-10-10T10:37:46Z</time>
      </trkpt>
      <trkpt lat="-21.07318" lon="55.44858">
        <ele>1870</ele>
        <time>2013-10-10T10:38:13Z</time>
      </trkpt>
      <trkpt lat="-21.07298" lon="55.4486">
        <ele>1873</ele>
        <time>2013-10-10T10:38:35Z</time>
      </trkpt>
      <trkpt lat="-21.07289" lon="55.44859">
        <ele>1878</ele>
        <time>2013-10-10T10:38:55Z</time>
      </trkpt>
      <trkpt lat="-21.07277" lon="55.44854">
        <ele>1879</ele>
        <time>2013-10-10T10:39:07Z</time>
      </trkpt>
      <trkpt lat="-21.07267" lon="55.44858">
        <ele>1882</ele>
        <time>2013-10-10T10:39:19Z</time>
      </trkpt>
      <trkpt lat="-21.07254" lon="55.44871">
        <ele>1892</ele>
        <time>2013-10-10T10:40:17Z</time>
      </trkpt>
      <trkpt lat="-21.07247" lon="55.44878">
        <ele>1896</ele>
        <time>2013-10-10T10:40:45Z</time>
      </trkpt>
      <trkpt lat="-21.07247" lon="55.44899">
        <ele>1901</ele>
        <time>2013-10-10T10:41:13Z</time>
      </trkpt>
      <trkpt lat="-21.07246" lon="55.4491">
        <ele>1903</ele>
        <time>2013-10-10T10:41:24Z</time>
      </trkpt>
      <trkpt lat="-21.07242" lon="55.44921">
        <ele>1905</ele>
        <time>2013-10-10T10:41:40Z</time>
      </trkpt>
      <trkpt lat="-21.07237" lon="55.44909">
        <ele>1908</ele>
        <time>2013-10-10T10:41:56Z</time>
      </trkpt>
      <trkpt lat="-21.07225" lon="55.44889">
        <ele>1913</ele>
        <time>2013-10-10T10:42:25Z</time>
      </trkpt>
      <trkpt lat="-21.07226" lon="55.44877">
        <ele>1914</ele>
        <time>2013-10-10T10:42:35Z</time>
      </trkpt>
      <trkpt lat="-21.07221" lon="55.44865">
        <ele>1915</ele>
        <time>2013-10-10T10:42:47Z</time>
      </trkpt>
      <trkpt lat="-21.07216" lon="55.44856">
        <ele>1918</ele>
        <time>2013-10-10T10:43:07Z</time>
      </trkpt>
      <trkpt lat="-21.07201" lon="55.4486">
        <ele>1924</ele>
        <time>2013-10-10T10:43:36Z</time>
      </trkpt>
      <trkpt lat="-21.07189" lon="55.44856">
        <ele>1928</ele>
        <time>2013-10-10T10:44:01Z</time>
      </trkpt>
      <trkpt lat="-21.07182" lon="55.44846">
        <ele>1934</ele>
        <time>2013-10-10T10:44:41Z</time>
      </trkpt>
      <trkpt lat="-21.07169" lon="55.44861">
        <ele>1940</ele>
        <time>2013-10-10T10:45:13Z</time>
      </trkpt>
      <trkpt lat="-21.07171" lon="55.44872">
        <ele>1942</ele>
        <time>2013-10-10T10:45:25Z</time>
      </trkpt>
      <trkpt lat="-21.07171" lon="55.44858">
        <ele>1944</ele>
        <time>2013-10-10T10:45:41Z</time>
      </trkpt>
      <trkpt lat="-21.07161" lon="55.44856">
        <ele>1950</ele>
        <time>2013-10-10T10:46:21Z</time>
      </trkpt>
      <trkpt lat="-21.07142" lon="55.44857">
        <ele>1961</ele>
        <time>2013-10-10T10:47:17Z</time>
      </trkpt>
      <trkpt lat="-21.07135" lon="55.4485">
        <ele>1968.3</ele>
        <time>2013-10-10T10:47:46Z</time>
      </trkpt>
      <trkpt lat="-21.07127" lon="55.44836">
        <ele>1968.5</ele>
        <time>2013-10-10T10:48:18Z</time>
      </trkpt>
      <trkpt lat="-21.07119" lon="55.44841">
        <ele>1968.9</ele>
        <time>2013-10-10T10:48:28Z</time>
      </trkpt>
      <trkpt lat="-21.0711" lon="55.44847">
        <ele>1968</ele>
        <time>2013-10-10T10:48:36Z</time>
      </trkpt>
      <trkpt lat="-21.07101" lon="55.4485">
        <ele>1969</ele>
        <time>2013-10-10T10:48:44Z</time>
      </trkpt>
      <trkpt lat="-21.07079" lon="55.44855">
        <ele>1970.8</ele>
        <time>2013-10-10T10:49:04Z</time>
      </trkpt>
      <trkpt lat="-21.07069" lon="55.44858">
        <ele>1971</ele>
        <time>2013-10-10T10:49:12Z</time>
      </trkpt>
      <trkpt lat="-21.07062" lon="55.44863">
        <ele>1970</ele>
        <time>2013-10-10T10:49:18Z</time>
      </trkpt>
      <trkpt lat="-21.07053" lon="55.44865">
        <ele>1968.9</ele>
        <time>2013-10-10T10:49:25Z</time>
      </trkpt>
      <trkpt lat="-21.07043" lon="55.44868">
        <ele>1969.5</ele>
        <time>2013-10-10T10:49:32Z</time>
      </trkpt>
      <trkpt lat="-21.07033" lon="55.4487">
        <ele>1968.4</ele>
        <time>2013-10-10T10:49:39Z</time>
      </trkpt>
      <trkpt lat="-21.07022" lon="55.44871">
        <ele>1967.7</ele>
        <time>2013-10-10T10:49:46Z</time>
      </trkpt>
      <trkpt lat="-21.07013" lon="55.44868">
        <ele>1967.6</ele>
        <time>2013-10-10T10:49:53Z</time>
      </trkpt>
      <trkpt lat="-21.06998" lon="55.44854">
        <ele>1964.8</ele>
        <time>2013-10-10T10:50:08Z</time>
      </trkpt>
      <trkpt lat="-21.0699" lon="55.44848">
        <ele>1963.7</ele>
        <time>2013-10-10T10:50:15Z</time>
      </trkpt>
      <trkpt lat="-21.06981" lon="55.44848">
        <ele>1963.2</ele>
        <time>2013-10-10T10:50:23Z</time>
      </trkpt>
      <trkpt lat="-21.06971" lon="55.44849">
        <ele>1962.5</ele>
        <time>2013-10-10T10:50:38Z</time>
      </trkpt>
      <trkpt lat="-21.0696" lon="55.44848">
        <ele>1960.7</ele>
        <time>2013-10-10T10:50:45Z</time>
      </trkpt>
      <trkpt lat="-21.06951" lon="55.44844">
        <ele>1959.8</ele>
        <time>2013-10-10T10:50:54Z</time>
      </trkpt>
      <trkpt lat="-21.06945" lon="55.44825">
        <ele>1957.1</ele>
        <time>2013-10-10T10:51:12Z</time>
      </trkpt>
      <trkpt lat="-21.06942" lon="55.44815">
        <ele>1956.9</ele>
        <time>2013-10-10T10:51:19Z</time>
      </trkpt>
      <trkpt lat="-21.06934" lon="55.4481">
        <ele>1956</ele>
        <time>2013-10-10T10:51:27Z</time>
      </trkpt>
      <trkpt lat="-21.06926" lon="55.44805">
        <ele>1955.3</ele>
        <time>2013-10-10T10:51:34Z</time>
      </trkpt>
      <trkpt lat="-21.06918" lon="55.44798">
        <ele>1955</ele>
        <time>2013-10-10T10:51:41Z</time>
      </trkpt>
      <trkpt lat="-21.06912" lon="55.4479">
        <ele>1954</ele>
        <time>2013-10-10T10:51:48Z</time>
      </trkpt>
      <trkpt lat="-21.06905" lon="55.44783">
        <ele>1953.2</ele>
        <time>2013-10-10T10:51:54Z</time>
      </trkpt>
      <trkpt lat="-21.06897" lon="55.44776">
        <ele>1952.2</ele>
        <time>2013-10-10T10:52:01Z</time>
      </trkpt>
      <trkpt lat="-21.06879" lon="55.44768">
        <ele>1950.4</ele>
        <time>2013-10-10T10:52:15Z</time>
      </trkpt>
      <trkpt lat="-21.06868" lon="55.44768">
        <ele>1949.6</ele>
        <time>2013-10-10T10:52:21Z</time>
      </trkpt>
      <trkpt lat="-21.06859" lon="55.44767">
        <ele>1948.7</ele>
        <time>2013-10-10T10:52:27Z</time>
      </trkpt>
      <trkpt lat="-21.06849" lon="55.44765">
        <ele>1947.9</ele>
        <time>2013-10-10T10:52:33Z</time>
      </trkpt>
      <trkpt lat="-21.06841" lon="55.44758">
        <ele>1947.9</ele>
        <time>2013-10-10T10:52:40Z</time>
      </trkpt>
      <trkpt lat="-21.06833" lon="55.44753">
        <ele>1946.9</ele>
        <time>2013-10-10T10:52:48Z</time>
      </trkpt>
      <trkpt lat="-21.06828" lon="55.44745">
        <ele>1945.5</ele>
        <time>2013-10-10T10:52:55Z</time>
      </trkpt>
      <trkpt lat="-21.06826" lon="55.44735">
        <ele>1945.2</ele>
        <time>2013-10-10T10:53:02Z</time>
      </trkpt>
      <trkpt lat="-21.06816" lon="55.44717">
        <ele>1942.8</ele>
        <time>2013-10-10T10:53:15Z</time>
      </trkpt>
      <trkpt lat="-21.06809" lon="55.44711">
        <ele>1941.4</ele>
        <time>2013-10-10T10:53:21Z</time>
      </trkpt>
      <trkpt lat="-21.068" lon="55.4471">
        <ele>1940.7</ele>
        <time>2013-10-10T10:53:28Z</time>
      </trkpt>
      <trkpt lat="-21.06791" lon="55.44715">
        <ele>1939.9</ele>
        <time>2013-10-10T10:53:34Z</time>
      </trkpt>
      <trkpt lat="-21.06783" lon="55.4472">
        <ele>1939.3</ele>
        <time>2013-10-10T10:53:40Z</time>
      </trkpt>
      <trkpt lat="-21.06774" lon="55.44722">
        <ele>1938.2</ele>
        <time>2013-10-10T10:53:46Z</time>
      </trkpt>
      <trkpt lat="-21.06765" lon="55.44725">
        <ele>1938</ele>
        <time>2013-10-10T10:53:52Z</time>
      </trkpt>
      <trkpt lat="-21.06756" lon="55.44729">
        <ele>1936.1</ele>
        <time>2013-10-10T10:53:57Z</time>
      </trkpt>
      <trkpt lat="-21.06747" lon="55.44734">
        <ele>1935</ele>
        <time>2013-10-10T10:54:03Z</time>
      </trkpt>
      <trkpt lat="-21.06729" lon="55.44729">
        <ele>1933.3</ele>
        <time>2013-10-10T10:54:15Z</time>
      </trkpt>
      <trkpt lat="-21.0672" lon="55.44723">
        <ele>1931.6</ele>
        <time>2013-10-10T10:54:22Z</time>
      </trkpt>
      <trkpt lat="-21.06711" lon="55.44724">
        <ele>1930.8</ele>
        <time>2013-10-10T10:54:28Z</time>
      </trkpt>
      <trkpt lat="-21.06701" lon="55.44727">
        <ele>1929.1</ele>
        <time>2013-10-10T10:54:35Z</time>
      </trkpt>
      <trkpt lat="-21.06691" lon="55.44732">
        <ele>1928.7</ele>
        <time>2013-10-10T10:54:41Z</time>
      </trkpt>
      <trkpt lat="-21.06683" lon="55.44739">
        <ele>1928</ele>
        <time>2013-10-10T10:54:47Z</time>
      </trkpt>
      <trkpt lat="-21.06674" lon="55.44741">
        <ele>1926.4</ele>
        <time>2013-10-10T10:54:54Z</time>
      </trkpt>
      <trkpt lat="-21.06665" lon="55.44743">
        <ele>1927.2</ele>
        <time>2013-10-10T10:55:00Z</time>
      </trkpt>
      <trkpt lat="-21.06655" lon="55.44743">
        <ele>1926</ele>
        <time>2013-10-10T10:55:06Z</time>
      </trkpt>
      <trkpt lat="-21.06636" lon="55.44736">
        <ele>1923.4</ele>
        <time>2013-10-10T10:55:20Z</time>
      </trkpt>
      <trkpt lat="-21.06627" lon="55.44734">
        <ele>1921.6</ele>
        <time>2013-10-10T10:55:26Z</time>
      </trkpt>
      <trkpt lat="-21.06618" lon="55.4473">
        <ele>1920.4</ele>
        <time>2013-10-10T10:55:31Z</time>
      </trkpt>
      <trkpt lat="-21.06609" lon="55.44728">
        <ele>1920.2</ele>
        <time>2013-10-10T10:55:37Z</time>
      </trkpt>
      <trkpt lat="-21.06599" lon="55.44728">
        <ele>1919.2</ele>
        <time>2013-10-10T10:55:42Z</time>
      </trkpt>
      <trkpt lat="-21.06591" lon="55.44734">
        <ele>1918.4</ele>
        <time>2013-10-10T10:55:48Z</time>
      </trkpt>
      <trkpt lat="-21.06588" lon="55.44743">
        <ele>1917.2</ele>
        <time>2013-10-10T10:55:53Z</time>
      </trkpt>
      <trkpt lat="-21.06581" lon="55.44752">
        <ele>1916.4</ele>
        <time>2013-10-10T10:55:59Z</time>
      </trkpt>
      <trkpt lat="-21.06571" lon="55.44755">
        <ele>1916.7</ele>
        <time>2013-10-10T10:56:05Z</time>
      </trkpt>
      <trkpt lat="-21.0656" lon="55.44757">
        <ele>1915.4</ele>
        <time>2013-10-10T10:56:11Z</time>
      </trkpt>
      <trkpt lat="-21.06541" lon="55.44758">
        <ele>1912.5</ele>
        <time>2013-10-10T10:56:22Z</time>
      </trkpt>
      <trkpt lat="-21.06531" lon="55.44761">
        <ele>1911.3</ele>
        <time>2013-10-10T10:56:28Z</time>
      </trkpt>
      <trkpt lat="-21.06521" lon="55.44762">
        <ele>1911.1</ele>
        <time>2013-10-10T10:56:34Z</time>
      </trkpt>
      <trkpt lat="-21.06511" lon="55.44762">
        <ele>1909.8</ele>
        <time>2013-10-10T10:56:40Z</time>
      </trkpt>
      <trkpt lat="-21.06502" lon="55.44759">
        <ele>1908.6</ele>
        <time>2013-10-10T10:56:46Z</time>
      </trkpt>
      <trkpt lat="-21.06492" lon="55.44756">
        <ele>1908.7</ele>
        <time>2013-10-10T10:56:52Z</time>
      </trkpt>
      <trkpt lat="-21.06482" lon="55.44757">
        <ele>1906.3</ele>
        <time>2013-10-10T10:56:59Z</time>
      </trkpt>
      <trkpt lat="-21.06473" lon="55.44757">
        <ele>1905.1</ele>
        <time>2013-10-10T10:57:05Z</time>
      </trkpt>
      <trkpt lat="-21.06465" lon="55.44765">
        <ele>1903.8</ele>
        <time>2013-10-10T10:57:11Z</time>
      </trkpt>
      <trkpt lat="-21.06457" lon="55.4477">
        <ele>1902.7</ele>
        <time>2013-10-10T10:57:18Z</time>
      </trkpt>
      <trkpt lat="-21.06459" lon="55.4478">
        <ele>1900.8</ele>
        <time>2013-10-10T10:58:38Z</time>
      </trkpt>
      <trkpt lat="-21.06477" lon="55.44775">
        <ele>1900.2</ele>
        <time>2013-10-10T10:58:53Z</time>
      </trkpt>
      <trkpt lat="-21.06488" lon="55.44776">
        <ele>1900.3</ele>
        <time>2013-10-10T10:59:00Z</time>
      </trkpt>
      <trkpt lat="-21.06497" lon="55.44777">
        <ele>1899.3</ele>
        <time>2013-10-10T10:59:08Z</time>
      </trkpt>
      <trkpt lat="-21.06505" lon="55.44783">
        <ele>1898.2</ele>
        <time>2013-10-10T10:59:15Z</time>
      </trkpt>
      <trkpt lat="-21.06514" lon="55.44786">
        <ele>1897.4</ele>
        <time>2013-10-10T10:59:21Z</time>
      </trkpt>
      <trkpt lat="-21.06523" lon="55.44787">
        <ele>1897</ele>
        <time>2013-10-10T10:59:27Z</time>
      </trkpt>
      <trkpt lat="-21.06533" lon="55.44786">
        <ele>1896.7</ele>
        <time>2013-10-10T10:59:33Z</time>
      </trkpt>
      <trkpt lat="-21.06543" lon="55.44785">
        <ele>1896.1</ele>
        <time>2013-10-10T10:59:39Z</time>
      </trkpt>
      <trkpt lat="-21.06562" lon="55.44785">
        <ele>1893.5</ele>
        <time>2013-10-10T10:59:51Z</time>
      </trkpt>
      <trkpt lat="-21.06572" lon="55.44785">
        <ele>1893.9</ele>
        <time>2013-10-10T10:59:57Z</time>
      </trkpt>
      <trkpt lat="-21.06581" lon="55.44785">
        <ele>1892.7</ele>
        <time>2013-10-10T11:00:03Z</time>
      </trkpt>
      <trkpt lat="-21.0659" lon="55.44788">
        <ele>1892</ele>
        <time>2013-10-10T11:00:09Z</time>
      </trkpt>
      <trkpt lat="-21.06599" lon="55.44792">
        <ele>1891.6</ele>
        <time>2013-10-10T11:00:15Z</time>
      </trkpt>
      <trkpt lat="-21.06609" lon="55.44795">
        <ele>1891.3</ele>
        <time>2013-10-10T11:00:22Z</time>
      </trkpt>
      <trkpt lat="-21.06618" lon="55.44797">
        <ele>1891.5</ele>
        <time>2013-10-10T11:00:29Z</time>
      </trkpt>
      <trkpt lat="-21.06627" lon="55.448">
        <ele>1890.4</ele>
        <time>2013-10-10T11:00:35Z</time>
      </trkpt>
      <trkpt lat="-21.06637" lon="55.44803">
        <ele>1889.9</ele>
        <time>2013-10-10T11:00:41Z</time>
      </trkpt>
      <trkpt lat="-21.06655" lon="55.44812">
        <ele>1888.6</ele>
        <time>2013-10-10T11:00:54Z</time>
      </trkpt>
      <trkpt lat="-21.06662" lon="55.44818">
        <ele>1888</ele>
        <time>2013-10-10T11:01:00Z</time>
      </trkpt>
      <trkpt lat="-21.0667" lon="55.44824">
        <ele>1886.6</ele>
        <time>2013-10-10T11:01:06Z</time>
      </trkpt>
      <trkpt lat="-21.06678" lon="55.44829">
        <ele>1885.9</ele>
        <time>2013-10-10T11:01:12Z</time>
      </trkpt>
      <trkpt lat="-21.06672" lon="55.44836">
        <ele>1884.9</ele>
        <time>2013-10-10T11:01:22Z</time>
      </trkpt>
      <trkpt lat="-21.06663" lon="55.4483">
        <ele>1884.5</ele>
        <time>2013-10-10T11:01:29Z</time>
      </trkpt>
      <trkpt lat="-21.06655" lon="55.44827">
        <ele>1882.4</ele>
        <time>2013-10-10T11:01:37Z</time>
      </trkpt>
      <trkpt lat="-21.06646" lon="55.44825">
        <ele>1881.3</ele>
        <time>2013-10-10T11:01:43Z</time>
      </trkpt>
      <trkpt lat="-21.06627" lon="55.4482">
        <ele>1878.4</ele>
        <time>2013-10-10T11:01:58Z</time>
      </trkpt>
      <trkpt lat="-21.06617" lon="55.44821">
        <ele>1878.1</ele>
        <time>2013-10-10T11:02:05Z</time>
      </trkpt>
      <trkpt lat="-21.06606" lon="55.44824">
        <ele>1877.3</ele>
        <time>2013-10-10T11:02:11Z</time>
      </trkpt>
      <trkpt lat="-21.06596" lon="55.44826">
        <ele>1874.6</ele>
        <time>2013-10-10T11:02:16Z</time>
      </trkpt>
      <trkpt lat="-21.06587" lon="55.44831">
        <ele>1874.4</ele>
        <time>2013-10-10T11:02:22Z</time>
      </trkpt>
      <trkpt lat="-21.06579" lon="55.44836">
        <ele>1872.5</ele>
        <time>2013-10-10T11:02:28Z</time>
      </trkpt>
      <trkpt lat="-21.06579" lon="55.44846">
        <ele>1872.1</ele>
        <time>2013-10-10T11:02:36Z</time>
      </trkpt>
      <trkpt lat="-21.06587" lon="55.44852">
        <ele>1870.4</ele>
        <time>2013-10-10T11:02:43Z</time>
      </trkpt>
      <trkpt lat="-21.06595" lon="55.44857">
        <ele>1870.2</ele>
        <time>2013-10-10T11:02:50Z</time>
      </trkpt>
      <trkpt lat="-21.06611" lon="55.44869">
        <ele>1866.7</ele>
        <time>2013-10-10T11:03:03Z</time>
      </trkpt>
      <trkpt lat="-21.06618" lon="55.44875">
        <ele>1865.4</ele>
        <time>2013-10-10T11:03:09Z</time>
      </trkpt>
      <trkpt lat="-21.06626" lon="55.44881">
        <ele>1864.2</ele>
        <time>2013-10-10T11:03:15Z</time>
      </trkpt>
      <trkpt lat="-21.06633" lon="55.44887">
        <ele>1862.4</ele>
        <time>2013-10-10T11:03:22Z</time>
      </trkpt>
      <trkpt lat="-21.0664" lon="55.44894">
        <ele>1861.7</ele>
        <time>2013-10-10T11:03:29Z</time>
      </trkpt>
      <trkpt lat="-21.06647" lon="55.44901">
        <ele>1860.6</ele>
        <time>2013-10-10T11:03:37Z</time>
      </trkpt>
      <trkpt lat="-21.06651" lon="55.4491">
        <ele>1858.8</ele>
        <time>2013-10-10T11:03:45Z</time>
      </trkpt>
      <trkpt lat="-21.06654" lon="55.4492">
        <ele>1857.7</ele>
        <time>2013-10-10T11:03:53Z</time>
      </trkpt>
      <trkpt lat="-21.06653" lon="55.44941">
        <ele>1855.4</ele>
        <time>2013-10-10T11:04:06Z</time>
      </trkpt>
      <trkpt lat="-21.06649" lon="55.44951">
        <ele>1853.7</ele>
        <time>2013-10-10T11:04:12Z</time>
      </trkpt>
      <trkpt lat="-21.06642" lon="55.44958">
        <ele>1852.1</ele>
        <time>2013-10-10T11:04:20Z</time>
      </trkpt>
      <trkpt lat="-21.06633" lon="55.44962">
        <ele>1851.2</ele>
        <time>2013-10-10T11:04:27Z</time>
      </trkpt>
      <trkpt lat="-21.06624" lon="55.44967">
        <ele>1849.3</ele>
        <time>2013-10-10T11:04:35Z</time>
      </trkpt>
      <trkpt lat="-21.06616" lon="55.44971">
        <ele>1848.5</ele>
        <time>2013-10-10T11:04:42Z</time>
      </trkpt>
      <trkpt lat="-21.06607" lon="55.44975">
        <ele>1847.3</ele>
        <time>2013-10-10T11:04:48Z</time>
      </trkpt>
      <trkpt lat="-21.06598" lon="55.44978">
        <ele>1846.7</ele>
        <time>2013-10-10T11:04:54Z</time>
      </trkpt>
      <trkpt lat="-21.0658" lon="55.44983">
        <ele>1846.5</ele>
        <time>2013-10-10T11:05:07Z</time>
      </trkpt>
      <trkpt lat="-21.0657" lon="55.44986">
        <ele>1845.1</ele>
        <time>2013-10-10T11:05:14Z</time>
      </trkpt>
      <trkpt lat="-21.0656" lon="55.44986">
        <ele>1844.8</ele>
        <time>2013-10-10T11:05:21Z</time>
      </trkpt>
      <trkpt lat="-21.06549" lon="55.44986">
        <ele>1843.3</ele>
        <time>2013-10-10T11:05:28Z</time>
      </trkpt>
      <trkpt lat="-21.0654" lon="55.44987">
        <ele>1842.2</ele>
        <time>2013-10-10T11:05:34Z</time>
      </trkpt>
      <trkpt lat="-21.0653" lon="55.4499">
        <ele>1841.5</ele>
        <time>2013-10-10T11:05:40Z</time>
      </trkpt>
      <trkpt lat="-21.06521" lon="55.44993">
        <ele>1841.2</ele>
        <time>2013-10-10T11:05:45Z</time>
      </trkpt>
      <trkpt lat="-21.06513" lon="55.44999">
        <ele>1839.9</ele>
        <time>2013-10-10T11:05:51Z</time>
      </trkpt>
      <trkpt lat="-21.06508" lon="55.45008">
        <ele>1840.1</ele>
        <time>2013-10-10T11:05:57Z</time>
      </trkpt>
      <trkpt lat="-21.06501" lon="55.45027">
        <ele>1839.8</ele>
        <time>2013-10-10T11:06:09Z</time>
      </trkpt>
      <trkpt lat="-21.06501" lon="55.45037">
        <ele>1838.9</ele>
        <time>2013-10-10T11:06:15Z</time>
      </trkpt>
      <trkpt lat="-21.06503" lon="55.45046">
        <ele>1837.3</ele>
        <time>2013-10-10T11:06:21Z</time>
      </trkpt>
      <trkpt lat="-21.06507" lon="55.45056">
        <ele>1835.7</ele>
        <time>2013-10-10T11:06:27Z</time>
      </trkpt>
      <trkpt lat="-21.06513" lon="55.45064">
        <ele>1834.6</ele>
        <time>2013-10-10T11:06:32Z</time>
      </trkpt>
      <trkpt lat="-21.06521" lon="55.4507">
        <ele>1833.9</ele>
        <time>2013-10-10T11:06:37Z</time>
      </trkpt>
      <trkpt lat="-21.06528" lon="55.45075">
        <ele>1832.9</ele>
        <time>2013-10-10T11:06:42Z</time>
      </trkpt>
      <trkpt lat="-21.06537" lon="55.45082">
        <ele>1832.4</ele>
        <time>2013-10-10T11:06:49Z</time>
      </trkpt>
      <trkpt lat="-21.06544" lon="55.45088">
        <ele>1831</ele>
        <time>2013-10-10T11:06:54Z</time>
      </trkpt>
      <trkpt lat="-21.06554" lon="55.4509">
        <ele>1830.4</ele>
        <time>2013-10-10T11:07:00Z</time>
      </trkpt>
      <trkpt lat="-21.06573" lon="55.45093">
        <ele>1829.1</ele>
        <time>2013-10-10T11:07:11Z</time>
      </trkpt>
      <trkpt lat="-21.06583" lon="55.45096">
        <ele>1829.6</ele>
        <time>2013-10-10T11:07:17Z</time>
      </trkpt>
      <trkpt lat="-21.06592" lon="55.451">
        <ele>1829.5</ele>
        <time>2013-10-10T11:07:23Z</time>
      </trkpt>
      <trkpt lat="-21.06601" lon="55.45102">
        <ele>1829.2</ele>
        <time>2013-10-10T11:07:29Z</time>
      </trkpt>
      <trkpt lat="-21.0661" lon="55.45104">
        <ele>1829</ele>
        <time>2013-10-10T11:07:37Z</time>
      </trkpt>
      <trkpt lat="-21.06602" lon="55.45107">
        <ele>1826.4</ele>
        <time>2013-10-10T11:08:00Z</time>
      </trkpt>
      <trkpt lat="-21.06592" lon="55.45106">
        <ele>1824</ele>
        <time>2013-10-10T11:08:10Z</time>
      </trkpt>
      <trkpt lat="-21.06575" lon="55.45116">
        <ele>1823.3</ele>
        <time>2013-10-10T11:08:23Z</time>
      </trkpt>
      <trkpt lat="-21.06566" lon="55.45119">
        <ele>1822.4</ele>
        <time>2013-10-10T11:08:29Z</time>
      </trkpt>
      <trkpt lat="-21.06557" lon="55.45121">
        <ele>1822.5</ele>
        <time>2013-10-10T11:08:34Z</time>
      </trkpt>
      <trkpt lat="-21.06547" lon="55.45125">
        <ele>1822</ele>
        <time>2013-10-10T11:08:40Z</time>
      </trkpt>
      <trkpt lat="-21.06537" lon="55.45121">
        <ele>1820.9</ele>
        <time>2013-10-10T11:08:46Z</time>
      </trkpt>
      <trkpt lat="-21.06529" lon="55.45118">
        <ele>1819.8</ele>
        <time>2013-10-10T11:08:52Z</time>
      </trkpt>
      <trkpt lat="-21.0652" lon="55.45116">
        <ele>1819.9</ele>
        <time>2013-10-10T11:08:59Z</time>
      </trkpt>
      <trkpt lat="-21.0651" lon="55.45113">
        <ele>1819.3</ele>
        <time>2013-10-10T11:09:07Z</time>
      </trkpt>
      <trkpt lat="-21.065" lon="55.4511">
        <ele>1818.8</ele>
        <time>2013-10-10T11:09:16Z</time>
      </trkpt>
      <trkpt lat="-21.06481" lon="55.45105">
        <ele>1817.2</ele>
        <time>2013-10-10T11:09:28Z</time>
      </trkpt>
      <trkpt lat="-21.06476" lon="55.45097">
        <ele>1816</ele>
        <time>2013-10-10T11:09:39Z</time>
      </trkpt>
      <trkpt lat="-21.06469" lon="55.45091">
        <ele>1814.3</ele>
        <time>2013-10-10T11:09:47Z</time>
      </trkpt>
      <trkpt lat="-21.06462" lon="55.45083">
        <ele>1814.6</ele>
        <time>2013-10-10T11:09:54Z</time>
      </trkpt>
      <trkpt lat="-21.06453" lon="55.45078">
        <ele>1814</ele>
        <time>2013-10-10T11:10:01Z</time>
      </trkpt>
      <trkpt lat="-21.06445" lon="55.45071">
        <ele>1814</ele>
        <time>2013-10-10T11:10:08Z</time>
      </trkpt>
      <trkpt lat="-21.06438" lon="55.45063">
        <ele>1812.6</ele>
        <time>2013-10-10T11:10:14Z</time>
      </trkpt>
      <trkpt lat="-21.0643" lon="55.45059">
        <ele>1811.5</ele>
        <time>2013-10-10T11:10:21Z</time>
      </trkpt>
      <trkpt lat="-21.06413" lon="55.45069">
        <ele>1810.1</ele>
        <time>2013-10-10T11:10:34Z</time>
      </trkpt>
      <trkpt lat="-21.06407" lon="55.45076">
        <ele>1809.5</ele>
        <time>2013-10-10T11:10:39Z</time>
      </trkpt>
      <trkpt lat="-21.06397" lon="55.4508">
        <ele>1809.3</ele>
        <time>2013-10-10T11:10:45Z</time>
      </trkpt>
      <trkpt lat="-21.06388" lon="55.45085">
        <ele>1808.8</ele>
        <time>2013-10-10T11:10:50Z</time>
      </trkpt>
      <trkpt lat="-21.06378" lon="55.45088">
        <ele>1809</ele>
        <time>2013-10-10T11:10:56Z</time>
      </trkpt>
      <trkpt lat="-21.06369" lon="55.45092">
        <ele>1808</ele>
        <time>2013-10-10T11:11:02Z</time>
      </trkpt>
      <trkpt lat="-21.06361" lon="55.45097">
        <ele>1807.5</ele>
        <time>2013-10-10T11:11:08Z</time>
      </trkpt>
      <trkpt lat="-21.06352" lon="55.45101">
        <ele>1806.7</ele>
        <time>2013-10-10T11:11:14Z</time>
      </trkpt>
      <trkpt lat="-21.06344" lon="55.45108">
        <ele>1806</ele>
        <time>2013-10-10T11:11:20Z</time>
      </trkpt>
      <trkpt lat="-21.06336" lon="55.45112">
        <ele>1805.8</ele>
        <time>2013-10-10T11:11:26Z</time>
      </trkpt>
      <trkpt lat="-21.06317" lon="55.45121">
        <ele>1804.5</ele>
        <time>2013-10-10T11:11:41Z</time>
      </trkpt>
      <trkpt lat="-21.06307" lon="55.45124">
        <ele>1802.7</ele>
        <time>2013-10-10T11:11:50Z</time>
      </trkpt>
      <trkpt lat="-21.06297" lon="55.45123">
        <ele>1801.5</ele>
        <time>2013-10-10T11:11:57Z</time>
      </trkpt>
      <trkpt lat="-21.06287" lon="55.45122">
        <ele>1801.3</ele>
        <time>2013-10-10T11:12:03Z</time>
      </trkpt>
      <trkpt lat="-21.06278" lon="55.45125">
        <ele>1801</ele>
        <time>2013-10-10T11:12:07Z</time>
      </trkpt>
      <trkpt lat="-21.0627" lon="55.4513">
        <ele>1800.5</ele>
        <time>2013-10-10T11:12:13Z</time>
      </trkpt>
      <trkpt lat="-21.06264" lon="55.45137">
        <ele>1799.9</ele>
        <time>2013-10-10T11:12:19Z</time>
      </trkpt>
      <trkpt lat="-21.06258" lon="55.45145">
        <ele>1798.5</ele>
        <time>2013-10-10T11:12:26Z</time>
      </trkpt>
      <trkpt lat="-21.06251" lon="55.45152">
        <ele>1797.5</ele>
        <time>2013-10-10T11:12:34Z</time>
      </trkpt>
      <trkpt lat="-21.06241" lon="55.45169">
        <ele>1795.9</ele>
        <time>2013-10-10T11:12:50Z</time>
      </trkpt>
      <trkpt lat="-21.06238" lon="55.45179">
        <ele>1794.7</ele>
        <time>2013-10-10T11:13:00Z</time>
      </trkpt>
      <trkpt lat="-21.06234" lon="55.45187">
        <ele>1793.2</ele>
        <time>2013-10-10T11:13:07Z</time>
      </trkpt>
      <trkpt lat="-21.06227" lon="55.45196">
        <ele>1793.8</ele>
        <time>2013-10-10T11:13:13Z</time>
      </trkpt>
      <trkpt lat="-21.06222" lon="55.45204">
        <ele>1794</ele>
        <time>2013-10-10T11:13:18Z</time>
      </trkpt>
      <trkpt lat="-21.06219" lon="55.45213">
        <ele>1793.6</ele>
        <time>2013-10-10T11:13:23Z</time>
      </trkpt>
      <trkpt lat="-21.06212" lon="55.45221">
        <ele>1793.9</ele>
        <time>2013-10-10T11:13:29Z</time>
      </trkpt>
      <trkpt lat="-21.06204" lon="55.45227">
        <ele>1793.7</ele>
        <time>2013-10-10T11:13:33Z</time>
      </trkpt>
      <trkpt lat="-21.06198" lon="55.45234">
        <ele>1792.6</ele>
        <time>2013-10-10T11:13:37Z</time>
      </trkpt>
      <trkpt lat="-21.06183" lon="55.45246">
        <ele>1790.5</ele>
        <time>2013-10-10T11:13:51Z</time>
      </trkpt>
      <trkpt lat="-21.06176" lon="55.45253">
        <ele>1790.5</ele>
        <time>2013-10-10T11:13:59Z</time>
      </trkpt>
      <trkpt lat="-21.06172" lon="55.45263">
        <ele>1791.3</ele>
        <time>2013-10-10T11:14:08Z</time>
      </trkpt>
      <trkpt lat="-21.06165" lon="55.45269">
        <ele>1792.1</ele>
        <time>2013-10-10T11:14:17Z</time>
      </trkpt>
      <trkpt lat="-21.06156" lon="55.45273">
        <ele>1795</ele>
        <time>2013-10-10T11:14:31Z</time>
      </trkpt>
      <trkpt lat="-21.06147" lon="55.45276">
        <ele>1798.4</ele>
        <time>2013-10-10T11:14:49Z</time>
      </trkpt>
      <trkpt lat="-21.06136" lon="55.45293">
        <ele>1803.5</ele>
        <time>2013-10-10T11:15:17Z</time>
      </trkpt>
      <trkpt lat="-21.06127" lon="55.45295">
        <ele>1805.8</ele>
        <time>2013-10-10T11:15:38Z</time>
      </trkpt>
      <trkpt lat="-21.06112" lon="55.45315">
        <ele>1807</ele>
        <time>2013-10-10T11:15:52Z</time>
      </trkpt>
      <trkpt lat="-21.06105" lon="55.45344">
        <ele>1807</ele>
        <time>2013-10-10T11:16:24Z</time>
      </trkpt>
      <trkpt lat="-21.06096" lon="55.45349">
        <ele>1805.2</ele>
        <time>2013-10-10T11:16:34Z</time>
      </trkpt>
      <trkpt lat="-21.06089" lon="55.45342">
        <ele>1802.6</ele>
        <time>2013-10-10T11:16:42Z</time>
      </trkpt>
      <trkpt lat="-21.06082" lon="55.45336">
        <ele>1797.6</ele>
        <time>2013-10-10T11:16:54Z</time>
      </trkpt>
      <trkpt lat="-21.06073" lon="55.45337">
        <ele>1795.4</ele>
        <time>2013-10-10T11:17:03Z</time>
      </trkpt>
      <trkpt lat="-21.06073" lon="55.45353">
        <ele>1784.3</ele>
        <time>2013-10-10T11:17:43Z</time>
      </trkpt>
      <trkpt lat="-21.06063" lon="55.45355">
        <ele>1779.3</ele>
        <time>2013-10-10T11:18:03Z</time>
      </trkpt>
      <trkpt lat="-21.06057" lon="55.45363">
        <ele>1777.3</ele>
        <time>2013-10-10T11:18:12Z</time>
      </trkpt>
      <trkpt lat="-21.06052" lon="55.45382">
        <ele>1776</ele>
        <time>2013-10-10T11:18:28Z</time>
      </trkpt>
      <trkpt lat="-21.06042" lon="55.45378">
        <ele>1774.4</ele>
        <time>2013-10-10T11:18:34Z</time>
      </trkpt>
      <trkpt lat="-21.06034" lon="55.45374">
        <ele>1773.8</ele>
        <time>2013-10-10T11:18:41Z</time>
      </trkpt>
      <trkpt lat="-21.06025" lon="55.4538">
        <ele>1772</ele>
        <time>2013-10-10T11:18:53Z</time>
      </trkpt>
      <trkpt lat="-21.0602" lon="55.45388">
        <ele>1771.7</ele>
        <time>2013-10-10T11:18:58Z</time>
      </trkpt>
      <trkpt lat="-21.06012" lon="55.45394">
        <ele>1771.1</ele>
        <time>2013-10-10T11:19:03Z</time>
      </trkpt>
      <trkpt lat="-21.06003" lon="55.45393">
        <ele>1770.2</ele>
        <time>2013-10-10T11:19:08Z</time>
      </trkpt>
      <trkpt lat="-21.05993" lon="55.45392">
        <ele>1769.4</ele>
        <time>2013-10-10T11:19:13Z</time>
      </trkpt>
      <trkpt lat="-21.05974" lon="55.4538">
        <ele>1767</ele>
        <time>2013-10-10T11:19:25Z</time>
      </trkpt>
      <trkpt lat="-21.05966" lon="55.45383">
        <ele>1766.8</ele>
        <time>2013-10-10T11:19:32Z</time>
      </trkpt>
      <trkpt lat="-21.05957" lon="55.45388">
        <ele>1766.4</ele>
        <time>2013-10-10T11:19:37Z</time>
      </trkpt>
      <trkpt lat="-21.05947" lon="55.45383">
        <ele>1764.9</ele>
        <time>2013-10-10T11:19:45Z</time>
      </trkpt>
      <trkpt lat="-21.05939" lon="55.45379">
        <ele>1763.7</ele>
        <time>2013-10-10T11:19:53Z</time>
      </trkpt>
      <trkpt lat="-21.05929" lon="55.45383">
        <ele>1762.5</ele>
        <time>2013-10-10T11:20:02Z</time>
      </trkpt>
      <trkpt lat="-21.05921" lon="55.4539">
        <ele>1761</ele>
        <time>2013-10-10T11:20:08Z</time>
      </trkpt>
      <trkpt lat="-21.05912" lon="55.45394">
        <ele>1760.2</ele>
        <time>2013-10-10T11:20:15Z</time>
      </trkpt>
      <trkpt lat="-21.05897" lon="55.45406">
        <ele>1757.7</ele>
        <time>2013-10-10T11:20:28Z</time>
      </trkpt>
      <trkpt lat="-21.0589" lon="55.45413">
        <ele>1757.2</ele>
        <time>2013-10-10T11:20:35Z</time>
      </trkpt>
      <trkpt lat="-21.05888" lon="55.45423">
        <ele>1756.6</ele>
        <time>2013-10-10T11:20:40Z</time>
      </trkpt>
      <trkpt lat="-21.05885" lon="55.45432">
        <ele>1756.5</ele>
        <time>2013-10-10T11:20:44Z</time>
      </trkpt>
      <trkpt lat="-21.05877" lon="55.45438">
        <ele>1754.9</ele>
        <time>2013-10-10T11:20:50Z</time>
      </trkpt>
      <trkpt lat="-21.05887" lon="55.45437">
        <ele>1754.5</ele>
        <time>2013-10-10T11:21:01Z</time>
      </trkpt>
      <trkpt lat="-21.05893" lon="55.45429">
        <ele>1752.2</ele>
        <time>2013-10-10T11:21:09Z</time>
      </trkpt>
      <trkpt lat="-21.05902" lon="55.45427">
        <ele>1751.1</ele>
        <time>2013-10-10T11:21:19Z</time>
      </trkpt>
      <trkpt lat="-21.05905" lon="55.45429">
        <ele>1747.5</ele>
        <time>2013-10-10T11:21:42Z</time>
      </trkpt>
      <trkpt lat="-21.05898" lon="55.45437">
        <ele>1746.2</ele>
        <time>2013-10-10T11:21:49Z</time>
      </trkpt>
      <trkpt lat="-21.05892" lon="55.45446">
        <ele>1745.4</ele>
        <time>2013-10-10T11:21:57Z</time>
      </trkpt>
      <trkpt lat="-21.05885" lon="55.45452">
        <ele>1744.5</ele>
        <time>2013-10-10T11:22:03Z</time>
      </trkpt>
      <trkpt lat="-21.05877" lon="55.45457">
        <ele>1743.7</ele>
        <time>2013-10-10T11:22:10Z</time>
      </trkpt>
      <trkpt lat="-21.05868" lon="55.45461">
        <ele>1742.4</ele>
        <time>2013-10-10T11:22:20Z</time>
      </trkpt>
      <trkpt lat="-21.05851" lon="55.4547">
        <ele>1741</ele>
        <time>2013-10-10T11:22:35Z</time>
      </trkpt>
      <trkpt lat="-21.05848" lon="55.4548">
        <ele>1739.7</ele>
        <time>2013-10-10T11:22:41Z</time>
      </trkpt>
      <trkpt lat="-21.05844" lon="55.4549">
        <ele>1740.1</ele>
        <time>2013-10-10T11:22:47Z</time>
      </trkpt>
      <trkpt lat="-21.05844" lon="55.45501">
        <ele>1738.8</ele>
        <time>2013-10-10T11:22:54Z</time>
      </trkpt>
      <trkpt lat="-21.05845" lon="55.45511">
        <ele>1737.7</ele>
        <time>2013-10-10T11:23:01Z</time>
      </trkpt>
      <trkpt lat="-21.05843" lon="55.45523">
        <ele>1737.5</ele>
        <time>2013-10-10T11:23:09Z</time>
      </trkpt>
      <trkpt lat="-21.05843" lon="55.45533">
        <ele>1736.4</ele>
        <time>2013-10-10T11:23:19Z</time>
      </trkpt>
      <trkpt lat="-21.05837" lon="55.45541">
        <ele>1735.4</ele>
        <time>2013-10-10T11:23:30Z</time>
      </trkpt>
      <trkpt lat="-21.05824" lon="55.45557">
        <ele>1732.8</ele>
        <time>2013-10-10T11:23:44Z</time>
      </trkpt>
      <trkpt lat="-21.05822" lon="55.45567">
        <ele>1732.6</ele>
        <time>2013-10-10T11:23:51Z</time>
      </trkpt>
      <trkpt lat="-21.05817" lon="55.45575">
        <ele>1732.4</ele>
        <time>2013-10-10T11:23:57Z</time>
      </trkpt>
      <trkpt lat="-21.0581" lon="55.45583">
        <ele>1733</ele>
        <time>2013-10-10T11:24:03Z</time>
      </trkpt>
      <trkpt lat="-21.05801" lon="55.45587">
        <ele>1732.1</ele>
        <time>2013-10-10T11:24:10Z</time>
      </trkpt>
      <trkpt lat="-21.05792" lon="55.45581">
        <ele>1730.9</ele>
        <time>2013-10-10T11:24:17Z</time>
      </trkpt>
      <trkpt lat="-21.05787" lon="55.45573">
        <ele>1730.3</ele>
        <time>2013-10-10T11:24:22Z</time>
      </trkpt>
      <trkpt lat="-21.05778" lon="55.45572">
        <ele>1730.9</ele>
        <time>2013-10-10T11:24:30Z</time>
      </trkpt>
      <trkpt lat="-21.05768" lon="55.4557">
        <ele>1730.5</ele>
        <time>2013-10-10T11:24:37Z</time>
      </trkpt>
      <trkpt lat="-21.05751" lon="55.45566">
        <ele>1727.7</ele>
        <time>2013-10-10T11:24:51Z</time>
      </trkpt>
      <trkpt lat="-21.05741" lon="55.45564">
        <ele>1726.1</ele>
        <time>2013-10-10T11:24:58Z</time>
      </trkpt>
      <trkpt lat="-21.05741" lon="55.45574">
        <ele>1721.1</ele>
        <time>2013-10-10T11:25:14Z</time>
      </trkpt>
      <trkpt lat="-21.05733" lon="55.45579">
        <ele>1718.1</ele>
        <time>2013-10-10T11:25:27Z</time>
      </trkpt>
      <trkpt lat="-21.05727" lon="55.45588">
        <ele>1715.5</ele>
        <time>2013-10-10T11:25:36Z</time>
      </trkpt>
      <trkpt lat="-21.0572" lon="55.45594">
        <ele>1714.4</ele>
        <time>2013-10-10T11:25:42Z</time>
      </trkpt>
      <trkpt lat="-21.0571" lon="55.4558">
        <ele>1709.8</ele>
        <time>2013-10-10T11:25:56Z</time>
      </trkpt>
      <trkpt lat="-21.05708" lon="55.4557">
        <ele>1709.7</ele>
        <time>2013-10-10T11:26:05Z</time>
      </trkpt>
      <trkpt lat="-21.05704" lon="55.45561">
        <ele>1708.3</ele>
        <time>2013-10-10T11:26:13Z</time>
      </trkpt>
      <trkpt lat="-21.05701" lon="55.45572">
        <ele>1706.3</ele>
        <time>2013-10-10T11:26:22Z</time>
      </trkpt>
      <trkpt lat="-21.05698" lon="55.45581">
        <ele>1705.5</ele>
        <time>2013-10-10T11:26:31Z</time>
      </trkpt>
      <trkpt lat="-21.05694" lon="55.45571">
        <ele>1702.2</ele>
        <time>2013-10-10T11:26:44Z</time>
      </trkpt>
      <trkpt lat="-21.05684" lon="55.45569">
        <ele>1695.3</ele>
        <time>2013-10-10T11:27:31Z</time>
      </trkpt>
      <trkpt lat="-21.05682" lon="55.45559">
        <ele>1693.9</ele>
        <time>2013-10-10T11:27:39Z</time>
      </trkpt>
      <trkpt lat="-21.05681" lon="55.45569">
        <ele>1692.5</ele>
        <time>2013-10-10T11:27:50Z</time>
      </trkpt>
      <trkpt lat="-21.0568" lon="55.4559">
        <ele>1689.6</ele>
        <time>2013-10-10T11:28:06Z</time>
      </trkpt>
      <trkpt lat="-21.05676" lon="55.45581">
        <ele>1689.5</ele>
        <time>2013-10-10T11:28:16Z</time>
      </trkpt>
      <trkpt lat="-21.05672" lon="55.45573">
        <ele>1687.2</ele>
        <time>2013-10-10T11:28:27Z</time>
      </trkpt>
      <trkpt lat="-21.05673" lon="55.45563">
        <ele>1686.2</ele>
        <time>2013-10-10T11:28:35Z</time>
      </trkpt>
      <trkpt lat="-21.05676" lon="55.45554">
        <ele>1685.2</ele>
        <time>2013-10-10T11:28:42Z</time>
      </trkpt>
      <trkpt lat="-21.05676" lon="55.45544">
        <ele>1684.7</ele>
        <time>2013-10-10T11:28:50Z</time>
      </trkpt>
      <trkpt lat="-21.05677" lon="55.45533">
        <ele>1683.3</ele>
        <time>2013-10-10T11:28:59Z</time>
      </trkpt>
      <trkpt lat="-21.05662" lon="55.45527">
        <ele>1680</ele>
        <time>2013-10-10T11:29:20Z</time>
      </trkpt>
      <trkpt lat="-21.05652" lon="55.45529">
        <ele>1674</ele>
        <time>2013-10-10T11:29:36Z</time>
      </trkpt>
      <trkpt lat="-21.05644" lon="55.45534">
        <ele>1670.5</ele>
        <time>2013-10-10T11:29:47Z</time>
      </trkpt>
      <trkpt lat="-21.05634" lon="55.45536">
        <ele>1666.8</ele>
        <time>2013-10-10T11:29:58Z</time>
      </trkpt>
      <trkpt lat="-21.05627" lon="55.45531">
        <ele>1664.2</ele>
        <time>2013-10-10T11:30:11Z</time>
      </trkpt>
      <trkpt lat="-21.0561" lon="55.45539">
        <ele>1658.5</ele>
        <time>2013-10-10T11:30:29Z</time>
      </trkpt>
      <trkpt lat="-21.05601" lon="55.45535">
        <ele>1655.4</ele>
        <time>2013-10-10T11:30:38Z</time>
      </trkpt>
      <trkpt lat="-21.05592" lon="55.45536">
        <ele>1655</ele>
        <time>2013-10-10T11:30:46Z</time>
      </trkpt>
      <trkpt lat="-21.05583" lon="55.45531">
        <ele>1654.1</ele>
        <time>2013-10-10T11:30:54Z</time>
      </trkpt>
      <trkpt lat="-21.05574" lon="55.45525">
        <ele>1652.2</ele>
        <time>2013-10-10T11:31:01Z</time>
      </trkpt>
      <trkpt lat="-21.05565" lon="55.45522">
        <ele>1652.2</ele>
        <time>2013-10-10T11:31:10Z</time>
      </trkpt>
      <trkpt lat="-21.05562" lon="55.45513">
        <ele>1651.5</ele>
        <time>2013-10-10T11:31:21Z</time>
      </trkpt>
      <trkpt lat="-21.05557" lon="55.45489">
        <ele>1658.5</ele>
        <time>2013-10-10T11:31:55Z</time>
      </trkpt>
      <trkpt lat="-21.05549" lon="55.45481">
        <ele>1659.8</ele>
        <time>2013-10-10T11:32:02Z</time>
      </trkpt>
      <trkpt lat="-21.05541" lon="55.45476">
        <ele>1660.4</ele>
        <time>2013-10-10T11:32:09Z</time>
      </trkpt>
      <trkpt lat="-21.05531" lon="55.45476">
        <ele>1659.8</ele>
        <time>2013-10-10T11:32:16Z</time>
      </trkpt>
      <trkpt lat="-21.05522" lon="55.45471">
        <ele>1658.9</ele>
        <time>2013-10-10T11:32:23Z</time>
      </trkpt>
      <trkpt lat="-21.05503" lon="55.45464">
        <ele>1656.8</ele>
        <time>2013-10-10T11:32:37Z</time>
      </trkpt>
      <trkpt lat="-21.05495" lon="55.45458">
        <ele>1656.6</ele>
        <time>2013-10-10T11:32:47Z</time>
      </trkpt>
      <trkpt lat="-21.05495" lon="55.45458">
        <ele>1656.6</ele>
        <time>2013-10-10T11:32:47Z</time>
      </trkpt>
      <trkpt lat="-21.0549" lon="55.4545">
        <ele>1656.8</ele>
        <time>2013-10-10T11:32:57Z</time>
      </trkpt>
      <trkpt lat="-21.05486" lon="55.45441">
        <ele>1657.9</ele>
        <time>2013-10-10T11:33:06Z</time>
      </trkpt>
      <trkpt lat="-21.05476" lon="55.4544">
        <ele>1659.4</ele>
        <time>2013-10-10T11:33:15Z</time>
      </trkpt>
      <trkpt lat="-21.05467" lon="55.45439">
        <ele>1659.8</ele>
        <time>2013-10-10T11:33:24Z</time>
      </trkpt>
      <trkpt lat="-21.05452" lon="55.45451">
        <ele>1661.7</ele>
        <time>2013-10-10T11:33:39Z</time>
      </trkpt>
      <trkpt lat="-21.05446" lon="55.45459">
        <ele>1661.8</ele>
        <time>2013-10-10T11:33:46Z</time>
      </trkpt>
      <trkpt lat="-21.05443" lon="55.45468">
        <ele>1662.3</ele>
        <time>2013-10-10T11:33:52Z</time>
      </trkpt>
      <trkpt lat="-21.05447" lon="55.45478">
        <ele>1662.4</ele>
        <time>2013-10-10T11:33:54Z</time>
      </trkpt>
      <trkpt lat="-21.05446" lon="55.45494">
        <ele>1663</ele>
        <time>2013-10-10T11:34:02Z</time>
      </trkpt>
      <trkpt lat="-21.05434" lon="55.45483">
        <ele>1663.9</ele>
        <time>2013-10-10T11:34:07Z</time>
      </trkpt>
      <trkpt lat="-21.05428" lon="55.45476">
        <ele>1664.5</ele>
        <time>2013-10-10T11:34:10Z</time>
      </trkpt>
      <trkpt lat="-21.0542" lon="55.4547">
        <ele>1665.1</ele>
        <time>2013-10-10T11:34:14Z</time>
      </trkpt>
      <trkpt lat="-21.0541" lon="55.45468">
        <ele>1665.2</ele>
        <time>2013-10-10T11:34:18Z</time>
      </trkpt>
      <trkpt lat="-21.05401" lon="55.45466">
        <ele>1665.3</ele>
        <time>2013-10-10T11:34:23Z</time>
      </trkpt>
      <trkpt lat="-21.05394" lon="55.4546">
        <ele>1665.5</ele>
        <time>2013-10-10T11:34:31Z</time>
      </trkpt>
      <trkpt lat="-21.05376" lon="55.45456">
        <ele>1667.6</ele>
        <time>2013-10-10T11:34:47Z</time>
      </trkpt>
      <trkpt lat="-21.05367" lon="55.45458">
        <ele>1668.9</ele>
        <time>2013-10-10T11:34:58Z</time>
      </trkpt>
      <trkpt lat="-21.05357" lon="55.45457">
        <ele>1670.1</ele>
        <time>2013-10-10T11:35:07Z</time>
      </trkpt>
      <trkpt lat="-21.05347" lon="55.45456">
        <ele>1670.9</ele>
        <time>2013-10-10T11:35:15Z</time>
      </trkpt>
      <trkpt lat="-21.05338" lon="55.45453">
        <ele>1672.1</ele>
        <time>2013-10-10T11:35:23Z</time>
      </trkpt>
      <trkpt lat="-21.05329" lon="55.45451">
        <ele>1673.2</ele>
        <time>2013-10-10T11:35:31Z</time>
      </trkpt>
      <trkpt lat="-21.0532" lon="55.45448">
        <ele>1673.4</ele>
        <time>2013-10-10T11:35:42Z</time>
      </trkpt>
      <trkpt lat="-21.05312" lon="55.45441">
        <ele>1673.4</ele>
        <time>2013-10-10T11:47:39Z</time>
      </trkpt>
      <trkpt lat="-21.05297" lon="55.45436">
        <ele>1669.3</ele>
        <time>2013-10-10T11:48:36Z</time>
      </trkpt>
      <trkpt lat="-21.05287" lon="55.45433">
        <ele>1665</ele>
        <time>2013-10-10T11:48:50Z</time>
      </trkpt>
      <trkpt lat="-21.05279" lon="55.45415">
        <ele>1659.8</ele>
        <time>2013-10-10T11:49:11Z</time>
      </trkpt>
      <trkpt lat="-21.05271" lon="55.45408">
        <ele>1657.9</ele>
        <time>2013-10-10T11:49:20Z</time>
      </trkpt>
      <trkpt lat="-21.05254" lon="55.45408">
        <ele>1659</ele>
        <time>2013-10-10T11:49:34Z</time>
      </trkpt>
      <trkpt lat="-21.05245" lon="55.45403">
        <ele>1659</ele>
        <time>2013-10-10T11:49:38Z</time>
      </trkpt>
      <trkpt lat="-21.05238" lon="55.45395">
        <ele>1658.5</ele>
        <time>2013-10-10T11:49:44Z</time>
      </trkpt>
      <trkpt lat="-21.05245" lon="55.45365">
        <ele>1661</ele>
        <time>2013-10-10T11:50:14Z</time>
      </trkpt>
      <trkpt lat="-21.05276" lon="55.45324">
        <ele>1668.1</ele>
        <time>2013-10-10T11:51:38Z</time>
      </trkpt>
      <trkpt lat="-21.05269" lon="55.45329">
        <ele>1666.1</ele>
        <time>2013-10-10T11:51:46Z</time>
      </trkpt>
      <trkpt lat="-21.05258" lon="55.45328">
        <ele>1665.9</ele>
        <time>2013-10-10T11:51:51Z</time>
      </trkpt>
      <trkpt lat="-21.05248" lon="55.45328">
        <ele>1666.6</ele>
        <time>2013-10-10T11:51:57Z</time>
      </trkpt>
      <trkpt lat="-21.05239" lon="55.45325">
        <ele>1664.9</ele>
        <time>2013-10-10T11:52:02Z</time>
      </trkpt>
      <trkpt lat="-21.05232" lon="55.45319">
        <ele>1662</ele>
        <time>2013-10-10T11:52:11Z</time>
      </trkpt>
      <trkpt lat="-21.05232" lon="55.45308">
        <ele>1660.4</ele>
        <time>2013-10-10T11:52:19Z</time>
      </trkpt>
      <trkpt lat="-21.05237" lon="55.45289">
        <ele>1659.3</ele>
        <time>2013-10-10T11:52:34Z</time>
      </trkpt>
      <trkpt lat="-21.05244" lon="55.45282">
        <ele>1658.1</ele>
        <time>2013-10-10T11:52:43Z</time>
      </trkpt>
      <trkpt lat="-21.05252" lon="55.45278">
        <ele>1657</ele>
        <time>2013-10-10T11:52:52Z</time>
      </trkpt>
      <trkpt lat="-21.05259" lon="55.45271">
        <ele>1655.4</ele>
        <time>2013-10-10T11:53:02Z</time>
      </trkpt>
      <trkpt lat="-21.05262" lon="55.45261">
        <ele>1654.9</ele>
        <time>2013-10-10T11:53:09Z</time>
      </trkpt>
      <trkpt lat="-21.05265" lon="55.45252">
        <ele>1654.4</ele>
        <time>2013-10-10T11:53:15Z</time>
      </trkpt>
      <trkpt lat="-21.05274" lon="55.45249">
        <ele>1652.8</ele>
        <time>2013-10-10T11:53:24Z</time>
      </trkpt>
      <trkpt lat="-21.0529" lon="55.45237">
        <ele>1648.4</ele>
        <time>2013-10-10T11:53:53Z</time>
      </trkpt>
      <trkpt lat="-21.05294" lon="55.45209">
        <ele>1648</ele>
        <time>2013-10-10T11:54:04Z</time>
      </trkpt>
      <trkpt lat="-21.05303" lon="55.45197">
        <ele>1649</ele>
        <time>2013-10-10T11:54:10Z</time>
      </trkpt>
      <trkpt lat="-21.05298" lon="55.45188">
        <ele>1646.9</ele>
        <time>2013-10-10T11:54:18Z</time>
      </trkpt>
      <trkpt lat="-21.053" lon="55.45178">
        <ele>1645.9</ele>
        <time>2013-10-10T11:54:25Z</time>
      </trkpt>
      <trkpt lat="-21.05299" lon="55.45167">
        <ele>1645.4</ele>
        <time>2013-10-10T11:54:32Z</time>
      </trkpt>
      <trkpt lat="-21.05316" lon="55.45156">
        <ele>1644.1</ele>
        <time>2013-10-10T11:54:44Z</time>
      </trkpt>
      <trkpt lat="-21.05326" lon="55.45152">
        <ele>1641.7</ele>
        <time>2013-10-10T11:54:50Z</time>
      </trkpt>
      <trkpt lat="-21.05334" lon="55.45146">
        <ele>1641.4</ele>
        <time>2013-10-10T11:54:53Z</time>
      </trkpt>
      <trkpt lat="-21.05345" lon="55.45143">
        <ele>1640.7</ele>
        <time>2013-10-10T11:54:57Z</time>
      </trkpt>
      <trkpt lat="-21.05354" lon="55.45149">
        <ele>1639.9</ele>
        <time>2013-10-10T11:55:02Z</time>
      </trkpt>
      <trkpt lat="-21.05363" lon="55.45151">
        <ele>1638.7</ele>
        <time>2013-10-10T11:55:08Z</time>
      </trkpt>
      <trkpt lat="-21.05373" lon="55.45156">
        <ele>1637.7</ele>
        <time>2013-10-10T11:55:14Z</time>
      </trkpt>
      <trkpt lat="-21.05379" lon="55.45147">
        <ele>1636</ele>
        <time>2013-10-10T11:55:43Z</time>
      </trkpt>
      <trkpt lat="-21.05386" lon="55.45118">
        <ele>1633.8</ele>
        <time>2013-10-10T11:55:58Z</time>
      </trkpt>
      <trkpt lat="-21.05391" lon="55.4511">
        <ele>1632.5</ele>
        <time>2013-10-10T11:56:09Z</time>
      </trkpt>
      <trkpt lat="-21.05384" lon="55.45117">
        <ele>1629</ele>
        <time>2013-10-10T11:56:40Z</time>
      </trkpt>
      <trkpt lat="-21.05375" lon="55.45115">
        <ele>1629.2</ele>
        <time>2013-10-10T11:56:50Z</time>
      </trkpt>
      <trkpt lat="-21.0536" lon="55.451">
        <ele>1626.6</ele>
        <time>2013-10-10T11:57:00Z</time>
      </trkpt>
      <trkpt lat="-21.05352" lon="55.45093">
        <ele>1626</ele>
        <time>2013-10-10T11:57:05Z</time>
      </trkpt>
      <trkpt lat="-21.05343" lon="55.45086">
        <ele>1625.2</ele>
        <time>2013-10-10T11:57:10Z</time>
      </trkpt>
      <trkpt lat="-21.05335" lon="55.45078">
        <ele>1624.8</ele>
        <time>2013-10-10T11:57:15Z</time>
      </trkpt>
      <trkpt lat="-21.05331" lon="55.45067">
        <ele>1623.1</ele>
        <time>2013-10-10T11:57:21Z</time>
      </trkpt>
      <trkpt lat="-21.05324" lon="55.45058">
        <ele>1622</ele>
        <time>2013-10-10T11:57:27Z</time>
      </trkpt>
      <trkpt lat="-21.05317" lon="55.45051">
        <ele>1621</ele>
        <time>2013-10-10T11:57:35Z</time>
      </trkpt>
      <trkpt lat="-21.05287" lon="55.45041">
        <ele>1619</ele>
        <time>2013-10-10T11:57:56Z</time>
      </trkpt>
      <trkpt lat="-21.05272" lon="55.4503">
        <ele>1616.3</ele>
        <time>2013-10-10T11:58:12Z</time>
      </trkpt>
      <trkpt lat="-21.05271" lon="55.4502">
        <ele>1616.5</ele>
        <time>2013-10-10T11:58:22Z</time>
      </trkpt>
      <trkpt lat="-21.05277" lon="55.45012">
        <ele>1615.1</ele>
        <time>2013-10-10T11:58:31Z</time>
      </trkpt>
      <trkpt lat="-21.05287" lon="55.45011">
        <ele>1614.6</ele>
        <time>2013-10-10T11:58:40Z</time>
      </trkpt>
      <trkpt lat="-21.0529" lon="55.45001">
        <ele>1615</ele>
        <time>2013-10-10T11:58:49Z</time>
      </trkpt>
      <trkpt lat="-21.05286" lon="55.44991">
        <ele>1614.9</ele>
        <time>2013-10-10T11:58:57Z</time>
      </trkpt>
      <trkpt lat="-21.05287" lon="55.44981">
        <ele>1614</ele>
        <time>2013-10-10T11:59:05Z</time>
      </trkpt>
      <trkpt lat="-21.05272" lon="55.44949">
        <ele>1615</ele>
        <time>2013-10-10T11:59:27Z</time>
      </trkpt>
      <trkpt lat="-21.0528" lon="55.44941">
        <ele>1616.1</ele>
        <time>2013-10-10T11:59:35Z</time>
      </trkpt>
      <trkpt lat="-21.05279" lon="55.44931">
        <ele>1615.6</ele>
        <time>2013-10-10T11:59:42Z</time>
      </trkpt>
      <trkpt lat="-21.0527" lon="55.44924">
        <ele>1614</ele>
        <time>2013-10-10T11:59:48Z</time>
      </trkpt>
      <trkpt lat="-21.05252" lon="55.44913">
        <ele>1615.6</ele>
        <time>2013-10-10T11:59:55Z</time>
      </trkpt>
      <trkpt lat="-21.05253" lon="55.44903">
        <ele>1613.3</ele>
        <time>2013-10-10T12:00:05Z</time>
      </trkpt>
      <trkpt lat="-21.05253" lon="55.44893">
        <ele>1611.5</ele>
        <time>2013-10-10T12:00:15Z</time>
      </trkpt>
      <trkpt lat="-21.0524" lon="55.44879">
        <ele>1610.3</ele>
        <time>2013-10-10T12:00:36Z</time>
      </trkpt>
      <trkpt lat="-21.05233" lon="55.44873">
        <ele>1610.6</ele>
        <time>2013-10-10T12:00:44Z</time>
      </trkpt>
      <trkpt lat="-21.05228" lon="55.44863">
        <ele>1609.4</ele>
        <time>2013-10-10T12:00:52Z</time>
      </trkpt>
      <trkpt lat="-21.05224" lon="55.44853">
        <ele>1609.2</ele>
        <time>2013-10-10T12:00:58Z</time>
      </trkpt>
      <trkpt lat="-21.0522" lon="55.44843">
        <ele>1608.7</ele>
        <time>2013-10-10T12:01:05Z</time>
      </trkpt>
      <trkpt lat="-21.05225" lon="55.44834">
        <ele>1606</ele>
        <time>2013-10-10T12:01:16Z</time>
      </trkpt>
      <trkpt lat="-21.0523" lon="55.44848">
        <ele>1587</ele>
        <time>2013-10-10T12:02:39Z</time>
      </trkpt>
      <trkpt lat="-21.05227" lon="55.44826">
        <ele>1584</ele>
        <time>2013-10-10T12:02:49Z</time>
      </trkpt>
      <trkpt lat="-21.05236" lon="55.44813">
        <ele>1581</ele>
        <time>2013-10-10T12:02:57Z</time>
      </trkpt>
      <trkpt lat="-21.05247" lon="55.44816">
        <ele>1579</ele>
        <time>2013-10-10T12:03:09Z</time>
      </trkpt>
      <trkpt lat="-21.05252" lon="55.44827">
        <ele>1577</ele>
        <time>2013-10-10T12:03:17Z</time>
      </trkpt>
      <trkpt lat="-21.05256" lon="55.44838">
        <ele>1576</ele>
        <time>2013-10-10T12:03:30Z</time>
      </trkpt>
      <trkpt lat="-21.0527" lon="55.44834">
        <ele>1573</ele>
        <time>2013-10-10T12:03:40Z</time>
      </trkpt>
      <trkpt lat="-21.0529" lon="55.44839">
        <ele>1567</ele>
        <time>2013-10-10T12:03:58Z</time>
      </trkpt>
      <trkpt lat="-21.05296" lon="55.44828">
        <ele>1565</ele>
        <time>2013-10-10T12:04:10Z</time>
      </trkpt>
      <trkpt lat="-21.05299" lon="55.44818">
        <ele>1563.9</ele>
        <time>2013-10-10T12:04:17Z</time>
      </trkpt>
      <trkpt lat="-21.05304" lon="55.44795">
        <ele>1560</ele>
        <time>2013-10-10T12:04:26Z</time>
      </trkpt>
      <trkpt lat="-21.053" lon="55.44781">
        <ele>1558</ele>
        <time>2013-10-10T12:04:33Z</time>
      </trkpt>
      <trkpt lat="-21.05295" lon="55.4477">
        <ele>1556</ele>
        <time>2013-10-10T12:04:39Z</time>
      </trkpt>
      <trkpt lat="-21.05299" lon="55.4476">
        <ele>1555</ele>
        <time>2013-10-10T12:04:47Z</time>
      </trkpt>
      <trkpt lat="-21.05311" lon="55.44746">
        <ele>1552.7</ele>
        <time>2013-10-10T12:05:01Z</time>
      </trkpt>
      <trkpt lat="-21.05324" lon="55.44747">
        <ele>1548</ele>
        <time>2013-10-10T12:05:08Z</time>
      </trkpt>
      <trkpt lat="-21.05332" lon="55.44755">
        <ele>1546</ele>
        <time>2013-10-10T12:05:16Z</time>
      </trkpt>
      <trkpt lat="-21.05341" lon="55.4476">
        <ele>1545</ele>
        <time>2013-10-10T12:05:24Z</time>
      </trkpt>
      <trkpt lat="-21.05348" lon="55.4475">
        <ele>1546.2</ele>
        <time>2013-10-10T12:05:31Z</time>
      </trkpt>
      <trkpt lat="-21.05354" lon="55.44743">
        <ele>1545.7</ele>
        <time>2013-10-10T12:05:35Z</time>
      </trkpt>
      <trkpt lat="-21.05364" lon="55.44738">
        <ele>1543.6</ele>
        <time>2013-10-10T12:05:40Z</time>
      </trkpt>
      <trkpt lat="-21.05355" lon="55.44743">
        <ele>1539.1</ele>
        <time>2013-10-10T12:05:53Z</time>
      </trkpt>
      <trkpt lat="-21.05341" lon="55.44727">
        <ele>1531</ele>
        <time>2013-10-10T12:06:13Z</time>
      </trkpt>
      <trkpt lat="-21.05334" lon="55.4472">
        <ele>1527</ele>
        <time>2013-10-10T12:06:25Z</time>
      </trkpt>
      <trkpt lat="-21.05307" lon="55.44725">
        <ele>1520</ele>
        <time>2013-10-10T12:06:45Z</time>
      </trkpt>
      <trkpt lat="-21.05292" lon="55.4472">
        <ele>1515</ele>
        <time>2013-10-10T12:06:55Z</time>
      </trkpt>
      <trkpt lat="-21.05279" lon="55.44705">
        <ele>1512.9</ele>
        <time>2013-10-10T12:07:09Z</time>
      </trkpt>
      <trkpt lat="-21.05283" lon="55.44696">
        <ele>1510.4</ele>
        <time>2013-10-10T12:07:20Z</time>
      </trkpt>
      <trkpt lat="-21.05292" lon="55.44689">
        <ele>1509.4</ele>
        <time>2013-10-10T12:07:25Z</time>
      </trkpt>
      <trkpt lat="-21.05302" lon="55.44681">
        <ele>1508</ele>
        <time>2013-10-10T12:07:29Z</time>
      </trkpt>
      <trkpt lat="-21.05312" lon="55.44684">
        <ele>1506</ele>
        <time>2013-10-10T12:07:36Z</time>
      </trkpt>
      <trkpt lat="-21.05321" lon="55.44693">
        <ele>1505</ele>
        <time>2013-10-10T12:07:44Z</time>
      </trkpt>
      <trkpt lat="-21.0533" lon="55.44686">
        <ele>1495</ele>
        <time>2013-10-10T12:08:08Z</time>
      </trkpt>
      <trkpt lat="-21.05344" lon="55.44673">
        <ele>1487.3</ele>
        <time>2013-10-10T12:08:45Z</time>
      </trkpt>
      <trkpt lat="-21.05355" lon="55.44673">
        <ele>1486</ele>
        <time>2013-10-10T12:09:01Z</time>
      </trkpt>
      <trkpt lat="-21.05355" lon="55.44683">
        <ele>1486</ele>
        <time>2013-10-10T12:09:27Z</time>
      </trkpt>
      <trkpt lat="-21.05378" lon="55.446">
        <ele>1501</ele>
        <time>2013-10-10T12:11:51Z</time>
      </trkpt>
      <trkpt lat="-21.05363" lon="55.44592">
        <ele>1505</ele>
        <time>2013-10-10T12:12:18Z</time>
      </trkpt>
      <trkpt lat="-21.05269" lon="55.44561">
        <ele>1526</ele>
        <time>2013-10-10T12:14:31Z</time>
      </trkpt>
      <trkpt lat="-21.0526" lon="55.44565">
        <ele>1525.9</ele>
        <time>2013-10-10T12:14:39Z</time>
      </trkpt>
      <trkpt lat="-21.0525" lon="55.44564">
        <ele>1526.5</ele>
        <time>2013-10-10T12:14:57Z</time>
      </trkpt>
      <trkpt lat="-21.05229" lon="55.44538">
        <ele>1529</ele>
        <time>2013-10-10T12:15:20Z</time>
      </trkpt>
      <trkpt lat="-21.05208" lon="55.44539">
        <ele>1531.5</ele>
        <time>2013-10-10T12:15:30Z</time>
      </trkpt>
      <trkpt lat="-21.05196" lon="55.44526">
        <ele>1531</ele>
        <time>2013-10-10T12:15:42Z</time>
      </trkpt>
      <trkpt lat="-21.05191" lon="55.44513">
        <ele>1531</ele>
        <time>2013-10-10T12:15:54Z</time>
      </trkpt>
      <trkpt lat="-21.05171" lon="55.44517">
        <ele>1532</ele>
        <time>2013-10-10T12:16:11Z</time>
      </trkpt>
      <trkpt lat="-21.05144" lon="55.44521">
        <ele>1532</ele>
        <time>2013-10-10T12:16:38Z</time>
      </trkpt>
      <trkpt lat="-21.05134" lon="55.44528">
        <ele>1529</ele>
        <time>2013-10-10T12:16:50Z</time>
      </trkpt>
      <trkpt lat="-21.05123" lon="55.44527">
        <ele>1526</ele>
        <time>2013-10-10T12:16:58Z</time>
      </trkpt>
      <trkpt lat="-21.05112" lon="55.44524">
        <ele>1525</ele>
        <time>2013-10-10T12:17:06Z</time>
      </trkpt>
      <trkpt lat="-21.05103" lon="55.44525">
        <ele>1525.6</ele>
        <time>2013-10-10T12:17:13Z</time>
      </trkpt>
      <trkpt lat="-21.05093" lon="55.44527">
        <ele>1524.1</ele>
        <time>2013-10-10T12:17:20Z</time>
      </trkpt>
      <trkpt lat="-21.05083" lon="55.44524">
        <ele>1523.2</ele>
        <time>2013-10-10T12:17:27Z</time>
      </trkpt>
      <trkpt lat="-21.0506" lon="55.44529">
        <ele>1525</ele>
        <time>2013-10-10T12:17:48Z</time>
      </trkpt>
      <trkpt lat="-21.05043" lon="55.44526">
        <ele>1529.9</ele>
        <time>2013-10-10T12:18:18Z</time>
      </trkpt>
      <trkpt lat="-21.05037" lon="55.44516">
        <ele>1529.8</ele>
        <time>2013-10-10T12:18:27Z</time>
      </trkpt>
      <trkpt lat="-21.05026" lon="55.44502">
        <ele>1531</ele>
        <time>2013-10-10T12:18:38Z</time>
      </trkpt>
      <trkpt lat="-21.05015" lon="55.44498">
        <ele>1532.3</ele>
        <time>2013-10-10T12:18:45Z</time>
      </trkpt>
      <trkpt lat="-21.05004" lon="55.44498">
        <ele>1532</ele>
        <time>2013-10-10T12:18:55Z</time>
      </trkpt>
      <trkpt lat="-21.04978" lon="55.44482">
        <ele>1533</ele>
        <time>2013-10-10T12:19:12Z</time>
      </trkpt>
      <trkpt lat="-21.04967" lon="55.44483">
        <ele>1534</ele>
        <time>2013-10-10T12:19:20Z</time>
      </trkpt>
      <trkpt lat="-21.04959" lon="55.44491">
        <ele>1534</ele>
        <time>2013-10-10T12:19:28Z</time>
      </trkpt>
      <trkpt lat="-21.04953" lon="55.44501">
        <ele>1534</ele>
        <time>2013-10-10T12:19:36Z</time>
      </trkpt>
      <trkpt lat="-21.04939" lon="55.44504">
        <ele>1535</ele>
        <time>2013-10-10T12:19:43Z</time>
      </trkpt>
      <trkpt lat="-21.04926" lon="55.44502">
        <ele>1534</ele>
        <time>2013-10-10T12:19:50Z</time>
      </trkpt>
      <trkpt lat="-21.04899" lon="55.44518">
        <ele>1535</ele>
        <time>2013-10-10T12:20:28Z</time>
      </trkpt>
      <trkpt lat="-21.04852" lon="55.44562">
        <ele>1537</ele>
        <time>2013-10-10T12:21:16Z</time>
      </trkpt>
      <trkpt lat="-21.04844" lon="55.44553">
        <ele>1538</ele>
        <time>2013-10-10T12:21:20Z</time>
      </trkpt>
      <trkpt lat="-21.04831" lon="55.44551">
        <ele>1538</ele>
        <time>2013-10-10T12:21:28Z</time>
      </trkpt>
      <trkpt lat="-21.04826" lon="55.4456">
        <ele>1537</ele>
        <time>2013-10-10T12:21:40Z</time>
      </trkpt>
      <trkpt lat="-21.04775" lon="55.44569">
        <ele>1538</ele>
        <time>2013-10-10T12:22:34Z</time>
      </trkpt>
      <trkpt lat="-21.04731" lon="55.44536">
        <ele>1543</ele>
        <time>2013-10-10T12:23:51Z</time>
      </trkpt>
      <trkpt lat="-21.04711" lon="55.44513">
        <ele>1544</ele>
        <time>2013-10-10T12:24:20Z</time>
      </trkpt>
      <trkpt lat="-21.04686" lon="55.44494">
        <ele>1546</ele>
        <time>2013-10-10T12:24:46Z</time>
      </trkpt>
      <trkpt lat="-21.04677" lon="55.44489">
        <ele>1545.9</ele>
        <time>2013-10-10T12:24:58Z</time>
      </trkpt>
      <trkpt lat="-21.04673" lon="55.44479">
        <ele>1544.1</ele>
        <time>2013-10-10T12:25:17Z</time>
      </trkpt>
      <trkpt lat="-21.04666" lon="55.44473">
        <ele>1542.2</ele>
        <time>2013-10-10T12:25:25Z</time>
      </trkpt>
      <trkpt lat="-21.04657" lon="55.44468">
        <ele>1541</ele>
        <time>2013-10-10T12:25:33Z</time>
      </trkpt>
      <trkpt lat="-21.0465" lon="55.4446">
        <ele>1539.9</ele>
        <time>2013-10-10T12:25:40Z</time>
      </trkpt>
      <trkpt lat="-21.04623" lon="55.44446">
        <ele>1540</ele>
        <time>2013-10-10T12:26:05Z</time>
      </trkpt>
      <trkpt lat="-21.04559" lon="55.44438">
        <ele>1545.9</ele>
        <time>2013-10-10T12:26:57Z</time>
      </trkpt>
      <trkpt lat="-21.04548" lon="55.44438">
        <ele>1539.2</ele>
        <time>2013-10-10T12:27:26Z</time>
      </trkpt>
      <trkpt lat="-21.04539" lon="55.44435">
        <ele>1537.2</ele>
        <time>2013-10-10T12:27:34Z</time>
      </trkpt>
      <trkpt lat="-21.04531" lon="55.44428">
        <ele>1536</ele>
        <time>2013-10-10T12:27:45Z</time>
      </trkpt>
      <trkpt lat="-21.04523" lon="55.44422">
        <ele>1535</ele>
        <time>2013-10-10T12:27:53Z</time>
      </trkpt>
      <trkpt lat="-21.04506" lon="55.44417">
        <ele>1531</ele>
        <time>2013-10-10T12:28:09Z</time>
      </trkpt>
      <trkpt lat="-21.04497" lon="55.44414">
        <ele>1529.5</ele>
        <time>2013-10-10T12:28:20Z</time>
      </trkpt>
      <trkpt lat="-21.04489" lon="55.44409">
        <ele>1526.4</ele>
        <time>2013-10-10T12:28:31Z</time>
      </trkpt>
      <trkpt lat="-21.04488" lon="55.44399">
        <ele>1524</ele>
        <time>2013-10-10T12:28:42Z</time>
      </trkpt>
      <trkpt lat="-21.04478" lon="55.44392">
        <ele>1520</ele>
        <time>2013-10-10T12:28:54Z</time>
      </trkpt>
      <trkpt lat="-21.04462" lon="55.44369">
        <ele>1517</ele>
        <time>2013-10-10T12:29:16Z</time>
      </trkpt>
      <trkpt lat="-21.04459" lon="55.44353">
        <ele>1515</ele>
        <time>2013-10-10T12:29:24Z</time>
      </trkpt>
      <trkpt lat="-21.04444" lon="55.44362">
        <ele>1513</ele>
        <time>2013-10-10T12:29:32Z</time>
      </trkpt>
      <trkpt lat="-21.04435" lon="55.44369">
        <ele>1512</ele>
        <time>2013-10-10T12:29:36Z</time>
      </trkpt>
      <trkpt lat="-21.0443" lon="55.44358">
        <ele>1510</ele>
        <time>2013-10-10T12:29:44Z</time>
      </trkpt>
      <trkpt lat="-21.04426" lon="55.44342">
        <ele>1508</ele>
        <time>2013-10-10T12:29:53Z</time>
      </trkpt>
      <trkpt lat="-21.04417" lon="55.44343">
        <ele>1506</ele>
        <time>2013-10-10T12:30:02Z</time>
      </trkpt>
      <trkpt lat="-21.04414" lon="55.44333">
        <ele>1499</ele>
        <time>2013-10-10T12:30:27Z</time>
      </trkpt>
      <trkpt lat="-21.04423" lon="55.44318">
        <ele>1499</ele>
        <time>2013-10-10T12:30:31Z</time>
      </trkpt>
      <trkpt lat="-21.04409" lon="55.44337">
        <ele>1495</ele>
        <time>2013-10-10T12:30:43Z</time>
      </trkpt>
      <trkpt lat="-21.04398" lon="55.44351">
        <ele>1494</ele>
        <time>2013-10-10T12:30:47Z</time>
      </trkpt>
      <trkpt lat="-21.04394" lon="55.44341">
        <ele>1492</ele>
        <time>2013-10-10T12:30:55Z</time>
      </trkpt>
      <trkpt lat="-21.04382" lon="55.44309">
        <ele>1491</ele>
        <time>2013-10-10T12:31:15Z</time>
      </trkpt>
      <trkpt lat="-21.04329" lon="55.44298">
        <ele>1483</ele>
        <time>2013-10-10T12:32:18Z</time>
      </trkpt>
      <trkpt lat="-21.04315" lon="55.44296">
        <ele>1481.5</ele>
        <time>2013-10-10T12:32:31Z</time>
      </trkpt>
      <trkpt lat="-21.04308" lon="55.44301">
        <ele>1476</ele>
        <time>2013-10-10T12:32:53Z</time>
      </trkpt>
      <trkpt lat="-21.04283" lon="55.44298">
        <ele>1474</ele>
        <time>2013-10-10T12:33:20Z</time>
      </trkpt>
      <trkpt lat="-21.04258" lon="55.44296">
        <ele>1477</ele>
        <time>2013-10-10T12:33:45Z</time>
      </trkpt>
      <trkpt lat="-21.04261" lon="55.44287">
        <ele>1476</ele>
        <time>2013-10-10T12:33:49Z</time>
      </trkpt>
      <trkpt lat="-21.04244" lon="55.44274">
        <ele>1472</ele>
        <time>2013-10-10T12:34:12Z</time>
      </trkpt>
      <trkpt lat="-21.04214" lon="55.44271">
        <ele>1464</ele>
        <time>2013-10-10T12:34:48Z</time>
      </trkpt>
      <trkpt lat="-21.04206" lon="55.44262">
        <ele>1463</ele>
        <time>2013-10-10T12:35:01Z</time>
      </trkpt>
      <trkpt lat="-21.04202" lon="55.44253">
        <ele>1461.8</ele>
        <time>2013-10-10T12:35:08Z</time>
      </trkpt>
      <trkpt lat="-21.04204" lon="55.44241">
        <ele>1459.9</ele>
        <time>2013-10-10T12:35:14Z</time>
      </trkpt>
      <trkpt lat="-21.04208" lon="55.44225">
        <ele>1459</ele>
        <time>2013-10-10T12:35:17Z</time>
      </trkpt>
      <trkpt lat="-21.04131" lon="55.44236">
        <ele>1446</ele>
        <time>2013-10-10T12:36:13Z</time>
      </trkpt>
      <trkpt lat="-21.04122" lon="55.44244">
        <ele>1442</ele>
        <time>2013-10-10T12:36:27Z</time>
      </trkpt>
      <trkpt lat="-21.04103" lon="55.44225">
        <ele>1432</ele>
        <time>2013-10-10T12:37:15Z</time>
      </trkpt>
      <trkpt lat="-21.04097" lon="55.44216">
        <ele>1429</ele>
        <time>2013-10-10T12:37:27Z</time>
      </trkpt>
      <trkpt lat="-21.04087" lon="55.44207">
        <ele>1426</ele>
        <time>2013-10-10T12:37:39Z</time>
      </trkpt>
      <trkpt lat="-21.04067" lon="55.44211">
        <ele>1425</ele>
        <time>2013-10-10T12:38:06Z</time>
      </trkpt>
      <trkpt lat="-21.04058" lon="55.44204">
        <ele>1423</ele>
        <time>2013-10-10T12:38:24Z</time>
      </trkpt>
      <trkpt lat="-21.04055" lon="55.4418">
        <ele>1420</ele>
        <time>2013-10-10T12:38:39Z</time>
      </trkpt>
      <trkpt lat="-21.04025" lon="55.44178">
        <ele>1415</ele>
        <time>2013-10-10T12:39:08Z</time>
      </trkpt>
      <trkpt lat="-21.04037" lon="55.44158">
        <ele>1395</ele>
        <time>2013-10-10T12:40:16Z</time>
      </trkpt>
      <trkpt lat="-21.04025" lon="55.44059">
        <ele>1346</ele>
        <time>2013-10-10T12:44:14Z</time>
      </trkpt>
      <trkpt lat="-21.03952" lon="55.43943">
        <ele>1312</ele>
        <time>2013-10-10T12:46:47Z</time>
      </trkpt>
      <trkpt lat="-21.03944" lon="55.43954">
        <ele>1310</ele>
        <time>2013-10-10T12:46:55Z</time>
      </trkpt>
      <trkpt lat="-21.0395" lon="55.43916">
        <ele>1284</ele>
        <time>2013-10-10T12:48:32Z</time>
      </trkpt>
      <trkpt lat="-21.03937" lon="55.43904">
        <ele>1259</ele>
        <time>2013-10-10T12:49:55Z</time>
      </trkpt>
      <trkpt lat="-21.03951" lon="55.43894">
        <ele>1257</ele>
        <time>2013-10-10T12:50:03Z</time>
      </trkpt>
      <trkpt lat="-21.03937" lon="55.43897">
        <ele>1254</ele>
        <time>2013-10-10T12:50:15Z</time>
      </trkpt>
      <trkpt lat="-21.03924" lon="55.43898">
        <ele>1252</ele>
        <time>2013-10-10T12:50:25Z</time>
      </trkpt>
      <trkpt lat="-21.03933" lon="55.43891">
        <ele>1248</ele>
        <time>2013-10-10T12:50:39Z</time>
      </trkpt>
      <trkpt lat="-21.03953" lon="55.43871">
        <ele>1240</ele>
        <time>2013-10-10T12:51:18Z</time>
      </trkpt>
      <trkpt lat="-21.03963" lon="55.43864">
        <ele>1237</ele>
        <time>2013-10-10T12:51:30Z</time>
      </trkpt>
      <trkpt lat="-21.03968" lon="55.43853">
        <ele>1236</ele>
        <time>2013-10-10T12:51:38Z</time>
      </trkpt>
      <trkpt lat="-21.03958" lon="55.43854">
        <ele>1234</ele>
        <time>2013-10-10T12:51:50Z</time>
      </trkpt>
      <trkpt lat="-21.03905" lon="55.43844">
        <ele>1223</ele>
        <time>2013-10-10T12:52:41Z</time>
      </trkpt>
      <trkpt lat="-21.03915" lon="55.43829">
        <ele>1221</ele>
        <time>2013-10-10T12:52:49Z</time>
      </trkpt>
      <trkpt lat="-21.03925" lon="55.43817">
        <ele>1220</ele>
        <time>2013-10-10T12:52:53Z</time>
      </trkpt>
      <trkpt lat="-21.03924" lon="55.43795">
        <ele>1218</ele>
        <time>2013-10-10T12:53:09Z</time>
      </trkpt>
      <trkpt lat="-21.03925" lon="55.43783">
        <ele>1217</ele>
        <time>2013-10-10T12:53:17Z</time>
      </trkpt>
      <trkpt lat="-21.03915" lon="55.43774">
        <ele>1215</ele>
        <time>2013-10-10T12:53:25Z</time>
      </trkpt>
      <trkpt lat="-21.03914" lon="55.43762">
        <ele>1213</ele>
        <time>2013-10-10T12:53:33Z</time>
      </trkpt>
      <trkpt lat="-21.03907" lon="55.43751">
        <ele>1211</ele>
        <time>2013-10-10T12:53:41Z</time>
      </trkpt>
      <trkpt lat="-21.03896" lon="55.43746">
        <ele>1210</ele>
        <time>2013-10-10T12:53:49Z</time>
      </trkpt>
      <trkpt lat="-21.03889" lon="55.43737">
        <ele>1209</ele>
        <time>2013-10-10T12:53:57Z</time>
      </trkpt>
      <trkpt lat="-21.03876" lon="55.43745">
        <ele>1205</ele>
        <time>2013-10-10T12:54:17Z</time>
      </trkpt>
      <trkpt lat="-21.03884" lon="55.43755">
        <ele>1204</ele>
        <time>2013-10-10T12:54:29Z</time>
      </trkpt>
      <trkpt lat="-21.03596" lon="55.43976">
        <ele>1195</ele>
        <time>2013-10-10T12:55:25Z</time>
      </trkpt>
      <trkpt lat="-21.03512" lon="55.44027">
        <ele>1190</ele>
        <time>2013-10-10T12:55:49Z</time>
      </trkpt>
      <trkpt lat="-21.03538" lon="55.44002">
        <ele>1190</ele>
        <time>2013-10-10T12:55:53Z</time>
      </trkpt>
      <trkpt lat="-21.03563" lon="55.43979">
        <ele>1189</ele>
        <time>2013-10-10T12:55:57Z</time>
      </trkpt>
      <trkpt lat="-21.03572" lon="55.43971">
        <ele>1188</ele>
        <time>2013-10-10T12:56:01Z</time>
      </trkpt>
      <trkpt lat="-21.03753" lon="55.43752">
        <ele>1184</ele>
        <time>2013-10-10T12:56:41Z</time>
      </trkpt>
      <trkpt lat="-21.03826" lon="55.4367">
        <ele>1179</ele>
        <time>2013-10-10T12:57:07Z</time>
      </trkpt>
      <trkpt lat="-21.03819" lon="55.43659">
        <ele>1175</ele>
        <time>2013-10-10T12:57:27Z</time>
      </trkpt>
      <trkpt lat="-21.03815" lon="55.43648">
        <ele>1167</ele>
        <time>2013-10-10T12:57:55Z</time>
      </trkpt>
      <trkpt lat="-21.03799" lon="55.43653">
        <ele>1164</ele>
        <time>2013-10-10T12:58:03Z</time>
      </trkpt>
      <trkpt lat="-21.03815" lon="55.43636">
        <ele>1161</ele>
        <time>2013-10-10T12:58:17Z</time>
      </trkpt>
      <trkpt lat="-21.03825" lon="55.43631">
        <ele>1160</ele>
        <time>2013-10-10T12:58:21Z</time>
      </trkpt>
      <trkpt lat="-21.03813" lon="55.43631">
        <ele>1156</ele>
        <time>2013-10-10T12:58:37Z</time>
      </trkpt>
      <trkpt lat="-21.03801" lon="55.43631">
        <ele>1154</ele>
        <time>2013-10-10T12:58:45Z</time>
      </trkpt>
      <trkpt lat="-21.03796" lon="55.43641">
        <ele>1150</ele>
        <time>2013-10-10T12:58:57Z</time>
      </trkpt>
      <trkpt lat="-21.03808" lon="55.4363">
        <ele>1147</ele>
        <time>2013-10-10T12:59:05Z</time>
      </trkpt>
      <trkpt lat="-21.03795" lon="55.43615">
        <ele>1143</ele>
        <time>2013-10-10T12:59:25Z</time>
      </trkpt>
      <trkpt lat="-21.03806" lon="55.43614">
        <ele>1139</ele>
        <time>2013-10-10T12:59:45Z</time>
      </trkpt>
      <trkpt lat="-21.03804" lon="55.43602">
        <ele>1136</ele>
        <time>2013-10-10T12:59:57Z</time>
      </trkpt>
      <trkpt lat="-21.03822" lon="55.43586">
        <ele>1128</ele>
        <time>2013-10-10T13:00:31Z</time>
      </trkpt>
      <trkpt lat="-21.03801" lon="55.43579">
        <ele>1124</ele>
        <time>2013-10-10T13:00:46Z</time>
      </trkpt>
      <trkpt lat="-21.03792" lon="55.43573">
        <ele>1122</ele>
        <time>2013-10-10T13:00:58Z</time>
      </trkpt>
      <trkpt lat="-21.03783" lon="55.43566">
        <ele>1116</ele>
        <time>2013-10-10T13:01:14Z</time>
      </trkpt>
      <trkpt lat="-21.03777" lon="55.43552">
        <ele>1114</ele>
        <time>2013-10-10T13:01:22Z</time>
      </trkpt>
      <trkpt lat="-21.03775" lon="55.43541">
        <ele>1112</ele>
        <time>2013-10-10T13:01:26Z</time>
      </trkpt>
      <trkpt lat="-21.03767" lon="55.43535">
        <ele>1110</ele>
        <time>2013-10-10T13:01:34Z</time>
      </trkpt>
      <trkpt lat="-21.03766" lon="55.43523">
        <ele>1106</ele>
        <time>2013-10-10T13:01:42Z</time>
      </trkpt>
      <trkpt lat="-21.03748" lon="55.43511">
        <ele>1099</ele>
        <time>2013-10-10T13:02:02Z</time>
      </trkpt>
      <trkpt lat="-21.03744" lon="55.43499">
        <ele>1095</ele>
        <time>2013-10-10T13:02:10Z</time>
      </trkpt>
      <trkpt lat="-21.0373" lon="55.43495">
        <ele>1090</ele>
        <time>2013-10-10T13:02:26Z</time>
      </trkpt>
      <trkpt lat="-21.03724" lon="55.43483">
        <ele>1087</ele>
        <time>2013-10-10T13:02:34Z</time>
      </trkpt>
      <trkpt lat="-21.03728" lon="55.43467">
        <ele>1083</ele>
        <time>2013-10-10T13:02:46Z</time>
      </trkpt>
      <trkpt lat="-21.03721" lon="55.43443">
        <ele>1078</ele>
        <time>2013-10-10T13:03:02Z</time>
      </trkpt>
      <trkpt lat="-21.03717" lon="55.43434">
        <ele>1076</ele>
        <time>2013-10-10T13:03:10Z</time>
      </trkpt>
      <trkpt lat="-21.03711" lon="55.43424">
        <ele>1072</ele>
        <time>2013-10-10T13:03:22Z</time>
      </trkpt>
      <trkpt lat="-21.03709" lon="55.4341">
        <ele>1068</ele>
        <time>2013-10-10T13:03:30Z</time>
      </trkpt>
      <trkpt lat="-21.03697" lon="55.43401">
        <ele>1063</ele>
        <time>2013-10-10T13:03:46Z</time>
      </trkpt>
      <trkpt lat="-21.03688" lon="55.43403">
        <ele>1060</ele>
        <time>2013-10-10T13:03:54Z</time>
      </trkpt>
      <trkpt lat="-21.03692" lon="55.43378">
        <ele>1057</ele>
        <time>2013-10-10T13:04:06Z</time>
      </trkpt>
      <trkpt lat="-21.03695" lon="55.43366">
        <ele>1056</ele>
        <time>2013-10-10T13:04:10Z</time>
      </trkpt>
      <trkpt lat="-21.03691" lon="55.43354">
        <ele>1054</ele>
        <time>2013-10-10T13:04:18Z</time>
      </trkpt>
      <trkpt lat="-21.03698" lon="55.43332">
        <ele>1051</ele>
        <time>2013-10-10T13:04:26Z</time>
      </trkpt>
      <trkpt lat="-21.03703" lon="55.43315">
        <ele>1051</ele>
        <time>2013-10-10T13:04:30Z</time>
      </trkpt>
      <trkpt lat="-21.03696" lon="55.43302">
        <ele>1049</ele>
        <time>2013-10-10T13:04:38Z</time>
      </trkpt>
      <trkpt lat="-21.03691" lon="55.43285">
        <ele>1049</ele>
        <time>2013-10-10T13:04:46Z</time>
      </trkpt>
      <trkpt lat="-21.03673" lon="55.43291">
        <ele>1049</ele>
        <time>2013-10-10T13:04:54Z</time>
      </trkpt>
      <trkpt lat="-21.03664" lon="55.43295">
        <ele>1048</ele>
        <time>2013-10-10T13:04:58Z</time>
      </trkpt>
      <trkpt lat="-21.03662" lon="55.43272">
        <ele>1043</ele>
        <time>2013-10-10T13:05:10Z</time>
      </trkpt>
      <trkpt lat="-21.03662" lon="55.43259">
        <ele>1038</ele>
        <time>2013-10-10T13:05:22Z</time>
      </trkpt>
      <trkpt lat="-21.03663" lon="55.43248">
        <ele>1035</ele>
        <time>2013-10-10T13:05:30Z</time>
      </trkpt>
      <trkpt lat="-21.03666" lon="55.43225">
        <ele>1030</ele>
        <time>2013-10-10T13:05:50Z</time>
      </trkpt>
      <trkpt lat="-21.03668" lon="55.43215">
        <ele>1029</ele>
        <time>2013-10-10T13:05:54Z</time>
      </trkpt>
      <trkpt lat="-21.03661" lon="55.43206">
        <ele>1026</ele>
        <time>2013-10-10T13:06:02Z</time>
      </trkpt>
      <trkpt lat="-21.03641" lon="55.43192">
        <ele>1021</ele>
        <time>2013-10-10T13:06:22Z</time>
      </trkpt>
      <trkpt lat="-21.0363" lon="55.43189">
        <ele>1017</ele>
        <time>2013-10-10T13:06:34Z</time>
      </trkpt>
      <trkpt lat="-21.03627" lon="55.43176">
        <ele>1016</ele>
        <time>2013-10-10T13:06:42Z</time>
      </trkpt>
      <trkpt lat="-21.03628" lon="55.43166">
        <ele>1015</ele>
        <time>2013-10-10T13:06:46Z</time>
      </trkpt>
      <trkpt lat="-21.03635" lon="55.43147">
        <ele>1013</ele>
        <time>2013-10-10T13:06:50Z</time>
      </trkpt>
      <trkpt lat="-21.03636" lon="55.43136">
        <ele>1011</ele>
        <time>2013-10-10T13:06:54Z</time>
      </trkpt>
      <trkpt lat="-21.03634" lon="55.43127">
        <ele>1007</ele>
        <time>2013-10-10T13:07:02Z</time>
      </trkpt>
      <trkpt lat="-21.03635" lon="55.4311">
        <ele>1005</ele>
        <time>2013-10-10T13:07:10Z</time>
      </trkpt>
      <trkpt lat="-21.0362" lon="55.43097">
        <ele>1002</ele>
        <time>2013-10-10T13:07:26Z</time>
      </trkpt>
      <trkpt lat="-21.03609" lon="55.43099">
        <ele>999</ele>
        <time>2013-10-10T13:07:39Z</time>
      </trkpt>
      <trkpt lat="-21.03597" lon="55.43096">
        <ele>996</ele>
        <time>2013-10-10T13:07:49Z</time>
      </trkpt>
      <trkpt lat="-21.03587" lon="55.43092">
        <ele>991</ele>
        <time>2013-10-10T13:08:01Z</time>
      </trkpt>
      <trkpt lat="-21.03563" lon="55.43107">
        <ele>986</ele>
        <time>2013-10-10T13:08:12Z</time>
      </trkpt>
      <trkpt lat="-21.0349" lon="55.43173">
        <ele>982</ele>
        <time>2013-10-10T13:08:30Z</time>
      </trkpt>
      <trkpt lat="-21.03476" lon="55.43186">
        <ele>980</ele>
        <time>2013-10-10T13:08:34Z</time>
      </trkpt>
      <trkpt lat="-21.03447" lon="55.4318">
        <ele>973</ele>
        <time>2013-10-10T13:09:18Z</time>
      </trkpt>
      <trkpt lat="-21.03545" lon="55.42998">
        <ele>965</ele>
        <time>2013-10-10T13:10:22Z</time>
      </trkpt>
      <trkpt lat="-21.03544" lon="55.42983">
        <ele>963</ele>
        <time>2013-10-10T13:10:30Z</time>
      </trkpt>
      <trkpt lat="-21.03527" lon="55.42988">
        <ele>963</ele>
        <time>2013-10-10T13:10:38Z</time>
      </trkpt>
      <trkpt lat="-21.03516" lon="55.42996">
        <ele>961</ele>
        <time>2013-10-10T13:10:46Z</time>
      </trkpt>
      <trkpt lat="-21.03515" lon="55.42985">
        <ele>958</ele>
        <time>2013-10-10T13:10:58Z</time>
      </trkpt>
      <trkpt lat="-21.03512" lon="55.42999">
        <ele>956</ele>
        <time>2013-10-10T13:11:06Z</time>
      </trkpt>
      <trkpt lat="-21.03467" lon="55.42962">
        <ele>954</ele>
        <time>2013-10-10T13:11:56Z</time>
      </trkpt>
      <trkpt lat="-21.03453" lon="55.42916">
        <ele>950</ele>
        <time>2013-10-10T13:14:00Z</time>
      </trkpt>
      <trkpt lat="-21.03534" lon="55.42858">
        <ele>951</ele>
        <time>2013-10-10T13:14:18Z</time>
      </trkpt>
      <trkpt lat="-21.03334" lon="55.42868">
        <ele>961</ele>
        <time>2013-10-10T13:19:59Z</time>
      </trkpt>
      <trkpt lat="-21.03317" lon="55.4288">
        <ele>957.4</ele>
        <time>2013-10-10T13:20:46Z</time>
      </trkpt>
      <trkpt lat="-21.03308" lon="55.4288">
        <ele>956.5</ele>
        <time>2013-10-10T13:20:56Z</time>
      </trkpt>
      <trkpt lat="-21.03303" lon="55.42872">
        <ele>955.9</ele>
        <time>2013-10-10T13:21:04Z</time>
      </trkpt>
      <trkpt lat="-21.03292" lon="55.42854">
        <ele>951.6</ele>
        <time>2013-10-10T13:21:18Z</time>
      </trkpt>
      <trkpt lat="-21.03284" lon="55.42849">
        <ele>949.1</ele>
        <time>2013-10-10T13:21:35Z</time>
      </trkpt>
      <trkpt lat="-21.03279" lon="55.4284">
        <ele>947.5</ele>
        <time>2013-10-10T13:21:43Z</time>
      </trkpt>
      <trkpt lat="-21.03271" lon="55.42835">
        <ele>944.3</ele>
        <time>2013-10-10T13:21:57Z</time>
      </trkpt>
      <trkpt lat="-21.03268" lon="55.42826">
        <ele>943.6</ele>
        <time>2013-10-10T13:22:09Z</time>
      </trkpt>
      <trkpt lat="-21.0325" lon="55.42818">
        <ele>941.2</ele>
        <time>2013-10-10T13:22:28Z</time>
      </trkpt>
      <trkpt lat="-21.03242" lon="55.42814">
        <ele>939.5</ele>
        <time>2013-10-10T13:22:35Z</time>
      </trkpt>
      <trkpt lat="-21.03232" lon="55.42816">
        <ele>937.7</ele>
        <time>2013-10-10T13:22:43Z</time>
      </trkpt>
      <trkpt lat="-21.03224" lon="55.4282">
        <ele>936.5</ele>
        <time>2013-10-10T13:22:54Z</time>
      </trkpt>
      <trkpt lat="-21.03214" lon="55.4282">
        <ele>935.2</ele>
        <time>2013-10-10T13:23:03Z</time>
      </trkpt>
      <trkpt lat="-21.03206" lon="55.42813">
        <ele>934.2</ele>
        <time>2013-10-10T13:23:11Z</time>
      </trkpt>
      <trkpt lat="-21.03189" lon="55.42814">
        <ele>929.2</ele>
        <time>2013-10-10T13:23:27Z</time>
      </trkpt>
      <trkpt lat="-21.0318" lon="55.42817">
        <ele>926.5</ele>
        <time>2013-10-10T13:23:33Z</time>
      </trkpt>
      <trkpt lat="-21.03171" lon="55.42813">
        <ele>924.3</ele>
        <time>2013-10-10T13:23:39Z</time>
      </trkpt>
      <trkpt lat="-21.03164" lon="55.42805">
        <ele>923.7</ele>
        <time>2013-10-10T13:23:47Z</time>
      </trkpt>
      <trkpt lat="-21.03124" lon="55.42809">
        <ele>924</ele>
        <time>2013-10-10T13:24:05Z</time>
      </trkpt>
      <trkpt lat="-21.03114" lon="55.42812">
        <ele>923.6</ele>
        <time>2013-10-10T13:24:14Z</time>
      </trkpt>
      <trkpt lat="-21.03094" lon="55.42816">
        <ele>919</ele>
        <time>2013-10-10T13:24:42Z</time>
      </trkpt>
      <trkpt lat="-21.03084" lon="55.42827">
        <ele>917</ele>
        <time>2013-10-10T13:24:54Z</time>
      </trkpt>
      <trkpt lat="-21.03079" lon="55.42839">
        <ele>915</ele>
        <time>2013-10-10T13:25:02Z</time>
      </trkpt>
      <trkpt lat="-21.03071" lon="55.42848">
        <ele>912</ele>
        <time>2013-10-10T13:25:10Z</time>
      </trkpt>
      <trkpt lat="-21.0307" lon="55.42867">
        <ele>909</ele>
        <time>2013-10-10T13:25:18Z</time>
      </trkpt>
      <trkpt lat="-21.0306" lon="55.4289">
        <ele>910</ele>
        <time>2013-10-10T13:25:38Z</time>
      </trkpt>
      <trkpt lat="-21.0305" lon="55.42891">
        <ele>910</ele>
        <time>2013-10-10T13:25:42Z</time>
      </trkpt>
      <trkpt lat="-21.03026" lon="55.42883">
        <ele>916</ele>
        <time>2013-10-10T13:26:11Z</time>
      </trkpt>
      <trkpt lat="-21.03003" lon="55.42871">
        <ele>923</ele>
        <time>2013-10-10T13:26:46Z</time>
      </trkpt>
      <trkpt lat="-21.02992" lon="55.42889">
        <ele>921</ele>
        <time>2013-10-10T13:26:54Z</time>
      </trkpt>
      <trkpt lat="-21.0299" lon="55.42907">
        <ele>921</ele>
        <time>2013-10-10T13:26:58Z</time>
      </trkpt>
      <trkpt lat="-21.0299" lon="55.4292">
        <ele>918</ele>
        <time>2013-10-10T13:27:04Z</time>
      </trkpt>
      <trkpt lat="-21.02992" lon="55.4294">
        <ele>911</ele>
        <time>2013-10-10T13:27:25Z</time>
      </trkpt>
      <trkpt lat="-21.02992" lon="55.42952">
        <ele>908</ele>
        <time>2013-10-10T13:27:33Z</time>
      </trkpt>
      <trkpt lat="-21.02989" lon="55.42975">
        <ele>906</ele>
        <time>2013-10-10T13:27:49Z</time>
      </trkpt>
      <trkpt lat="-21.02984" lon="55.42985">
        <ele>905</ele>
        <time>2013-10-10T13:27:57Z</time>
      </trkpt>
      <trkpt lat="-21.02977" lon="55.42999">
        <ele>904</ele>
        <time>2013-10-10T13:28:07Z</time>
      </trkpt>
      <trkpt lat="-21.02946" lon="55.42986">
        <ele>911</ele>
        <time>2013-10-10T13:29:22Z</time>
      </trkpt>
      <trkpt lat="-21.02917" lon="55.42961">
        <ele>921</ele>
        <time>2013-10-10T13:30:10Z</time>
      </trkpt>
      <trkpt lat="-21.02902" lon="55.42975">
        <ele>923</ele>
        <time>2013-10-10T13:30:26Z</time>
      </trkpt>
      <trkpt lat="-21.02912" lon="55.42979">
        <ele>927</ele>
        <time>2013-10-10T13:30:42Z</time>
      </trkpt>
      <trkpt lat="-21.0289" lon="55.42958">
        <ele>934</ele>
        <time>2013-10-10T13:31:16Z</time>
      </trkpt>
      <trkpt lat="-21.02884" lon="55.42939">
        <ele>932</ele>
        <time>2013-10-10T13:31:32Z</time>
      </trkpt>
      <trkpt lat="-21.02871" lon="55.42923">
        <ele>927</ele>
        <time>2013-10-10T13:31:48Z</time>
      </trkpt>
      <trkpt lat="-21.0282" lon="55.4291">
        <ele>921</ele>
        <time>2013-10-10T13:32:20Z</time>
      </trkpt>
      <trkpt lat="-21.02798" lon="55.42909">
        <ele>917</ele>
        <time>2013-10-10T13:32:36Z</time>
      </trkpt>
      <trkpt lat="-21.02785" lon="55.42903">
        <ele>913</ele>
        <time>2013-10-10T13:32:52Z</time>
      </trkpt>
      <trkpt lat="-21.02752" lon="55.42877">
        <ele>908</ele>
        <time>2013-10-10T13:33:24Z</time>
      </trkpt>
      <trkpt lat="-21.02736" lon="55.42875">
        <ele>904</ele>
        <time>2013-10-10T13:33:40Z</time>
      </trkpt>
      <trkpt lat="-21.02738" lon="55.42855">
        <ele>897</ele>
        <time>2013-10-10T13:34:12Z</time>
      </trkpt>
      <trkpt lat="-21.02701" lon="55.42847">
        <ele>891</ele>
        <time>2013-10-10T13:34:45Z</time>
      </trkpt>
      <trkpt lat="-21.02685" lon="55.4284">
        <ele>892</ele>
        <time>2013-10-10T13:34:54Z</time>
      </trkpt>
      <trkpt lat="-21.02678" lon="55.42834">
        <ele>891</ele>
        <time>2013-10-10T13:35:06Z</time>
      </trkpt>
      <trkpt lat="-21.02666" lon="55.42835">
        <ele>890</ele>
        <time>2013-10-10T13:35:26Z</time>
      </trkpt>
      <trkpt lat="-21.02659" lon="55.42816">
        <ele>890</ele>
        <time>2013-10-10T13:38:34Z</time>
      </trkpt>
      <trkpt lat="-21.02653" lon="55.42811">
        <ele>888</ele>
        <time>2013-10-10T13:38:47Z</time>
      </trkpt>
      <trkpt lat="-21.0266" lon="55.42803">
        <ele>888</ele>
        <time>2013-10-10T13:40:52Z</time>
      </trkpt>
      <trkpt lat="-21.02659" lon="55.42822">
        <ele>890.4</ele>
        <time>2013-10-10T13:41:56Z</time>
      </trkpt>
      <trkpt lat="-21.02675" lon="55.4282">
        <ele>890.4</ele>
        <time>2013-10-10T13:45:19Z</time>
      </trkpt>
      <trkpt lat="-21.02668" lon="55.4283">
        <ele>890</ele>
        <time>2013-10-10T13:45:23Z</time>
      </trkpt>
      <trkpt lat="-21.02663" lon="55.42821">
        <ele>889.7</ele>
        <time>2013-10-10T13:45:54Z</time>
      </trkpt>
      <trkpt lat="-21.02665" lon="55.42831">
        <ele>890.6</ele>
        <time>2013-10-10T13:47:48Z</time>
      </trkpt>
      <trkpt lat="-21.02647" lon="55.42836">
        <ele>889</ele>
        <time>2013-10-10T13:49:17Z</time>
      </trkpt>
      <trkpt lat="-21.02628" lon="55.42833">
        <ele>887.2</ele>
        <time>2013-10-10T13:49:44Z</time>
      </trkpt>
      <trkpt lat="-21.02619" lon="55.42834">
        <ele>886.2</ele>
        <time>2013-10-10T13:49:53Z</time>
      </trkpt>
      <trkpt lat="-21.0261" lon="55.42835">
        <ele>885.7</ele>
        <time>2013-10-10T13:50:02Z</time>
      </trkpt>
      <trkpt lat="-21.026" lon="55.42837">
        <ele>885.5</ele>
        <time>2013-10-10T13:50:10Z</time>
      </trkpt>
      <trkpt lat="-21.02591" lon="55.42834">
        <ele>883.3</ele>
        <time>2013-10-10T13:50:17Z</time>
      </trkpt>
      <trkpt lat="-21.02582" lon="55.42831">
        <ele>881.6</ele>
        <time>2013-10-10T13:50:27Z</time>
      </trkpt>
      <trkpt lat="-21.02564" lon="55.42833">
        <ele>877.5</ele>
        <time>2013-10-10T13:50:56Z</time>
      </trkpt>
      <trkpt lat="-21.02555" lon="55.42832">
        <ele>874.4</ele>
        <time>2013-10-10T13:51:09Z</time>
      </trkpt>
      <trkpt lat="-21.02546" lon="55.42829">
        <ele>871.9</ele>
        <time>2013-10-10T13:51:19Z</time>
      </trkpt>
      <trkpt lat="-21.02537" lon="55.42825">
        <ele>870.4</ele>
        <time>2013-10-10T13:51:30Z</time>
      </trkpt>
      <trkpt lat="-21.02522" lon="55.42814">
        <ele>865.2</ele>
        <time>2013-10-10T13:51:51Z</time>
      </trkpt>
      <trkpt lat="-21.02512" lon="55.42812">
        <ele>861.7</ele>
        <time>2013-10-10T13:52:02Z</time>
      </trkpt>
      <trkpt lat="-21.02503" lon="55.42811">
        <ele>858.9</ele>
        <time>2013-10-10T13:52:13Z</time>
      </trkpt>
      <trkpt lat="-21.02499" lon="55.42803">
        <ele>854.8</ele>
        <time>2013-10-10T13:52:24Z</time>
      </trkpt>
      <trkpt lat="-21.02489" lon="55.42801">
        <ele>852.5</ele>
        <time>2013-10-10T13:52:35Z</time>
      </trkpt>
      <trkpt lat="-21.02472" lon="55.42797">
        <ele>846.8</ele>
        <time>2013-10-10T13:52:58Z</time>
      </trkpt>
      <trkpt lat="-21.02463" lon="55.42793">
        <ele>843.7</ele>
        <time>2013-10-10T13:53:11Z</time>
      </trkpt>
      <trkpt lat="-21.02456" lon="55.42788">
        <ele>840.6</ele>
        <time>2013-10-10T13:53:21Z</time>
      </trkpt>
      <trkpt lat="-21.02453" lon="55.42778">
        <ele>838.9</ele>
        <time>2013-10-10T13:53:30Z</time>
      </trkpt>
      <trkpt lat="-21.0245" lon="55.42768">
        <ele>837.9</ele>
        <time>2013-10-10T13:53:39Z</time>
      </trkpt>
      <trkpt lat="-21.02433" lon="55.4276">
        <ele>834.8</ele>
        <time>2013-10-10T13:53:58Z</time>
      </trkpt>
      <trkpt lat="-21.02425" lon="55.42754">
        <ele>832.6</ele>
        <time>2013-10-10T13:54:06Z</time>
      </trkpt>
      <trkpt lat="-21.02419" lon="55.42745">
        <ele>830.9</ele>
        <time>2013-10-10T13:54:15Z</time>
      </trkpt>
      <trkpt lat="-21.02414" lon="55.42737">
        <ele>828.9</ele>
        <time>2013-10-10T13:54:30Z</time>
      </trkpt>
      <trkpt lat="-21.0241" lon="55.42727">
        <ele>825.1</ele>
        <time>2013-10-10T13:54:43Z</time>
      </trkpt>
      <trkpt lat="-21.02414" lon="55.42706">
        <ele>817.3</ele>
        <time>2013-10-10T13:55:09Z</time>
      </trkpt>
      <trkpt lat="-21.02406" lon="55.42711">
        <ele>816</ele>
        <time>2013-10-10T13:55:55Z</time>
      </trkpt>
      <trkpt lat="-21.02371" lon="55.4257">
        <ele>866</ele>
        <time>2013-10-10T14:00:50Z</time>
      </trkpt>
      <trkpt lat="-21.02354" lon="55.42576">
        <ele>873</ele>
        <time>2013-10-10T14:01:52Z</time>
      </trkpt>
      <trkpt lat="-21.02278" lon="55.42567">
        <ele>922</ele>
        <time>2013-10-10T14:06:30Z</time>
      </trkpt>
      <trkpt lat="-21.02269" lon="55.42551">
        <ele>927</ele>
        <time>2013-10-10T14:06:56Z</time>
      </trkpt>
      <trkpt lat="-21.02264" lon="55.42563">
        <ele>928</ele>
        <time>2013-10-10T14:07:00Z</time>
      </trkpt>
      <trkpt lat="-21.02239" lon="55.42547">
        <ele>945</ele>
        <time>2013-10-10T14:08:40Z</time>
      </trkpt>
      <trkpt lat="-21.02233" lon="55.42529">
        <ele>953.4</ele>
        <time>2013-10-10T14:09:26Z</time>
      </trkpt>
      <trkpt lat="-21.02235" lon="55.42519">
        <ele>953.2</ele>
        <time>2013-10-10T14:09:35Z</time>
      </trkpt>
      <trkpt lat="-21.02234" lon="55.4251">
        <ele>954.7</ele>
        <time>2013-10-10T14:09:47Z</time>
      </trkpt>
      <trkpt lat="-21.02227" lon="55.42502">
        <ele>956.3</ele>
        <time>2013-10-10T14:10:06Z</time>
      </trkpt>
      <trkpt lat="-21.0222" lon="55.42496">
        <ele>956.1</ele>
        <time>2013-10-10T14:10:15Z</time>
      </trkpt>
      <trkpt lat="-21.02216" lon="55.42487">
        <ele>956</ele>
        <time>2013-10-10T14:10:24Z</time>
      </trkpt>
      <trkpt lat="-21.02205" lon="55.42472">
        <ele>956.8</ele>
        <time>2013-10-10T14:10:40Z</time>
      </trkpt>
      <trkpt lat="-21.02197" lon="55.42467">
        <ele>957</ele>
        <time>2013-10-10T14:10:50Z</time>
      </trkpt>
      <trkpt lat="-21.0219" lon="55.4246">
        <ele>958.2</ele>
        <time>2013-10-10T14:10:59Z</time>
      </trkpt>
      <trkpt lat="-21.02181" lon="55.42456">
        <ele>959.8</ele>
        <time>2013-10-10T14:11:17Z</time>
      </trkpt>
      <trkpt lat="-21.02171" lon="55.42455">
        <ele>959.6</ele>
        <time>2013-10-10T14:11:25Z</time>
      </trkpt>
      <trkpt lat="-21.02153" lon="55.42451">
        <ele>959</ele>
        <time>2013-10-10T14:11:43Z</time>
      </trkpt>
      <trkpt lat="-21.02144" lon="55.4245">
        <ele>959.4</ele>
        <time>2013-10-10T14:11:54Z</time>
      </trkpt>
      <trkpt lat="-21.02134" lon="55.42451">
        <ele>961.9</ele>
        <time>2013-10-10T14:12:06Z</time>
      </trkpt>
      <trkpt lat="-21.02125" lon="55.42455">
        <ele>962.6</ele>
        <time>2013-10-10T14:12:15Z</time>
      </trkpt>
      <trkpt lat="-21.02117" lon="55.4246">
        <ele>963.4</ele>
        <time>2013-10-10T14:12:25Z</time>
      </trkpt>
      <trkpt lat="-21.02108" lon="55.42465">
        <ele>962.2</ele>
        <time>2013-10-10T14:12:33Z</time>
      </trkpt>
      <trkpt lat="-21.0209" lon="55.42474">
        <ele>962.8</ele>
        <time>2013-10-10T14:12:47Z</time>
      </trkpt>
      <trkpt lat="-21.0208" lon="55.42476">
        <ele>963.4</ele>
        <time>2013-10-10T14:12:56Z</time>
      </trkpt>
      <trkpt lat="-21.02071" lon="55.42477">
        <ele>964.1</ele>
        <time>2013-10-10T14:13:06Z</time>
      </trkpt>
      <trkpt lat="-21.02062" lon="55.4248">
        <ele>964.9</ele>
        <time>2013-10-10T14:13:16Z</time>
      </trkpt>
      <trkpt lat="-21.02053" lon="55.42484">
        <ele>964.3</ele>
        <time>2013-10-10T14:13:29Z</time>
      </trkpt>
      <trkpt lat="-21.02044" lon="55.42486">
        <ele>964.1</ele>
        <time>2013-10-10T14:13:37Z</time>
      </trkpt>
      <trkpt lat="-21.02026" lon="55.42487">
        <ele>965.3</ele>
        <time>2013-10-10T14:13:53Z</time>
      </trkpt>
      <trkpt lat="-21.02014" lon="55.42489">
        <ele>964</ele>
        <time>2013-10-10T14:14:01Z</time>
      </trkpt>
      <trkpt lat="-21.02004" lon="55.42488">
        <ele>964.6</ele>
        <time>2013-10-10T14:14:09Z</time>
      </trkpt>
      <trkpt lat="-21.01994" lon="55.4249">
        <ele>964.9</ele>
        <time>2013-10-10T14:14:28Z</time>
      </trkpt>
      <trkpt lat="-21.01985" lon="55.42493">
        <ele>964.8</ele>
        <time>2013-10-10T14:14:36Z</time>
      </trkpt>
      <trkpt lat="-21.01985" lon="55.42493">
        <ele>964.8</ele>
        <time>2013-10-10T14:14:36Z</time>
      </trkpt>
      <trkpt lat="-21.01976" lon="55.42495">
        <ele>965.1</ele>
        <time>2013-10-10T14:14:49Z</time>
      </trkpt>
      <trkpt lat="-21.01952" lon="55.42496">
        <ele>967</ele>
        <time>2013-10-10T14:14:59Z</time>
      </trkpt>
      <trkpt lat="-21.01962" lon="55.42494">
        <ele>968.3</ele>
        <time>2013-10-10T14:15:27Z</time>
      </trkpt>
      <trkpt lat="-21.01967" lon="55.42487">
        <ele>967.2</ele>
        <time>2013-10-10T14:16:05Z</time>
      </trkpt>
      <trkpt lat="-21.01971" lon="55.42467">
        <ele>965.2</ele>
        <time>2013-10-10T14:16:29Z</time>
      </trkpt>
      <trkpt lat="-21.01975" lon="55.42458">
        <ele>964.1</ele>
        <time>2013-10-10T14:16:39Z</time>
      </trkpt>
      <trkpt lat="-21.01978" lon="55.42449">
        <ele>964.4</ele>
        <time>2013-10-10T14:16:48Z</time>
      </trkpt>
      <trkpt lat="-21.01983" lon="55.4244">
        <ele>964.8</ele>
        <time>2013-10-10T14:17:00Z</time>
      </trkpt>
      <trkpt lat="-21.01987" lon="55.42431">
        <ele>963.7</ele>
        <time>2013-10-10T14:17:07Z</time>
      </trkpt>
      <trkpt lat="-21.01996" lon="55.42412">
        <ele>964</ele>
        <time>2013-10-10T14:17:25Z</time>
      </trkpt>
      <trkpt lat="-21.02001" lon="55.42402">
        <ele>963</ele>
        <time>2013-10-10T14:17:37Z</time>
      </trkpt>
      <trkpt lat="-21.02006" lon="55.42393">
        <ele>964</ele>
        <time>2013-10-10T14:17:49Z</time>
      </trkpt>
      <trkpt lat="-21.02" lon="55.42401">
        <ele>963.8</ele>
        <time>2013-10-10T14:17:58Z</time>
      </trkpt>
      <trkpt lat="-21.01991" lon="55.42404">
        <ele>963.7</ele>
        <time>2013-10-10T14:18:12Z</time>
      </trkpt>
      <trkpt lat="-21.02009" lon="55.42379">
        <ele>964.1</ele>
        <time>2013-10-10T14:19:48Z</time>
      </trkpt>
      <trkpt lat="-21.02009" lon="55.42369">
        <ele>963.7</ele>
        <time>2013-10-10T14:20:32Z</time>
      </trkpt>
      <trkpt lat="-21.02004" lon="55.42389">
        <ele>964</ele>
        <time>2013-10-10T14:21:40Z</time>
      </trkpt>
      <trkpt lat="-21.02011" lon="55.42371">
        <ele>963.9</ele>
        <time>2013-10-10T14:23:18Z</time>
      </trkpt>
      <trkpt lat="-21.02008" lon="55.42343">
        <ele>965.6</ele>
        <time>2013-10-10T14:27:10Z</time>
      </trkpt>
      <trkpt lat="-21.02003" lon="55.42335">
        <ele>967.1</ele>
        <time>2013-10-10T14:27:18Z</time>
      </trkpt>
      <trkpt lat="-21.01997" lon="55.42326">
        <ele>967.8</ele>
        <time>2013-10-10T14:27:25Z</time>
      </trkpt>
      <trkpt lat="-21.01996" lon="55.42316">
        <ele>969.3</ele>
        <time>2013-10-10T14:27:32Z</time>
      </trkpt>
      <trkpt lat="-21.01993" lon="55.42307">
        <ele>969.2</ele>
        <time>2013-10-10T14:27:39Z</time>
      </trkpt>
      <trkpt lat="-21.01991" lon="55.42296">
        <ele>970.1</ele>
        <time>2013-10-10T14:27:49Z</time>
      </trkpt>
      <trkpt lat="-21.01987" lon="55.42286">
        <ele>969.8</ele>
        <time>2013-10-10T14:27:56Z</time>
      </trkpt>
      <trkpt lat="-21.01981" lon="55.42268">
        <ele>970.4</ele>
        <time>2013-10-10T14:28:10Z</time>
      </trkpt>
      <trkpt lat="-21.01985" lon="55.42258">
        <ele>970.9</ele>
        <time>2013-10-10T14:28:16Z</time>
      </trkpt>
      <trkpt lat="-21.01986" lon="55.42248">
        <ele>971.4</ele>
        <time>2013-10-10T14:28:25Z</time>
      </trkpt>
      <trkpt lat="-21.01988" lon="55.42238">
        <ele>972.4</ele>
        <time>2013-10-10T14:28:33Z</time>
      </trkpt>
      <trkpt lat="-21.01994" lon="55.42229">
        <ele>973.1</ele>
        <time>2013-10-10T14:28:38Z</time>
      </trkpt>
      <trkpt lat="-21.01996" lon="55.42218">
        <ele>975.5</ele>
        <time>2013-10-10T14:28:55Z</time>
      </trkpt>
      <trkpt lat="-21.02006" lon="55.42219">
        <ele>977.3</ele>
        <time>2013-10-10T14:29:11Z</time>
      </trkpt>
      <trkpt lat="-21.0202" lon="55.42205">
        <ele>977.6</ele>
        <time>2013-10-10T14:29:22Z</time>
      </trkpt>
      <trkpt lat="-21.02028" lon="55.422">
        <ele>978.1</ele>
        <time>2013-10-10T14:29:30Z</time>
      </trkpt>
      <trkpt lat="-21.02037" lon="55.42197">
        <ele>979.7</ele>
        <time>2013-10-10T14:29:40Z</time>
      </trkpt>
      <trkpt lat="-21.02046" lon="55.42193">
        <ele>981.6</ele>
        <time>2013-10-10T14:29:57Z</time>
      </trkpt>
      <trkpt lat="-21.02056" lon="55.42189">
        <ele>981.6</ele>
        <time>2013-10-10T14:30:06Z</time>
      </trkpt>
      <trkpt lat="-21.02065" lon="55.42188">
        <ele>982.6</ele>
        <time>2013-10-10T14:30:13Z</time>
      </trkpt>
      <trkpt lat="-21.0208" lon="55.42177">
        <ele>983.6</ele>
        <time>2013-10-10T14:30:28Z</time>
      </trkpt>
      <trkpt lat="-21.02089" lon="55.42181">
        <ele>984.6</ele>
        <time>2013-10-10T14:30:40Z</time>
      </trkpt>
      <trkpt lat="-21.02099" lon="55.4218">
        <ele>986.1</ele>
        <time>2013-10-10T14:30:51Z</time>
      </trkpt>
      <trkpt lat="-21.02109" lon="55.42177">
        <ele>986.5</ele>
        <time>2013-10-10T14:30:58Z</time>
      </trkpt>
      <trkpt lat="-21.02117" lon="55.42171">
        <ele>987.3</ele>
        <time>2013-10-10T14:31:03Z</time>
      </trkpt>
      <trkpt lat="-21.02126" lon="55.42165">
        <ele>987.5</ele>
        <time>2013-10-10T14:31:08Z</time>
      </trkpt>
      <trkpt lat="-21.02136" lon="55.42163">
        <ele>987.8</ele>
        <time>2013-10-10T14:31:14Z</time>
      </trkpt>
      <trkpt lat="-21.02153" lon="55.42155">
        <ele>988.5</ele>
        <time>2013-10-10T14:31:27Z</time>
      </trkpt>
      <trkpt lat="-21.02162" lon="55.42156">
        <ele>989.1</ele>
        <time>2013-10-10T14:31:34Z</time>
      </trkpt>
      <trkpt lat="-21.02171" lon="55.42156">
        <ele>989.6</ele>
        <time>2013-10-10T14:31:41Z</time>
      </trkpt>
      <trkpt lat="-21.02181" lon="55.42158">
        <ele>990</ele>
        <time>2013-10-10T14:31:52Z</time>
      </trkpt>
      <trkpt lat="-21.02189" lon="55.42163">
        <ele>989.8</ele>
        <time>2013-10-10T14:32:00Z</time>
      </trkpt>
      <trkpt lat="-21.02199" lon="55.42159">
        <ele>990.9</ele>
        <time>2013-10-10T14:32:08Z</time>
      </trkpt>
      <trkpt lat="-21.02208" lon="55.42153">
        <ele>991</ele>
        <time>2013-10-10T14:32:13Z</time>
      </trkpt>
      <trkpt lat="-21.02226" lon="55.42157">
        <ele>992.9</ele>
        <time>2013-10-10T14:32:31Z</time>
      </trkpt>
      <trkpt lat="-21.02236" lon="55.42155">
        <ele>993.4</ele>
        <time>2013-10-10T14:32:38Z</time>
      </trkpt>
      <trkpt lat="-21.02241" lon="55.42163">
        <ele>993.9</ele>
        <time>2013-10-10T14:32:49Z</time>
      </trkpt>
      <trkpt lat="-21.02251" lon="55.42168">
        <ele>994</ele>
        <time>2013-10-10T14:32:56Z</time>
      </trkpt>
      <trkpt lat="-21.02261" lon="55.42166">
        <ele>994</ele>
        <time>2013-10-10T14:33:04Z</time>
      </trkpt>
      <trkpt lat="-21.02267" lon="55.42159">
        <ele>994</ele>
        <time>2013-10-10T14:33:08Z</time>
      </trkpt>
      <trkpt lat="-21.02279" lon="55.42151">
        <ele>995</ele>
        <time>2013-10-10T14:33:16Z</time>
      </trkpt>
      <trkpt lat="-21.02292" lon="55.42164">
        <ele>996.6</ele>
        <time>2013-10-10T14:33:29Z</time>
      </trkpt>
      <trkpt lat="-21.02299" lon="55.42182">
        <ele>998</ele>
        <time>2013-10-10T14:33:39Z</time>
      </trkpt>
      <trkpt lat="-21.023" lon="55.42193">
        <ele>998</ele>
        <time>2013-10-10T14:33:43Z</time>
      </trkpt>
      <trkpt lat="-21.023" lon="55.42205">
        <ele>999</ele>
        <time>2013-10-10T14:33:47Z</time>
      </trkpt>
      <trkpt lat="-21.02311" lon="55.42201">
        <ele>1000</ele>
        <time>2013-10-10T14:33:56Z</time>
      </trkpt>
      <trkpt lat="-21.02317" lon="55.42194">
        <ele>1000.5</ele>
        <time>2013-10-10T14:34:00Z</time>
      </trkpt>
      <trkpt lat="-21.02322" lon="55.42186">
        <ele>999.8</ele>
        <time>2013-10-10T14:34:04Z</time>
      </trkpt>
      <trkpt lat="-21.0233" lon="55.42177">
        <ele>1000.7</ele>
        <time>2013-10-10T14:34:09Z</time>
      </trkpt>
      <trkpt lat="-21.02338" lon="55.4217">
        <ele>1001.9</ele>
        <time>2013-10-10T14:34:13Z</time>
      </trkpt>
      <trkpt lat="-21.02346" lon="55.42163">
        <ele>1001.9</ele>
        <time>2013-10-10T14:34:18Z</time>
      </trkpt>
      <trkpt lat="-21.02354" lon="55.42157">
        <ele>1002.9</ele>
        <time>2013-10-10T14:34:26Z</time>
      </trkpt>
      <trkpt lat="-21.02371" lon="55.42151">
        <ele>1003.5</ele>
        <time>2013-10-10T14:34:47Z</time>
      </trkpt>
      <trkpt lat="-21.02379" lon="55.42159">
        <ele>1003.2</ele>
        <time>2013-10-10T14:34:58Z</time>
      </trkpt>
      <trkpt lat="-21.02385" lon="55.42166">
        <ele>1003.6</ele>
        <time>2013-10-10T14:35:08Z</time>
      </trkpt>
      <trkpt lat="-21.02394" lon="55.42162">
        <ele>1003.6</ele>
        <time>2013-10-10T14:35:14Z</time>
      </trkpt>
      <trkpt lat="-21.02409" lon="55.42151">
        <ele>1003</ele>
        <time>2013-10-10T14:35:21Z</time>
      </trkpt>
      <trkpt lat="-21.0243" lon="55.42134">
        <ele>1005</ele>
        <time>2013-10-10T14:35:38Z</time>
      </trkpt>
      <trkpt lat="-21.02445" lon="55.42124">
        <ele>1006</ele>
        <time>2013-10-10T14:35:58Z</time>
      </trkpt>
      <trkpt lat="-21.0246" lon="55.42116">
        <ele>1007.6</ele>
        <time>2013-10-10T14:36:12Z</time>
      </trkpt>
      <trkpt lat="-21.02469" lon="55.42112">
        <ele>1006.9</ele>
        <time>2013-10-10T14:36:19Z</time>
      </trkpt>
      <trkpt lat="-21.02479" lon="55.42111">
        <ele>1007</ele>
        <time>2013-10-10T14:36:27Z</time>
      </trkpt>
      <trkpt lat="-21.02488" lon="55.42107">
        <ele>1006.4</ele>
        <time>2013-10-10T14:36:33Z</time>
      </trkpt>
      <trkpt lat="-21.02504" lon="55.42096">
        <ele>1004.5</ele>
        <time>2013-10-10T14:36:46Z</time>
      </trkpt>
      <trkpt lat="-21.02511" lon="55.4209">
        <ele>1004</ele>
        <time>2013-10-10T14:36:53Z</time>
      </trkpt>
      <trkpt lat="-21.02518" lon="55.42082">
        <ele>1003.7</ele>
        <time>2013-10-10T14:37:01Z</time>
      </trkpt>
      <trkpt lat="-21.02525" lon="55.42075">
        <ele>1002.3</ele>
        <time>2013-10-10T14:37:07Z</time>
      </trkpt>
      <trkpt lat="-21.02534" lon="55.4207">
        <ele>1002.2</ele>
        <time>2013-10-10T14:37:11Z</time>
      </trkpt>
      <trkpt lat="-21.02545" lon="55.42064">
        <ele>1001</ele>
        <time>2013-10-10T14:37:17Z</time>
      </trkpt>
      <trkpt lat="-21.02551" lon="55.42056">
        <ele>1001.4</ele>
        <time>2013-10-10T14:37:24Z</time>
      </trkpt>
      <trkpt lat="-21.02558" lon="55.42049">
        <ele>999.3</ele>
        <time>2013-10-10T14:37:40Z</time>
      </trkpt>
      <trkpt lat="-21.02573" lon="55.42032">
        <ele>997.5</ele>
        <time>2013-10-10T14:37:55Z</time>
      </trkpt>
      <trkpt lat="-21.0258" lon="55.42025">
        <ele>997.6</ele>
        <time>2013-10-10T14:38:01Z</time>
      </trkpt>
      <trkpt lat="-21.02587" lon="55.42017">
        <ele>996.7</ele>
        <time>2013-10-10T14:38:09Z</time>
      </trkpt>
      <trkpt lat="-21.02594" lon="55.42009">
        <ele>996.5</ele>
        <time>2013-10-10T14:38:14Z</time>
      </trkpt>
      <trkpt lat="-21.02601" lon="55.42001">
        <ele>995.1</ele>
        <time>2013-10-10T14:38:20Z</time>
      </trkpt>
      <trkpt lat="-21.02606" lon="55.41993">
        <ele>994.4</ele>
        <time>2013-10-10T14:38:26Z</time>
      </trkpt>
      <trkpt lat="-21.0261" lon="55.41984">
        <ele>994.4</ele>
        <time>2013-10-10T14:38:37Z</time>
      </trkpt>
      <trkpt lat="-21.0261" lon="55.41973">
        <ele>993.2</ele>
        <time>2013-10-10T14:38:44Z</time>
      </trkpt>
      <trkpt lat="-21.02603" lon="55.41957">
        <ele>990</ele>
        <time>2013-10-10T14:39:06Z</time>
      </trkpt>
      <trkpt lat="-21.02594" lon="55.41956">
        <ele>988.6</ele>
        <time>2013-10-10T14:39:16Z</time>
      </trkpt>
      <trkpt lat="-21.02586" lon="55.41952">
        <ele>986.7</ele>
        <time>2013-10-10T14:39:25Z</time>
      </trkpt>
      <trkpt lat="-21.02576" lon="55.41949">
        <ele>982.9</ele>
        <time>2013-10-10T14:39:35Z</time>
      </trkpt>
      <trkpt lat="-21.02567" lon="55.41948">
        <ele>980</ele>
        <time>2013-10-10T14:39:44Z</time>
      </trkpt>
      <trkpt lat="-21.02575" lon="55.41939">
        <ele>968</ele>
        <time>2013-10-10T14:40:25Z</time>
      </trkpt>
      <trkpt lat="-21.02575" lon="55.41928">
        <ele>960</ele>
        <time>2013-10-10T14:40:57Z</time>
      </trkpt>
      <trkpt lat="-21.02561" lon="55.41924">
        <ele>957</ele>
        <time>2013-10-10T14:41:07Z</time>
      </trkpt>
      <trkpt lat="-21.02552" lon="55.41929">
        <ele>954</ele>
        <time>2013-10-10T14:41:20Z</time>
      </trkpt>
      <trkpt lat="-21.02539" lon="55.41914">
        <ele>948</ele>
        <time>2013-10-10T14:41:42Z</time>
      </trkpt>
      <trkpt lat="-21.02571" lon="55.419">
        <ele>929</ele>
        <time>2013-10-10T14:42:49Z</time>
      </trkpt>
      <trkpt lat="-21.02598" lon="55.4186">
        <ele>910</ele>
        <time>2013-10-10T14:43:55Z</time>
      </trkpt>
      <trkpt lat="-21.02584" lon="55.41836">
        <ele>894</ele>
        <time>2013-10-10T14:44:41Z</time>
      </trkpt>
      <trkpt lat="-21.02576" lon="55.4183">
        <ele>889</ele>
        <time>2013-10-10T14:44:57Z</time>
      </trkpt>
      <trkpt lat="-21.02568" lon="55.41832">
        <ele>880</ele>
        <time>2013-10-10T14:45:29Z</time>
      </trkpt>
      <trkpt lat="-21.02571" lon="55.41815">
        <ele>874</ele>
        <time>2013-10-10T14:47:21Z</time>
      </trkpt>
      <trkpt lat="-21.02576" lon="55.41788">
        <ele>867</ele>
        <time>2013-10-10T14:47:53Z</time>
      </trkpt>
      <trkpt lat="-21.02603" lon="55.41772">
        <ele>866</ele>
        <time>2013-10-10T14:48:16Z</time>
      </trkpt>
      <trkpt lat="-21.02564" lon="55.41718">
        <ele>866</ele>
        <time>2013-10-10T14:49:02Z</time>
      </trkpt>
      <trkpt lat="-21.02556" lon="55.41701">
        <ele>866</ele>
        <time>2013-10-10T14:49:21Z</time>
      </trkpt>
      <trkpt lat="-21.02551" lon="55.41685">
        <ele>863</ele>
        <time>2013-10-10T14:49:39Z</time>
      </trkpt>
      <trkpt lat="-21.02585" lon="55.41651">
        <ele>831</ele>
        <time>2013-10-10T14:51:39Z</time>
      </trkpt>
      <trkpt lat="-21.02597" lon="55.41634">
        <ele>809</ele>
        <time>2013-10-10T14:52:39Z</time>
      </trkpt>
      <trkpt lat="-21.02604" lon="55.41625">
        <ele>807</ele>
        <time>2013-10-10T14:52:46Z</time>
      </trkpt>
      <trkpt lat="-21.02612" lon="55.41613">
        <ele>804</ele>
        <time>2013-10-10T14:53:02Z</time>
      </trkpt>
      <trkpt lat="-21.02603" lon="55.41574">
        <ele>796</ele>
        <time>2013-10-10T14:53:34Z</time>
      </trkpt>
      <trkpt lat="-21.0265" lon="55.41567">
        <ele>793</ele>
        <time>2013-10-10T14:53:50Z</time>
      </trkpt>
      <trkpt lat="-21.02646" lon="55.41549">
        <ele>793</ele>
        <time>2013-10-10T14:54:06Z</time>
      </trkpt>
      <trkpt lat="-21.02589" lon="55.41529">
        <ele>789</ele>
        <time>2013-10-10T14:54:23Z</time>
      </trkpt>
      <trkpt lat="-21.02586" lon="55.41519">
        <ele>787</ele>
        <time>2013-10-10T14:54:31Z</time>
      </trkpt>
      <trkpt lat="-21.02595" lon="55.41519">
        <ele>782</ele>
        <time>2013-10-10T14:54:47Z</time>
      </trkpt>
      <trkpt lat="-21.02599" lon="55.41507">
        <ele>776</ele>
        <time>2013-10-10T14:55:05Z</time>
      </trkpt>
      <trkpt lat="-21.02599" lon="55.41495">
        <ele>773</ele>
        <time>2013-10-10T14:55:17Z</time>
      </trkpt>
      <trkpt lat="-21.02594" lon="55.41469">
        <ele>768</ele>
        <time>2013-10-10T14:55:37Z</time>
      </trkpt>
      <trkpt lat="-21.02589" lon="55.41455">
        <ele>765</ele>
        <time>2013-10-10T14:55:50Z</time>
      </trkpt>
      <trkpt lat="-21.02583" lon="55.41448">
        <ele>762</ele>
        <time>2013-10-10T14:56:00Z</time>
      </trkpt>
      <trkpt lat="-21.02574" lon="55.41438">
        <ele>761</ele>
        <time>2013-10-10T14:56:08Z</time>
      </trkpt>
      <trkpt lat="-21.02572" lon="55.41428">
        <ele>760</ele>
        <time>2013-10-10T14:56:16Z</time>
      </trkpt>
      <trkpt lat="-21.02567" lon="55.41416">
        <ele>759</ele>
        <time>2013-10-10T14:56:24Z</time>
      </trkpt>
      <trkpt lat="-21.02563" lon="55.41392">
        <ele>754</ele>
        <time>2013-10-10T14:56:48Z</time>
      </trkpt>
      <trkpt lat="-21.02567" lon="55.41378">
        <ele>750</ele>
        <time>2013-10-10T14:57:01Z</time>
      </trkpt>
      <trkpt lat="-21.02557" lon="55.41369">
        <ele>747</ele>
        <time>2013-10-10T14:57:13Z</time>
      </trkpt>
      <trkpt lat="-21.02546" lon="55.41364">
        <ele>745</ele>
        <time>2013-10-10T14:57:21Z</time>
      </trkpt>
      <trkpt lat="-21.02546" lon="55.41354">
        <ele>741</ele>
        <time>2013-10-10T14:57:37Z</time>
      </trkpt>
      <trkpt lat="-21.02535" lon="55.41332">
        <ele>735</ele>
        <time>2013-10-10T14:57:57Z</time>
      </trkpt>
      <trkpt lat="-21.0253" lon="55.41322">
        <ele>731</ele>
        <time>2013-10-10T14:58:09Z</time>
      </trkpt>
      <trkpt lat="-21.0253" lon="55.4131">
        <ele>728</ele>
        <time>2013-10-10T14:58:21Z</time>
      </trkpt>
      <trkpt lat="-21.0252" lon="55.41315">
        <ele>725</ele>
        <time>2013-10-10T14:58:37Z</time>
      </trkpt>
      <trkpt lat="-21.02514" lon="55.41308">
        <ele>721</ele>
        <time>2013-10-10T14:58:49Z</time>
      </trkpt>
      <trkpt lat="-21.02516" lon="55.41286">
        <ele>717</ele>
        <time>2013-10-10T14:59:05Z</time>
      </trkpt>
      <trkpt lat="-21.0252" lon="55.41275">
        <ele>713</ele>
        <time>2013-10-10T14:59:25Z</time>
      </trkpt>
      <trkpt lat="-21.02519" lon="55.41264">
        <ele>709</ele>
        <time>2013-10-10T14:59:41Z</time>
      </trkpt>
      <trkpt lat="-21.02511" lon="55.41255">
        <ele>703</ele>
        <time>2013-10-10T15:00:01Z</time>
      </trkpt>
      <trkpt lat="-21.02507" lon="55.41234">
        <ele>696</ele>
        <time>2013-10-10T15:00:29Z</time>
      </trkpt>
      <trkpt lat="-21.02503" lon="55.41222">
        <ele>696</ele>
        <time>2013-10-10T15:00:37Z</time>
      </trkpt>
      <trkpt lat="-21.02498" lon="55.41214">
        <ele>694</ele>
        <time>2013-10-10T15:00:45Z</time>
      </trkpt>
      <trkpt lat="-21.02496" lon="55.41202">
        <ele>692</ele>
        <time>2013-10-10T15:00:53Z</time>
      </trkpt>
      <trkpt lat="-21.02486" lon="55.41195">
        <ele>691</ele>
        <time>2013-10-10T15:01:01Z</time>
      </trkpt>
      <trkpt lat="-21.02476" lon="55.41193">
        <ele>691</ele>
        <time>2013-10-10T15:01:09Z</time>
      </trkpt>
      <trkpt lat="-21.02458" lon="55.41185">
        <ele>690</ele>
        <time>2013-10-10T15:01:25Z</time>
      </trkpt>
      <trkpt lat="-21.02449" lon="55.41178">
        <ele>689</ele>
        <time>2013-10-10T15:01:33Z</time>
      </trkpt>
      <trkpt lat="-21.02439" lon="55.41169">
        <ele>688</ele>
        <time>2013-10-10T15:01:45Z</time>
      </trkpt>
      <trkpt lat="-21.02443" lon="55.41155">
        <ele>687</ele>
        <time>2013-10-10T15:01:56Z</time>
      </trkpt>
      <trkpt lat="-21.02413" lon="55.41083">
        <ele>688</ele>
        <time>2013-10-10T15:02:21Z</time>
      </trkpt>
      <trkpt lat="-21.02393" lon="55.41098">
        <ele>684</ele>
        <time>2013-10-10T15:03:00Z</time>
      </trkpt>
      <trkpt lat="-21.02388" lon="55.4109">
        <ele>683</ele>
        <time>2013-10-10T15:03:08Z</time>
      </trkpt>
      <trkpt lat="-21.02381" lon="55.4108">
        <ele>682</ele>
        <time>2013-10-10T15:03:20Z</time>
      </trkpt>
      <trkpt lat="-21.02363" lon="55.41076">
        <ele>679</ele>
        <time>2013-10-10T15:03:36Z</time>
      </trkpt>
      <trkpt lat="-21.02342" lon="55.41075">
        <ele>677</ele>
        <time>2013-10-10T15:03:54Z</time>
      </trkpt>
      <trkpt lat="-21.02332" lon="55.41072">
        <ele>676</ele>
        <time>2013-10-10T15:04:02Z</time>
      </trkpt>
      <trkpt lat="-21.02323" lon="55.41067">
        <ele>675</ele>
        <time>2013-10-10T15:04:10Z</time>
      </trkpt>
      <trkpt lat="-21.02313" lon="55.41062">
        <ele>674</ele>
        <time>2013-10-10T15:04:18Z</time>
      </trkpt>
      <trkpt lat="-21.02283" lon="55.40984">
        <ele>673</ele>
        <time>2013-10-10T15:04:44Z</time>
      </trkpt>
      <trkpt lat="-21.0227" lon="55.40981">
        <ele>671</ele>
        <time>2013-10-10T15:04:59Z</time>
      </trkpt>
      <trkpt lat="-21.02268" lon="55.41002">
        <ele>670</ele>
        <time>2013-10-10T15:05:03Z</time>
      </trkpt>
      <trkpt lat="-21.02263" lon="55.41015">
        <ele>670</ele>
        <time>2013-10-10T15:05:07Z</time>
      </trkpt>
      <trkpt lat="-21.02258" lon="55.41038">
        <ele>670</ele>
        <time>2013-10-10T15:05:11Z</time>
      </trkpt>
      <trkpt lat="-21.02243" lon="55.41038">
        <ele>668</ele>
        <time>2013-10-10T15:05:30Z</time>
      </trkpt>
      <trkpt lat="-21.02236" lon="55.41007">
        <ele>658</ele>
        <time>2013-10-10T15:06:38Z</time>
      </trkpt>
      <trkpt lat="-21.02223" lon="55.40957">
        <ele>653</ele>
        <time>2013-10-10T15:06:57Z</time>
      </trkpt>
      <trkpt lat="-21.02225" lon="55.40967">
        <ele>647</ele>
        <time>2013-10-10T15:07:24Z</time>
      </trkpt>
      <trkpt lat="-21.02241" lon="55.40951">
        <ele>643</ele>
        <time>2013-10-10T15:07:44Z</time>
      </trkpt>
      <trkpt lat="-21.02251" lon="55.4094">
        <ele>642</ele>
        <time>2013-10-10T15:07:52Z</time>
      </trkpt>
      <trkpt lat="-21.0225" lon="55.40925">
        <ele>639</ele>
        <time>2013-10-10T15:08:04Z</time>
      </trkpt>
      <trkpt lat="-21.02247" lon="55.40916">
        <ele>636</ele>
        <time>2013-10-10T15:08:12Z</time>
      </trkpt>
      <trkpt lat="-21.02238" lon="55.40911">
        <ele>634</ele>
        <time>2013-10-10T15:08:24Z</time>
      </trkpt>
      <trkpt lat="-21.02229" lon="55.40906">
        <ele>632</ele>
        <time>2013-10-10T15:08:32Z</time>
      </trkpt>
      <trkpt lat="-21.0221" lon="55.40898">
        <ele>627</ele>
        <time>2013-10-10T15:08:53Z</time>
      </trkpt>
      <trkpt lat="-21.02199" lon="55.40893">
        <ele>624</ele>
        <time>2013-10-10T15:09:05Z</time>
      </trkpt>
      <trkpt lat="-21.02189" lon="55.40889">
        <ele>622</ele>
        <time>2013-10-10T15:09:13Z</time>
      </trkpt>
      <trkpt lat="-21.02181" lon="55.40883">
        <ele>619</ele>
        <time>2013-10-10T15:09:25Z</time>
      </trkpt>
      <trkpt lat="-21.02193" lon="55.40883">
        <ele>615</ele>
        <time>2013-10-10T15:09:45Z</time>
      </trkpt>
      <trkpt lat="-21.02211" lon="55.40873">
        <ele>610</ele>
        <time>2013-10-10T15:10:11Z</time>
      </trkpt>
      <trkpt lat="-21.02222" lon="55.4087">
        <ele>605</ele>
        <time>2013-10-10T15:10:27Z</time>
      </trkpt>
      <trkpt lat="-21.02232" lon="55.40867">
        <ele>603</ele>
        <time>2013-10-10T15:10:35Z</time>
      </trkpt>
      <trkpt lat="-21.02245" lon="55.40863">
        <ele>600</ele>
        <time>2013-10-10T15:10:51Z</time>
      </trkpt>
      <trkpt lat="-21.0225" lon="55.40836">
        <ele>601</ele>
        <time>2013-10-10T15:11:17Z</time>
      </trkpt>
      <trkpt lat="-21.0226" lon="55.40838">
        <ele>600</ele>
        <time>2013-10-10T15:11:36Z</time>
      </trkpt>
      <trkpt lat="-21.02257" lon="55.40847">
        <ele>598</ele>
        <time>2013-10-10T15:11:48Z</time>
      </trkpt>
      <trkpt lat="-21.02269" lon="55.40849">
        <ele>595</ele>
        <time>2013-10-10T15:12:16Z</time>
      </trkpt>
      <trkpt lat="-21.0226" lon="55.4083">
        <ele>590</ele>
        <time>2013-10-10T15:12:32Z</time>
      </trkpt>
      <trkpt lat="-21.0225" lon="55.40829">
        <ele>587</ele>
        <time>2013-10-10T15:12:52Z</time>
      </trkpt>
      <trkpt lat="-21.02239" lon="55.40823">
        <ele>584</ele>
        <time>2013-10-10T15:13:04Z</time>
      </trkpt>
      <trkpt lat="-21.02231" lon="55.40815">
        <ele>582</ele>
        <time>2013-10-10T15:13:16Z</time>
      </trkpt>
      <trkpt lat="-21.02225" lon="55.40806">
        <ele>577</ele>
        <time>2013-10-10T15:13:28Z</time>
      </trkpt>
      <trkpt lat="-21.02212" lon="55.40791">
        <ele>572</ele>
        <time>2013-10-10T15:13:52Z</time>
      </trkpt>
      <trkpt lat="-21.0222" lon="55.40786">
        <ele>569</ele>
        <time>2013-10-10T15:14:08Z</time>
      </trkpt>
      <trkpt lat="-21.02235" lon="55.40783">
        <ele>566</ele>
        <time>2013-10-10T15:14:20Z</time>
      </trkpt>
      <trkpt lat="-21.02241" lon="55.40773">
        <ele>563</ele>
        <time>2013-10-10T15:14:40Z</time>
      </trkpt>
      <trkpt lat="-21.02238" lon="55.40763">
        <ele>559</ele>
        <time>2013-10-10T15:15:00Z</time>
      </trkpt>
      <trkpt lat="-21.02235" lon="55.40753">
        <ele>558</ele>
        <time>2013-10-10T15:15:08Z</time>
      </trkpt>
      <trkpt lat="-21.02227" lon="55.40748">
        <ele>556</ele>
        <time>2013-10-10T15:15:16Z</time>
      </trkpt>
      <trkpt lat="-21.02217" lon="55.40749">
        <ele>554</ele>
        <time>2013-10-10T15:15:24Z</time>
      </trkpt>
      <trkpt lat="-21.02207" lon="55.40749">
        <ele>553</ele>
        <time>2013-10-10T15:15:32Z</time>
      </trkpt>
      <trkpt lat="-21.02197" lon="55.4075">
        <ele>551</ele>
        <time>2013-10-10T15:15:40Z</time>
      </trkpt>
      <trkpt lat="-21.02188" lon="55.40748">
        <ele>548</ele>
        <time>2013-10-10T15:15:52Z</time>
      </trkpt>
      <trkpt lat="-21.02166" lon="55.40753">
        <ele>543</ele>
        <time>2013-10-10T15:16:20Z</time>
      </trkpt>
      <trkpt lat="-21.02174" lon="55.4074">
        <ele>539</ele>
        <time>2013-10-10T15:16:52Z</time>
      </trkpt>
      <trkpt lat="-21.02178" lon="55.40728">
        <ele>538</ele>
        <time>2013-10-10T15:17:00Z</time>
      </trkpt>
      <trkpt lat="-21.02162" lon="55.40711">
        <ele>536</ele>
        <time>2013-10-10T15:17:20Z</time>
      </trkpt>
      <trkpt lat="-21.02151" lon="55.40713">
        <ele>535</ele>
        <time>2013-10-10T15:17:28Z</time>
      </trkpt>
      <trkpt lat="-21.02141" lon="55.4071">
        <ele>532</ele>
        <time>2013-10-10T15:17:36Z</time>
      </trkpt>
      <trkpt lat="-21.02131" lon="55.40712">
        <ele>531</ele>
        <time>2013-10-10T15:17:44Z</time>
      </trkpt>
      <trkpt lat="-21.02119" lon="55.40708">
        <ele>530</ele>
        <time>2013-10-10T15:17:56Z</time>
      </trkpt>
      <trkpt lat="-21.02106" lon="55.40708">
        <ele>528</ele>
        <time>2013-10-10T15:18:08Z</time>
      </trkpt>
      <trkpt lat="-21.02082" lon="55.40705">
        <ele>525</ele>
        <time>2013-10-10T15:18:28Z</time>
      </trkpt>
      <trkpt lat="-21.02081" lon="55.40692">
        <ele>524</ele>
        <time>2013-10-10T15:18:40Z</time>
      </trkpt>
      <trkpt lat="-21.02088" lon="55.40679">
        <ele>525</ele>
        <time>2013-10-10T15:18:44Z</time>
      </trkpt>
      <trkpt lat="-21.02095" lon="55.40665">
        <ele>525</ele>
        <time>2013-10-10T15:18:48Z</time>
      </trkpt>
      <trkpt lat="-21.02083" lon="55.40663">
        <ele>525</ele>
        <time>2013-10-10T15:18:56Z</time>
      </trkpt>
      <trkpt lat="-21.02075" lon="55.40658">
        <ele>524</ele>
        <time>2013-10-10T15:19:08Z</time>
      </trkpt>
      <trkpt lat="-21.02077" lon="55.40611">
        <ele>522</ele>
        <time>2013-10-10T15:19:14Z</time>
      </trkpt>
      <trkpt lat="-21.02033" lon="55.40116">
        <ele>518</ele>
        <time>2013-10-10T15:21:07Z</time>
      </trkpt>
      <trkpt lat="-21.02027" lon="55.40154">
        <ele>516</ele>
        <time>2013-10-10T15:21:14Z</time>
      </trkpt>
      <trkpt lat="-21.02025" lon="55.40179">
        <ele>515</ele>
        <time>2013-10-10T15:21:18Z</time>
      </trkpt>
      <trkpt lat="-21.02022" lon="55.402">
        <ele>514</ele>
        <time>2013-10-10T15:21:22Z</time>
      </trkpt>
      <trkpt lat="-21.0202" lon="55.40221">
        <ele>513</ele>
        <time>2013-10-10T15:21:26Z</time>
      </trkpt>
      <trkpt lat="-21.02015" lon="55.40239">
        <ele>513</ele>
        <time>2013-10-10T15:21:30Z</time>
      </trkpt>
      <trkpt lat="-21.02011" lon="55.40259">
        <ele>512</ele>
        <time>2013-10-10T15:21:34Z</time>
      </trkpt>
      <trkpt lat="-21.0201" lon="55.40278">
        <ele>510</ele>
        <time>2013-10-10T15:21:38Z</time>
      </trkpt>
      <trkpt lat="-21.02008" lon="55.40294">
        <ele>509</ele>
        <time>2013-10-10T15:21:42Z</time>
      </trkpt>
      <trkpt lat="-21.02004" lon="55.40308">
        <ele>509</ele>
        <time>2013-10-10T15:21:46Z</time>
      </trkpt>
      <trkpt lat="-21.02" lon="55.40323">
        <ele>509</ele>
        <time>2013-10-10T15:21:50Z</time>
      </trkpt>
      <trkpt lat="-21.01994" lon="55.40337">
        <ele>509</ele>
        <time>2013-10-10T15:21:54Z</time>
      </trkpt>
      <trkpt lat="-21.01987" lon="55.40369">
        <ele>508</ele>
        <time>2013-10-10T15:22:02Z</time>
      </trkpt>
      <trkpt lat="-21.01984" lon="55.40386">
        <ele>507</ele>
        <time>2013-10-10T15:22:06Z</time>
      </trkpt>
      <trkpt lat="-21.01979" lon="55.40403">
        <ele>506</ele>
        <time>2013-10-10T15:22:10Z</time>
      </trkpt>
      <trkpt lat="-21.01976" lon="55.40417">
        <ele>506</ele>
        <time>2013-10-10T15:22:14Z</time>
      </trkpt>
      <trkpt lat="-21.01973" lon="55.40432">
        <ele>505</ele>
        <time>2013-10-10T15:22:18Z</time>
      </trkpt>
      <trkpt lat="-21.01971" lon="55.40445">
        <ele>504</ele>
        <time>2013-10-10T15:22:22Z</time>
      </trkpt>
      <trkpt lat="-21.01966" lon="55.4046">
        <ele>503</ele>
        <time>2013-10-10T15:22:26Z</time>
      </trkpt>
      <trkpt lat="-21.01955" lon="55.4046">
        <ele>501</ele>
        <time>2013-10-10T15:22:38Z</time>
      </trkpt>
      <trkpt lat="-21.01948" lon="55.40447">
        <ele>498</ele>
        <time>2013-10-10T15:22:54Z</time>
      </trkpt>
      <trkpt lat="-21.0194" lon="55.40441">
        <ele>497</ele>
        <time>2013-10-10T15:23:06Z</time>
      </trkpt>
      <trkpt lat="-21.0192" lon="55.40445">
        <ele>495.2</ele>
        <time>2013-10-10T15:23:33Z</time>
      </trkpt>
      <trkpt lat="-21.01911" lon="55.40449">
        <ele>495.6</ele>
        <time>2013-10-10T15:23:35Z</time>
      </trkpt>
      <trkpt lat="-21.01903" lon="55.40453">
        <ele>495.2</ele>
        <time>2013-10-10T15:23:38Z</time>
      </trkpt>
      <trkpt lat="-21.01895" lon="55.4046">
        <ele>495.2</ele>
        <time>2013-10-10T15:23:44Z</time>
      </trkpt>
      <trkpt lat="-21.01887" lon="55.40468">
        <ele>494.7</ele>
        <time>2013-10-10T15:23:50Z</time>
      </trkpt>
      <trkpt lat="-21.01879" lon="55.40474">
        <ele>494.7</ele>
        <time>2013-10-10T15:23:56Z</time>
      </trkpt>
      <trkpt lat="-21.01872" lon="55.40482">
        <ele>495</ele>
        <time>2013-10-10T15:24:04Z</time>
      </trkpt>
      <trkpt lat="-21.01871" lon="55.40501">
        <ele>494</ele>
        <time>2013-10-10T15:24:15Z</time>
      </trkpt>
      <trkpt lat="-21.01862" lon="55.40484">
        <ele>495.4</ele>
        <time>2013-10-10T15:24:38Z</time>
      </trkpt>
      <trkpt lat="-21.01865" lon="55.40475">
        <ele>494.1</ele>
        <time>2013-10-10T15:25:01Z</time>
      </trkpt>
      <trkpt lat="-21.01859" lon="55.40467">
        <ele>491.7</ele>
        <time>2013-10-10T15:25:31Z</time>
      </trkpt>
      <trkpt lat="-21.01842" lon="55.40459">
        <ele>490</ele>
        <time>2013-10-10T15:25:53Z</time>
      </trkpt>
      <trkpt lat="-21.01833" lon="55.40456">
        <ele>489.2</ele>
        <time>2013-10-10T15:25:58Z</time>
      </trkpt>
      <trkpt lat="-21.01823" lon="55.40456">
        <ele>488.9</ele>
        <time>2013-10-10T15:26:06Z</time>
      </trkpt>
      <trkpt lat="-21.01803" lon="55.40461">
        <ele>489</ele>
        <time>2013-10-10T15:26:26Z</time>
      </trkpt>
      <trkpt lat="-21.01797" lon="55.40469">
        <ele>488.1</ele>
        <time>2013-10-10T15:26:35Z</time>
      </trkpt>
      <trkpt lat="-21.01778" lon="55.40466">
        <ele>486.7</ele>
        <time>2013-10-10T15:26:58Z</time>
      </trkpt>
      <trkpt lat="-21.01768" lon="55.40466">
        <ele>487.7</ele>
        <time>2013-10-10T15:27:05Z</time>
      </trkpt>
      <trkpt lat="-21.0176" lon="55.40464">
        <ele>486.4</ele>
        <time>2013-10-10T15:27:12Z</time>
      </trkpt>
      <trkpt lat="-21.01748" lon="55.40467">
        <ele>486.7</ele>
        <time>2013-10-10T15:27:17Z</time>
      </trkpt>
      <trkpt lat="-21.0174" lon="55.40471">
        <ele>487.7</ele>
        <time>2013-10-10T15:27:21Z</time>
      </trkpt>
      <trkpt lat="-21.0173" lon="55.40472">
        <ele>484.9</ele>
        <time>2013-10-10T15:27:37Z</time>
      </trkpt>
      <trkpt lat="-21.01714" lon="55.40465">
        <ele>479.4</ele>
        <time>2013-10-10T15:28:06Z</time>
      </trkpt>
      <trkpt lat="-21.01704" lon="55.40462">
        <ele>475.8</ele>
        <time>2013-10-10T15:28:18Z</time>
      </trkpt>
      <trkpt lat="-21.01695" lon="55.4046">
        <ele>473.3</ele>
        <time>2013-10-10T15:28:31Z</time>
      </trkpt>
      <trkpt lat="-21.01685" lon="55.40461">
        <ele>470.6</ele>
        <time>2013-10-10T15:28:44Z</time>
      </trkpt>
      <trkpt lat="-21.01668" lon="55.40454">
        <ele>466.1</ele>
        <time>2013-10-10T15:29:07Z</time>
      </trkpt>
      <trkpt lat="-21.0166" lon="55.40449">
        <ele>463.7</ele>
        <time>2013-10-10T15:29:17Z</time>
      </trkpt>
      <trkpt lat="-21.01651" lon="55.40452">
        <ele>461.3</ele>
        <time>2013-10-10T15:29:29Z</time>
      </trkpt>
      <trkpt lat="-21.01642" lon="55.40454">
        <ele>458.2</ele>
        <time>2013-10-10T15:29:39Z</time>
      </trkpt>
      <trkpt lat="-21.01633" lon="55.40458">
        <ele>455.2</ele>
        <time>2013-10-10T15:29:55Z</time>
      </trkpt>
      <trkpt lat="-21.01606" lon="55.40451">
        <ele>455</ele>
        <time>2013-10-10T15:30:40Z</time>
      </trkpt>
      <trkpt lat="-21.01603" lon="55.40442">
        <ele>454.9</ele>
        <time>2013-10-10T15:30:46Z</time>
      </trkpt>
      <trkpt lat="-21.01601" lon="55.40433">
        <ele>453.4</ele>
        <time>2013-10-10T15:30:54Z</time>
      </trkpt>
      <trkpt lat="-21.01604" lon="55.40424">
        <ele>450.1</ele>
        <time>2013-10-10T15:31:07Z</time>
      </trkpt>
      <trkpt lat="-21.01593" lon="55.40406">
        <ele>445.9</ele>
        <time>2013-10-10T15:31:30Z</time>
      </trkpt>
      <trkpt lat="-21.01594" lon="55.40396">
        <ele>442.7</ele>
        <time>2013-10-10T15:31:46Z</time>
      </trkpt>
      <trkpt lat="-21.016" lon="55.40389">
        <ele>438.9</ele>
        <time>2013-10-10T15:32:04Z</time>
      </trkpt>
      <trkpt lat="-21.01601" lon="55.40379">
        <ele>435.5</ele>
        <time>2013-10-10T15:32:16Z</time>
      </trkpt>
      <trkpt lat="-21.01595" lon="55.40359">
        <ele>431.7</ele>
        <time>2013-10-10T15:32:34Z</time>
      </trkpt>
      <trkpt lat="-21.01586" lon="55.40354">
        <ele>430.5</ele>
        <time>2013-10-10T15:32:43Z</time>
      </trkpt>
      <trkpt lat="-21.01577" lon="55.4035">
        <ele>429.3</ele>
        <time>2013-10-10T15:32:52Z</time>
      </trkpt>
      <trkpt lat="-21.01569" lon="55.40343">
        <ele>428</ele>
        <time>2013-10-10T15:33:02Z</time>
      </trkpt>
      <trkpt lat="-21.01561" lon="55.40346">
        <ele>425.6</ele>
        <time>2013-10-10T15:33:14Z</time>
      </trkpt>
      <trkpt lat="-21.01559" lon="55.40336">
        <ele>418.4</ele>
        <time>2013-10-10T15:33:49Z</time>
      </trkpt>
      <trkpt lat="-21.01552" lon="55.40316">
        <ele>416</ele>
        <time>2013-10-10T15:34:06Z</time>
      </trkpt>
      <trkpt lat="-21.01547" lon="55.40306">
        <ele>415.4</ele>
        <time>2013-10-10T15:34:17Z</time>
      </trkpt>
      <trkpt lat="-21.01539" lon="55.403">
        <ele>413.6</ele>
        <time>2013-10-10T15:34:26Z</time>
      </trkpt>
      <trkpt lat="-21.01531" lon="55.40295">
        <ele>413.5</ele>
        <time>2013-10-10T15:34:34Z</time>
      </trkpt>
      <trkpt lat="-21.01525" lon="55.40287">
        <ele>411.4</ele>
        <time>2013-10-10T15:34:45Z</time>
      </trkpt>
      <trkpt lat="-21.01519" lon="55.4028">
        <ele>410.9</ele>
        <time>2013-10-10T15:34:52Z</time>
      </trkpt>
      <trkpt lat="-21.01505" lon="55.40266">
        <ele>408.3</ele>
        <time>2013-10-10T15:35:07Z</time>
      </trkpt>
      <trkpt lat="-21.01499" lon="55.40258">
        <ele>408.1</ele>
        <time>2013-10-10T15:35:24Z</time>
      </trkpt>
      <trkpt lat="-21.01491" lon="55.40252">
        <ele>407.2</ele>
        <time>2013-10-10T15:35:33Z</time>
      </trkpt>
      <trkpt lat="-21.01483" lon="55.40246">
        <ele>406.6</ele>
        <time>2013-10-10T15:35:41Z</time>
      </trkpt>
      <trkpt lat="-21.01475" lon="55.40241">
        <ele>405.6</ele>
        <time>2013-10-10T15:35:50Z</time>
      </trkpt>
      <trkpt lat="-21.01468" lon="55.40233">
        <ele>406</ele>
        <time>2013-10-10T15:35:59Z</time>
      </trkpt>
      <trkpt lat="-21.01453" lon="55.40221">
        <ele>403.3</ele>
        <time>2013-10-10T15:36:13Z</time>
      </trkpt>
      <trkpt lat="-21.01372" lon="55.40081">
        <ele>355</ele>
        <time>2013-10-10T15:42:48Z</time>
      </trkpt>
      <trkpt lat="-21.01113" lon="55.40029">
        <ele>353</ele>
        <time>2013-10-10T15:48:24Z</time>
      </trkpt>
      <trkpt lat="-21.01088" lon="55.40023">
        <ele>352</ele>
        <time>2013-10-10T15:48:46Z</time>
      </trkpt>
      <trkpt lat="-21.01081" lon="55.40016">
        <ele>352</ele>
        <time>2013-10-10T15:48:58Z</time>
      </trkpt>
      <trkpt lat="-21.0107" lon="55.40007">
        <ele>352</ele>
        <time>2013-10-10T15:49:06Z</time>
      </trkpt>
      <trkpt lat="-21.01059" lon="55.40007">
        <ele>352</ele>
        <time>2013-10-10T15:49:22Z</time>
      </trkpt>
      <trkpt lat="-21.01047" lon="55.4001">
        <ele>352</ele>
        <time>2013-10-10T15:49:26Z</time>
      </trkpt>
      <trkpt lat="-21.01033" lon="55.40002">
        <ele>352</ele>
        <time>2013-10-10T15:49:30Z</time>
      </trkpt>
      <trkpt lat="-21.01026" lon="55.39982">
        <ele>353</ele>
        <time>2013-10-10T15:49:50Z</time>
      </trkpt>
      <trkpt lat="-21.01015" lon="55.3998">
        <ele>353</ele>
        <time>2013-10-10T15:49:54Z</time>
      </trkpt>
      <trkpt lat="-21.01002" lon="55.3997">
        <ele>353</ele>
        <time>2013-10-10T15:50:02Z</time>
      </trkpt>
      <trkpt lat="-21.00985" lon="55.39961">
        <ele>352</ele>
        <time>2013-10-10T15:50:10Z</time>
      </trkpt>
      <trkpt lat="-21.00969" lon="55.39952">
        <ele>352</ele>
        <time>2013-10-10T15:50:14Z</time>
      </trkpt>
      <trkpt lat="-21.00956" lon="55.39946">
        <ele>352</ele>
        <time>2013-10-10T15:50:18Z</time>
      </trkpt>
      <trkpt lat="-21.00947" lon="55.39942">
        <ele>352</ele>
        <time>2013-10-10T15:50:22Z</time>
      </trkpt>
      <trkpt lat="-21.00956" lon="55.3994">
        <ele>351</ele>
        <time>2013-10-10T15:50:46Z</time>
      </trkpt>
      <trkpt lat="-21.00904" lon="55.39929">
        <ele>351</ele>
        <time>2013-10-10T15:51:23Z</time>
      </trkpt>
      <trkpt lat="-21.00885" lon="55.39916">
        <ele>350</ele>
        <time>2013-10-10T15:51:35Z</time>
      </trkpt>
      <trkpt lat="-21.00876" lon="55.39911">
        <ele>349</ele>
        <time>2013-10-10T15:51:39Z</time>
      </trkpt>
      <trkpt lat="-21.00851" lon="55.39889">
        <ele>348</ele>
        <time>2013-10-10T15:52:03Z</time>
      </trkpt>
      <trkpt lat="-21.00836" lon="55.39839">
        <ele>344</ele>
        <time>2013-10-10T15:52:51Z</time>
      </trkpt>
      <trkpt lat="-21.00845" lon="55.39843">
        <ele>344.4</ele>
        <time>2013-10-10T15:52:55Z</time>
      </trkpt>
      <trkpt lat="-21.00837" lon="55.3984">
        <ele>337.8</ele>
        <time>2013-10-10T15:53:29Z</time>
      </trkpt>
      <trkpt lat="-21.00832" lon="55.39831">
        <ele>337.5</ele>
        <time>2013-10-10T15:53:38Z</time>
      </trkpt>
      <trkpt lat="-21.00825" lon="55.39825">
        <ele>336.3</ele>
        <time>2013-10-10T15:53:47Z</time>
      </trkpt>
      <trkpt lat="-21.00803" lon="55.39841">
        <ele>336.4</ele>
        <time>2013-10-10T15:54:03Z</time>
      </trkpt>
      <trkpt lat="-21.00796" lon="55.39849">
        <ele>336.7</ele>
        <time>2013-10-10T15:54:07Z</time>
      </trkpt>
      <trkpt lat="-21.008" lon="55.3977">
        <ele>336</ele>
        <time>2013-10-10T15:54:51Z</time>
      </trkpt>
      <trkpt lat="-21.00787" lon="55.3976">
        <ele>336.5</ele>
        <time>2013-10-10T15:55:06Z</time>
      </trkpt>
      <trkpt lat="-21.00785" lon="55.39748">
        <ele>336.6</ele>
        <time>2013-10-10T15:55:11Z</time>
      </trkpt>
      <trkpt lat="-21.00779" lon="55.39741">
        <ele>337.2</ele>
        <time>2013-10-10T15:55:27Z</time>
      </trkpt>
      <trkpt lat="-21.00775" lon="55.39731">
        <ele>337.7</ele>
        <time>2013-10-10T15:55:35Z</time>
      </trkpt>
      <trkpt lat="-21.00771" lon="55.39721">
        <ele>337.2</ele>
        <time>2013-10-10T15:55:40Z</time>
      </trkpt>
      <trkpt lat="-21.00772" lon="55.3971">
        <ele>337</ele>
        <time>2013-10-10T15:55:47Z</time>
      </trkpt>
      <trkpt lat="-21.00774" lon="55.397">
        <ele>336.9</ele>
        <time>2013-10-10T15:55:54Z</time>
      </trkpt>
      <trkpt lat="-21.00773" lon="55.3969">
        <ele>336.4</ele>
        <time>2013-10-10T15:56:01Z</time>
      </trkpt>
      <trkpt lat="-21.00764" lon="55.39635">
        <ele>335</ele>
        <time>2013-10-10T15:56:37Z</time>
      </trkpt>
      <trkpt lat="-21.00739" lon="55.39638">
        <ele>332</ele>
        <time>2013-10-10T15:57:04Z</time>
      </trkpt>
      <trkpt lat="-21.00727" lon="55.39621">
        <ele>331.4</ele>
        <time>2013-10-10T15:57:20Z</time>
      </trkpt>
      <trkpt lat="-21.0072" lon="55.39609">
        <ele>329</ele>
        <time>2013-10-10T15:57:32Z</time>
      </trkpt>
      <trkpt lat="-21.00711" lon="55.39605">
        <ele>330</ele>
        <time>2013-10-10T15:57:40Z</time>
      </trkpt>
      <trkpt lat="-21.00702" lon="55.39602">
        <ele>330.6</ele>
        <time>2013-10-10T15:58:05Z</time>
      </trkpt>
      <trkpt lat="-21.00693" lon="55.39599">
        <ele>330.3</ele>
        <time>2013-10-10T15:58:09Z</time>
      </trkpt>
      <trkpt lat="-21.00678" lon="55.39586">
        <ele>329.3</ele>
        <time>2013-10-10T15:58:23Z</time>
      </trkpt>
      <trkpt lat="-21.00669" lon="55.39582">
        <ele>329.8</ele>
        <time>2013-10-10T15:58:30Z</time>
      </trkpt>
      <trkpt lat="-21.00659" lon="55.39578">
        <ele>331</ele>
        <time>2013-10-10T15:58:47Z</time>
      </trkpt>
      <trkpt lat="-21.00651" lon="55.39585">
        <ele>331.5</ele>
        <time>2013-10-10T15:58:53Z</time>
      </trkpt>
      <trkpt lat="-21.00647" lon="55.39595">
        <ele>331.9</ele>
        <time>2013-10-10T15:58:58Z</time>
      </trkpt>
      <trkpt lat="-21.00638" lon="55.39594">
        <ele>331.7</ele>
        <time>2013-10-10T15:59:04Z</time>
      </trkpt>
      <trkpt lat="-21.00631" lon="55.39587">
        <ele>332</ele>
        <time>2013-10-10T15:59:10Z</time>
      </trkpt>
      <trkpt lat="-21.00619" lon="55.39572">
        <ele>331.8</ele>
        <time>2013-10-10T15:59:24Z</time>
      </trkpt>
      <trkpt lat="-21.00609" lon="55.39567">
        <ele>331.6</ele>
        <time>2013-10-10T15:59:32Z</time>
      </trkpt>
      <trkpt lat="-21.00606" lon="55.39558">
        <ele>332.5</ele>
        <time>2013-10-10T15:59:42Z</time>
      </trkpt>
      <trkpt lat="-21.00598" lon="55.39552">
        <ele>331.7</ele>
        <time>2013-10-10T15:59:54Z</time>
      </trkpt>
      <trkpt lat="-21.00592" lon="55.39544">
        <ele>332.1</ele>
        <time>2013-10-10T16:00:01Z</time>
      </trkpt>
      <trkpt lat="-21.00582" lon="55.39542">
        <ele>332.4</ele>
        <time>2013-10-10T16:00:10Z</time>
      </trkpt>
      <trkpt lat="-21.00575" lon="55.39536">
        <ele>332.2</ele>
        <time>2013-10-10T16:00:19Z</time>
      </trkpt>
      <trkpt lat="-21.00551" lon="55.39529">
        <ele>331</ele>
        <time>2013-10-10T16:00:48Z</time>
      </trkpt>
      <trkpt lat="-21.00542" lon="55.39529">
        <ele>331.5</ele>
        <time>2013-10-10T16:00:57Z</time>
      </trkpt>
      <trkpt lat="-21.00532" lon="55.39522">
        <ele>331.8</ele>
        <time>2013-10-10T16:01:19Z</time>
      </trkpt>
      <trkpt lat="-21.00526" lon="55.39515">
        <ele>331</ele>
        <time>2013-10-10T16:01:24Z</time>
      </trkpt>
      <trkpt lat="-21.00501" lon="55.39498">
        <ele>331</ele>
        <time>2013-10-10T16:01:33Z</time>
      </trkpt>
      <trkpt lat="-21.0049" lon="55.39493">
        <ele>331</ele>
        <time>2013-10-10T16:01:37Z</time>
      </trkpt>
      <trkpt lat="-21.00482" lon="55.39485">
        <ele>331</ele>
        <time>2013-10-10T16:01:45Z</time>
      </trkpt>
      <trkpt lat="-21.00482" lon="55.39475">
        <ele>331.4</ele>
        <time>2013-10-10T16:02:17Z</time>
      </trkpt>
      <trkpt lat="-21.00474" lon="55.3947">
        <ele>330.7</ele>
        <time>2013-10-10T16:02:22Z</time>
      </trkpt>
      <trkpt lat="-21.00465" lon="55.39466">
        <ele>329.6</ele>
        <time>2013-10-10T16:02:32Z</time>
      </trkpt>
      <trkpt lat="-21.00447" lon="55.3946">
        <ele>327</ele>
        <time>2013-10-10T16:02:47Z</time>
      </trkpt>
      <trkpt lat="-21.00438" lon="55.39454">
        <ele>325.4</ele>
        <time>2013-10-10T16:02:59Z</time>
      </trkpt>
      <trkpt lat="-21.00433" lon="55.39446">
        <ele>323.9</ele>
        <time>2013-10-10T16:03:14Z</time>
      </trkpt>
      <trkpt lat="-21.00434" lon="55.39435">
        <ele>323</ele>
        <time>2013-10-10T16:03:24Z</time>
      </trkpt>
      <trkpt lat="-21.0042" lon="55.39435">
        <ele>325</ele>
        <time>2013-10-10T16:03:36Z</time>
      </trkpt>
      <trkpt lat="-21.00413" lon="55.39409">
        <ele>326</ele>
        <time>2013-10-10T16:04:06Z</time>
      </trkpt>
      <trkpt lat="-21.00399" lon="55.39375">
        <ele>328</ele>
        <time>2013-10-10T16:04:40Z</time>
      </trkpt>
      <trkpt lat="-21.00377" lon="55.39339">
        <ele>333</ele>
        <time>2013-10-10T16:05:21Z</time>
      </trkpt>
      <trkpt lat="-21.00364" lon="55.39331">
        <ele>333</ele>
        <time>2013-10-10T16:05:25Z</time>
      </trkpt>
      <trkpt lat="-21.00361" lon="55.39316">
        <ele>334</ele>
        <time>2013-10-10T16:05:39Z</time>
      </trkpt>
      <trkpt lat="-21.00352" lon="55.39301">
        <ele>333.6</ele>
        <time>2013-10-10T16:06:28Z</time>
      </trkpt>
      <trkpt lat="-21.0034" lon="55.39295">
        <ele>333</ele>
        <time>2013-10-10T16:06:39Z</time>
      </trkpt>
      <trkpt lat="-21.00348" lon="55.39299">
        <ele>333.7</ele>
        <time>2013-10-10T16:06:56Z</time>
      </trkpt>
      <trkpt lat="-21.00335" lon="55.39273">
        <ele>332.7</ele>
        <time>2013-10-10T16:18:05Z</time>
      </trkpt>
      <trkpt lat="-21.00332" lon="55.39264">
        <ele>331.8</ele>
        <time>2013-10-10T16:18:13Z</time>
      </trkpt>
      <trkpt lat="-21.00326" lon="55.39257">
        <ele>330.7</ele>
        <time>2013-10-10T16:18:22Z</time>
      </trkpt>
      <trkpt lat="-21.00319" lon="55.39249">
        <ele>331</ele>
        <time>2013-10-10T16:18:31Z</time>
      </trkpt>
      <trkpt lat="-21.00313" lon="55.39242">
        <ele>330.3</ele>
        <time>2013-10-10T16:18:39Z</time>
      </trkpt>
      <trkpt lat="-21.00305" lon="55.39235">
        <ele>330.5</ele>
        <time>2013-10-10T16:18:48Z</time>
      </trkpt>
      <trkpt lat="-21.00291" lon="55.39222">
        <ele>329.7</ele>
        <time>2013-10-10T16:19:03Z</time>
      </trkpt>
      <trkpt lat="-21.00284" lon="55.39215">
        <ele>329.7</ele>
        <time>2013-10-10T16:19:10Z</time>
      </trkpt>
      <trkpt lat="-21.00277" lon="55.39207">
        <ele>330.1</ele>
        <time>2013-10-10T16:19:17Z</time>
      </trkpt>
      <trkpt lat="-21.00269" lon="55.39201">
        <ele>329.7</ele>
        <time>2013-10-10T16:19:24Z</time>
      </trkpt>
      <trkpt lat="-21.00262" lon="55.39194">
        <ele>328.7</ele>
        <time>2013-10-10T16:19:32Z</time>
      </trkpt>
      <trkpt lat="-21.00254" lon="55.39187">
        <ele>328.9</ele>
        <time>2013-10-10T16:19:40Z</time>
      </trkpt>
      <trkpt lat="-21.00245" lon="55.39182">
        <ele>328.2</ele>
        <time>2013-10-10T16:19:47Z</time>
      </trkpt>
      <trkpt lat="-21.00237" lon="55.39176">
        <ele>327.6</ele>
        <time>2013-10-10T16:19:55Z</time>
      </trkpt>
      <trkpt lat="-21.00224" lon="55.3916">
        <ele>327.2</ele>
        <time>2013-10-10T16:20:12Z</time>
      </trkpt>
      <trkpt lat="-21.00216" lon="55.39153">
        <ele>326.9</ele>
        <time>2013-10-10T16:20:19Z</time>
      </trkpt>
      <trkpt lat="-21.00209" lon="55.39147">
        <ele>326.5</ele>
        <time>2013-10-10T16:20:26Z</time>
      </trkpt>
      <trkpt lat="-21.00201" lon="55.3914">
        <ele>326.8</ele>
        <time>2013-10-10T16:20:34Z</time>
      </trkpt>
      <trkpt lat="-21.00194" lon="55.39134">
        <ele>326.2</ele>
        <time>2013-10-10T16:20:41Z</time>
      </trkpt>
      <trkpt lat="-21.00187" lon="55.39127">
        <ele>326</ele>
        <time>2013-10-10T16:20:48Z</time>
      </trkpt>
      <trkpt lat="-21.00181" lon="55.39119">
        <ele>326.9</ele>
        <time>2013-10-10T16:20:56Z</time>
      </trkpt>
      <trkpt lat="-21.00171" lon="55.39103">
        <ele>326.1</ele>
        <time>2013-10-10T16:21:10Z</time>
      </trkpt>
      <trkpt lat="-21.00165" lon="55.39094">
        <ele>326.4</ele>
        <time>2013-10-10T16:21:17Z</time>
      </trkpt>
      <trkpt lat="-21.00159" lon="55.39087">
        <ele>325.2</ele>
        <time>2013-10-10T16:21:24Z</time>
      </trkpt>
      <trkpt lat="-21.00149" lon="55.39084">
        <ele>324.7</ele>
        <time>2013-10-10T16:21:31Z</time>
      </trkpt>
      <trkpt lat="-21.00138" lon="55.39078">
        <ele>324</ele>
        <time>2013-10-10T16:21:41Z</time>
      </trkpt>
      <trkpt lat="-21.00131" lon="55.39071">
        <ele>323.5</ele>
        <time>2013-10-10T16:21:48Z</time>
      </trkpt>
      <trkpt lat="-21.00129" lon="55.39061">
        <ele>322.9</ele>
        <time>2013-10-10T16:21:54Z</time>
      </trkpt>
      <trkpt lat="-21.00127" lon="55.39051">
        <ele>321.9</ele>
        <time>2013-10-10T16:22:00Z</time>
      </trkpt>
      <trkpt lat="-21.00124" lon="55.39031">
        <ele>321.3</ele>
        <time>2013-10-10T16:22:13Z</time>
      </trkpt>
      <trkpt lat="-21.00124" lon="55.3902">
        <ele>320.7</ele>
        <time>2013-10-10T16:22:20Z</time>
      </trkpt>
      <trkpt lat="-21.00124" lon="55.3902">
        <ele>320.7</ele>
        <time>2013-10-10T16:22:20Z</time>
      </trkpt>
      <trkpt lat="-21.00127" lon="55.3901">
        <ele>320.2</ele>
        <time>2013-10-10T16:22:27Z</time>
      </trkpt>
      <trkpt lat="-21.00135" lon="55.39004">
        <ele>320.2</ele>
        <time>2013-10-10T16:22:34Z</time>
      </trkpt>
      <trkpt lat="-21.00143" lon="55.38999">
        <ele>319.7</ele>
        <time>2013-10-10T16:22:41Z</time>
      </trkpt>
      <trkpt lat="-21.00153" lon="55.38996">
        <ele>319.5</ele>
        <time>2013-10-10T16:22:49Z</time>
      </trkpt>
      <trkpt lat="-21.00162" lon="55.38994">
        <ele>320.2</ele>
        <time>2013-10-10T16:22:56Z</time>
      </trkpt>
      <trkpt lat="-21.00171" lon="55.38992">
        <ele>319.7</ele>
        <time>2013-10-10T16:23:04Z</time>
      </trkpt>
      <trkpt lat="-21.00191" lon="55.38992">
        <ele>319.8</ele>
        <time>2013-10-10T16:23:18Z</time>
      </trkpt>
      <trkpt lat="-21.002" lon="55.38989">
        <ele>319</ele>
        <time>2013-10-10T16:23:25Z</time>
      </trkpt>
      <trkpt lat="-21.00209" lon="55.38984">
        <ele>319.1</ele>
        <time>2013-10-10T16:23:31Z</time>
      </trkpt>
      <trkpt lat="-21.00217" lon="55.38979">
        <ele>318.6</ele>
        <time>2013-10-10T16:23:38Z</time>
      </trkpt>
      <trkpt lat="-21.00225" lon="55.38972">
        <ele>317.5</ele>
        <time>2013-10-10T16:23:47Z</time>
      </trkpt>
      <trkpt lat="-21.0023" lon="55.38963">
        <ele>316.1</ele>
        <time>2013-10-10T16:23:55Z</time>
      </trkpt>
      <trkpt lat="-21.00228" lon="55.38952">
        <ele>315.3</ele>
        <time>2013-10-10T16:24:01Z</time>
      </trkpt>
      <trkpt lat="-21.00222" lon="55.38944">
        <ele>315.2</ele>
        <time>2013-10-10T16:24:07Z</time>
      </trkpt>
      <trkpt lat="-21.00212" lon="55.38928">
        <ele>314.1</ele>
        <time>2013-10-10T16:24:20Z</time>
      </trkpt>
      <trkpt lat="-21.00205" lon="55.3892">
        <ele>312.6</ele>
        <time>2013-10-10T16:24:28Z</time>
      </trkpt>
      <trkpt lat="-21.00201" lon="55.38911">
        <ele>311.9</ele>
        <time>2013-10-10T16:24:35Z</time>
      </trkpt>
      <trkpt lat="-21.00198" lon="55.38901">
        <ele>310.5</ele>
        <time>2013-10-10T16:24:42Z</time>
      </trkpt>
      <trkpt lat="-21.00192" lon="55.38893">
        <ele>309.9</ele>
        <time>2013-10-10T16:24:52Z</time>
      </trkpt>
      <trkpt lat="-21.00187" lon="55.38884">
        <ele>309.7</ele>
        <time>2013-10-10T16:25:04Z</time>
      </trkpt>
      <trkpt lat="-21.00182" lon="55.38876">
        <ele>310.2</ele>
        <time>2013-10-10T16:25:11Z</time>
      </trkpt>
      <trkpt lat="-21.00167" lon="55.38864">
        <ele>309.2</ele>
        <time>2013-10-10T16:25:26Z</time>
      </trkpt>
      <trkpt lat="-21.00159" lon="55.38859">
        <ele>308.7</ele>
        <time>2013-10-10T16:25:36Z</time>
      </trkpt>
      <trkpt lat="-21.00153" lon="55.38852">
        <ele>307.9</ele>
        <time>2013-10-10T16:25:48Z</time>
      </trkpt>
      <trkpt lat="-21.00146" lon="55.38845">
        <ele>307.6</ele>
        <time>2013-10-10T16:26:04Z</time>
      </trkpt>
      <trkpt lat="-21.00142" lon="55.38837">
        <ele>307.5</ele>
        <time>2013-10-10T16:26:15Z</time>
      </trkpt>
      <trkpt lat="-21.00135" lon="55.38817">
        <ele>308.8</ele>
        <time>2013-10-10T16:26:31Z</time>
      </trkpt>
      <trkpt lat="-21.00131" lon="55.38807">
        <ele>309.9</ele>
        <time>2013-10-10T16:26:39Z</time>
      </trkpt>
      <trkpt lat="-21.00129" lon="55.38797">
        <ele>310.1</ele>
        <time>2013-10-10T16:26:46Z</time>
      </trkpt>
      <trkpt lat="-21.00124" lon="55.38788">
        <ele>309.9</ele>
        <time>2013-10-10T16:26:54Z</time>
      </trkpt>
      <trkpt lat="-21.00117" lon="55.38781">
        <ele>309.8</ele>
        <time>2013-10-10T16:27:05Z</time>
      </trkpt>
      <trkpt lat="-21.00109" lon="55.38772">
        <ele>309</ele>
        <time>2013-10-10T16:27:11Z</time>
      </trkpt>
      <trkpt lat="-21.00098" lon="55.38768">
        <ele>310.6</ele>
        <time>2013-10-10T16:27:18Z</time>
      </trkpt>
      <trkpt lat="-21.00088" lon="55.38753">
        <ele>310.3</ele>
        <time>2013-10-10T16:27:32Z</time>
      </trkpt>
      <trkpt lat="-21.00082" lon="55.38744">
        <ele>310.1</ele>
        <time>2013-10-10T16:27:40Z</time>
      </trkpt>
      <trkpt lat="-21.0008" lon="55.38734">
        <ele>310.5</ele>
        <time>2013-10-10T16:27:47Z</time>
      </trkpt>
      <trkpt lat="-21.00072" lon="55.38727">
        <ele>311</ele>
        <time>2013-10-10T16:27:55Z</time>
      </trkpt>
      <trkpt lat="-21.00064" lon="55.38721">
        <ele>311</ele>
        <time>2013-10-10T16:28:02Z</time>
      </trkpt>
      <trkpt lat="-21.00055" lon="55.38717">
        <ele>309.5</ele>
        <time>2013-10-10T16:28:08Z</time>
      </trkpt>
      <trkpt lat="-21.00047" lon="55.38712">
        <ele>309.4</ele>
        <time>2013-10-10T16:28:15Z</time>
      </trkpt>
      <trkpt lat="-21.00043" lon="55.38703">
        <ele>308.8</ele>
        <time>2013-10-10T16:28:22Z</time>
      </trkpt>
      <trkpt lat="-21.00035" lon="55.38684">
        <ele>310.5</ele>
        <time>2013-10-10T16:28:36Z</time>
      </trkpt>
      <trkpt lat="-21.00033" lon="55.38674">
        <ele>310</ele>
        <time>2013-10-10T16:28:43Z</time>
      </trkpt>
      <trkpt lat="-21.00029" lon="55.38665">
        <ele>310</ele>
        <time>2013-10-10T16:28:50Z</time>
      </trkpt>
      <trkpt lat="-21.00026" lon="55.38654">
        <ele>309.8</ele>
        <time>2013-10-10T16:28:57Z</time>
      </trkpt>
      <trkpt lat="-21.00021" lon="55.38646">
        <ele>309</ele>
        <time>2013-10-10T16:29:03Z</time>
      </trkpt>
      <trkpt lat="-21.00009" lon="55.38642">
        <ele>309</ele>
        <time>2013-10-10T16:29:11Z</time>
      </trkpt>
      <trkpt lat="-20.99992" lon="55.38641">
        <ele>309</ele>
        <time>2013-10-10T16:29:19Z</time>
      </trkpt>
      <trkpt lat="-20.99976" lon="55.38641">
        <ele>308</ele>
        <time>2013-10-10T16:29:27Z</time>
      </trkpt>
      <trkpt lat="-20.99955" lon="55.38637">
        <ele>308.1</ele>
        <time>2013-10-10T16:29:41Z</time>
      </trkpt>
      <trkpt lat="-20.99948" lon="55.3863">
        <ele>307.7</ele>
        <time>2013-10-10T16:29:48Z</time>
      </trkpt>
      <trkpt lat="-20.99942" lon="55.38621">
        <ele>307.9</ele>
        <time>2013-10-10T16:29:56Z</time>
      </trkpt>
      <trkpt lat="-20.99935" lon="55.38615">
        <ele>307.4</ele>
        <time>2013-10-10T16:30:03Z</time>
      </trkpt>
      <trkpt lat="-20.99928" lon="55.38608">
        <ele>307</ele>
        <time>2013-10-10T16:30:10Z</time>
      </trkpt>
      <trkpt lat="-20.99919" lon="55.386">
        <ele>306</ele>
        <time>2013-10-10T16:30:18Z</time>
      </trkpt>
      <trkpt lat="-20.99913" lon="55.38592">
        <ele>305</ele>
        <time>2013-10-10T16:30:26Z</time>
      </trkpt>
      <trkpt lat="-20.99904" lon="55.38584">
        <ele>306</ele>
        <time>2013-10-10T16:30:34Z</time>
      </trkpt>
      <trkpt lat="-20.99888" lon="55.38567">
        <ele>305</ele>
        <time>2013-10-10T16:30:50Z</time>
      </trkpt>
      <trkpt lat="-20.99882" lon="55.38556">
        <ele>305</ele>
        <time>2013-10-10T16:30:58Z</time>
      </trkpt>
      <trkpt lat="-20.99874" lon="55.38547">
        <ele>305</ele>
        <time>2013-10-10T16:31:06Z</time>
      </trkpt>
      <trkpt lat="-20.99871" lon="55.38537">
        <ele>304</ele>
        <time>2013-10-10T16:31:14Z</time>
      </trkpt>
      <trkpt lat="-20.99871" lon="55.38523">
        <ele>305</ele>
        <time>2013-10-10T16:31:22Z</time>
      </trkpt>
      <trkpt lat="-20.99871" lon="55.3851">
        <ele>304</ele>
        <time>2013-10-10T16:31:30Z</time>
      </trkpt>
      <trkpt lat="-20.99871" lon="55.38497">
        <ele>305</ele>
        <time>2013-10-10T16:31:38Z</time>
      </trkpt>
      <trkpt lat="-20.99871" lon="55.38472">
        <ele>304</ele>
        <time>2013-10-10T16:31:54Z</time>
      </trkpt>
      <trkpt lat="-20.99866" lon="55.3846">
        <ele>303</ele>
        <time>2013-10-10T16:32:06Z</time>
      </trkpt>
      <trkpt lat="-20.99863" lon="55.3845">
        <ele>303</ele>
        <time>2013-10-10T16:32:14Z</time>
      </trkpt>
      <trkpt lat="-20.99863" lon="55.38439">
        <ele>303</ele>
        <time>2013-10-10T16:32:22Z</time>
      </trkpt>
      <trkpt lat="-20.99861" lon="55.38427">
        <ele>302</ele>
        <time>2013-10-10T16:32:30Z</time>
      </trkpt>
      <trkpt lat="-20.99855" lon="55.38413">
        <ele>302</ele>
        <time>2013-10-10T16:32:42Z</time>
      </trkpt>
      <trkpt lat="-20.99857" lon="55.38384">
        <ele>302</ele>
        <time>2013-10-10T16:32:58Z</time>
      </trkpt>
      <trkpt lat="-20.99858" lon="55.38367">
        <ele>302</ele>
        <time>2013-10-10T16:33:06Z</time>
      </trkpt>
      <trkpt lat="-20.99853" lon="55.3836">
        <ele>301</ele>
        <time>2013-10-10T16:33:14Z</time>
      </trkpt>
      <trkpt lat="-20.99856" lon="55.38345">
        <ele>302</ele>
        <time>2013-10-10T16:33:22Z</time>
      </trkpt>
      <trkpt lat="-20.99859" lon="55.38335">
        <ele>301</ele>
        <time>2013-10-10T16:33:30Z</time>
      </trkpt>
      <trkpt lat="-20.99865" lon="55.38326">
        <ele>301</ele>
        <time>2013-10-10T16:33:38Z</time>
      </trkpt>
      <trkpt lat="-20.99874" lon="55.38315">
        <ele>300</ele>
        <time>2013-10-10T16:33:46Z</time>
      </trkpt>
      <trkpt lat="-20.99885" lon="55.38294">
        <ele>299</ele>
        <time>2013-10-10T16:34:06Z</time>
      </trkpt>
      <trkpt lat="-20.99889" lon="55.38282">
        <ele>299</ele>
        <time>2013-10-10T16:34:14Z</time>
      </trkpt>
      <trkpt lat="-20.99889" lon="55.38271">
        <ele>299</ele>
        <time>2013-10-10T16:34:22Z</time>
      </trkpt>
      <trkpt lat="-20.99883" lon="55.38262">
        <ele>299</ele>
        <time>2013-10-10T16:34:30Z</time>
      </trkpt>
      <trkpt lat="-20.99871" lon="55.38259">
        <ele>296</ele>
        <time>2013-10-10T16:34:42Z</time>
      </trkpt>
      <trkpt lat="-20.99861" lon="55.38257">
        <ele>297.4</ele>
        <time>2013-10-10T16:34:52Z</time>
      </trkpt>
      <trkpt lat="-20.99858" lon="55.38238">
        <ele>296</ele>
        <time>2013-10-10T16:35:08Z</time>
      </trkpt>
      <trkpt lat="-20.99845" lon="55.38234">
        <ele>297</ele>
        <time>2013-10-10T16:35:16Z</time>
      </trkpt>
      <trkpt lat="-20.99838" lon="55.3822">
        <ele>297</ele>
        <time>2013-10-10T16:35:24Z</time>
      </trkpt>
      <trkpt lat="-20.99837" lon="55.38207">
        <ele>298</ele>
        <time>2013-10-10T16:35:32Z</time>
      </trkpt>
      <trkpt lat="-20.99834" lon="55.38192">
        <ele>299</ele>
        <time>2013-10-10T16:35:48Z</time>
      </trkpt>
      <trkpt lat="-20.99828" lon="55.38181">
        <ele>299</ele>
        <time>2013-10-10T16:36:00Z</time>
      </trkpt>
      <trkpt lat="-20.99821" lon="55.38155">
        <ele>300</ele>
        <time>2013-10-10T16:36:20Z</time>
      </trkpt>
      <trkpt lat="-20.9982" lon="55.38142">
        <ele>299</ele>
        <time>2013-10-10T16:36:28Z</time>
      </trkpt>
      <trkpt lat="-20.99815" lon="55.38129">
        <ele>300</ele>
        <time>2013-10-10T16:36:40Z</time>
      </trkpt>
      <trkpt lat="-20.99815" lon="55.38117">
        <ele>300</ele>
        <time>2013-10-10T16:36:48Z</time>
      </trkpt>
      <trkpt lat="-20.99819" lon="55.38101">
        <ele>299</ele>
        <time>2013-10-10T16:36:56Z</time>
      </trkpt>
      <trkpt lat="-20.99436" lon="55.37549">
        <ele>288</ele>
        <time>2013-10-10T16:45:01Z</time>
      </trkpt>
      <trkpt lat="-20.97619" lon="55.35363">
        <ele>237</ele>
        <time>2013-10-10T17:18:40Z</time>
      </trkpt>
      <trkpt lat="-20.97617" lon="55.3535">
        <ele>237</ele>
        <time>2013-10-10T17:18:48Z</time>
      </trkpt>
      <trkpt lat="-20.97612" lon="55.35339">
        <ele>236</ele>
        <time>2013-10-10T17:18:56Z</time>
      </trkpt>
      <trkpt lat="-20.97603" lon="55.35331">
        <ele>237</ele>
        <time>2013-10-10T17:19:04Z</time>
      </trkpt>
      <trkpt lat="-20.97596" lon="55.35321">
        <ele>237</ele>
        <time>2013-10-10T17:19:12Z</time>
      </trkpt>
      <trkpt lat="-20.97588" lon="55.35313">
        <ele>236</ele>
        <time>2013-10-10T17:19:20Z</time>
      </trkpt>
      <trkpt lat="-20.97581" lon="55.35301">
        <ele>235</ele>
        <time>2013-10-10T17:19:28Z</time>
      </trkpt>
      <trkpt lat="-20.97575" lon="55.35291">
        <ele>236</ele>
        <time>2013-10-10T17:19:36Z</time>
      </trkpt>
      <trkpt lat="-20.97566" lon="55.3527">
        <ele>235</ele>
        <time>2013-10-10T17:19:52Z</time>
      </trkpt>
      <trkpt lat="-20.97558" lon="55.35259">
        <ele>235</ele>
        <time>2013-10-10T17:20:00Z</time>
      </trkpt>
      <trkpt lat="-20.9755" lon="55.35248">
        <ele>235</ele>
        <time>2013-10-10T17:20:08Z</time>
      </trkpt>
      <trkpt lat="-20.97547" lon="55.35237">
        <ele>235</ele>
        <time>2013-10-10T17:20:16Z</time>
      </trkpt>
      <trkpt lat="-20.97549" lon="55.35225">
        <ele>234</ele>
        <time>2013-10-10T17:20:24Z</time>
      </trkpt>
      <trkpt lat="-20.97551" lon="55.35213">
        <ele>234</ele>
        <time>2013-10-10T17:20:32Z</time>
      </trkpt>
      <trkpt lat="-20.97552" lon="55.352">
        <ele>234</ele>
        <time>2013-10-10T17:20:40Z</time>
      </trkpt>
      <trkpt lat="-20.97547" lon="55.35175">
        <ele>233</ele>
        <time>2013-10-10T17:20:56Z</time>
      </trkpt>
      <trkpt lat="-20.97545" lon="55.35166">
        <ele>233.5</ele>
        <time>2013-10-10T17:21:03Z</time>
      </trkpt>
      <trkpt lat="-20.97539" lon="55.35157">
        <ele>233</ele>
        <time>2013-10-10T17:21:09Z</time>
      </trkpt>
      <trkpt lat="-20.97534" lon="55.35145">
        <ele>232</ele>
        <time>2013-10-10T17:21:17Z</time>
      </trkpt>
      <trkpt lat="-20.97529" lon="55.35134">
        <ele>233</ele>
        <time>2013-10-10T17:21:25Z</time>
      </trkpt>
      <trkpt lat="-20.97526" lon="55.35123">
        <ele>232</ele>
        <time>2013-10-10T17:21:33Z</time>
      </trkpt>
      <trkpt lat="-20.97524" lon="55.3511">
        <ele>232</ele>
        <time>2013-10-10T17:21:41Z</time>
      </trkpt>
      <trkpt lat="-20.97523" lon="55.35085">
        <ele>231</ele>
        <time>2013-10-10T17:21:57Z</time>
      </trkpt>
      <trkpt lat="-20.97524" lon="55.35074">
        <ele>230</ele>
        <time>2013-10-10T17:22:05Z</time>
      </trkpt>
      <trkpt lat="-20.97525" lon="55.35063">
        <ele>229</ele>
        <time>2013-10-10T17:22:13Z</time>
      </trkpt>
      <trkpt lat="-20.97519" lon="55.35053">
        <ele>228</ele>
        <time>2013-10-10T17:22:21Z</time>
      </trkpt>
      <trkpt lat="-20.97509" lon="55.3505">
        <ele>228</ele>
        <time>2013-10-10T17:22:26Z</time>
      </trkpt>
      <trkpt lat="-20.97498" lon="55.35044">
        <ele>228</ele>
        <time>2013-10-10T17:22:34Z</time>
      </trkpt>
      <trkpt lat="-20.97489" lon="55.35037">
        <ele>227</ele>
        <time>2013-10-10T17:22:46Z</time>
      </trkpt>
      <trkpt lat="-20.97477" lon="55.35019">
        <ele>226</ele>
        <time>2013-10-10T17:23:14Z</time>
      </trkpt>
      <trkpt lat="-20.97469" lon="55.35011">
        <ele>227</ele>
        <time>2013-10-10T17:23:22Z</time>
      </trkpt>
      <trkpt lat="-20.9746" lon="55.35005">
        <ele>227</ele>
        <time>2013-10-10T17:23:30Z</time>
      </trkpt>
      <trkpt lat="-20.9745" lon="55.34998">
        <ele>228</ele>
        <time>2013-10-10T17:23:38Z</time>
      </trkpt>
      <trkpt lat="-20.97443" lon="55.3499">
        <ele>227</ele>
        <time>2013-10-10T17:23:46Z</time>
      </trkpt>
      <trkpt lat="-20.97438" lon="55.34982">
        <ele>227.5</ele>
        <time>2013-10-10T17:23:55Z</time>
      </trkpt>
      <trkpt lat="-20.97437" lon="55.34961">
        <ele>226.5</ele>
        <time>2013-10-10T17:24:11Z</time>
      </trkpt>
      <trkpt lat="-20.97436" lon="55.3495">
        <ele>226.3</ele>
        <time>2013-10-10T17:24:17Z</time>
      </trkpt>
      <trkpt lat="-20.97433" lon="55.3494">
        <ele>226.3</ele>
        <time>2013-10-10T17:24:24Z</time>
      </trkpt>
      <trkpt lat="-20.97431" lon="55.3493">
        <ele>225.9</ele>
        <time>2013-10-10T17:24:32Z</time>
      </trkpt>
      <trkpt lat="-20.97428" lon="55.3492">
        <ele>226.1</ele>
        <time>2013-10-10T17:24:39Z</time>
      </trkpt>
      <trkpt lat="-20.97429" lon="55.3491">
        <ele>226.3</ele>
        <time>2013-10-10T17:24:44Z</time>
      </trkpt>
      <trkpt lat="-20.97424" lon="55.34901">
        <ele>225.7</ele>
        <time>2013-10-10T17:24:53Z</time>
      </trkpt>
      <trkpt lat="-20.9742" lon="55.34891">
        <ele>225.3</ele>
        <time>2013-10-10T17:25:01Z</time>
      </trkpt>
      <trkpt lat="-20.97412" lon="55.34871">
        <ele>225.9</ele>
        <time>2013-10-10T17:25:16Z</time>
      </trkpt>
      <trkpt lat="-20.97408" lon="55.34861">
        <ele>225.2</ele>
        <time>2013-10-10T17:25:24Z</time>
      </trkpt>
      <trkpt lat="-20.97404" lon="55.34852">
        <ele>225.3</ele>
        <time>2013-10-10T17:25:32Z</time>
      </trkpt>
      <trkpt lat="-20.974" lon="55.34843">
        <ele>225.4</ele>
        <time>2013-10-10T17:25:40Z</time>
      </trkpt>
      <trkpt lat="-20.97397" lon="55.34834">
        <ele>226</ele>
        <time>2013-10-10T17:25:48Z</time>
      </trkpt>
      <trkpt lat="-20.97398" lon="55.34823">
        <ele>224.7</ele>
        <time>2013-10-10T17:25:53Z</time>
      </trkpt>
      <trkpt lat="-20.97402" lon="55.34813">
        <ele>224.5</ele>
        <time>2013-10-10T17:25:58Z</time>
      </trkpt>
      <trkpt lat="-20.97403" lon="55.34803">
        <ele>224.4</ele>
        <time>2013-10-10T17:26:09Z</time>
      </trkpt>
      <trkpt lat="-20.97411" lon="55.34784">
        <ele>224.3</ele>
        <time>2013-10-10T17:26:25Z</time>
      </trkpt>
      <trkpt lat="-20.97415" lon="55.34776">
        <ele>223.5</ele>
        <time>2013-10-10T17:26:32Z</time>
      </trkpt>
      <trkpt lat="-20.97419" lon="55.34766">
        <ele>223.7</ele>
        <time>2013-10-10T17:27:03Z</time>
      </trkpt>
      <trkpt lat="-20.97426" lon="55.3476">
        <ele>223</ele>
        <time>2013-10-10T17:27:17Z</time>
      </trkpt>
      <trkpt lat="-20.97432" lon="55.34746">
        <ele>224.7</ele>
        <time>2013-10-10T17:27:37Z</time>
      </trkpt>
      <trkpt lat="-20.97429" lon="55.34736">
        <ele>225</ele>
        <time>2013-10-10T17:27:43Z</time>
      </trkpt>
      <trkpt lat="-20.97426" lon="55.34727">
        <ele>224.6</ele>
        <time>2013-10-10T17:27:48Z</time>
      </trkpt>
      <trkpt lat="-20.97426" lon="55.34716">
        <ele>224.4</ele>
        <time>2013-10-10T17:27:54Z</time>
      </trkpt>
      <trkpt lat="-20.97422" lon="55.34706">
        <ele>224.9</ele>
        <time>2013-10-10T17:28:02Z</time>
      </trkpt>
      <trkpt lat="-20.97422" lon="55.34695">
        <ele>224.1</ele>
        <time>2013-10-10T17:28:09Z</time>
      </trkpt>
      <trkpt lat="-20.97421" lon="55.34685">
        <ele>224.4</ele>
        <time>2013-10-10T17:28:16Z</time>
      </trkpt>
      <trkpt lat="-20.97422" lon="55.34675">
        <ele>224.6</ele>
        <time>2013-10-10T17:28:23Z</time>
      </trkpt>
      <trkpt lat="-20.97426" lon="55.34655">
        <ele>224.6</ele>
        <time>2013-10-10T17:28:37Z</time>
      </trkpt>
      <trkpt lat="-20.97427" lon="55.34646">
        <ele>224.6</ele>
        <time>2013-10-10T17:28:45Z</time>
      </trkpt>
      <trkpt lat="-20.97427" lon="55.34634">
        <ele>223</ele>
        <time>2013-10-10T17:28:53Z</time>
      </trkpt>
      <trkpt lat="-20.97425" lon="55.34624">
        <ele>223.4</ele>
        <time>2013-10-10T17:29:00Z</time>
      </trkpt>
      <trkpt lat="-20.97422" lon="55.34615">
        <ele>223.7</ele>
        <time>2013-10-10T17:29:07Z</time>
      </trkpt>
      <trkpt lat="-20.97422" lon="55.34605">
        <ele>223.1</ele>
        <time>2013-10-10T17:29:15Z</time>
      </trkpt>
      <trkpt lat="-20.97419" lon="55.34595">
        <ele>221.4</ele>
        <time>2013-10-10T17:29:24Z</time>
      </trkpt>
      <trkpt lat="-20.97413" lon="55.34576">
        <ele>222.2</ele>
        <time>2013-10-10T17:29:39Z</time>
      </trkpt>
      <trkpt lat="-20.97413" lon="55.34566">
        <ele>223.2</ele>
        <time>2013-10-10T17:29:45Z</time>
      </trkpt>
      <trkpt lat="-20.97415" lon="55.34556">
        <ele>223.4</ele>
        <time>2013-10-10T17:29:53Z</time>
      </trkpt>
      <trkpt lat="-20.97415" lon="55.34546">
        <ele>222.7</ele>
        <time>2013-10-10T17:30:00Z</time>
      </trkpt>
      <trkpt lat="-20.9741" lon="55.34536">
        <ele>223.5</ele>
        <time>2013-10-10T17:30:08Z</time>
      </trkpt>
      <trkpt lat="-20.97408" lon="55.34527">
        <ele>223</ele>
        <time>2013-10-10T17:30:15Z</time>
      </trkpt>
      <trkpt lat="-20.97406" lon="55.34517">
        <ele>222.9</ele>
        <time>2013-10-10T17:30:22Z</time>
      </trkpt>
      <trkpt lat="-20.97404" lon="55.34507">
        <ele>222.6</ele>
        <time>2013-10-10T17:30:30Z</time>
      </trkpt>
      <trkpt lat="-20.974" lon="55.34487">
        <ele>221.1</ele>
        <time>2013-10-10T17:30:47Z</time>
      </trkpt>
      <trkpt lat="-20.97403" lon="55.34478">
        <ele>220.5</ele>
        <time>2013-10-10T17:30:53Z</time>
      </trkpt>
      <trkpt lat="-20.97402" lon="55.34468">
        <ele>219.7</ele>
        <time>2013-10-10T17:30:59Z</time>
      </trkpt>
      <trkpt lat="-20.97401" lon="55.34457">
        <ele>220.2</ele>
        <time>2013-10-10T17:31:06Z</time>
      </trkpt>
      <trkpt lat="-20.97405" lon="55.34447">
        <ele>221.3</ele>
        <time>2013-10-10T17:31:15Z</time>
      </trkpt>
      <trkpt lat="-20.97413" lon="55.34442">
        <ele>221.2</ele>
        <time>2013-10-10T17:31:22Z</time>
      </trkpt>
      <trkpt lat="-20.97421" lon="55.34436">
        <ele>220.8</ele>
        <time>2013-10-10T17:31:27Z</time>
      </trkpt>
      <trkpt lat="-20.97429" lon="55.3443">
        <ele>220.4</ele>
        <time>2013-10-10T17:31:38Z</time>
      </trkpt>
      <trkpt lat="-20.97443" lon="55.34415">
        <ele>220.1</ele>
        <time>2013-10-10T17:31:47Z</time>
      </trkpt>
      <trkpt lat="-20.97446" lon="55.34405">
        <ele>219.7</ele>
        <time>2013-10-10T17:31:54Z</time>
      </trkpt>
      <trkpt lat="-20.97448" lon="55.34395">
        <ele>218.9</ele>
        <time>2013-10-10T17:32:03Z</time>
      </trkpt>
      <trkpt lat="-20.9745" lon="55.34385">
        <ele>219.4</ele>
        <time>2013-10-10T17:32:10Z</time>
      </trkpt>
      <trkpt lat="-20.97453" lon="55.34373">
        <ele>218.9</ele>
        <time>2013-10-10T17:32:16Z</time>
      </trkpt>
      <trkpt lat="-20.97452" lon="55.34363">
        <ele>218.9</ele>
        <time>2013-10-10T17:32:22Z</time>
      </trkpt>
      <trkpt lat="-20.97447" lon="55.34353">
        <ele>218.7</ele>
        <time>2013-10-10T17:32:28Z</time>
      </trkpt>
      <trkpt lat="-20.97444" lon="55.34345">
        <ele>218.3</ele>
        <time>2013-10-10T17:32:35Z</time>
      </trkpt>
      <trkpt lat="-20.9744" lon="55.34335">
        <ele>218.3</ele>
        <time>2013-10-10T17:32:42Z</time>
      </trkpt>
      <trkpt lat="-20.97434" lon="55.34314">
        <ele>218.4</ele>
        <time>2013-10-10T17:32:56Z</time>
      </trkpt>
      <trkpt lat="-20.97433" lon="55.34304">
        <ele>217.8</ele>
        <time>2013-10-10T17:33:02Z</time>
      </trkpt>
      <trkpt lat="-20.9743" lon="55.34295">
        <ele>217.6</ele>
        <time>2013-10-10T17:33:09Z</time>
      </trkpt>
      <trkpt lat="-20.97429" lon="55.34284">
        <ele>217.7</ele>
        <time>2013-10-10T17:33:16Z</time>
      </trkpt>
      <trkpt lat="-20.97424" lon="55.34274">
        <ele>218.3</ele>
        <time>2013-10-10T17:33:24Z</time>
      </trkpt>
      <trkpt lat="-20.97423" lon="55.34264">
        <ele>217.7</ele>
        <time>2013-10-10T17:33:32Z</time>
      </trkpt>
      <trkpt lat="-20.97422" lon="55.34254">
        <ele>217.2</ele>
        <time>2013-10-10T17:33:39Z</time>
      </trkpt>
      <trkpt lat="-20.9742" lon="55.34242">
        <ele>217.3</ele>
        <time>2013-10-10T17:33:46Z</time>
      </trkpt>
      <trkpt lat="-20.97416" lon="55.34222">
        <ele>217</ele>
        <time>2013-10-10T17:34:02Z</time>
      </trkpt>
      <trkpt lat="-20.97417" lon="55.34211">
        <ele>216.1</ele>
        <time>2013-10-10T17:34:08Z</time>
      </trkpt>
      <trkpt lat="-20.97418" lon="55.34201">
        <ele>215.8</ele>
        <time>2013-10-10T17:34:15Z</time>
      </trkpt>
      <trkpt lat="-20.97418" lon="55.3419">
        <ele>214.9</ele>
        <time>2013-10-10T17:34:22Z</time>
      </trkpt>
      <trkpt lat="-20.97419" lon="55.3418">
        <ele>215.6</ele>
        <time>2013-10-10T17:34:29Z</time>
      </trkpt>
      <trkpt lat="-20.9742" lon="55.34169">
        <ele>215.3</ele>
        <time>2013-10-10T17:34:37Z</time>
      </trkpt>
      <trkpt lat="-20.9742" lon="55.3416">
        <ele>215.9</ele>
        <time>2013-10-10T17:34:43Z</time>
      </trkpt>
      <trkpt lat="-20.97415" lon="55.34151">
        <ele>215.4</ele>
        <time>2013-10-10T17:34:51Z</time>
      </trkpt>
      <trkpt lat="-20.9741" lon="55.34129">
        <ele>215</ele>
        <time>2013-10-10T17:35:08Z</time>
      </trkpt>
      <trkpt lat="-20.97412" lon="55.34115">
        <ele>214</ele>
        <time>2013-10-10T17:35:16Z</time>
      </trkpt>
      <trkpt lat="-20.97408" lon="55.34103">
        <ele>215</ele>
        <time>2013-10-10T17:35:24Z</time>
      </trkpt>
      <trkpt lat="-20.97404" lon="55.34092">
        <ele>213</ele>
        <time>2013-10-10T17:35:31Z</time>
      </trkpt>
      <trkpt lat="-20.97404" lon="55.34074">
        <ele>213</ele>
        <time>2013-10-10T17:35:42Z</time>
      </trkpt>
      <trkpt lat="-20.97405" lon="55.34061">
        <ele>213</ele>
        <time>2013-10-10T17:35:52Z</time>
      </trkpt>
      <trkpt lat="-20.97405" lon="55.34036">
        <ele>212</ele>
        <time>2013-10-10T17:36:08Z</time>
      </trkpt>
      <trkpt lat="-20.9741" lon="55.34023">
        <ele>211</ele>
        <time>2013-10-10T17:36:16Z</time>
      </trkpt>
      <trkpt lat="-20.97392" lon="55.34024">
        <ele>211</ele>
        <time>2013-10-10T17:36:24Z</time>
      </trkpt>
      <trkpt lat="-20.97377" lon="55.34022">
        <ele>210</ele>
        <time>2013-10-10T17:36:33Z</time>
      </trkpt>
      <trkpt lat="-20.97365" lon="55.33991">
        <ele>210</ele>
        <time>2013-10-10T17:36:54Z</time>
      </trkpt>
      <trkpt lat="-20.97367" lon="55.33966">
        <ele>208</ele>
        <time>2013-10-10T17:37:10Z</time>
      </trkpt>
      <trkpt lat="-20.97364" lon="55.33955">
        <ele>207</ele>
        <time>2013-10-10T17:37:18Z</time>
      </trkpt>
      <trkpt lat="-20.97355" lon="55.33951">
        <ele>206</ele>
        <time>2013-10-10T17:37:30Z</time>
      </trkpt>
      <trkpt lat="-20.97348" lon="55.33944">
        <ele>207.5</ele>
        <time>2013-10-10T17:37:48Z</time>
      </trkpt>
      <trkpt lat="-20.97342" lon="55.33936">
        <ele>206.9</ele>
        <time>2013-10-10T17:37:59Z</time>
      </trkpt>
      <trkpt lat="-20.97334" lon="55.33919">
        <ele>207.5</ele>
        <time>2013-10-10T17:38:17Z</time>
      </trkpt>
      <trkpt lat="-20.97327" lon="55.33912">
        <ele>208</ele>
        <time>2013-10-10T17:38:25Z</time>
      </trkpt>
      <trkpt lat="-20.97322" lon="55.33902">
        <ele>207.8</ele>
        <time>2013-10-10T17:38:32Z</time>
      </trkpt>
      <trkpt lat="-20.97318" lon="55.33893">
        <ele>206.2</ele>
        <time>2013-10-10T17:38:38Z</time>
      </trkpt>
      <trkpt lat="-20.97315" lon="55.33882">
        <ele>206.4</ele>
        <time>2013-10-10T17:38:44Z</time>
      </trkpt>
      <trkpt lat="-20.97311" lon="55.33872">
        <ele>206.8</ele>
        <time>2013-10-10T17:38:52Z</time>
      </trkpt>
      <trkpt lat="-20.9731" lon="55.33861">
        <ele>206.9</ele>
        <time>2013-10-10T17:38:59Z</time>
      </trkpt>
      <trkpt lat="-20.9731" lon="55.33851">
        <ele>207.3</ele>
        <time>2013-10-10T17:39:06Z</time>
      </trkpt>
      <trkpt lat="-20.97307" lon="55.3383">
        <ele>205.5</ele>
        <time>2013-10-10T17:39:23Z</time>
      </trkpt>
      <trkpt lat="-20.97304" lon="55.3382">
        <ele>205</ele>
        <time>2013-10-10T17:39:31Z</time>
      </trkpt>
      <trkpt lat="-20.97302" lon="55.3381">
        <ele>205.4</ele>
        <time>2013-10-10T17:39:37Z</time>
      </trkpt>
      <trkpt lat="-20.97292" lon="55.33808">
        <ele>204</ele>
        <time>2013-10-10T17:39:56Z</time>
      </trkpt>
      <trkpt lat="-20.97289" lon="55.33798">
        <ele>204</ele>
        <time>2013-10-10T17:40:11Z</time>
      </trkpt>
      <trkpt lat="-20.97288" lon="55.33777">
        <ele>204</ele>
        <time>2013-10-10T17:40:27Z</time>
      </trkpt>
      <trkpt lat="-20.97281" lon="55.33765">
        <ele>203</ele>
        <time>2013-10-10T17:40:35Z</time>
      </trkpt>
      <trkpt lat="-20.97281" lon="55.3375">
        <ele>204</ele>
        <time>2013-10-10T17:40:43Z</time>
      </trkpt>
      <trkpt lat="-20.97282" lon="55.3374">
        <ele>204.1</ele>
        <time>2013-10-10T17:40:48Z</time>
      </trkpt>
      <trkpt lat="-20.97278" lon="55.3373">
        <ele>204.1</ele>
        <time>2013-10-10T17:40:58Z</time>
      </trkpt>
      <trkpt lat="-20.97278" lon="55.3372">
        <ele>204</ele>
        <time>2013-10-10T17:41:06Z</time>
      </trkpt>
      <trkpt lat="-20.97278" lon="55.3371">
        <ele>203.7</ele>
        <time>2013-10-10T17:41:13Z</time>
      </trkpt>
      <trkpt lat="-20.97279" lon="55.33699">
        <ele>203.7</ele>
        <time>2013-10-10T17:41:22Z</time>
      </trkpt>
      <trkpt lat="-20.97281" lon="55.33679">
        <ele>203.6</ele>
        <time>2013-10-10T17:41:38Z</time>
      </trkpt>
      <trkpt lat="-20.97279" lon="55.33669">
        <ele>203.7</ele>
        <time>2013-10-10T17:41:46Z</time>
      </trkpt>
      <trkpt lat="-20.97279" lon="55.33659">
        <ele>203.4</ele>
        <time>2013-10-10T17:41:55Z</time>
      </trkpt>
      <trkpt lat="-20.97283" lon="55.33649">
        <ele>203.9</ele>
        <time>2013-10-10T17:42:03Z</time>
      </trkpt>
      <trkpt lat="-20.97288" lon="55.3364">
        <ele>203.7</ele>
        <time>2013-10-10T17:42:10Z</time>
      </trkpt>
      <trkpt lat="-20.97291" lon="55.3363">
        <ele>204.6</ele>
        <time>2013-10-10T17:42:18Z</time>
      </trkpt>
      <trkpt lat="-20.97291" lon="55.3362">
        <ele>204.6</ele>
        <time>2013-10-10T17:42:26Z</time>
      </trkpt>
      <trkpt lat="-20.97288" lon="55.336">
        <ele>203.9</ele>
        <time>2013-10-10T17:42:42Z</time>
      </trkpt>
      <trkpt lat="-20.9729" lon="55.33589">
        <ele>204.5</ele>
        <time>2013-10-10T17:42:48Z</time>
      </trkpt>
      <trkpt lat="-20.97289" lon="55.33579">
        <ele>203.4</ele>
        <time>2013-10-10T17:42:54Z</time>
      </trkpt>
      <trkpt lat="-20.97289" lon="55.33569">
        <ele>204.3</ele>
        <time>2013-10-10T17:43:00Z</time>
      </trkpt>
      <trkpt lat="-20.97289" lon="55.33559">
        <ele>203.6</ele>
        <time>2013-10-10T17:43:07Z</time>
      </trkpt>
      <trkpt lat="-20.97291" lon="55.33549">
        <ele>203.6</ele>
        <time>2013-10-10T17:43:13Z</time>
      </trkpt>
      <trkpt lat="-20.97292" lon="55.33538">
        <ele>202.9</ele>
        <time>2013-10-10T17:43:19Z</time>
      </trkpt>
      <trkpt lat="-20.97292" lon="55.33529">
        <ele>203.6</ele>
        <time>2013-10-10T17:43:26Z</time>
      </trkpt>
      <trkpt lat="-20.97292" lon="55.33519">
        <ele>203.7</ele>
        <time>2013-10-10T17:43:33Z</time>
      </trkpt>
      <trkpt lat="-20.97292" lon="55.33498">
        <ele>203</ele>
        <time>2013-10-10T17:43:47Z</time>
      </trkpt>
      <trkpt lat="-20.9729" lon="55.33487">
        <ele>202</ele>
        <time>2013-10-10T17:43:55Z</time>
      </trkpt>
      <trkpt lat="-20.97287" lon="55.33477">
        <ele>202.2</ele>
        <time>2013-10-10T17:44:02Z</time>
      </trkpt>
      <trkpt lat="-20.97284" lon="55.33466">
        <ele>202.9</ele>
        <time>2013-10-10T17:44:09Z</time>
      </trkpt>
      <trkpt lat="-20.97284" lon="55.33457">
        <ele>202.9</ele>
        <time>2013-10-10T17:44:15Z</time>
      </trkpt>
      <trkpt lat="-20.97284" lon="55.33446">
        <ele>202.5</ele>
        <time>2013-10-10T17:44:22Z</time>
      </trkpt>
      <trkpt lat="-20.97283" lon="55.33436">
        <ele>202.6</ele>
        <time>2013-10-10T17:44:29Z</time>
      </trkpt>
      <trkpt lat="-20.97281" lon="55.33425">
        <ele>202.1</ele>
        <time>2013-10-10T17:44:36Z</time>
      </trkpt>
      <trkpt lat="-20.97277" lon="55.33404">
        <ele>201.6</ele>
        <time>2013-10-10T17:44:51Z</time>
      </trkpt>
      <trkpt lat="-20.97274" lon="55.33394">
        <ele>202</ele>
        <time>2013-10-10T17:44:58Z</time>
      </trkpt>
      <trkpt lat="-20.9727" lon="55.33384">
        <ele>201.8</ele>
        <time>2013-10-10T17:45:06Z</time>
      </trkpt>
      <trkpt lat="-20.97266" lon="55.33375">
        <ele>202.1</ele>
        <time>2013-10-10T17:45:14Z</time>
      </trkpt>
      <trkpt lat="-20.97262" lon="55.33366">
        <ele>202.3</ele>
        <time>2013-10-10T17:45:23Z</time>
      </trkpt>
      <trkpt lat="-20.97257" lon="55.33357">
        <ele>203.3</ele>
        <time>2013-10-10T17:45:31Z</time>
      </trkpt>
      <trkpt lat="-20.97254" lon="55.33346">
        <ele>203.6</ele>
        <time>2013-10-10T17:45:37Z</time>
      </trkpt>
      <trkpt lat="-20.97251" lon="55.33327">
        <ele>203</ele>
        <time>2013-10-10T17:45:48Z</time>
      </trkpt>
      <trkpt lat="-20.9725" lon="55.33318">
        <ele>202.9</ele>
        <time>2013-10-10T17:45:55Z</time>
      </trkpt>
      <trkpt lat="-20.97252" lon="55.33307">
        <ele>203</ele>
        <time>2013-10-10T17:46:03Z</time>
      </trkpt>
      <trkpt lat="-20.97254" lon="55.33296">
        <ele>203</ele>
        <time>2013-10-10T17:46:10Z</time>
      </trkpt>
      <trkpt lat="-20.97252" lon="55.33285">
        <ele>202.7</ele>
        <time>2013-10-10T17:46:18Z</time>
      </trkpt>
      <trkpt lat="-20.97251" lon="55.33275">
        <ele>201.6</ele>
        <time>2013-10-10T17:46:26Z</time>
      </trkpt>
      <trkpt lat="-20.97251" lon="55.33265">
        <ele>200.6</ele>
        <time>2013-10-10T17:46:33Z</time>
      </trkpt>
      <trkpt lat="-20.9725" lon="55.33254">
        <ele>201.3</ele>
        <time>2013-10-10T17:46:42Z</time>
      </trkpt>
      <trkpt lat="-20.97249" lon="55.33233">
        <ele>201.6</ele>
        <time>2013-10-10T17:46:57Z</time>
      </trkpt>
      <trkpt lat="-20.97251" lon="55.33223">
        <ele>201.8</ele>
        <time>2013-10-10T17:47:05Z</time>
      </trkpt>
      <trkpt lat="-20.97254" lon="55.33214">
        <ele>201.1</ele>
        <time>2013-10-10T17:47:11Z</time>
      </trkpt>
      <trkpt lat="-20.97257" lon="55.33204">
        <ele>200.3</ele>
        <time>2013-10-10T17:47:19Z</time>
      </trkpt>
      <trkpt lat="-20.97259" lon="55.33194">
        <ele>200.8</ele>
        <time>2013-10-10T17:47:24Z</time>
      </trkpt>
      <trkpt lat="-20.97259" lon="55.33184">
        <ele>200</ele>
        <time>2013-10-10T17:47:31Z</time>
      </trkpt>
      <trkpt lat="-20.97257" lon="55.33174">
        <ele>198.8</ele>
        <time>2013-10-10T17:47:40Z</time>
      </trkpt>
      <trkpt lat="-20.97255" lon="55.33164">
        <ele>198.3</ele>
        <time>2013-10-10T17:47:46Z</time>
      </trkpt>
      <trkpt lat="-20.97248" lon="55.33146">
        <ele>199</ele>
        <time>2013-10-10T17:47:58Z</time>
      </trkpt>
      <trkpt lat="-20.97244" lon="55.33136">
        <ele>198.4</ele>
        <time>2013-10-10T17:48:05Z</time>
      </trkpt>
      <trkpt lat="-20.97242" lon="55.33127">
        <ele>197.8</ele>
        <time>2013-10-10T17:48:12Z</time>
      </trkpt>
      <trkpt lat="-20.97238" lon="55.33117">
        <ele>196.7</ele>
        <time>2013-10-10T17:48:19Z</time>
      </trkpt>
      <trkpt lat="-20.97234" lon="55.33108">
        <ele>196.1</ele>
        <time>2013-10-10T17:48:25Z</time>
      </trkpt>
      <trkpt lat="-20.97229" lon="55.33099">
        <ele>195.9</ele>
        <time>2013-10-10T17:48:32Z</time>
      </trkpt>
      <trkpt lat="-20.97225" lon="55.3309">
        <ele>195.2</ele>
        <time>2013-10-10T17:48:39Z</time>
      </trkpt>
      <trkpt lat="-20.97219" lon="55.33082">
        <ele>194.6</ele>
        <time>2013-10-10T17:48:46Z</time>
      </trkpt>
      <trkpt lat="-20.97213" lon="55.33074">
        <ele>193.8</ele>
        <time>2013-10-10T17:48:53Z</time>
      </trkpt>
      <trkpt lat="-20.97199" lon="55.3306">
        <ele>193.1</ele>
        <time>2013-10-10T17:49:06Z</time>
      </trkpt>
      <trkpt lat="-20.97192" lon="55.33055">
        <ele>193</ele>
        <time>2013-10-10T17:49:12Z</time>
      </trkpt>
      <trkpt lat="-20.97186" lon="55.33046">
        <ele>193</ele>
        <time>2013-10-10T17:49:18Z</time>
      </trkpt>
      <trkpt lat="-20.97179" lon="55.33038">
        <ele>192.9</ele>
        <time>2013-10-10T17:49:26Z</time>
      </trkpt>
      <trkpt lat="-20.97171" lon="55.33032">
        <ele>193.5</ele>
        <time>2013-10-10T17:49:34Z</time>
      </trkpt>
      <trkpt lat="-20.97165" lon="55.33024">
        <ele>193.5</ele>
        <time>2013-10-10T17:49:42Z</time>
      </trkpt>
      <trkpt lat="-20.97161" lon="55.33014">
        <ele>194.1</ele>
        <time>2013-10-10T17:49:50Z</time>
      </trkpt>
      <trkpt lat="-20.97161" lon="55.33004">
        <ele>193.7</ele>
        <time>2013-10-10T17:49:58Z</time>
      </trkpt>
      <trkpt lat="-20.9716" lon="55.32983">
        <ele>194.1</ele>
        <time>2013-10-10T17:50:14Z</time>
      </trkpt>
      <trkpt lat="-20.97163" lon="55.32973">
        <ele>193.1</ele>
        <time>2013-10-10T17:50:22Z</time>
      </trkpt>
      <trkpt lat="-20.97163" lon="55.32962">
        <ele>192.2</ele>
        <time>2013-10-10T17:50:30Z</time>
      </trkpt>
      <trkpt lat="-20.9716" lon="55.32952">
        <ele>191.7</ele>
        <time>2013-10-10T17:50:36Z</time>
      </trkpt>
      <trkpt lat="-20.97157" lon="55.32941">
        <ele>191.5</ele>
        <time>2013-10-10T17:50:43Z</time>
      </trkpt>
      <trkpt lat="-20.97152" lon="55.32932">
        <ele>190.7</ele>
        <time>2013-10-10T17:50:50Z</time>
      </trkpt>
      <trkpt lat="-20.97149" lon="55.32922">
        <ele>191.3</ele>
        <time>2013-10-10T17:50:57Z</time>
      </trkpt>
      <trkpt lat="-20.97146" lon="55.32912">
        <ele>191.9</ele>
        <time>2013-10-10T17:51:03Z</time>
      </trkpt>
      <trkpt lat="-20.9714" lon="55.32893">
        <ele>192.3</ele>
        <time>2013-10-10T17:51:18Z</time>
      </trkpt>
      <trkpt lat="-20.97137" lon="55.32883">
        <ele>191.9</ele>
        <time>2013-10-10T17:51:26Z</time>
      </trkpt>
      <trkpt lat="-20.97134" lon="55.32873">
        <ele>191.4</ele>
        <time>2013-10-10T17:51:36Z</time>
      </trkpt>
      <trkpt lat="-20.97133" lon="55.32863">
        <ele>191.2</ele>
        <time>2013-10-10T17:51:44Z</time>
      </trkpt>
      <trkpt lat="-20.97131" lon="55.32852">
        <ele>190.7</ele>
        <time>2013-10-10T17:51:51Z</time>
      </trkpt>
      <trkpt lat="-20.9713" lon="55.32842">
        <ele>191.3</ele>
        <time>2013-10-10T17:51:58Z</time>
      </trkpt>
      <trkpt lat="-20.9713" lon="55.32831">
        <ele>190.9</ele>
        <time>2013-10-10T17:52:05Z</time>
      </trkpt>
      <trkpt lat="-20.97129" lon="55.3281">
        <ele>190.2</ele>
        <time>2013-10-10T17:52:19Z</time>
      </trkpt>
      <trkpt lat="-20.97127" lon="55.328">
        <ele>190.4</ele>
        <time>2013-10-10T17:52:27Z</time>
      </trkpt>
      <trkpt lat="-20.97124" lon="55.3279">
        <ele>189.5</ele>
        <time>2013-10-10T17:52:35Z</time>
      </trkpt>
      <trkpt lat="-20.97122" lon="55.3278">
        <ele>190.2</ele>
        <time>2013-10-10T17:52:42Z</time>
      </trkpt>
      <trkpt lat="-20.9712" lon="55.3277">
        <ele>188.3</ele>
        <time>2013-10-10T17:52:50Z</time>
      </trkpt>
      <trkpt lat="-20.97117" lon="55.32761">
        <ele>188.6</ele>
        <time>2013-10-10T17:52:57Z</time>
      </trkpt>
      <trkpt lat="-20.97111" lon="55.32753">
        <ele>188.6</ele>
        <time>2013-10-10T17:53:04Z</time>
      </trkpt>
      <trkpt lat="-20.97105" lon="55.32745">
        <ele>187.7</ele>
        <time>2013-10-10T17:53:11Z</time>
      </trkpt>
      <trkpt lat="-20.97093" lon="55.32729">
        <ele>187</ele>
        <time>2013-10-10T17:53:25Z</time>
      </trkpt>
      <trkpt lat="-20.97088" lon="55.32721">
        <ele>187.9</ele>
        <time>2013-10-10T17:53:31Z</time>
      </trkpt>
      <trkpt lat="-20.97084" lon="55.32712">
        <ele>187.2</ele>
        <time>2013-10-10T17:53:39Z</time>
      </trkpt>
      <trkpt lat="-20.9708" lon="55.32704">
        <ele>188</ele>
        <time>2013-10-10T17:53:47Z</time>
      </trkpt>
      <trkpt lat="-20.97076" lon="55.32694">
        <ele>187.5</ele>
        <time>2013-10-10T17:53:55Z</time>
      </trkpt>
      <trkpt lat="-20.97076" lon="55.32684">
        <ele>188.1</ele>
        <time>2013-10-10T17:54:03Z</time>
      </trkpt>
      <trkpt lat="-20.97075" lon="55.32673">
        <ele>187.7</ele>
        <time>2013-10-10T17:54:10Z</time>
      </trkpt>
      <trkpt lat="-20.97075" lon="55.32663">
        <ele>187.8</ele>
        <time>2013-10-10T17:54:17Z</time>
      </trkpt>
      <trkpt lat="-20.97069" lon="55.32642">
        <ele>184.8</ele>
        <time>2013-10-10T17:54:32Z</time>
      </trkpt>
      <trkpt lat="-20.97062" lon="55.32636">
        <ele>184.7</ele>
        <time>2013-10-10T17:54:38Z</time>
      </trkpt>
      <trkpt lat="-20.97056" lon="55.32628">
        <ele>183.7</ele>
        <time>2013-10-10T17:54:45Z</time>
      </trkpt>
      <trkpt lat="-20.9705" lon="55.32619">
        <ele>183.5</ele>
        <time>2013-10-10T17:54:52Z</time>
      </trkpt>
      <trkpt lat="-20.97044" lon="55.3261">
        <ele>183.3</ele>
        <time>2013-10-10T17:54:58Z</time>
      </trkpt>
      <trkpt lat="-20.97039" lon="55.32601">
        <ele>183.2</ele>
        <time>2013-10-10T17:55:06Z</time>
      </trkpt>
      <trkpt lat="-20.97037" lon="55.32591">
        <ele>182.1</ele>
        <time>2013-10-10T17:55:15Z</time>
      </trkpt>
      <trkpt lat="-20.97037" lon="55.32581">
        <ele>181.7</ele>
        <time>2013-10-10T17:55:22Z</time>
      </trkpt>
      <trkpt lat="-20.97034" lon="55.32561">
        <ele>179.6</ele>
        <time>2013-10-10T17:55:38Z</time>
      </trkpt>
      <trkpt lat="-20.97031" lon="55.32551">
        <ele>179.7</ele>
        <time>2013-10-10T17:55:45Z</time>
      </trkpt>
      <trkpt lat="-20.97028" lon="55.32541">
        <ele>179.9</ele>
        <time>2013-10-10T17:55:51Z</time>
      </trkpt>
      <trkpt lat="-20.97027" lon="55.32531">
        <ele>179.2</ele>
        <time>2013-10-10T17:55:58Z</time>
      </trkpt>
      <trkpt lat="-20.97023" lon="55.32521">
        <ele>180.7</ele>
        <time>2013-10-10T17:56:05Z</time>
      </trkpt>
      <trkpt lat="-20.97017" lon="55.32513">
        <ele>180.8</ele>
        <time>2013-10-10T17:56:13Z</time>
      </trkpt>
      <trkpt lat="-20.97011" lon="55.32505">
        <ele>179.9</ele>
        <time>2013-10-10T17:56:22Z</time>
      </trkpt>
      <trkpt lat="-20.97006" lon="55.32497">
        <ele>180.1</ele>
        <time>2013-10-10T17:56:34Z</time>
      </trkpt>
      <trkpt lat="-20.96993" lon="55.32485">
        <ele>178.7</ele>
        <time>2013-10-10T17:56:59Z</time>
      </trkpt>
      <trkpt lat="-20.96985" lon="55.32481">
        <ele>179.6</ele>
        <time>2013-10-10T17:57:09Z</time>
      </trkpt>
      <trkpt lat="-20.96976" lon="55.32478">
        <ele>178.8</ele>
        <time>2013-10-10T17:57:16Z</time>
      </trkpt>
      <trkpt lat="-20.96967" lon="55.32476">
        <ele>180</ele>
        <time>2013-10-10T17:57:26Z</time>
      </trkpt>
      <trkpt lat="-20.96961" lon="55.32468">
        <ele>180.2</ele>
        <time>2013-10-10T17:57:34Z</time>
      </trkpt>
      <trkpt lat="-20.96955" lon="55.3246">
        <ele>179.6</ele>
        <time>2013-10-10T17:57:41Z</time>
      </trkpt>
      <trkpt lat="-20.96949" lon="55.32441">
        <ele>180.1</ele>
        <time>2013-10-10T17:57:56Z</time>
      </trkpt>
      <trkpt lat="-20.96946" lon="55.32431">
        <ele>180.4</ele>
        <time>2013-10-10T17:58:05Z</time>
      </trkpt>
      <trkpt lat="-20.96943" lon="55.32421">
        <ele>180.4</ele>
        <time>2013-10-10T17:58:12Z</time>
      </trkpt>
      <trkpt lat="-20.96938" lon="55.32413">
        <ele>179.7</ele>
        <time>2013-10-10T17:58:19Z</time>
      </trkpt>
      <trkpt lat="-20.96933" lon="55.32404">
        <ele>180.6</ele>
        <time>2013-10-10T17:58:26Z</time>
      </trkpt>
      <trkpt lat="-20.96926" lon="55.32397">
        <ele>180.1</ele>
        <time>2013-10-10T17:58:33Z</time>
      </trkpt>
      <trkpt lat="-20.9692" lon="55.32389">
        <ele>179.7</ele>
        <time>2013-10-10T17:58:40Z</time>
      </trkpt>
      <trkpt lat="-20.96914" lon="55.32381">
        <ele>179.3</ele>
        <time>2013-10-10T17:58:47Z</time>
      </trkpt>
      <trkpt lat="-20.96902" lon="55.32364">
        <ele>179.2</ele>
        <time>2013-10-10T17:59:02Z</time>
      </trkpt>
      <trkpt lat="-20.96895" lon="55.32357">
        <ele>179.3</ele>
        <time>2013-10-10T17:59:10Z</time>
      </trkpt>
      <trkpt lat="-20.9689" lon="55.32348">
        <ele>178.2</ele>
        <time>2013-10-10T17:59:18Z</time>
      </trkpt>
      <trkpt lat="-20.96891" lon="55.32337">
        <ele>178.3</ele>
        <time>2013-10-10T17:59:27Z</time>
      </trkpt>
      <trkpt lat="-20.9689" lon="55.32327">
        <ele>177.5</ele>
        <time>2013-10-10T17:59:35Z</time>
      </trkpt>
      <trkpt lat="-20.96889" lon="55.32316">
        <ele>177.2</ele>
        <time>2013-10-10T17:59:44Z</time>
      </trkpt>
      <trkpt lat="-20.96888" lon="55.32306">
        <ele>177.2</ele>
        <time>2013-10-10T17:59:53Z</time>
      </trkpt>
      <trkpt lat="-20.96887" lon="55.32285">
        <ele>177</ele>
        <time>2013-10-10T18:00:08Z</time>
      </trkpt>
      <trkpt lat="-20.96881" lon="55.32277">
        <ele>176.4</ele>
        <time>2013-10-10T18:00:15Z</time>
      </trkpt>
      <trkpt lat="-20.96872" lon="55.32274">
        <ele>177.5</ele>
        <time>2013-10-10T18:00:22Z</time>
      </trkpt>
      <trkpt lat="-20.96862" lon="55.32274">
        <ele>176.5</ele>
        <time>2013-10-10T18:00:28Z</time>
      </trkpt>
      <trkpt lat="-20.96853" lon="55.32272">
        <ele>176.3</ele>
        <time>2013-10-10T18:00:35Z</time>
      </trkpt>
      <trkpt lat="-20.96843" lon="55.32269">
        <ele>177.4</ele>
        <time>2013-10-10T18:00:42Z</time>
      </trkpt>
      <trkpt lat="-20.96835" lon="55.32265">
        <ele>176.4</ele>
        <time>2013-10-10T18:00:49Z</time>
      </trkpt>
      <trkpt lat="-20.96825" lon="55.32262">
        <ele>175.9</ele>
        <time>2013-10-10T18:00:56Z</time>
      </trkpt>
      <trkpt lat="-20.96806" lon="55.32263">
        <ele>175.7</ele>
        <time>2013-10-10T18:01:11Z</time>
      </trkpt>
      <trkpt lat="-20.96797" lon="55.32269">
        <ele>175.7</ele>
        <time>2013-10-10T18:01:19Z</time>
      </trkpt>
      <trkpt lat="-20.9679" lon="55.32275">
        <ele>176.7</ele>
        <time>2013-10-10T18:01:25Z</time>
      </trkpt>
      <trkpt lat="-20.96781" lon="55.32277">
        <ele>175.9</ele>
        <time>2013-10-10T18:01:31Z</time>
      </trkpt>
      <trkpt lat="-20.96772" lon="55.32272">
        <ele>177</ele>
        <time>2013-10-10T18:01:41Z</time>
      </trkpt>
      <trkpt lat="-20.96762" lon="55.32268">
        <ele>175.8</ele>
        <time>2013-10-10T18:01:51Z</time>
      </trkpt>
      <trkpt lat="-20.96755" lon="55.32262">
        <ele>175.5</ele>
        <time>2013-10-10T18:01:59Z</time>
      </trkpt>
      <trkpt lat="-20.96745" lon="55.32246">
        <ele>176</ele>
        <time>2013-10-10T18:02:26Z</time>
      </trkpt>
      <trkpt lat="-20.96735" lon="55.32247">
        <ele>175.5</ele>
        <time>2013-10-10T18:02:37Z</time>
      </trkpt>
      <trkpt lat="-20.96727" lon="55.32251">
        <ele>174.8</ele>
        <time>2013-10-10T18:02:44Z</time>
      </trkpt>
      <trkpt lat="-20.96717" lon="55.32251">
        <ele>174.9</ele>
        <time>2013-10-10T18:02:52Z</time>
      </trkpt>
      <trkpt lat="-20.96709" lon="55.32245">
        <ele>174.3</ele>
        <time>2013-10-10T18:03:00Z</time>
      </trkpt>
      <trkpt lat="-20.96703" lon="55.32225">
        <ele>174.1</ele>
        <time>2013-10-10T18:03:15Z</time>
      </trkpt>
      <trkpt lat="-20.96704" lon="55.32214">
        <ele>173.4</ele>
        <time>2013-10-10T18:03:23Z</time>
      </trkpt>
      <trkpt lat="-20.96705" lon="55.32205">
        <ele>172.9</ele>
        <time>2013-10-10T18:03:30Z</time>
      </trkpt>
      <trkpt lat="-20.96707" lon="55.32195">
        <ele>173.9</ele>
        <time>2013-10-10T18:03:36Z</time>
      </trkpt>
      <trkpt lat="-20.96709" lon="55.32185">
        <ele>172.7</ele>
        <time>2013-10-10T18:03:43Z</time>
      </trkpt>
      <trkpt lat="-20.96708" lon="55.32174">
        <ele>173.1</ele>
        <time>2013-10-10T18:03:50Z</time>
      </trkpt>
      <trkpt lat="-20.96702" lon="55.32165">
        <ele>172.3</ele>
        <time>2013-10-10T18:03:57Z</time>
      </trkpt>
      <trkpt lat="-20.96695" lon="55.32157">
        <ele>171.7</ele>
        <time>2013-10-10T18:04:03Z</time>
      </trkpt>
      <trkpt lat="-20.9668" lon="55.32144">
        <ele>172.5</ele>
        <time>2013-10-10T18:04:16Z</time>
      </trkpt>
      <trkpt lat="-20.96672" lon="55.3214">
        <ele>172.1</ele>
        <time>2013-10-10T18:04:22Z</time>
      </trkpt>
      <trkpt lat="-20.96663" lon="55.32136">
        <ele>171.8</ele>
        <time>2013-10-10T18:04:28Z</time>
      </trkpt>
      <trkpt lat="-20.96654" lon="55.32132">
        <ele>172.3</ele>
        <time>2013-10-10T18:04:36Z</time>
      </trkpt>
      <trkpt lat="-20.96645" lon="55.32129">
        <ele>172</ele>
        <time>2013-10-10T18:04:43Z</time>
      </trkpt>
      <trkpt lat="-20.96636" lon="55.32124">
        <ele>172.2</ele>
        <time>2013-10-10T18:04:50Z</time>
      </trkpt>
      <trkpt lat="-20.96629" lon="55.32118">
        <ele>171.9</ele>
        <time>2013-10-10T18:04:57Z</time>
      </trkpt>
      <trkpt lat="-20.96622" lon="55.32112">
        <ele>171.7</ele>
        <time>2013-10-10T18:05:03Z</time>
      </trkpt>
      <trkpt lat="-20.96615" lon="55.32105">
        <ele>171.4</ele>
        <time>2013-10-10T18:05:10Z</time>
      </trkpt>
      <trkpt lat="-20.966" lon="55.32091">
        <ele>172.7</ele>
        <time>2013-10-10T18:05:28Z</time>
      </trkpt>
      <trkpt lat="-20.96592" lon="55.32083">
        <ele>173.6</ele>
        <time>2013-10-10T18:05:39Z</time>
      </trkpt>
      <trkpt lat="-20.96585" lon="55.32076">
        <ele>174.9</ele>
        <time>2013-10-10T18:05:47Z</time>
      </trkpt>
      <trkpt lat="-20.96579" lon="55.32069">
        <ele>176.2</ele>
        <time>2013-10-10T18:05:55Z</time>
      </trkpt>
      <trkpt lat="-20.96572" lon="55.32062">
        <ele>177.3</ele>
        <time>2013-10-10T18:06:03Z</time>
      </trkpt>
      <trkpt lat="-20.96563" lon="55.32056">
        <ele>178.2</ele>
        <time>2013-10-10T18:06:12Z</time>
      </trkpt>
      <trkpt lat="-20.96545" lon="55.32061">
        <ele>179.4</ele>
        <time>2013-10-10T18:06:32Z</time>
      </trkpt>
      <trkpt lat="-20.96536" lon="55.32065">
        <ele>179</ele>
        <time>2013-10-10T18:06:39Z</time>
      </trkpt>
      <trkpt lat="-20.96528" lon="55.32069">
        <ele>178.5</ele>
        <time>2013-10-10T18:06:46Z</time>
      </trkpt>
      <trkpt lat="-20.96519" lon="55.32074">
        <ele>179</ele>
        <time>2013-10-10T18:06:55Z</time>
      </trkpt>
      <trkpt lat="-20.96511" lon="55.3208">
        <ele>178.8</ele>
        <time>2013-10-10T18:07:05Z</time>
      </trkpt>
      <trkpt lat="-20.96502" lon="55.32084">
        <ele>179.4</ele>
        <time>2013-10-10T18:07:39Z</time>
      </trkpt>
    </trkseg>
  </trk>
</gpx>